# Wetter Temperatur Luftdruck Luftfeuchtigkeit Sichtweite Windgeschwindigkeit Windrichtung Zeit
1 Haze 31 1010 58 3000 1.5 110 19:59 17.10.2019
2 Haze 31 1010 62 3000 2.6 40 19:39 17.10.2019
3 Haze 31 1010 62 3000 2.6 40 19:19 17.10.2019
4 Haze 31 1010 62 3000 3.6 40 18:58 17.10.2019
5 Smoke 31 1010 58 3000 1.5 200 18:38 17.10.2019
6 Smoke 31 1010 58 3000 1.5 200 18:19 17.10.2019
7 Haze 31 1010 62 3000 2.6 350 17:42 17.10.2019
8 Haze 31 1010 66 3000 3.1 350 17:23 17.10.2019
9 Haze 31 1010 66 3000 4.1 340 16:57 17.10.2019
10 Haze 31 1009 66 3000 3.6 330 16:38 17.10.2019
11 Haze 31 1009 66 3000 3.6 330 16:18 17.10.2019
12 Haze 32 1009 66 3000 4.1 340 15:55 17.10.2019
13 Smoke 32 1008 59 3500 4.1 330 15:37 17.10.2019
14 Smoke 33 1008 62 3500 3.1 320 15:19 17.10.2019
15 Smoke 32 1008 62 3500 3.1 320 14:43 17.10.2019
16 Smoke 33 1008 62 3500 3.1 320 14:24 17.10.2019
17 Smoke 33 1008 62 3500 3.1 320 14:24 17.10.2019
18 Smoke 33 1008 62 3500 3.1 320 14:24 17.10.2019
19 Smoke 33 1008 55 3500 3.6 300 13:57 17.10.2019
20 Smoke 33 1008 59 3500 3.6 270 13:39 17.10.2019
21 Smoke 33 1008 59 3500 3.6 270 13:19 17.10.2019
22 Smoke 33 1008 52 3500 5.1 270 12:43 17.10.2019
23 Smoke 34 1008 49 3500 4.6 290 12:21 17.10.2019
24 Smoke 34 1009 49 3500 5.1 280 11:59 17.10.2019
25 Smoke 35 1009 46 4000 5.1 270 11:41 17.10.2019
26 Smoke 35 1009 46 4000 5.1 270 11:41 17.10.2019
27 Smoke 35 1009 46 4000 5.1 270 11:20 17.10.2019
28 Smoke 34 1009 46 4000 4.1 290 10:57 17.10.2019
29 Smoke 35 1009 46 4000 3.1 330 10:39 17.10.2019
30 Smoke 35 1009 46 4000 3.1 330 10:19 17.10.2019
31 Smoke 35 1010 41 3000 2.6 110 09:55 17.10.2019
32 Smoke 35 1010 41 3000 3.1 140 09:36 17.10.2019
33 Smoke 35 1010 41 3000 3.1 140 09:18 17.10.2019
34 Smoke 35 1010 41 3000 3.1 140 09:18 17.10.2019
35 Smoke 35 1011 44 3000 3.6 120 08:46 17.10.2019
36 Smoke 34 1011 46 3000 2.1 130 08:26 17.10.2019
37 Smoke 34 1012 44 3000 1.5 100 07:56 17.10.2019
38 Smoke 34 1012 43 3000 1.5 130 07:38 17.10.2019
39 Smoke 34 1012 43 3000 1.5 130 07:19 17.10.2019
40 Smoke 32 1012 46 3000 3.1 80 06:40 17.10.2019
41 Smoke 32 1012 46 3000 3.1 80 06:21 17.10.2019
42 Smoke 31 1012 48 3000 4.1 90 05:58 17.10.2019
43 Smoke 30 1012 54 3000 3.6 80 05:32 17.10.2019
44 Smoke 31 1011 54 3000 2.6 100 04:57 17.10.2019
45 Smoke 30 1011 58 3000 2.1 140 03:55 17.10.2019
46 Smoke 28 1010 54 3000 1 130 02:53 17.10.2019
47 Smoke 29 1010 51 3000 0.5 120 01:55 17.10.2019
48 Smoke 30 1010 48 3000 3.1 50 00:41 17.10.2019
49 Smoke 30 1010 48 3000 3.1 50 00:20 17.10.2019
50 Smoke 30 1010 48 3000 3.1 50 00:20 17.10.2019
51 Smoke 30 1010 48 3000 3.1 40 23:42 16.10.2019
52 Smoke 30 1010 48 3000 2.1 50 23:21 16.10.2019
53 Smoke 30 1010 51 3000 2.6 30 22:57 16.10.2019
54 Smoke 30 1010 51 3000 1.5 50 22:38 16.10.2019
55 Smoke 30 1010 51 3000 1.5 50 22:19 16.10.2019
56 Smoke 30 1010 51 3000 1.5 50 22:19 16.10.2019
57 Smoke 30 1011 55 3000 2.6 40 21:58 16.10.2019
58 Smoke 30 1011 55 3000 2.1 70 21:38 16.10.2019
59 Smoke 30 1011 55 3000 2.1 70 21:20 16.10.2019
60 Smoke 30 1011 58 3000 3.1 90 20:58 16.10.2019
61 Smoke 31 1011 52 3000 2.1 140 20:40 16.10.2019
62 Smoke 31 1011 52 3000 2.1 140 20:21 16.10.2019
63 Smoke 31 1011 55 3000 1.5 30 19:59 16.10.2019
64 Smoke 31 1011 55 3000 2.6 60 19:39 16.10.2019
65 Smoke 31 1011 55 3000 2.6 60 19:39 16.10.2019
66 Smoke 31 1011 55 3000 2.6 60 19:21 16.10.2019
67 Smoke 31 1010 55 3000 1.5 30 18:55 16.10.2019
68 Smoke 32 1010 55 3000 2.6 40 18:36 16.10.2019
69 Smoke 32 1010 59 3000 3.1 10 18:18 16.10.2019
70 Smoke 32 1010 59 3000 3.1 10 17:54 16.10.2019
71 Smoke 32 1010 59 3000 3.1 10 17:54 16.10.2019
72 Smoke 31 1010 58 3000 3.1 340 17:36 16.10.2019
73 Smoke 31 1010 58 3000 3.1 340 17:18 16.10.2019
74 Smoke 32 1010 55 3000 3.6 40 16:43 16.10.2019
75 Smoke 32 1009 55 4000 4.1 340 16:21 16.10.2019
76 Smoke 34 1009 49 4000 3.6 330 15:58 16.10.2019
77 Smoke 34 1008 38 4000 3.6 30 15:39 16.10.2019
78 Smoke 34 1008 38 4000 3.6 30 15:19 16.10.2019
79 Smoke 34 1008 38 4000 3.6 30 15:19 16.10.2019
80 Smoke 34 1008 38 4000 3.6 30 14:58 16.10.2019
81 Smoke 35 1008 38 4000 3.6 30 14:39 16.10.2019
82 Smoke 35 1008 39 4000 2.6 10 14:20 16.10.2019
83 Smoke 35 1008 36 4000 4.1 50 13:57 16.10.2019
84 Smoke 35 1008 36 4000 4.1 50 13:39 16.10.2019
85 Smoke 35 1008 36 4000 5.1 70 13:20 16.10.2019
86 Smoke 35 1008 36 4000 6.2 80 12:42 16.10.2019
87 Smoke 36 1008 39 4000 5.1 60 12:20 16.10.2019
88 Smoke 35 1008 36 4000 2.6 70 11:45 16.10.2019
89 Smoke 36 1008 36 4000 2.6 70 11:45 16.10.2019
90 Smoke 36 1009 39 3000 3.6 50 11:19 16.10.2019
91 Smoke 36 1009 39 3000 4.6 110 10:56 16.10.2019
92 Smoke 36 1009 39 3000 4.6 110 10:36 16.10.2019
93 Smoke 35 1010 41 3000 4.1 110 10:18 16.10.2019
94 Smoke 35 1010 39 3000 5.1 110 09:40 16.10.2019
95 Smoke 35 1010 39 3000 5.1 110 09:40 16.10.2019
96 Smoke 35 1011 41 3000 5.7 120 09:21 16.10.2019
97 Smoke 35 1011 41 3000 5.1 90 08:46 16.10.2019
98 Smoke 34 1011 41 3000 4.6 120 08:26 16.10.2019
99 Smoke 34 1012 43 2500 5.1 90 07:59 16.10.2019
100 Smoke 34 1012 43 2500 5.1 90 07:41 16.10.2019
101 Smoke 33 1012 43 2500 3.6 90 07:22 16.10.2019
102 Smoke 33 1012 43 2500 4.1 100 06:47 16.10.2019
103 Smoke 32 1012 45 2500 4.1 70 06:28 16.10.2019
104 Smoke 30 1011 48 3000 2.6 70 04:25 16.10.2019
105 Smoke 29 1010 48 3000 3.1 70 02:51 16.10.2019
106 Smoke 28 1010 51 3000 1.5 0 01:20 16.10.2019
107 Smoke 28 1010 58 3000 2.968 58 00:59 16.10.2019
108 Smoke 28 1010 58 3000 2.968 58 00:40 16.10.2019
109 Smoke 29 1010 51 3000 2.386 63 23:58 15.10.2019
110 Smoke 29 1010 51 3000 2.386 63 23:38 15.10.2019
111 Smoke 30 1010 45 3000 2.386 63 23:19 15.10.2019
112 Smoke 30 1011 51 3000 2.1 210 22:55 15.10.2019
113 Smoke 30 1011 51 3000 2.1 210 22:55 15.10.2019
114 Smoke 30 1011 51 3000 2.1 210 22:37 15.10.2019
115 Smoke 30 1011 51 3000 2.386 63 22:18 15.10.2019
116 Smoke 30 1011 51 3000 2.1 40 21:54 15.10.2019
117 Smoke 30 1011 51 3000 2.1 40 21:54 15.10.2019
118 Smoke 30 1011 51 3000 2.1 40 21:36 15.10.2019
119 Smoke 30 1011 51 3000 2.1 40 21:36 15.10.2019
120 Smoke 31 1011 48 3000 2.6 60 21:18 15.10.2019
121 Smoke 31 1011 52 3000 3.6 90 20:54 15.10.2019
122 Smoke 31 1011 52 3000 3.6 90 20:54 15.10.2019
123 Smoke 31 1011 52 3000 3.6 90 20:54 15.10.2019
124 Smoke 30 1011 58 3000 2.267 94 20:36 15.10.2019
125 Smoke 30 1011 58 3000 2.267 94 20:18 15.10.2019
126 Smoke 31 1011 55 3000 2.267 94 19:41 15.10.2019
127 Smoke 31 1011 55 3000 2.267 94 19:41 15.10.2019
128 Smoke 32 1011 52 3000 3.1 40 19:20 15.10.2019
129 Smoke 32 1011 52 3000 3.1 40 19:20 15.10.2019
130 -273 0 0 0 0 0 18:57 15.10.2019
131 Smoke 32 1011 49 3000 1.5 80 18:39 15.10.2019
132 Smoke 31 1011 55 3000 2.1 100 18:20 15.10.2019
133 Smoke 31 1011 58 3000 2.6 10 17:43 15.10.2019
134 Smoke 31 1011 58 3000 2.6 10 17:43 15.10.2019
135 Smoke 32 1010 59 3000 2.6 350 17:21 15.10.2019
136 Smoke 33 1010 52 3000 3.1 10 16:59 15.10.2019
137 Smoke 33 1010 52 3000 3.1 10 16:41 15.10.2019
138 Smoke 33 1010 49 3000 3.1 340 16:21 15.10.2019
139 Smoke 34 1009 41 3000 2.6 20 15:56 15.10.2019
140 Smoke 34 1009 41 3000 2.6 20 15:38 15.10.2019
141 Smoke 34 1009 41 3500 3.6 10 15:19 15.10.2019
142 Smoke 35 1009 39 3500 3.6 40 14:55 15.10.2019
143 Smoke 35 1009 39 3500 3.6 40 14:36 15.10.2019
144 Smoke 35 1009 36 4000 3.6 50 14:18 15.10.2019
145 Smoke 36 1009 34 4000 4.1 290 13:43 15.10.2019
146 Smoke 36 1009 34 4000 4.1 290 13:43 15.10.2019
147 Smoke 36 1009 36 3500 2.829 358 13:20 15.10.2019
148 Smoke 36 1009 36 3500 2.829 358 13:20 15.10.2019
149 Smoke 36 1009 37 3500 2.1 180 12:56 15.10.2019
150 Smoke 36 1009 37 3500 2.1 180 12:56 15.10.2019
151 Smoke 36 1009 34 3000 3.6 100 12:38 15.10.2019
152 Smoke 36 1009 34 3000 3.6 100 12:19 15.10.2019
153 Smoke 36 1009 39 3000 2.1 70 11:42 15.10.2019
154 Smoke 36 1009 39 3000 2.1 70 11:42 15.10.2019
155 Smoke 36 1009 39 3500 3.6 120 11:20 15.10.2019
156 Smoke 36 1010 37 4000 3.1 100 10:55 15.10.2019
157 Smoke 36 1010 39 5000 6.2 80 10:37 15.10.2019
158 Smoke 36 1010 39 4000 4.1 110 10:18 15.10.2019
159 Smoke 36 1011 41 3000 4.6 90 09:41 15.10.2019
160 Smoke 36 1011 41 3000 4.6 90 09:21 15.10.2019
161 Smoke 36 1011 41 3000 4.6 90 09:21 15.10.2019
162 Smoke 35 1011 39 3000 5.1 110 08:58 15.10.2019
163 Smoke 35 1011 39 3000 5.1 110 08:58 15.10.2019
164 Smoke 35 1011 39 3000 5.1 110 08:58 15.10.2019
165 Smoke 35 1011 41 3000 5.7 130 08:40 15.10.2019
166 Smoke 35 1011 41 3000 5.7 130 08:20 15.10.2019
167 Smoke 35 1011 41 3000 5.7 130 08:19 15.10.2019
168 Smoke 34 1012 44 3000 5.7 70 07:43 15.10.2019
169 Smoke 34 1012 41 3000 5.7 90 07:23 15.10.2019
170 Smoke 34 1012 43 3000 4.6 90 06:57 15.10.2019
171 Smoke 33 1012 43 3000 4.6 90 06:39 15.10.2019
172 Smoke 33 1012 43 3000 3.6 110 05:56 15.10.2019
173 Smoke 33 1012 43 3000 3.6 110 05:36 15.10.2019
174 Smoke 31 1011 55 3000 2.1 130 04:49 15.10.2019
175 Smoke 30 1011 54 3000 2.1 120 04:19 15.10.2019
176 Smoke 30 1011 54 2500 2.6 40 03:35 15.10.2019
177 Smoke 29 1010 51 2500 5.62 83.851 01:57 15.10.2019
178 Smoke 29 1010 51 2500 5.62 83.851 01:39 15.10.2019
179 Smoke 29 1009 54 2500 1.5 0 00:59 15.10.2019
180 Smoke 30 1010 51 2500 2.1 60 00:25 15.10.2019
181 Smoke 30 1010 55 2500 3.1 50 23:59 14.10.2019
182 Smoke 30 1010 55 2500 3.1 50 23:37 14.10.2019
183 Smoke 30 1010 55 2500 3.1 50 23:37 14.10.2019
184 Haze 30 1010 58 2500 2.1 50 23:18 14.10.2019
185 Haze 30 1010 58 2500 1.5 60 22:39 14.10.2019
186 Haze 30 1010 58 2500 1.5 40 22:21 14.10.2019
187 Haze 30 1010 62 2500 27.8 40 21:58 14.10.2019
188 Haze 30 1010 66 2500 2.1 90 21:40 14.10.2019
189 Haze 30 1010 66 2500 2.1 90 21:21 14.10.2019
190 Haze 30 1010 70 3000 2.6 120 20:58 14.10.2019
191 Haze 30 1010 70 3000 2.6 120 20:38 14.10.2019
192 Haze 31 1011 58 2500 2.6 140 20:19 14.10.2019
193 Haze 31 1011 58 2500 1.5 90 19:55 14.10.2019
194 Haze 31 1011 58 2500 1.5 90 19:54 14.10.2019
195 Haze 31 1011 58 2500 1.5 90 19:36 14.10.2019
196 Haze 31 1011 62 2500 3.1 20 19:18 14.10.2019
197 Haze 31 1011 66 2500 3.1 30 18:54 14.10.2019
198 Haze 31 1011 66 2500 3.1 230 18:36 14.10.2019
199 Haze 31 1011 66 2500 3.1 230 18:18 14.10.2019
200 Haze 32 1011 62 2500 2.6 260 17:41 14.10.2019
201 Haze 32 1011 62 2500 2.6 270 17:22 14.10.2019
202 Haze 33 1010 59 2500 4.1 50 16:46 14.10.2019
203 Haze 33 1010 59 2500 4.1 50 16:23 14.10.2019
204 Haze 33 1010 62 2500 3.6 330 15:59 14.10.2019
205 Haze 33 1010 63 2500 1.5 0 15:40 14.10.2019
206 Haze 33 1010 63 2500 1.5 0 15:40 14.10.2019
207 Haze 33 1010 63 2500 1.5 0 15:21 14.10.2019
208 Smoke 33 1009 59 2500 3.1 320 14:44 14.10.2019
209 Smoke 34 1009 56 2500 3.6 320 14:25 14.10.2019
210 Smoke 34 1009 59 2500 4.6 310 13:57 14.10.2019
211 Smoke 33 1009 59 2500 4.6 310 13:39 14.10.2019
212 Smoke 33 1009 59 2500 4.6 310 13:20 14.10.2019
213 Smoke 33 1009 59 2500 4.6 310 13:20 14.10.2019
214 Smoke 34 1009 59 2500 4.6 320 12:41 14.10.2019
215 Smoke 35 1009 56 2500 3.6 300 12:21 14.10.2019
216 Smoke 35 1009 56 2500 5.1 270 11:55 14.10.2019
217 Smoke 35 1009 56 2500 5.7 270 11:36 14.10.2019
218 Smoke 35 1009 56 2500 5.7 270 11:18 14.10.2019
219 Smoke 35 1010 56 2500 5.1 290 10:44 14.10.2019
220 Smoke 35 1010 56 2500 5.1 290 10:44 14.10.2019
221 Smoke 35 1010 44 3000 2.1 70 10:21 14.10.2019
222 Smoke 35 1011 47 3000 2.6 100 09:59 14.10.2019
223 Smoke 35 1011 47 3000 2.6 100 09:59 14.10.2019
224 Smoke 36 1011 47 3000 3.6 120 09:38 14.10.2019
225 Smoke 36 1011 47 3000 3.6 120 09:38 14.10.2019
226 Smoke 36 1011 47 3000 3.6 120 09:20 14.10.2019
227 Smoke 35 1012 52 3000 3.6 100 08:48 14.10.2019
228 Smoke 34 1012 49 3000 3.1 140 08:23 14.10.2019
229 Smoke 34 1012 52 3000 4.1 80 07:44 14.10.2019
230 Haze 34 1013 52 2500 2.6 90 07:22 14.10.2019
231 Haze 33 1013 55 2500 3.1 70 06:55 14.10.2019
232 Haze 32 1013 62 2500 3.6 80 06:27 14.10.2019
233 Haze 31 1013 66 2500 3.1 80 05:52 14.10.2019
234 Haze 30 1012 74 2500 1.5 40 04:53 14.10.2019
235 Haze 28 1012 78 2500 2.1 130 03:49 14.10.2019
236 Haze 28 1011 78 2500 1.5 100 03:22 14.10.2019
237 Haze 28 1010 78 2500 1 130 01:52 14.10.2019
238 Haze 28 1010 78 2500 1.5 80 01:18 14.10.2019
239 Haze 28 1010 83 2500 2.6 80 00:40 14.10.2019
240 Haze 28 1010 83 2500 2.6 80 00:18 14.10.2019
241 Haze 29 1010 79 3000 3.1 120 23:40 13.10.2019
242 Haze 29 1010 79 3000 3.1 120 23:19 13.10.2019
243 Haze 30 1011 70 3000 3.46 54.891 22:55 13.10.2019
244 Haze 29 1011 79 3000 2.1 90 22:37 13.10.2019
245 Haze 29 1011 79 3000 2.1 90 22:19 13.10.2019
246 Haze 29 1011 74 3000 2.1 330 21:55 13.10.2019
247 Haze 30 1012 70 3000 3.46 54.891 21:36 13.10.2019
248 Haze 30 1012 70 3000 4.5 359.121 21:18 13.10.2019
249 Haze 30 1012 70 3000 4.5 359.121 21:18 13.10.2019
250 Haze 29 1012 74 3000 1.5 140 20:55 13.10.2019
251 Haze 29 1012 74 3000 2.1 150 20:37 13.10.2019
252 Haze 29 1012 74 3000 2.1 150 20:18 13.10.2019
253 Thunderstorm 29 1012 74 3000 3.6 110 19:54 13.10.2019
254 Thunderstorm 30 1013 74 3000 2.1 110 19:36 13.10.2019
255 Thunderstorm 30 1013 74 3000 2.1 110 19:18 13.10.2019
256 Haze 31 1012 70 3000 1.5 90 18:39 13.10.2019
257 Haze 31 1012 70 3000 1.5 90 18:20 13.10.2019
258 Haze 31 1012 70 3000 4.62 346.171 18:20 13.10.2019
259 Haze 31 1012 70 3000 4.62 346.171 17:59 13.10.2019
260 Haze 32 1011 62 3000 2.1 330 17:41 13.10.2019
261 Haze 32 1011 62 3000 2.1 330 17:22 13.10.2019
262 Haze 31 1011 70 3000 1.5 300 16:43 13.10.2019
263 Haze 32 1010 66 3000 3.1 330 16:19 13.10.2019
264 Haze 32 1010 66 3000 2.1 290 15:57 13.10.2019
265 Haze 32 1010 59 3000 3.1 270 15:39 13.10.2019
266 -273 0 0 0 0 0 15:20 13.10.2019
267 Haze 32 1010 59 3500 3.1 280 15:20 13.10.2019
268 Haze 32 1010 59 3500 3.1 280 14:58 13.10.2019
269 Haze 32 1010 62 3500 3.1 270 14:39 13.10.2019
270 Haze 32 1010 62 3500 3.1 270 14:20 13.10.2019
271 Haze 32 1009 62 3500 4.1 260 13:56 13.10.2019
272 Smoke 33 1009 59 3500 4.1 280 13:37 13.10.2019
273 Smoke 33 1009 59 3500 4.1 280 13:18 13.10.2019
274 Smoke 33 1008 59 3500 5.1 260 12:55 13.10.2019
275 Smoke 34 1008 59 3500 5.1 250 12:37 13.10.2019
276 Smoke 34 1008 59 3500 5.1 250 12:18 13.10.2019
277 Smoke 34 1009 56 3500 4.1 270 11:55 13.10.2019
278 Smoke 35 1009 56 3500 3.6 270 11:36 13.10.2019
279 Smoke 35 1009 56 3500 3.6 270 11:18 13.10.2019
280 Smoke 35 1010 50 3000 2.6 220 10:41 13.10.2019
281 Smoke 35 1010 50 3000 2.6 220 10:22 13.10.2019
282 Smoke 35 1010 47 3000 2.1 180 09:41 13.10.2019
283 Smoke 34 1011 52 3000 2.6 210 09:21 13.10.2019
284 Smoke 34 1011 49 3000 2.6 160 08:57 13.10.2019
285 Smoke 33 1012 52 2500 2.6 100 08:38 13.10.2019
286 Smoke 33 1012 52 2500 2.6 100 08:19 13.10.2019
287 Haze 33 1012 55 2500 2.6 110 07:46 13.10.2019
288 Haze 31 1012 62 2500 1.5 80 06:59 13.10.2019
289 Haze 30 1012 70 2500 1.5 120 06:40 13.10.2019
290 Haze 29 1012 70 2500 2.6 90 05:34 13.10.2019
291 Haze 28 1011 74 2500 2.1 40 04:46 13.10.2019
292 Haze 26 1011 78 2200 1.88 26.388 03:40 13.10.2019
293 Haze 26 1010 78 2500 1.5 140 02:39 13.10.2019
294 Haze 26 1010 78 2500 1.5 150 01:53 13.10.2019
295 Haze 26 1010 78 2500 1.5 120 01:26 13.10.2019
296 Haze 26 1010 78 2500 1.5 120 01:26 13.10.2019
297 Haze 26 1010 78 2500 2.6 120 00:46 13.10.2019
298 Haze 26 1010 78 2500 1.5 140 00:21 13.10.2019
299 Haze 26 1010 78 2500 1.5 110 23:56 12.10.2019
300 Haze 27 1010 74 2500 2.1 130 23:37 12.10.2019
301 Haze 27 1010 74 2500 2.1 130 23:19 12.10.2019
302 Haze 27 1010 74 2500 2.1 120 22:57 12.10.2019
303 Haze 27 1010 74 2500 2.1 140 22:38 12.10.2019
304 Haze 27 1010 74 2500 2.1 140 22:20 12.10.2019
305 Haze 27 1011 74 2500 1.5 130 21:54 12.10.2019
306 Haze 27 1011 74 2500 2.6 110 21:36 12.10.2019
307 Haze 27 1011 74 2500 2.6 110 21:18 12.10.2019
308 Haze 27 1011 74 2500 3.1 100 20:40 12.10.2019
309 Haze 27 1011 74 2500 3.1 100 20:22 12.10.2019
310 Haze 31 1011 69 2500 2.1 180 19:38 12.10.2019
311 Haze 31 1011 69 2500 2.1 180 19:20 12.10.2019
312 Haze 30 1011 69 2500 2.1 70 18:57 12.10.2019
313 Haze 30 1012 69 2500 3.1 70 18:38 12.10.2019
314 Haze 30 1012 69 2500 3.1 70 18:20 12.10.2019
315 Haze 29 1011 74 2500 4.1 90 17:43 12.10.2019
316 Haze 29 1011 74 2500 4.1 90 17:19 12.10.2019
317 Thunderstorm 29 1011 74 2500 4.18 339.381 16:54 12.10.2019
318 Thunderstorm 28 1010 78 2500 2.6 130 16:36 12.10.2019
319 Thunderstorm 28 1010 78 2500 2.6 130 16:36 12.10.2019
320 Thunderstorm 29 1010 78 2500 2.6 130 16:18 12.10.2019
321 Thunderstorm 30 1010 65 2200 4.1 110 15:43 12.10.2019
322 Thunderstorm 30 1010 65 2200 4.1 110 15:23 12.10.2019
323 Haze 31 1009 74 3000 3.6 300 14:43 12.10.2019
324 Haze 31 1009 66 3000 4.1 290 14:22 12.10.2019
325 Haze 32 1008 62 3000 3.1 310 13:58 12.10.2019
326 Haze 32 1008 66 2500 5.7 270 13:40 12.10.2019
327 Haze 32 1008 66 2500 5.7 270 13:40 12.10.2019
328 Haze 32 1008 66 2500 5.7 270 13:21 12.10.2019
329 Haze 32 1008 66 2500 4.1 280 12:39 12.10.2019
330 Haze 33 1008 66 2500 4.1 280 12:21 12.10.2019
331 Haze 33 1008 66 2500 4.6 270 11:58 12.10.2019
332 Haze 33 1008 66 2500 5.1 290 11:39 12.10.2019
333 Haze 34 1008 66 2500 5.1 290 11:20 12.10.2019
334 Haze 33 1009 70 2500 5.1 280 10:44 12.10.2019
335 Haze 34 1009 63 2500 4.6 290 10:24 12.10.2019
336 Smoke 34 1009 49 2500 3.1 250 09:58 12.10.2019
337 Smoke 34 1009 49 2500 3.1 250 09:58 12.10.2019
338 Smoke 34 1010 49 3000 2.1 120 09:39 12.10.2019
339 Smoke 34 1010 49 3000 2.1 120 09:21 12.10.2019
340 Smoke 34 1010 49 3000 4.1 100 08:57 12.10.2019
341 Smoke 34 1011 55 3000 4.1 110 08:38 12.10.2019
342 Smoke 33 1011 55 3000 4.1 110 08:20 12.10.2019
343 Haze 32 1011 62 2500 2.6 120 07:35 12.10.2019
344 Haze 32 1011 70 2500 2.6 90 06:56 12.10.2019
345 Haze 30 1011 79 2500 3.1 100 05:47 12.10.2019
346 Haze 29 1011 74 2500 3.1 100 05:23 12.10.2019
347 Haze 29 1010 83 2500 2.1 90 04:24 12.10.2019
348 Haze 29 1009 83 3000 2.1 90 03:31 12.10.2019
349 Haze 28 1008 83 3000 1.5 90 01:45 12.10.2019
350 Haze 28 1008 83 3000 2.6 100 01:21 12.10.2019
351 Haze 28 1008 83 3000 2.6 100 01:21 12.10.2019
352 Haze 28 1008 83 3000 2.1 110 00:42 12.10.2019
353 Haze 28 1008 83 3000 1.5 120 23:59 11.10.2019
354 Haze 28 1009 83 3000 1.5 110 23:40 11.10.2019
355 Haze 28 1009 83 3000 1.5 110 23:20 11.10.2019
356 Haze 28 1009 83 3500 2.1 120 22:41 11.10.2019
357 Haze 28 1009 83 3500 3.6 130 22:21 11.10.2019
358 Haze 29 1009 79 3500 3.1 110 21:58 11.10.2019
359 Haze 29 1010 79 4000 2.1 120 21:39 11.10.2019
360 Haze 29 1010 79 4000 2.1 120 21:21 11.10.2019
361 Haze 29 1010 79 4000 1.5 0 20:45 11.10.2019
362 Haze 29 1010 79 4000 1.5 0 20:27 11.10.2019
363 Haze 29 1010 79 4000 0.98 324.679 19:58 11.10.2019
364 Haze 30 1010 74 4000 1.5 0 19:39 11.10.2019
365 Haze 30 1010 74 4000 1.5 0 19:39 11.10.2019
366 Haze 30 1010 74 4000 2.1 70 19:18 11.10.2019
367 Haze 30 1010 74 4000 1.5 0 19:18 11.10.2019
368 Haze 30 1010 74 4000 2.1 70 19:18 11.10.2019
369 Haze 30 1010 74 4000 2.1 70 18:59 11.10.2019
370 Haze 30 1010 74 4000 2.1 70 18:59 11.10.2019
371 Haze 30 1010 74 4000 1.5 290 18:38 11.10.2019
372 Haze 30 1010 74 4000 1.5 290 18:19 11.10.2019
373 Haze 31 1009 66 3500 1.5 20 17:59 11.10.2019
374 Haze 30 1009 70 3500 2.1 300 17:38 11.10.2019
375 Haze 30 1009 70 3500 2.1 300 17:19 11.10.2019
376 Haze 30 1009 70 3500 3.1 270 16:58 11.10.2019
377 Haze 30 1008 70 4000 2.6 280 16:39 11.10.2019
378 Haze 30 1008 70 4000 2.6 280 16:19 11.10.2019
379 Haze 31 1008 70 4000 3.1 290 15:42 11.10.2019
380 Haze 31 1008 70 4000 3.6 280 15:22 11.10.2019
381 Haze 31 1008 62 4000 3.6 300 14:59 11.10.2019
382 Haze 31 1007 62 4000 4.1 280 14:40 11.10.2019
383 Haze 31 1007 62 4000 4.1 280 14:21 11.10.2019
384 Smoke 31 1008 55 5000 5.1 290 13:45 11.10.2019
385 Smoke 32 1007 62 4000 4.1 270 13:25 11.10.2019
386 Smoke 33 1007 59 4000 4.1 270 12:58 11.10.2019
387 Smoke 33 1007 55 4000 4.6 270 12:39 11.10.2019
388 Smoke 33 1007 55 4000 4.6 270 12:20 11.10.2019
389 Smoke 34 1008 55 4000 4.6 260 11:59 11.10.2019
390 Smoke 34 1008 55 4000 4.6 250 11:39 11.10.2019
391 Smoke 33 1008 55 4000 4.6 250 11:21 11.10.2019
392 Smoke 34 1008 55 4000 4.6 250 10:56 11.10.2019
393 Smoke 33 1009 55 4000 4.1 250 10:36 11.10.2019
394 Smoke 33 1009 55 4000 4.1 250 10:18 11.10.2019
395 Smoke 33 1010 49 4500 1.5 0 09:42 11.10.2019
396 Smoke 33 1010 49 4500 1.5 0 09:21 11.10.2019
397 Smoke 33 1010 49 4500 2.1 140 08:59 11.10.2019
398 Smoke 32 1011 55 4500 2.6 120 08:39 11.10.2019
399 Smoke 32 1011 55 4500 2.6 120 08:20 11.10.2019
400 Haze 32 1011 52 4000 2.6 160 07:54 11.10.2019
401 Haze 32 1011 55 4000 2.6 150 07:34 11.10.2019
402 Haze 31 1012 58 3000 2.1 130 06:50 11.10.2019
403 Haze 30 1012 66 3000 2.6 110 06:25 11.10.2019
404 Haze 29 1011 69 3000 3.1 100 05:48 11.10.2019
405 Haze 28 1011 78 3000 2.6 90 05:30 11.10.2019
406 Haze 27 1011 78 3000 2.1 100 04:58 11.10.2019
407 Haze 27 1010 88 2500 2.1 110 03:45 11.10.2019
408 Haze 27 1010 74 2500 2.1 140 01:28 11.10.2019
409 Haze 27 1009 78 2500 2.1 90 00:42 11.10.2019
410 Haze 27 1009 78 2500 2.1 90 00:20 11.10.2019
411 Haze 28 1009 78 2500 1.5 130 23:41 10.10.2019
412 Haze 28 1009 78 2500 1.5 130 23:20 10.10.2019
413 Haze 28 1010 78 2500 1.5 160 22:57 10.10.2019
414 Haze 28 1010 78 2500 2.1 180 22:37 10.10.2019
415 Haze 28 1010 78 2500 2.1 180 22:19 10.10.2019
416 Haze 28 1010 74 2500 2.6 160 21:54 10.10.2019
417 Haze 28 1010 74 2500 2.6 140 21:36 10.10.2019
418 Haze 30 1010 74 2500 2.6 140 21:18 10.10.2019
419 Haze 30 1011 83 2500 1.5 130 20:41 10.10.2019
420 Haze 30 1011 83 2500 1.5 130 20:20 10.10.2019
421 Haze 30 1011 83 2500 1.5 130 20:20 10.10.2019
422 Haze 30 1011 83 2500 1.5 130 20:20 10.10.2019
423 Haze 30 1010 83 2500 2.1 190 19:57 10.10.2019
424 Haze 30 1010 83 2500 1.5 120 19:39 10.10.2019
425 Haze 30 1010 83 2500 2.1 110 19:19 10.10.2019
426 Haze 28 1010 83 2500 2.1 110 18:54 10.10.2019
427 Haze 28 1010 83 2500 2.1 110 18:54 10.10.2019
428 Haze 28 1010 83 2500 2.1 110 18:54 10.10.2019
429 Haze 29 1010 79 2500 2.1 120 18:36 10.10.2019
430 Haze 31 1010 79 2500 2.1 120 18:18 10.10.2019
431 Haze 30 1010 70 3000 2.6 180 17:40 10.10.2019
432 Haze 30 1010 70 3000 2.6 180 17:20 10.10.2019
433 Haze 30 1009 70 3000 2.6 210 16:58 10.10.2019
434 Haze 30 1009 70 3000 1.5 0 16:39 10.10.2019
435 Haze 30 1009 70 3000 1.5 0 16:21 10.10.2019
436 Haze 30 1008 70 3000 3.1 140 15:43 10.10.2019
437 Haze 30 1008 70 3000 3.1 140 15:23 10.10.2019
438 Rain 31 1008 66 3500 5.1 110 14:59 10.10.2019
439 Haze 32 1008 70 4000 3.6 300 14:37 10.10.2019
440 Haze 32 1008 70 4000 3.6 300 14:37 10.10.2019
441 Haze 32 1008 70 4000 3.6 300 14:19 10.10.2019
442 Haze 32 1008 70 4000 3.6 300 14:19 10.10.2019
443 Haze 33 1007 66 4000 3.6 280 13:59 10.10.2019
444 Haze 33 1007 66 3500 4.1 270 13:39 10.10.2019
445 Haze 33 1007 66 3500 4.1 270 13:18 10.10.2019
446 Haze 33 1007 62 3500 4.6 290 13:18 10.10.2019
447 Haze 33 1007 62 3500 4.6 290 12:54 10.10.2019
448 Haze 33 1007 62 3500 4.1 280 12:36 10.10.2019
449 Haze 33 1007 62 3500 4.1 280 12:18 10.10.2019
450 Haze 33 1008 62 3500 5.1 280 11:41 10.10.2019
451 Haze 33 1008 66 3500 5.1 290 11:20 10.10.2019
452 Haze 33 1008 66 3500 5.1 290 11:20 10.10.2019
453 Haze 33 1009 63 3500 4.6 270 10:58 10.10.2019
454 Haze 33 1009 62 3500 4.1 250 10:40 10.10.2019
455 Haze 33 1009 62 3500 4.1 250 10:21 10.10.2019
456 Haze 34 1010 56 3000 4.1 210 09:41 10.10.2019
457 Haze 33 1009 66 3000 4.6 270 09:41 10.10.2019
458 Haze 33 1010 56 3000 4.1 210 09:23 10.10.2019
459 Haze 33 1010 49 3000 2.6 100 08:59 10.10.2019
460 Haze 33 1010 49 3000 2.6 100 08:41 10.10.2019
461 Haze 33 1010 59 3000 2.1 110 08:21 10.10.2019
462 Haze 32 1011 62 3000 1.5 60 07:57 10.10.2019
463 Haze 32 1011 62 3000 3.1 120 07:36 10.10.2019
464 Haze 31 1011 70 3000 3.1 70 07:18 10.10.2019
465 Haze 30 1011 74 3000 2.1 140 06:39 10.10.2019
466 Haze 29 1011 74 2500 1.5 130 05:56 10.10.2019
467 Haze 28 1011 74 2500 2.1 60 05:21 10.10.2019
468 Haze 28 1010 83 2500 2.1 60 04:36 10.10.2019
469 Haze 26 1009 88 2500 1.5 130 02:46 10.10.2019
470 Haze 26 1009 83 2500 2.1 140 01:39 10.10.2019
471 Haze 26 1009 83 2500 2.1 140 01:39 10.10.2019
472 Haze 26 1009 83 2500 2.1 140 01:21 10.10.2019
473 Haze 26 1009 83 2500 1.5 100 00:41 10.10.2019
474 Haze 27 1009 78 2500 1.5 40 23:57 09.10.2019
475 Haze 26 1009 83 2500 2.1 70 23:36 09.10.2019
476 Haze 26 1009 83 2500 2.1 70 23:18 09.10.2019
477 Haze 27 1009 78 2500 2.1 150 22:42 09.10.2019
478 Haze 27 1009 83 2500 1.5 60 22:22 09.10.2019
479 Haze 27 1009 78 2500 1.5 120 21:58 09.10.2019
480 Haze 27 1010 83 2500 2.1 110 21:39 09.10.2019
481 Haze 29 1010 83 2500 2.1 110 21:19 09.10.2019
482 Haze 29 1010 83 2500 3.6 110 20:55 09.10.2019
483 Haze 27 1010 78 2500 2.1 100 20:37 09.10.2019
484 Haze 29 1010 78 2500 2.1 100 20:18 09.10.2019
485 Drizzle 29 1010 74 2500 2.1 120 20:18 09.10.2019
486 Drizzle 27 1010 74 2500 2.1 120 19:45 09.10.2019
487 Thunderstorm 29 1010 83 2500 1.5 130 19:23 09.10.2019
488 Thunderstorm 29 1010 83 2500 2.6 110 18:57 09.10.2019
489 Thunderstorm 29 1011 83 2500 4.6 80 18:37 09.10.2019
490 Thunderstorm 29 1011 83 2500 4.6 80 18:18 09.10.2019
491 Haze 29 1010 83 2500 3.1 110 17:54 09.10.2019
492 Haze 29 1010 78 2500 3.6 100 17:36 09.10.2019
493 Haze 29 1010 78 2500 3.6 100 17:18 09.10.2019
494 Thunderstorm 29 1009 78 2500 2.6 150 16:40 09.10.2019
495 Thunderstorm 29 1009 78 2500 2.6 150 16:21 09.10.2019
496 Thunderstorm 29 1009 78 2500 2.6 150 16:21 09.10.2019
497 Thunderstorm 30 1009 69 2500 3.1 160 15:57 09.10.2019
498 Thunderstorm 30 1009 69 2500 3.1 160 15:57 09.10.2019
499 Thunderstorm 30 1009 69 2500 5.1 110 15:39 09.10.2019
500 Thunderstorm 30 1009 69 2500 5.1 110 15:19 09.10.2019
501 Haze 30 1008 58 3000 4.1 110 14:56 09.10.2019
502 Haze 31 1008 66 3500 2.6 70 14:37 09.10.2019
503 Haze 32 1007 70 4000 4.6 280 14:18 09.10.2019
504 Haze 32 1007 70 4000 4.6 280 14:18 09.10.2019
505 Haze 32 1007 66 4000 4.6 280 13:39 09.10.2019
506 Haze 32 1007 66 4000 4.6 280 13:21 09.10.2019
507 Haze 33 1007 62 4000 4.6 280 12:58 09.10.2019
508 Haze 33 1007 66 4000 5.7 270 12:40 09.10.2019
509 Haze 33 1007 66 4000 5.7 270 12:21 09.10.2019
510 Haze 33 1007 66 4000 3.6 270 11:55 09.10.2019
511 Haze 33 1008 66 4000 4.1 280 11:36 09.10.2019
512 Haze 33 1008 66 4000 4.1 280 11:18 09.10.2019
513 Haze 33 1008 62 4000 4.6 270 10:43 09.10.2019
514 Haze 33 1009 62 4000 3.6 260 10:21 09.10.2019
515 Haze 33 1009 66 4000 3.6 270 09:57 09.10.2019
516 Haze 33 1009 66 4000 3.6 270 09:57 09.10.2019
517 Haze 33 1010 62 4000 3.6 240 09:38 09.10.2019
518 Haze 33 1010 62 4000 3.6 240 09:18 09.10.2019
519 Haze 32 1011 62 3000 1.5 210 08:40 09.10.2019
520 Haze 33 1011 62 3000 1.5 210 08:21 09.10.2019
521 Haze 33 1011 62 3000 3.17 106.375 07:54 09.10.2019
522 Haze 32 1011 62 3000 3.17 106.375 07:36 09.10.2019
523 Haze 31 1011 70 3000 2.6 250 07:18 09.10.2019
524 Haze 31 1011 70 3000 2.6 250 06:47 09.10.2019
525 Haze 29 1011 74 3000 1.5 190 05:55 09.10.2019
526 Mist 28 1011 74 3000 3.29 85.011 05:23 09.10.2019
527 Mist 29 1011 78 3000 3.1 120 04:20 09.10.2019
528 Haze 26 1009 83 3000 4.91 34.913 02:45 09.10.2019
529 Haze 27 1009 78 3000 2.1 30 01:43 09.10.2019
530 Haze 26 1008 88 3000 1.5 130 01:19 09.10.2019
531 Haze 26 1008 88 3000 1.5 130 00:56 09.10.2019
532 Haze 28 1008 88 3000 2.6 110 00:38 09.10.2019
533 Haze 28 1008 88 3000 2.6 110 00:38 09.10.2019
534 Haze 28 1008 88 3000 2.6 110 00:19 09.10.2019
535 Haze 28 1009 83 3000 2.1 70 23:39 08.10.2019
536 Haze 28 1009 83 3000 2.1 70 23:18 08.10.2019
537 Haze 26 1009 83 3000 1.5 70 22:56 08.10.2019
538 Thunderstorm 28 1009 83 3000 2.1 100 22:38 08.10.2019
539 Thunderstorm 26 1009 83 3000 2.1 100 22:19 08.10.2019
540 Thunderstorm 28 1010 83 3000 3.6 100 21:57 08.10.2019
541 Thunderstorm 26 1010 83 3000 3.1 130 21:38 08.10.2019
542 Thunderstorm 28 1010 83 3000 3.1 130 21:19 08.10.2019
543 Thunderstorm 29 1011 88 3000 2.1 140 20:56 08.10.2019
544 Thunderstorm 28 1011 88 3000 2.1 120 20:37 08.10.2019
545 Thunderstorm 28 1011 88 3000 2.1 120 20:19 08.10.2019
546 Thunderstorm 28 1011 88 2500 2.1 70 19:56 08.10.2019
547 Thunderstorm 28 1011 78 2200 5.1 80 19:37 08.10.2019
548 Thunderstorm 28 1011 78 2200 5.1 80 19:18 08.10.2019
549 Thunderstorm 29 1012 65 2200 7.7 110 18:46 08.10.2019
550 Thunderstorm 31 1011 74 2500 3.1 80 18:25 08.10.2019
551 Thunderstorm 31 1010 74 2500 6.74 355.837 17:58 08.10.2019
552 Thunderstorm 32 1010 70 3000 2.6 250 17:39 08.10.2019
553 Thunderstorm 32 1010 70 3000 2.6 250 17:39 08.10.2019
554 Thunderstorm 32 1010 70 3000 2.6 250 17:20 08.10.2019
555 Thunderstorm 32 1010 70 3000 3.1 210 16:56 08.10.2019
556 Thunderstorm 32 1010 70 3000 3.1 210 16:56 08.10.2019
557 Thunderstorm 31 1009 66 3000 2.1 320 16:37 08.10.2019
558 Thunderstorm 31 1009 66 3000 2.1 320 16:19 08.10.2019
559 Thunderstorm 32 1009 62 3500 3.6 300 15:40 08.10.2019
560 Thunderstorm 32 1009 62 3500 3.6 300 15:20 08.10.2019
561 Haze 32 1008 66 4000 3.1 340 14:57 08.10.2019
562 Haze 32 1007 66 4000 4.1 310 14:38 08.10.2019
563 Haze 32 1007 66 4000 4.1 310 14:38 08.10.2019
564 Haze 32 1007 66 4000 4.1 310 14:20 08.10.2019
565 Haze 33 1007 70 4000 5.1 300 13:55 08.10.2019
566 Haze 33 1007 70 4000 5.1 300 13:55 08.10.2019
567 Haze 33 1007 66 4000 4.6 290 13:37 08.10.2019
568 Haze 33 1007 66 4000 4.6 290 13:18 08.10.2019
569 Haze 33 1007 66 4000 4.6 290 12:41 08.10.2019
570 Haze 34 1007 66 4000 4.6 280 12:21 08.10.2019
571 -273 0 0 0 0 0 11:59 08.10.2019
572 Haze 34 1008 70 2500 4.1 280 11:40 08.10.2019
573 Haze 34 1008 70 2500 4.1 280 11:21 08.10.2019
574 Haze 34 1008 66 2500 6.2 250 10:55 08.10.2019
575 Haze 34 1009 66 2500 2.6 270 10:36 08.10.2019
576 Haze 34 1009 66 2500 2.6 270 10:18 08.10.2019
577 Haze 34 1010 63 2500 3.1 270 09:41 08.10.2019
578 Haze 34 1010 63 2500 3.1 270 09:22 08.10.2019
579 Haze 33 1010 66 2500 3.1 250 08:54 08.10.2019
580 Haze 34 1011 63 2500 2.6 200 08:36 08.10.2019
581 Haze 33 1011 63 2500 2.6 200 08:18 08.10.2019
582 Haze 33 1012 63 2500 2.6 150 07:41 08.10.2019
583 Haze 32 1012 66 2500 1.5 30 07:19 08.10.2019
584 Haze 32 1012 66 2500 1.5 30 06:46 08.10.2019
585 Haze 31 1012 70 2500 2.1 10 06:23 08.10.2019
586 Haze 29 1012 79 1600 1.5 140 05:44 08.10.2019
587 Haze 29 1012 79 1600 1.5 140 05:21 08.10.2019
588 Haze 29 1012 79 1600 1.5 140 05:21 08.10.2019
589 Mist 28 1010 83 1500 5.2 24.585 03:32 08.10.2019
590 Mist 28 1009 88 1500 2.6 50 02:44 08.10.2019
591 Mist 28 1009 88 1500 2.6 50 02:25 08.10.2019
592 Mist 28 1009 88 1500 2.6 80 01:42 08.10.2019
593 Mist 28 1009 88 2500 2.1 110 00:57 08.10.2019
594 Mist 28 1009 83 2500 2.6 70 00:25 08.10.2019
595 Mist 29 1009 79 2500 2.1 30 23:58 07.10.2019
596 Mist 29 1009 83 2500 2.6 30 23:38 07.10.2019
597 Mist 29 1009 83 2500 2.6 30 23:19 07.10.2019
598 Mist 29 1009 83 2500 2.6 30 23:19 07.10.2019
599 Mist 29 1010 83 2500 2.1 80 22:55 07.10.2019
600 Haze 29 1010 83 2500 2.1 10 22:37 07.10.2019
601 Haze 29 1010 83 2500 2.1 10 22:18 07.10.2019
602 Haze 29 1010 83 2500 2.1 350 21:54 07.10.2019
603 Haze 29 1011 79 2500 1.5 330 21:36 07.10.2019
604 Haze 29 1011 79 2500 1.5 330 21:36 07.10.2019
605 Haze 29 1011 79 2500 1.5 330 21:18 07.10.2019
606 Haze 29 1011 83 2500 5.92 353.551 20:56 07.10.2019
607 Haze 29 1011 83 2500 5.92 353.551 20:56 07.10.2019
608 Haze 29 1011 83 2500 2.1 80 20:37 07.10.2019
609 Haze 29 1011 83 2500 2.1 80 20:18 07.10.2019
610 Haze 30 1011 79 2100 1.5 20 19:42 07.10.2019
611 Haze 30 1011 79 2100 1.5 20 19:21 07.10.2019
612 Haze 30 1011 79 2500 2.1 20 18:59 07.10.2019
613 Haze 30 1011 79 2500 2.1 350 18:41 07.10.2019
614 Haze 30 1011 74 2500 3.1 330 18:19 07.10.2019
615 Haze 30 1011 74 2500 3.1 330 17:58 07.10.2019
616 Haze 31 1011 70 2500 3.1 350 17:40 07.10.2019
617 Haze 31 1011 70 2500 3.1 350 17:18 07.10.2019
618 Thunderstorm 30 1011 74 2500 3.6 350 16:44 07.10.2019
619 Thunderstorm 31 1010 70 2500 3.6 330 16:26 07.10.2019
620 Thunderstorm 31 1010 70 2500 3.6 320 15:57 07.10.2019
621 Haze 31 1010 70 2500 4.1 300 15:38 07.10.2019
622 Haze 31 1010 70 2500 4.1 300 15:20 07.10.2019
623 Haze 31 1009 70 3000 4.1 300 14:41 07.10.2019
624 Haze 32 1009 62 3000 4.6 320 14:23 07.10.2019
625 Haze 32 1009 66 3000 5.1 300 13:45 07.10.2019
626 Haze 32 1009 66 3000 5.1 300 13:21 07.10.2019
627 Haze 33 1008 63 3000 5.1 230 12:58 07.10.2019
628 Haze 33 1008 63 3000 5.1 230 12:58 07.10.2019
629 Haze 33 1008 66 3000 5.7 300 12:40 07.10.2019
630 Haze 33 1008 66 3000 5.7 300 12:21 07.10.2019
631 Haze 33 1009 62 3000 3.6 310 11:59 07.10.2019
632 Haze 33 1009 62 3000 3.6 310 11:40 07.10.2019
633 Haze 33 1009 62 3000 3.6 310 11:21 07.10.2019
634 Haze 33 1010 62 3000 5.1 300 10:56 07.10.2019
635 Haze 33 1010 66 3000 5.1 280 10:37 07.10.2019
636 Haze 33 1010 66 3000 5.1 280 10:37 07.10.2019
637 Haze 34 1010 66 3000 5.1 280 10:19 07.10.2019
638 Haze 33 1011 62 3000 4.1 270 09:38 07.10.2019
639 Haze 33 1011 62 3000 4.1 270 09:20 07.10.2019
640 Haze 33 1012 62 3000 4.1 280 08:44 07.10.2019
641 Haze 33 1012 66 3000 2.6 260 08:21 07.10.2019
642 Haze 33 1012 59 3000 1.5 0 07:55 07.10.2019
643 Haze 33 1013 59 2500 2.1 320 07:36 07.10.2019
644 Haze 33 1013 59 2500 2.1 320 07:18 07.10.2019
645 Haze 32 1013 62 2500 2.6 330 06:43 07.10.2019
646 Haze 32 1013 62 2500 2.6 40 06:20 07.10.2019
647 Haze 29 1012 74 2200 2.1 110 05:27 07.10.2019
648 Haze 30 1012 74 2200 1 0 04:54 07.10.2019
649 Haze 29 1011 74 2100 2.86 5.258 03:48 07.10.2019
650 Haze 29 1011 74 1900 1.5 130 03:30 07.10.2019
651 Haze 27 1010 83 2200 1.5 0 02:53 07.10.2019
652 Mist 27 1010 83 2200 1.5 190 02:19 07.10.2019
653 Mist 27 1010 88 2200 2.6 140 01:24 07.10.2019
654 Mist 27 1010 83 2200 2.1 130 00:53 07.10.2019
655 Mist 28 1010 83 2500 4.27 345.769 00:26 07.10.2019
656 Mist 28 1010 78 2500 2.1 120 23:59 06.10.2019
657 Mist 28 1010 83 2500 1.5 90 23:40 06.10.2019
658 Mist 28 1010 83 2500 1.5 90 23:20 06.10.2019
659 Mist 28 1010 83 2500 2.1 60 22:57 06.10.2019
660 Mist 28 1011 83 3000 2.1 80 22:39 06.10.2019
661 Mist 28 1011 83 3000 2.1 80 22:20 06.10.2019
662 Mist 28 1011 83 3000 2.1 90 21:55 06.10.2019
663 Mist 29 1011 79 3000 3.6 100 21:37 06.10.2019
664 Mist 29 1011 79 3000 3.6 100 21:19 06.10.2019
665 Haze 29 1011 79 3000 3.1 130 20:56 06.10.2019
666 Haze 29 1011 79 3000 1.5 340 20:38 06.10.2019
667 Haze 29 1011 79 3000 1.5 340 20:38 06.10.2019
668 Haze 29 1011 79 3000 1.5 340 20:19 06.10.2019
669 Haze 29 1011 79 3000 1.5 340 20:19 06.10.2019
670 Haze 29 1011 79 3000 2.1 340 19:56 06.10.2019
671 Haze 30 1011 74 3000 2.6 300 19:37 06.10.2019
672 Haze 30 1011 74 3000 2.1 320 19:18 06.10.2019
673 -273 0 0 0 0 0 18:55 06.10.2019
674 Haze 30 1011 74 3000 2.1 350 18:37 06.10.2019
675 Haze 30 1011 74 3000 2.1 350 18:18 06.10.2019
676 Haze 30 1011 74 3000 2.6 310 17:43 06.10.2019
677 Haze 30 1010 74 3000 2.1 320 17:20 06.10.2019
678 Haze 30 1010 74 3000 2.6 300 16:56 06.10.2019
679 Haze 30 1010 74 3000 3.1 340 16:38 06.10.2019
680 Haze 30 1010 74 3000 3.1 340 16:19 06.10.2019
681 Haze 31 1009 70 3000 2.1 280 15:43 06.10.2019
682 Haze 31 1009 74 3500 2.6 260 15:22 06.10.2019
683 Haze 31 1008 70 3500 3.6 260 14:57 06.10.2019
684 Haze 31 1008 66 3500 4.6 260 14:39 06.10.2019
685 Haze 31 1008 66 3500 4.6 260 14:20 06.10.2019
686 Haze 32 1008 66 3500 4.6 270 13:54 06.10.2019
687 Smoke 33 1008 62 3500 5.1 260 13:36 06.10.2019
688 Smoke 33 1008 62 3500 5.1 260 13:18 06.10.2019
689 Smoke 33 1008 62 3500 6.2 250 12:55 06.10.2019
690 Smoke 33 1008 62 3500 6.2 250 12:54 06.10.2019
691 Smoke 33 1008 62 3500 5.1 270 12:36 06.10.2019
692 Smoke 33 1008 62 3500 5.1 270 12:36 06.10.2019
693 Smoke 33 1008 62 3500 4.6 240 12:18 06.10.2019
694 Smoke 33 1009 62 3500 5.7 240 11:42 06.10.2019
695 Smoke 33 1009 62 3500 5.7 240 11:24 06.10.2019
696 Smoke 33 1009 55 4000 1.5 220 10:56 06.10.2019
697 Smoke 33 1009 55 4000 3.6 170 10:37 06.10.2019
698 Smoke 33 1009 55 4000 3.6 170 10:19 06.10.2019
699 Smoke 33 1010 55 4000 2.6 130 09:41 06.10.2019
700 Smoke 33 1010 55 4000 2.6 130 09:19 06.10.2019
701 Smoke 33 1010 55 4000 2.6 130 09:19 06.10.2019
702 Smoke 32 1011 59 4000 2.1 140 08:49 06.10.2019
703 Haze 32 1011 59 4000 3.1 180 08:24 06.10.2019
704 Haze 32 1012 59 3500 1.5 190 07:58 06.10.2019
705 Haze 32 1012 59 3500 1.5 140 07:40 06.10.2019
706 Haze 31 1012 66 3000 2.6 130 06:53 06.10.2019
707 Haze 28 1012 74 3000 1.5 150 05:41 06.10.2019
708 Mist 27 1011 83 2500 2.1 150 04:40 06.10.2019
709 Mist 25 1010 88 2500 2.1 120 02:56 06.10.2019
710 Mist 26 1010 83 2500 2.1 100 02:32 06.10.2019
711 Mist 26 1009 83 2500 1.5 80 01:49 06.10.2019
712 Mist 26 1009 83 2500 1.5 100 01:30 06.10.2019
713 Mist 26 1009 83 2500 1.5 100 01:30 06.10.2019
714 Haze 26 1009 83 2500 2.1 90 00:59 06.10.2019
715 Haze 26 1009 83 2500 2.1 110 00:36 06.10.2019
716 Haze 26 1009 83 2500 2.1 110 00:18 06.10.2019
717 Haze 26 1009 83 3000 2.6 110 23:41 05.10.2019
718 Haze 26 1009 83 3000 2.6 110 23:19 05.10.2019
719 Haze 26 1010 83 3000 2.6 110 22:55 05.10.2019
720 Haze 26 1010 83 3000 2.6 130 22:36 05.10.2019
721 Haze 26 1010 83 3000 2.6 130 22:18 05.10.2019
722 Haze 27 1010 78 3000 2.6 130 21:41 05.10.2019
723 Haze 27 1010 78 3000 2.6 130 21:41 05.10.2019
724 Haze 29 1010 78 3000 1.5 100 21:22 05.10.2019
725 Haze 29 1010 74 3000 1 0 20:57 05.10.2019
726 Thunderstorm 29 1010 74 3000 4.83 335.183 20:39 05.10.2019
727 Thunderstorm 27 1010 74 3000 4.83 335.183 20:19 05.10.2019
728 Haze 27 1010 74 3000 2.1 130 19:56 05.10.2019
729 Haze 29 1011 83 3000 2.1 130 19:36 05.10.2019
730 Haze 29 1011 83 3000 2.1 130 19:18 05.10.2019
731 Thunderstorm 29 1011 83 3000 2.1 130 18:54 05.10.2019
732 Thunderstorm 29 1011 78 3000 3.1 80 18:36 05.10.2019
733 Thunderstorm 29 1011 78 3000 3.1 80 18:18 05.10.2019
734 Thunderstorm 29 1011 78 3000 3.1 80 18:18 05.10.2019
735 Thunderstorm 30 1011 69 3000 3.6 60 17:41 05.10.2019
736 Thunderstorm 29 1010 74 3000 3.6 70 17:21 05.10.2019
737 Thunderstorm 29 1010 69 3000 1 0 16:55 05.10.2019
738 Thunderstorm 30 1009 69 3000 3.6 100 16:36 05.10.2019
739 Thunderstorm 30 1009 69 3000 3.6 100 16:18 05.10.2019
740 Thunderstorm 30 1009 69 3500 7.7 80 15:55 05.10.2019
741 Haze 31 1009 74 4000 3.1 330 15:37 05.10.2019
742 Haze 31 1009 74 4000 3.1 330 15:18 05.10.2019
743 Haze 31 1008 79 4000 3.1 310 14:41 05.10.2019
744 Haze 31 1007 74 4000 5.1 280 14:22 05.10.2019
745 Haze 32 1007 70 4000 4.6 300 13:44 05.10.2019
746 Haze 32 1007 70 4000 6.2 290 13:26 05.10.2019
747 Haze 32 1007 70 4000 4.6 300 12:58 05.10.2019
748 Haze 32 1007 70 4000 5.7 280 12:40 05.10.2019
749 Haze 33 1007 70 4000 5.7 280 12:19 05.10.2019
750 Haze 33 1008 70 4000 5.7 280 11:39 05.10.2019
751 Haze 33 1008 70 4000 5.7 280 11:20 05.10.2019
752 Haze 33 1008 70 4000 6.7 260 10:57 05.10.2019
753 Haze 33 1009 70 4000 6.2 260 10:38 05.10.2019
754 Haze 33 1009 70 4000 6.2 260 10:38 05.10.2019
755 Haze 33 1009 70 4000 6.2 260 10:19 05.10.2019
756 Haze 33 1009 70 4000 6.2 260 10:19 05.10.2019
757 Haze 32 1010 62 4000 3.1 290 09:40 05.10.2019
758 Haze 32 1010 62 4000 3.1 290 09:22 05.10.2019
759 Haze 32 1010 59 4000 3.22 22.426 08:42 05.10.2019
760 Haze 32 1011 62 4000 3.1 340 08:23 05.10.2019
761 Haze 32 1011 62 3500 3.1 130 07:59 05.10.2019
762 Haze 32 1011 62 3500 3.1 130 07:59 05.10.2019
763 Haze 31 1012 70 3500 2.6 50 07:39 05.10.2019
764 Haze 31 1012 70 3500 2.6 50 07:39 05.10.2019
765 Haze 31 1012 70 3000 2.6 30 07:20 05.10.2019
766 Haze 31 1012 70 3000 2.6 30 06:52 05.10.2019
767 Haze 30 1012 70 3000 3.1 60 06:20 05.10.2019
768 Haze 27 1011 78 3000 2.1 80 04:46 05.10.2019
769 Haze 26 1010 83 3000 3.97 346.791 03:31 05.10.2019
770 Thunderstorm 26 1010 83 3000 3.97 346.791 02:25 05.10.2019
771 Thunderstorm 26 1009 83 3000 1.5 60 01:25 05.10.2019
772 Haze 26 1009 83 3000 3.6 70 00:47 05.10.2019
773 Haze 26 1009 83 3000 2.6 90 00:27 05.10.2019
774 Haze 26 1009 83 3000 1.5 80 23:55 04.10.2019
775 Haze 27 1009 78 3000 1 0 23:37 04.10.2019
776 Haze 27 1009 78 3000 1 0 23:18 04.10.2019
777 Haze 27 1010 78 3000 1 0 22:41 04.10.2019
778 Haze 27 1010 78 3000 1 0 22:23 04.10.2019
779 Haze 27 1010 78 3000 2.1 130 21:58 04.10.2019
780 Haze 27 1010 78 3000 2.1 130 21:58 04.10.2019
781 Haze 28 1010 74 3000 2.1 70 21:39 04.10.2019
782 Haze 28 1010 74 3000 2.1 70 21:21 04.10.2019
783 Haze 28 1010 78 3000 1.5 60 20:57 04.10.2019
784 Haze 28 1011 74 3000 4.97 328.765 20:39 04.10.2019
785 Haze 28 1011 74 3000 4.97 328.765 20:21 04.10.2019
786 Haze 28 1011 74 3000 2.1 130 19:55 04.10.2019
787 Haze 28 1011 74 3000 1.5 90 19:37 04.10.2019
788 Haze 28 1011 74 3000 1.5 90 19:18 04.10.2019
789 Haze 28 1011 74 3000 2.6 100 18:39 04.10.2019
790 Haze 28 1011 74 3000 2.6 100 18:19 04.10.2019
791 Haze 28 1011 74 3000 2.1 120 17:58 04.10.2019
792 Haze 28 1011 78 3000 1.5 90 17:39 04.10.2019
793 Haze 28 1011 78 3000 1.5 90 17:20 04.10.2019
794 Haze 28 1010 74 3000 3.1 100 16:55 04.10.2019
795 Haze 28 1010 74 3000 3.1 100 16:55 04.10.2019
796 Haze 28 1010 74 3000 3.1 100 16:55 04.10.2019
797 Haze 29 1010 74 3000 3.1 120 16:37 04.10.2019
798 Haze 29 1010 74 3000 3.1 120 16:18 04.10.2019
799 Haze 31 1010 74 3000 2.1 360 15:55 04.10.2019
800 Haze 31 1010 74 3000 3.1 320 15:37 04.10.2019
801 Haze 31 1010 74 3000 3.1 320 15:37 04.10.2019
802 Haze 31 1010 74 3000 3.1 320 15:18 04.10.2019
803 Haze 31 1009 74 3500 4.1 330 14:42 04.10.2019
804 Haze 31 1009 70 4000 3.6 320 14:22 04.10.2019
805 Haze 32 1009 70 4000 4.6 310 13:59 04.10.2019
806 Haze 32 1009 66 4000 3.6 310 13:41 04.10.2019
807 Haze 32 1009 66 4000 3.6 310 13:19 04.10.2019
808 Haze 32 1009 66 4000 3.6 310 13:19 04.10.2019
809 Haze 32 1009 70 4000 5.1 280 12:46 04.10.2019
810 Haze 32 1009 70 4000 5.1 280 12:46 04.10.2019
811 Haze 32 1009 70 4000 5.1 280 12:28 04.10.2019
812 Haze 32 1009 70 4000 5.7 290 11:58 04.10.2019
813 Haze 32 1009 70 4000 5.7 280 11:40 04.10.2019
814 Haze 32 1009 70 4000 5.7 280 11:39 04.10.2019
815 Haze 32 1009 70 4000 5.7 280 11:20 04.10.2019
816 Haze 32 1010 74 4000 6.2 250 10:40 04.10.2019
817 Haze 32 1010 74 4000 6.2 250 10:20 04.10.2019
818 Haze 32 1011 74 3000 4.6 250 09:45 04.10.2019
819 Haze 32 1011 70 3000 2.6 40 09:27 04.10.2019
820 Haze 32 1011 70 3000 2.6 40 09:27 04.10.2019
821 Haze 30 1012 84 2500 2.1 210 08:56 04.10.2019
822 Thunderstorm 29 1013 83 2100 3.95 352.769 08:37 04.10.2019
823 Clouds 28 1013 76 0 3.95 352.769 08:19 04.10.2019
824 Haze 31 1013 79 3000 3.6 50 07:43 04.10.2019
825 Haze 31 1013 79 3000 3.6 50 07:22 04.10.2019
826 Haze 31 1013 74 3000 2.6 50 06:42 04.10.2019
827 Haze 30 1013 74 3000 2.6 50 06:24 04.10.2019
828 Haze 30 1013 74 3000 2.6 50 06:24 04.10.2019
829 Haze 29 1013 83 3000 3.1 20 05:38 04.10.2019
830 Haze 29 1013 83 3000 3.1 20 05:18 04.10.2019
831 Haze 29 1012 83 3000 3.1 50 03:47 04.10.2019
832 Haze 29 1012 83 3000 3.1 50 03:47 04.10.2019
833 Thunderstorm 28 1011 83 3000 2.6 10 02:53 04.10.2019
834 Thunderstorm 28 1011 83 3000 2.6 10 02:53 04.10.2019
835 Thunderstorm 27 1010 88 3000 2.1 10 01:55 04.10.2019
836 Haze 28 1010 83 3000 2.6 30 01:29 04.10.2019
837 Haze 28 1010 83 3000 4.87 339.093 00:56 04.10.2019
838 Haze 28 1010 83 3000 1.5 10 23:55 03.10.2019
839 Haze 28 1011 83 3000 2.1 330 23:36 03.10.2019
840 Haze 28 1011 83 3000 2.1 330 23:18 03.10.2019
841 Haze 28 1011 83 3000 2.1 330 23:18 03.10.2019
842 Haze 28 1011 83 3000 4.75 336.942 22:55 03.10.2019
843 Haze 28 1011 83 3000 4.75 336.942 22:36 03.10.2019
844 Haze 28 1011 83 3000 4.75 336.942 22:18 03.10.2019
845 Haze 28 1011 88 3000 4.75 336.942 21:54 03.10.2019
846 Haze 29 1011 79 3000 1.5 30 21:36 03.10.2019
847 Haze 29 1011 79 3000 1.5 30 21:18 03.10.2019
848 Haze 28 1011 88 3000 3.97 341.342 20:41 03.10.2019
849 Haze 28 1011 88 3000 3.97 341.342 20:23 03.10.2019
850 Haze 29 1011 79 3000 2.1 360 19:59 03.10.2019
851 Haze 29 1011 79 3000 1.5 340 19:41 03.10.2019
852 Haze 29 1011 79 3000 1.5 340 19:22 03.10.2019
853 Haze 29 1011 83 3500 3.97 341.342 18:58 03.10.2019
854 Haze 29 1012 83 4000 1.5 60 18:38 03.10.2019
855 Haze 29 1012 83 4000 1.5 60 18:38 03.10.2019
856 Haze 29 1012 83 4000 1.5 60 18:19 03.10.2019
857 Haze 29 1011 79 4000 2.6 340 17:55 03.10.2019
858 Haze 29 1011 79 4000 2.6 340 17:55 03.10.2019
859 Haze 29 1011 79 4000 2.6 340 17:55 03.10.2019
860 Haze 29 1011 79 4000 2.6 340 17:37 03.10.2019
861 Haze 29 1011 79 4000 2.6 340 17:19 03.10.2019
862 Haze 29 1010 79 4000 2.6 330 16:41 03.10.2019
863 Haze 29 1010 79 4000 2.6 330 16:23 03.10.2019
864 Haze 30 1010 79 4000 3.1 320 15:55 03.10.2019
865 Haze 30 1010 74 5000 3.6 310 15:37 03.10.2019
866 Haze 30 1010 74 5000 3.6 310 15:18 03.10.2019
867 Haze 30 1009 74 5000 3.6 300 14:43 03.10.2019
868 Haze 31 1009 74 5000 3.1 320 14:24 03.10.2019
869 Haze 31 1009 70 5000 4.6 300 13:56 03.10.2019
870 Haze 31 1009 70 5000 4.6 300 13:56 03.10.2019
871 Haze 31 1009 66 5000 5.7 300 13:38 03.10.2019
872 Haze 31 1009 66 5000 5.7 300 13:38 03.10.2019
873 Haze 31 1009 66 5000 5.7 300 13:19 03.10.2019
874 Haze 31 1009 66 5000 4.1 300 12:54 03.10.2019
875 Haze 31 1009 66 4000 5.1 260 12:36 03.10.2019
876 Haze 31 1009 66 4000 5.1 260 12:18 03.10.2019
877 Rain 31 1010 70 2500 3.6 310 11:40 03.10.2019
878 Rain 31 1010 70 2500 3.6 310 11:40 03.10.2019
879 Rain 31 1010 70 2500 3.6 310 11:22 03.10.2019
880 Haze 30 1010 83 3000 2.6 170 10:58 03.10.2019
881 Rain 31 1011 74 3000 3.6 260 10:39 03.10.2019
882 Rain 31 1011 74 3000 3.6 260 10:39 03.10.2019
883 Rain 31 1011 74 3000 3.6 260 10:18 03.10.2019
884 Haze 32 1011 70 4000 5.1 260 09:57 03.10.2019
885 Haze 31 1011 74 4000 5.1 260 09:38 03.10.2019
886 Haze 31 1011 74 4000 5.1 260 09:19 03.10.2019
887 Haze 32 1012 66 4000 3.6 280 08:43 03.10.2019
888 Haze 32 1012 66 4000 3.6 280 08:25 03.10.2019
889 Haze 32 1013 66 3500 3.1 20 07:56 03.10.2019
890 Haze 31 1013 70 3500 3.6 60 07:37 03.10.2019
891 Haze 31 1013 70 3500 3.6 60 07:19 03.10.2019
892 Haze 30 1013 74 3000 3.1 80 06:27 03.10.2019
893 Haze 30 1013 79 3000 2.6 40 05:55 03.10.2019
894 Haze 29 1013 83 2500 2.75 333.789 05:37 03.10.2019
895 Haze 28 1012 78 3000 1.5 80 04:48 03.10.2019
896 Haze 29 1012 78 3000 1.5 80 04:24 03.10.2019
897 Haze 27 1011 83 4000 1.5 90 03:19 03.10.2019
898 Haze 27 1011 83 4000 1.5 90 02:33 03.10.2019
899 Haze 27 1010 88 4000 1.5 30 01:41 03.10.2019
900 Haze 27 1010 88 4000 1.5 30 01:20 03.10.2019
901 Haze 28 1011 83 4000 1 0 00:41 03.10.2019
902 Haze 28 1011 83 4000 3.37 300.579 23:58 02.10.2019
903 Haze 28 1011 83 4000 3.37 300.579 23:38 02.10.2019
904 Haze 28 1011 83 4000 3.37 300.579 23:19 02.10.2019
905 Haze 28 1011 83 4000 2.6 30 22:43 02.10.2019
906 Haze 28 1011 83 4000 1.5 350 22:21 02.10.2019
907 Haze 28 1012 83 4000 1.5 360 21:56 02.10.2019
908 Haze 28 1012 83 4000 2.1 20 21:38 02.10.2019
909 Haze 28 1012 83 4000 2.1 20 21:19 02.10.2019
910 Haze 28 1012 88 4000 1.5 70 20:56 02.10.2019
911 Haze 29 1012 79 4000 2.1 20 20:37 02.10.2019
912 Haze 29 1012 79 4000 2.1 30 20:19 02.10.2019
913 Haze 29 1012 79 4000 2.1 30 19:46 02.10.2019
914 Haze 29 1012 79 4000 2.73 335.219 19:23 02.10.2019
915 Haze 29 1012 79 4000 1.5 310 18:59 02.10.2019
916 Haze 29 1012 79 4000 2.1 300 18:40 02.10.2019
917 Haze 29 1012 79 4000 2.1 300 18:22 02.10.2019
918 Haze 29 1012 79 4000 2.1 300 17:59 02.10.2019
919 Haze 29 1012 79 4000 3.1 310 17:40 02.10.2019
920 Haze 29 1012 79 4000 3.1 310 17:21 02.10.2019
921 Haze 29 1011 79 4000 3.1 310 16:57 02.10.2019
922 Haze 29 1011 79 4000 3.1 310 16:57 02.10.2019
923 Haze 29 1011 79 4000 3.1 310 16:38 02.10.2019
924 Clouds 29 1011 74 4500 3.6 310 16:20 02.10.2019
925 Clouds 30 1011 74 4500 3.6 310 15:55 02.10.2019
926 Haze 30 1010 79 5000 4.1 280 15:37 02.10.2019
927 Haze 30 1010 79 5000 4.1 280 15:18 02.10.2019
928 Clouds 30 1010 70 6000 4.6 290 14:43 02.10.2019
929 Clouds 30 1010 70 6000 4.6 290 14:23 02.10.2019
930 Clouds 30 1010 74 6000 5.7 270 13:57 02.10.2019
931 Clouds 31 1010 70 6000 4.1 280 13:38 02.10.2019
932 Clouds 31 1010 70 6000 4.1 280 13:20 02.10.2019
933 Clouds 31 1010 70 6000 5.7 260 12:40 02.10.2019
934 Clouds 32 1010 70 6000 5.7 260 12:22 02.10.2019
935 Clouds 32 1011 66 6000 5.1 270 11:58 02.10.2019
936 Clouds 32 1011 66 6000 4.6 270 11:40 02.10.2019
937 Clouds 32 1011 66 6000 4.6 270 11:18 02.10.2019
938 Clouds 32 1012 62 6000 2.6 270 10:38 02.10.2019
939 Clouds 32 1012 62 6000 2.6 270 10:19 02.10.2019
940 Haze 32 1013 66 4000 3.6 250 09:40 02.10.2019
941 Haze 31 1013 66 4000 3.6 250 09:20 02.10.2019
942 Haze 31 1013 70 4000 4.1 270 08:56 02.10.2019
943 Haze 31 1014 70 4000 4.1 260 08:37 02.10.2019
944 Haze 31 1014 70 4000 4.1 260 08:19 02.10.2019
945 Haze 31 1014 70 4000 2.6 210 07:39 02.10.2019
946 Haze 31 1014 70 4000 2.6 210 07:21 02.10.2019
947 -273 0 0 0 0 0 06:54 02.10.2019
948 Haze 28 1014 83 3000 0.93 279.28 05:56 02.10.2019
949 Haze 27 1014 83 3000 0.93 279.28 05:25 02.10.2019
950 Haze 28 1014 88 3000 2.6 140 04:58 02.10.2019
951 Mist 29 1013 88 2500 2.6 120 03:53 02.10.2019
952 Mist 27 1013 88 2200 1.5 100 03:19 02.10.2019
953 Haze 27 1012 88 3000 1.5 90 02:25 02.10.2019
954 Haze 27 1012 88 3000 2.71 307.124 01:56 02.10.2019
955 Haze 27 1011 88 3000 2.1 80 00:52 02.10.2019
956 Haze 27 1011 88 3000 2.1 110 00:29 02.10.2019
957 Haze 27 1011 88 3000 2.6 120 23:54 01.10.2019
958 Haze 28 1011 78 3000 2.6 90 23:36 01.10.2019
959 Haze 28 1012 78 3000 1.5 260 23:18 01.10.2019
960 Haze 28 1012 78 3000 1.5 260 22:57 01.10.2019
961 Haze 28 1012 78 3000 2.6 230 22:36 01.10.2019
962 Haze 28 1012 78 3000 2.6 230 22:18 01.10.2019
963 Haze 28 1012 78 3000 4.1 240 21:42 01.10.2019
964 Haze 28 1012 78 3000 4.1 240 21:22 01.10.2019
965 Haze 28 1012 78 3000 2.6 240 20:57 01.10.2019
966 Haze 28 1012 78 3000 3.1 240 20:38 01.10.2019
967 Haze 28 1012 78 3000 3.1 240 20:20 01.10.2019
968 Haze 28 1013 78 3000 3.1 230 19:57 01.10.2019
969 Haze 28 1013 78 3000 3.1 240 19:38 01.10.2019
970 Haze 28 1013 78 3000 3.1 240 19:20 01.10.2019
971 -273 0 0 0 0 0 18:55 01.10.2019
972 Haze 29 1012 79 4000 4.1 230 18:36 01.10.2019
973 Haze 29 1012 79 4000 4.1 260 18:18 01.10.2019
974 Haze 29 1012 79 4000 4.1 250 17:42 01.10.2019
975 Haze 29 1012 79 4000 4.1 250 17:42 01.10.2019
976 Haze 29 1012 79 4000 4.1 250 17:20 01.10.2019
977 Haze 29 1011 79 4000 4.1 250 16:59 01.10.2019
978 Haze 29 1011 79 5000 3.6 250 16:40 01.10.2019
979 Haze 29 1011 79 5000 3.6 250 16:22 01.10.2019
980 Haze 30 1011 79 5000 4.1 250 15:48 01.10.2019
981 Haze 30 1010 79 6000 3.6 220 15:24 01.10.2019
982 Haze 30 1010 79 6000 4.1 250 14:58 01.10.2019
983 Haze 30 1010 74 6000 4.6 250 14:38 01.10.2019
984 Haze 30 1010 74 6000 4.6 250 14:19 01.10.2019
985 Clouds 31 1010 66 6000 4.6 230 13:55 01.10.2019
986 Clouds 31 1010 66 6000 4.6 230 13:55 01.10.2019
987 Clouds 31 1010 74 6000 5.1 240 13:37 01.10.2019
988 Clouds 31 1010 74 6000 5.1 240 13:18 01.10.2019
989 Clouds 31 1010 66 6000 5.7 250 12:54 01.10.2019
990 Clouds 31 1010 66 6000 5.7 240 12:36 01.10.2019
991 Clouds 31 1010 62 6000 5.7 240 12:18 01.10.2019
992 Clouds 31 1011 66 6000 6.2 240 11:54 01.10.2019
993 Clouds 31 1011 66 6000 6.2 240 11:36 01.10.2019
994 Clouds 31 1011 66 6000 6.2 240 11:18 01.10.2019
995 Clouds 31 1011 70 6000 6.2 240 10:43 01.10.2019
996 Clouds 31 1011 70 6000 6.2 240 10:24 01.10.2019
997 Clouds 31 1012 70 6000 5.1 230 09:44 01.10.2019
998 Clouds 31 1012 70 6000 5.1 230 09:25 01.10.2019
999 Clouds 31 1012 70 6000 5.1 230 09:25 01.10.2019
1000 Haze 31 1013 70 5000 4.1 250 08:44 01.10.2019
1001 Haze 31 1013 70 5000 4.1 250 08:25 01.10.2019
1002 Haze 31 1013 74 5000 5.1 240 07:49 01.10.2019
1003 Haze 31 1013 70 5000 4.6 220 07:26 01.10.2019
1004 Haze 31 1013 70 5000 2.6 210 06:51 01.10.2019
1005 Haze 30 1013 79 4500 3.1 220 06:25 01.10.2019
1006 Haze 30 1013 79 4000 3.1 230 05:59 01.10.2019
1007 Haze 29 1013 79 4000 2.1 240 05:38 01.10.2019
1008 Haze 29 1012 83 4000 1.5 220 04:40 01.10.2019
1009 Haze 28 1011 83 4000 2.6 220 03:34 01.10.2019
1010 Haze 27 1010 88 4000 2.97 239.8 02:19 01.10.2019
1011 Haze 28 1010 83 4000 2.97 239.8 01:51 01.10.2019
1012 Haze 28 1010 83 4000 3.74 253.151 00:44 01.10.2019
1013 Haze 28 1010 83 4000 3.74 253.151 00:44 01.10.2019
1014 Haze 28 1010 83 4000 3.74 253.151 00:44 01.10.2019
1015 Haze 28 1010 83 4000 3.74 253.151 00:24 01.10.2019
1016 Haze 28 1010 83 4000 3.74 253.151 00:24 01.10.2019
1017 Haze 28 1010 83 4000 3.74 253.151 00:24 01.10.2019
1018 Haze 28 1010 83 4000 2.1 230 23:42 30.09.2019
1019 Haze 28 1010 83 4000 2.1 230 23:42 30.09.2019
1020 Haze 28 1010 83 4000 2.1 230 23:22 30.09.2019
1021 Haze 28 1010 83 4000 3.1 220 22:56 30.09.2019
1022 Haze 28 1011 83 4000 3.1 240 22:37 30.09.2019
1023 Haze 28 1011 83 4000 3.1 240 22:19 30.09.2019
1024 Haze 28 1011 83 4000 2.6 230 21:55 30.09.2019
1025 Haze 28 1011 83 4000 2.6 230 21:36 30.09.2019
1026 Haze 28 1011 83 4000 2.6 230 21:18 30.09.2019
1027 Haze 28 1012 83 4000 3.6 220 20:54 30.09.2019
1028 Haze 28 1012 83 4000 2.1 220 20:36 30.09.2019
1029 Haze 28 1012 83 4000 2.1 220 20:18 30.09.2019
1030 Haze 28 1012 83 4000 2.6 230 19:54 30.09.2019
1031 Haze 28 1012 83 4000 1.5 210 19:36 30.09.2019
1032 Haze 28 1012 83 4000 2.6 210 19:18 30.09.2019
1033 Haze 28 1012 83 4000 3.1 230 18:41 30.09.2019
1034 Haze 28 1012 83 4000 3.1 230 18:21 30.09.2019
1035 Haze 28 1012 83 4000 2.6 220 17:57 30.09.2019
1036 Haze 28 1012 83 4000 2.6 220 17:57 30.09.2019
1037 Haze 28 1011 83 4000 3.6 240 17:39 30.09.2019
1038 Haze 28 1011 83 4000 3.6 240 17:19 30.09.2019
1039 Haze 28 1011 83 4000 3.1 240 16:54 30.09.2019
1040 Haze 28 1011 83 3500 3.1 240 16:36 30.09.2019
1041 Haze 28 1011 88 3500 4.6 240 16:18 30.09.2019
1042 Rain 29 1010 88 3000 4.6 240 15:39 30.09.2019
1043 Rain 29 1010 88 3000 4.6 240 15:39 30.09.2019
1044 Rain 29 1010 88 3000 4.6 240 15:39 30.09.2019
1045 Rain 29 1010 88 3000 4.6 240 15:20 30.09.2019
1046 Haze 29 1010 79 5000 4.6 250 14:59 30.09.2019
1047 Haze 29 1010 79 6000 6.2 240 14:38 30.09.2019
1048 Haze 29 1009 79 6000 6.2 240 14:19 30.09.2019
1049 Haze 29 1009 79 6000 6.2 240 14:00 30.09.2019
1050 Haze 29 1009 79 6000 6.7 230 13:41 30.09.2019
1051 Haze 29 1009 79 6000 6.7 230 13:22 30.09.2019
1052 Haze 30 1010 74 6000 4.6 250 12:56 30.09.2019
1053 Haze 30 1010 79 6000 6.7 250 12:38 30.09.2019
1054 Haze 31 1010 74 6000 5.1 230 12:18 30.09.2019
1055 Haze 31 1010 74 6000 5.7 240 11:43 30.09.2019
1056 Clouds 31 1011 74 6000 6.7 220 11:21 30.09.2019
1057 Clouds 31 1011 74 6000 6.7 220 10:58 30.09.2019
1058 Haze 31 1011 70 5000 7.7 210 10:38 30.09.2019
1059 Haze 31 1011 70 5000 7.7 210 10:18 30.09.2019
1060 Haze 31 1012 74 5000 7.2 230 09:57 30.09.2019
1061 Haze 31 1012 74 5000 5.1 230 09:38 30.09.2019
1062 Haze 31 1012 74 5000 5.7 220 09:18 30.09.2019
1063 Haze 31 1012 74 5000 5.7 220 08:46 30.09.2019
1064 Haze 30 1013 74 5000 5.7 220 08:27 30.09.2019
1065 Haze 30 1013 83 3500 4.6 190 07:40 30.09.2019
1066 Haze 29 1013 88 3500 3.6 170 07:20 30.09.2019
1067 Haze 30 1013 88 3500 3.6 170 06:50 30.09.2019
1068 Haze 29 1013 83 3000 3.1 170 06:31 30.09.2019
1069 Haze 27 1012 94 3000 3.1 180 05:41 30.09.2019
1070 Rain 27 1010 94 3500 2.6 150 02:55 30.09.2019
1071 Haze 27 1010 88 4000 2.1 140 02:37 30.09.2019
1072 Haze 27 1010 88 4000 3.1 190 01:31 30.09.2019
1073 Haze 27 1010 94 3000 2.1 160 00:38 30.09.2019
1074 Haze 27 1010 94 3000 2.1 160 00:20 30.09.2019
1075 Rain 27 1011 94 3000 2.1 190 23:44 29.09.2019
1076 Rain 27 1011 94 3000 2.1 190 23:21 29.09.2019
1077 Haze 27 1011 88 4000 2.6 190 22:55 29.09.2019
1078 Haze 27 1011 88 4000 1.5 120 22:36 29.09.2019
1079 Haze 27 1011 88 4000 1.5 120 22:18 29.09.2019
1080 Haze 27 1011 88 4000 2.1 120 21:56 29.09.2019
1081 Haze 27 1011 88 4000 2.6 180 21:37 29.09.2019
1082 Haze 27 1011 88 4000 2.6 180 21:18 29.09.2019
1083 Clouds 28 1012 80 0 5.9 200.729 20:43 29.09.2019
1084 Rain 29 1009 62 0 6.33 197.697 20:20 29.09.2019
1085 Rain 29 1009 62 0 6.33 197.697 20:20 29.09.2019
1086 Haze 27 1012 88 4000 2.6 170 19:58 29.09.2019
1087 Haze 27 1012 88 4000 3.1 190 19:37 29.09.2019
1088 Haze 27 1012 88 4000 5.1 150 19:19 29.09.2019
1089 Haze 27 1012 88 4000 5.1 150 18:55 29.09.2019
1090 Haze 28 1012 83 4000 2.1 210 18:37 29.09.2019
1091 Haze 28 1012 83 4000 2.1 210 18:19 29.09.2019
1092 Haze 29 1012 79 4000 3.6 180 17:56 29.09.2019
1093 Haze 29 1012 79 4000 3.6 180 17:38 29.09.2019
1094 Haze 29 1012 79 4000 3.6 180 17:19 29.09.2019
1095 Haze 29 1011 79 4000 3.1 220 16:57 29.09.2019
1096 Haze 29 1011 79 4000 3.1 220 16:57 29.09.2019
1097 Haze 29 1011 79 4000 4.1 210 16:39 29.09.2019
1098 Haze 29 1011 79 5000 3.6 220 16:19 29.09.2019
1099 Haze 29 1011 74 5000 3.6 190 15:41 29.09.2019
1100 Haze 29 1011 74 5000 3.6 190 15:20 29.09.2019
1101 Haze 29 1011 74 6000 3.6 190 15:00 29.09.2019
1102 Haze 30 1010 74 6000 3.6 220 14:40 29.09.2019
1103 Haze 30 1010 74 6000 3.6 220 14:21 29.09.2019
1104 Haze 30 1010 70 6000 3.6 220 13:58 29.09.2019
1105 Haze 31 1010 70 6000 3.6 220 13:40 29.09.2019
1106 Haze 31 1010 70 6000 3.6 220 13:19 29.09.2019
1107 Haze 30 1010 70 6000 4.1 190 12:58 29.09.2019
1108 Haze 30 1010 70 6000 4.1 190 12:39 29.09.2019
1109 Haze 31 1011 70 6000 6.2 180 12:21 29.09.2019
1110 Haze 31 1011 70 6000 6.2 180 11:57 29.09.2019
1111 Haze 31 1011 74 6000 5.1 180 11:38 29.09.2019
1112 Haze 31 1011 74 6000 5.1 180 11:18 29.09.2019
1113 Haze 31 1011 70 6000 5.1 180 10:57 29.09.2019
1114 Haze 32 1012 70 6000 6.7 190 10:36 29.09.2019
1115 Haze 31 1012 70 6000 6.7 190 10:18 29.09.2019
1116 Haze 31 1012 66 6000 6.2 190 09:44 29.09.2019
1117 Haze 31 1013 66 5000 5.7 180 09:21 29.09.2019
1118 Haze 31 1013 66 5000 5.7 180 08:58 29.09.2019
1119 Haze 31 1013 70 5000 5.7 170 08:38 29.09.2019
1120 Haze 31 1013 70 5000 5.7 170 08:20 29.09.2019
1121 Haze 31 1013 74 4000 5.1 170 07:43 29.09.2019
1122 Haze 31 1013 74 4000 5.1 170 07:24 29.09.2019
1123 Haze 30 1013 79 4000 4.1 160 06:42 29.09.2019
1124 Haze 29 1012 78 4000 4.1 180 05:23 29.09.2019
1125 Haze 27 1012 88 4000 2.1 120 04:38 29.09.2019
1126 Haze 27 1012 88 4000 2.1 120 04:18 29.09.2019
1127 Haze 27 1011 88 4000 2.1 160 02:47 29.09.2019
1128 Haze 27 1010 83 4000 2.6 140 02:18 29.09.2019
1129 Haze 27 1010 88 4000 2.1 140 01:32 29.09.2019
1130 Haze 27 1011 88 4000 3.1 170 00:48 29.09.2019
1131 Haze 27 1011 88 4000 3.1 170 00:20 29.09.2019
1132 Haze 27 1011 88 4000 2.6 160 23:43 28.09.2019
1133 Haze 27 1011 88 4000 2.6 160 23:23 28.09.2019
1134 Haze 27 1011 88 4000 2.6 160 23:23 28.09.2019
1135 Haze 27 1011 88 4000 3.1 160 22:57 28.09.2019
1136 Haze 27 1011 88 4000 3.1 160 22:38 28.09.2019
1137 Haze 27 1011 88 4000 3.1 160 22:20 28.09.2019
1138 Haze 27 1011 88 4000 3.1 160 22:20 28.09.2019
1139 Haze 28 1012 83 4000 3.6 180 21:56 28.09.2019
1140 Haze 28 1012 83 4000 4.1 180 21:38 28.09.2019
1141 Haze 28 1012 83 4000 4.1 180 21:20 28.09.2019
1142 Haze 28 1012 83 4000 3.6 160 20:57 28.09.2019
1143 Haze 28 1012 83 4000 4.1 170 20:38 28.09.2019
1144 Haze 28 1012 83 4000 4.1 170 20:18 28.09.2019
1145 Haze 28 1012 83 4000 4.1 170 19:56 28.09.2019
1146 Haze 28 1012 83 4000 3.1 170 19:37 28.09.2019
1147 Haze 28 1012 83 4000 3.1 170 19:19 28.09.2019
1148 Rain 28 1012 80 0 6.75 195.778 18:43 28.09.2019
1149 Haze 28 1011 83 4000 3.6 190 18:22 28.09.2019
1150 Haze 28 1011 83 4000 3.6 190 17:59 28.09.2019
1151 Haze 28 1011 83 4000 3.6 190 17:40 28.09.2019
1152 Haze 28 1011 83 4000 3.6 190 17:21 28.09.2019
1153 Haze 28 1011 78 4000 3.6 180 16:55 28.09.2019
1154 Haze 28 1011 78 4000 3.6 180 16:55 28.09.2019
1155 Haze 29 1010 74 4000 3.1 200 16:37 28.09.2019
1156 Haze 29 1010 74 4000 3.1 200 16:18 28.09.2019
1157 Haze 29 1010 74 5000 4.6 210 15:40 28.09.2019
1158 Haze 29 1010 74 5000 4.6 210 15:22 28.09.2019
1159 Clouds 30 1009 74 6000 5.1 210 14:55 28.09.2019
1160 Clouds 30 1009 79 6000 4.6 190 14:37 28.09.2019
1161 Clouds 30 1009 79 6000 4.6 190 14:19 28.09.2019
1162 Clouds 30 1009 74 6000 5.1 200 13:43 28.09.2019
1163 Clouds 30 1009 74 6000 5.1 200 13:20 28.09.2019
1164 Clouds 30 1009 74 6000 5.1 200 13:20 28.09.2019
1165 Clouds 30 1009 70 6000 5.1 210 12:58 28.09.2019
1166 Clouds 30 1009 70 6000 3.6 220 12:39 28.09.2019
1167 Clouds 30 1009 70 6000 3.6 220 12:18 28.09.2019
1168 Haze 31 1009 74 6000 5.7 180 11:41 28.09.2019
1169 Haze 31 1009 74 6000 5.7 180 11:21 28.09.2019
1170 Clouds 30 1010 74 6000 6.2 180 10:59 28.09.2019
1171 Clouds 30 1010 70 6000 5.1 180 10:39 28.09.2019
1172 Clouds 30 1010 70 6000 5.1 180 10:19 28.09.2019
1173 Haze 30 1011 74 4000 6.2 180 09:41 28.09.2019
1174 Haze 30 1011 74 4000 6.2 180 09:41 28.09.2019
1175 Haze 30 1011 74 4000 6.2 180 09:22 28.09.2019
1176 Haze 30 1011 74 4000 5.1 170 08:48 28.09.2019
1177 Haze 30 1012 79 4000 4.6 160 08:30 28.09.2019
1178 Haze 31 1012 74 4000 4.6 170 07:59 28.09.2019
1179 Haze 30 1012 74 4000 4.1 190 07:41 28.09.2019
1180 Haze 30 1012 78 3000 5.1 170 07:19 28.09.2019
1181 Haze 29 1012 83 3000 4.1 170 06:45 28.09.2019
1182 Haze 27 1012 83 3000 3.6 130 06:25 28.09.2019
1183 Haze 26 1012 88 3000 3.6 150 05:41 28.09.2019
1184 Haze 26 1012 88 3000 3.6 150 05:19 28.09.2019
1185 Haze 26 1012 88 3000 3.1 120 04:36 28.09.2019
1186 Haze 26 1012 88 3000 2.6 110 03:45 28.09.2019
1187 Haze 26 1011 88 3000 6.61 184.986 03:20 28.09.2019
1188 Haze 26 1011 88 3000 2.1 110 02:42 28.09.2019
1189 Haze 26 1011 88 3000 2.1 110 02:23 28.09.2019
1190 Rain 26 1011 94 2000 2.6 150 01:45 28.09.2019
1191 Rain 26 1011 94 2000 2.6 150 01:24 28.09.2019
1192 Haze 26 1011 94 3000 3.6 160 00:49 28.09.2019
1193 Haze 26 1011 94 3000 2.6 180 00:30 28.09.2019
1194 Haze 27 1011 88 3000 1.5 190 23:41 27.09.2019
1195 Haze 27 1011 88 3000 1.5 190 23:41 27.09.2019
1196 Haze 27 1011 88 3000 1.5 190 23:22 27.09.2019
1197 Haze 27 1012 88 3000 1.5 170 22:58 27.09.2019
1198 Haze 27 1012 88 3000 1.5 170 22:40 27.09.2019
1199 Haze 27 1012 88 3000 1.5 170 22:18 27.09.2019
1200 Haze 27 1012 88 3000 2.6 160 21:55 27.09.2019
1201 Haze 27 1012 88 3000 3.1 160 21:36 27.09.2019
1202 Haze 27 1012 88 3000 3.1 160 21:18 27.09.2019
1203 Haze 28 1013 83 3000 2.6 170 20:41 27.09.2019
1204 Haze 28 1013 83 3000 2.6 170 20:20 27.09.2019
1205 Haze 28 1013 83 3000 3.6 170 19:59 27.09.2019
1206 Haze 28 1013 83 3000 4.1 180 19:41 27.09.2019
1207 Haze 28 1013 83 3000 4.6 190 19:23 27.09.2019
1208 Haze 28 1013 83 3000 3.6 170 18:55 27.09.2019
1209 Haze 28 1013 83 3000 3.6 170 18:37 27.09.2019
1210 Haze 28 1012 83 3500 3.6 190 18:19 27.09.2019
1211 Haze 28 1011 83 3500 4.6 180 17:40 27.09.2019
1212 Haze 28 1011 83 3500 4.6 180 17:22 27.09.2019
1213 Haze 28 1011 83 4000 3.1 210 16:59 27.09.2019
1214 Haze 28 1011 83 4000 5.1 200 16:41 27.09.2019
1215 Haze 28 1011 83 4000 5.1 200 16:20 27.09.2019
1216 Haze 28 1011 83 4000 5.1 200 16:20 27.09.2019
1217 Haze 28 1011 74 4000 5.1 190 15:57 27.09.2019
1218 Haze 29 1011 74 5000 5.1 210 15:39 27.09.2019
1219 Haze 29 1010 74 5000 4.6 210 15:19 27.09.2019
1220 Haze 29 1010 74 5000 4.6 210 14:56 27.09.2019
1221 Haze 29 1010 74 5000 4.6 200 14:37 27.09.2019
1222 Haze 29 1010 74 4000 6.7 210 14:18 27.09.2019
1223 Haze 30 1010 74 5000 5.1 210 13:42 27.09.2019
1224 Haze 30 1010 79 5000 6.2 190 13:22 27.09.2019
1225 Haze 30 1010 79 5000 6.2 190 12:59 27.09.2019
1226 Haze 30 1010 79 5000 6.2 180 12:41 27.09.2019
1227 Haze 30 1010 79 5000 6.2 180 12:20 27.09.2019
1228 Haze 30 1010 79 5000 6.2 180 12:20 27.09.2019
1229 Haze 31 1010 74 5000 5.7 160 11:40 27.09.2019
1230 Haze 31 1010 74 5000 5.7 160 11:22 27.09.2019
1231 Haze 31 1011 74 5000 5.1 200 10:57 27.09.2019
1232 Haze 31 1011 70 5000 5.1 190 10:39 27.09.2019
1233 Haze 31 1011 70 5000 5.1 190 10:20 27.09.2019
1234 Haze 30 1012 74 4000 3.6 190 09:42 27.09.2019
1235 Haze 30 1012 74 4000 3.6 190 09:22 27.09.2019
1236 Haze 29 1013 74 4000 3.6 170 08:58 27.09.2019
1237 Haze 29 1013 70 4000 6.2 160 08:39 27.09.2019
1238 Haze 29 1013 70 4000 6.2 160 08:20 27.09.2019
1239 Haze 27 1014 83 4000 4.6 150 07:46 27.09.2019
1240 Haze 27 1014 83 4000 4.6 150 07:23 27.09.2019
1241 Haze 27 1013 83 3000 3.6 140 06:43 27.09.2019
1242 Haze 27 1013 83 3000 3.6 140 06:24 27.09.2019
1243 Haze 26 1013 88 2500 3.6 150 05:51 27.09.2019
1244 Rain 26 1013 88 2500 3.1 110 05:32 27.09.2019
1245 Rain 25 1012 94 2500 2.1 170 03:56 27.09.2019
1246 Rain 25 1012 94 1400 4.1 170 03:34 27.09.2019
1247 Rain 25 1011 94 2100 4.6 170 01:52 27.09.2019
1248 Rain 25 1011 94 2200 2.6 160 01:28 27.09.2019
1249 Rain 25 1011 94 2100 4.1 200 00:30 27.09.2019
1250 Rain 26 1010 94 2200 3.6 160 23:56 26.09.2019
1251 Drizzle 26 1010 94 2200 5.1 180 23:38 26.09.2019
1252 Drizzle 26 1010 94 2200 5.1 180 23:18 26.09.2019
1253 Haze 26 1011 94 2200 3.6 170 22:57 26.09.2019
1254 Rain 26 1011 94 2200 5.1 180 22:39 26.09.2019
1255 Rain 26 1011 94 2200 5.1 180 22:18 26.09.2019
1256 Rain 26 1011 94 2200 5.1 180 22:18 26.09.2019
1257 Rain 26 1011 94 2200 4.6 180 21:56 26.09.2019
1258 Rain 26 1011 94 2200 4.1 180 21:37 26.09.2019
1259 Rain 26 1011 94 2200 4.1 180 21:18 26.09.2019
1260 Haze 26 1011 94 2500 3.6 150 20:58 26.09.2019
1261 Drizzle 27 1011 88 2200 4.1 160 20:39 26.09.2019
1262 Drizzle 27 1011 88 2200 4.1 160 20:21 26.09.2019
1263 Drizzle 27 1011 88 2500 2.6 160 19:41 26.09.2019
1264 Drizzle 27 1011 88 2500 2.1 130 19:20 26.09.2019
1265 Drizzle 27 1011 88 2500 2.1 130 18:59 26.09.2019
1266 Drizzle 26 1011 94 2100 2.6 110 18:41 26.09.2019
1267 Drizzle 26 1011 94 2100 2.6 110 18:22 26.09.2019
1268 Rain 27 1010 94 2500 2.6 120 17:58 26.09.2019
1269 Rain 27 1010 94 2500 2.1 130 17:37 26.09.2019
1270 Rain 27 1010 94 2500 2.1 130 17:18 26.09.2019
1271 Haze 27 1009 94 2200 1.5 130 16:55 26.09.2019
1272 Rain 27 1009 94 2200 2.6 160 16:37 26.09.2019
1273 Rain 26 1009 94 2200 2.6 160 16:18 26.09.2019
1274 Rain 26 1008 94 2200 3.1 160 15:41 26.09.2019
1275 Rain 27 1008 94 2200 3.1 160 15:23 26.09.2019
1276 Thunderstorm 27 1008 94 2200 3.1 160 14:58 26.09.2019
1277 Thunderstorm 27 1008 94 2200 4.6 180 14:40 26.09.2019
1278 Thunderstorm 27 1008 94 2200 4.6 180 14:21 26.09.2019
1279 Rain 29 1007 79 4000 3.6 180 13:57 26.09.2019
1280 Haze 29 1007 83 5000 5.1 230 13:39 26.09.2019
1281 Haze 29 1007 83 5000 5.1 230 13:39 26.09.2019
1282 Haze 29 1007 83 5000 5.7 230 13:19 26.09.2019
1283 Haze 30 1007 74 5000 5.7 220 12:43 26.09.2019
1284 Haze 31 1007 74 5000 5.7 220 12:22 26.09.2019
1285 Haze 32 1007 70 5000 3.6 230 11:57 26.09.2019
1286 Haze 32 1007 75 5000 7.2 230 11:39 26.09.2019
1287 Haze 32 1007 75 5000 7.2 230 11:19 26.09.2019
1288 Haze 32 1007 66 5000 4.1 180 10:42 26.09.2019
1289 Haze 32 1007 66 5000 4.1 180 10:23 26.09.2019
1290 Haze 32 1008 66 5000 4.6 180 09:58 26.09.2019
1291 Haze 32 1009 70 5000 3.6 190 09:40 26.09.2019
1292 Haze 32 1009 70 5000 3.6 190 09:19 26.09.2019
1293 Haze 31 1009 70 4000 3.6 190 08:51 26.09.2019
1294 Haze 31 1010 70 4000 4.6 170 08:31 26.09.2019
1295 Haze 31 1010 74 4000 4.6 180 07:47 26.09.2019
1296 Haze 30 1010 79 4000 3.6 200 07:22 26.09.2019
1297 Haze 30 1009 79 4000 2.1 180 06:53 26.09.2019
1298 Haze 30 1009 79 4000 2.1 180 06:28 26.09.2019
1299 Haze 29 1009 79 4000 1.5 200 05:59 26.09.2019
1300 Haze 28 1009 83 4000 1.5 200 05:29 26.09.2019
1301 Haze 28 1007 88 3000 6.51 149.131 03:51 26.09.2019
1302 Haze 26 1006 94 3000 2.6 90 02:25 26.09.2019
1303 Haze 27 1006 88 2500 2.1 80 01:48 26.09.2019
1304 Drizzle 27 1006 88 2500 2.1 160 01:22 26.09.2019
1305 Haze 27 1007 83 3000 2.74 110.394 00:45 26.09.2019
1306 Haze 28 1007 83 3000 2.04 18.515 00:25 26.09.2019
1307 Haze 28 1007 88 3000 3.1 190 23:43 25.09.2019
1308 Haze 28 1007 88 3000 3.1 190 23:22 25.09.2019
1309 Haze 28 1007 88 3000 2.04 18.515 22:55 25.09.2019
1310 Haze 28 1007 83 3000 2.1 100 22:37 25.09.2019
1311 Haze 28 1007 83 3000 2.1 100 22:18 25.09.2019
1312 Haze 28 1008 88 3000 2.6 110 21:55 25.09.2019
1313 Haze 28 1008 88 3000 2.1 130 21:37 25.09.2019
1314 Haze 28 1008 88 3000 2.1 130 21:18 25.09.2019
1315 Haze 28 1008 83 3000 2.1 160 20:55 25.09.2019
1316 Haze 28 1008 88 3000 2.6 120 20:37 25.09.2019
1317 Haze 28 1008 88 3000 2.1 40 20:18 25.09.2019
1318 Haze 28 1009 88 3000 2.6 40 19:40 25.09.2019
1319 Haze 28 1009 88 3000 3.1 60 19:21 25.09.2019
1320 Drizzle 29 1008 83 3000 2.6 80 18:56 25.09.2019
1321 Drizzle 29 1008 83 3000 2.6 80 18:38 25.09.2019
1322 Drizzle 29 1008 83 3000 2.6 80 18:20 25.09.2019
1323 Haze 29 1008 89 3000 2.1 40 17:40 25.09.2019
1324 Haze 29 1008 89 3000 2.1 40 17:22 25.09.2019
1325 Haze 29 1007 89 3000 1.5 270 16:59 25.09.2019
1326 Haze 29 1007 89 3000 2.6 310 16:41 25.09.2019
1327 Haze 29 1007 89 3000 2.6 310 16:23 25.09.2019
1328 Haze 29 1006 89 3000 2.6 310 15:56 25.09.2019
1329 Haze 29 1006 83 3000 3.1 340 15:38 25.09.2019
1330 Haze 29 1006 83 3000 3.1 340 15:19 25.09.2019
1331 Haze 29 1005 83 3000 2.1 250 14:42 25.09.2019
1332 Haze 29 1005 83 3000 2.1 250 14:22 25.09.2019
1333 Haze 30 1004 83 3000 3.1 280 13:58 25.09.2019
1334 Haze 30 1005 79 3000 3.6 260 13:40 25.09.2019
1335 Haze 30 1005 79 3000 3.6 260 13:20 25.09.2019
1336 Haze 30 1005 79 3000 3.6 260 12:56 25.09.2019
1337 Haze 29 1005 83 3000 3.1 250 12:37 25.09.2019
1338 Haze 29 1005 83 2500 4.1 250 12:18 25.09.2019
1339 Haze 29 1006 83 2500 2.1 270 11:40 25.09.2019
1340 Haze 29 1006 83 2500 2.1 270 11:40 25.09.2019
1341 Haze 29 1006 83 2500 2.1 270 11:20 25.09.2019
1342 Haze 31 1006 83 2500 2.1 270 10:47 25.09.2019
1343 Haze 31 1007 83 2500 2.1 170 10:27 25.09.2019
1344 Haze 30 1007 79 2500 1.5 0 09:59 25.09.2019
1345 Haze 30 1007 79 2500 1.5 0 09:59 25.09.2019
1346 Haze 29 1007 88 2500 1.5 20 09:41 25.09.2019
1347 Haze 28 1007 88 2500 1.5 20 09:23 25.09.2019
1348 Haze 28 1008 88 2500 2.1 40 08:57 25.09.2019
1349 Haze 27 1008 88 2500 2.1 30 08:39 25.09.2019
1350 Haze 27 1009 88 2500 2.1 230 08:19 25.09.2019
1351 Haze 28 1009 94 2500 1.5 220 07:40 25.09.2019
1352 Haze 28 1009 94 2500 1.5 220 07:22 25.09.2019
1353 Rain 26 1010 94 2500 2.6 150 06:56 25.09.2019
1354 Rain 28 1010 94 2500 2.6 150 06:36 25.09.2019
1355 Haze 25 1009 100 4000 1.5 290 05:43 25.09.2019
1356 Haze 25 1009 100 4000 1.5 290 05:19 25.09.2019
1357 Thunderstorm 24 1008 100 1500 7.2 240 03:21 25.09.2019
1358 Thunderstorm 27 1006 94 2500 2.1 160 01:36 25.09.2019
1359 Thunderstorm 27 1006 94 2500 2.1 110 00:41 25.09.2019
1360 Haze 27 1006 94 2500 2.1 120 00:22 25.09.2019
1361 Haze 28 1006 88 2500 1.01 286.024 23:43 24.09.2019
1362 Haze 28 1006 88 2500 1.01 286.024 23:22 24.09.2019
1363 Rain 27 1006 94 2500 1.01 286.024 22:58 24.09.2019
1364 Thunderstorm 27 1007 94 2500 1.5 200 22:38 24.09.2019
1365 Thunderstorm 28 1007 88 2500 1.5 160 22:18 24.09.2019
1366 Thunderstorm 28 1007 88 2500 1.5 160 21:55 24.09.2019
1367 Drizzle 28 1008 88 3000 4.44 307.593 21:37 24.09.2019
1368 Drizzle 28 1008 88 3000 5.23 316.481 21:18 24.09.2019
1369 Drizzle 28 1008 83 3000 1.5 110 20:56 24.09.2019
1370 Rain 28 1009 83 3000 5.23 316.481 20:38 24.09.2019
1371 Rain 28 1009 83 3000 5.23 316.481 20:19 24.09.2019
1372 Thunderstorm 28 1009 88 3000 1.5 30 19:43 24.09.2019
1373 Thunderstorm 29 1009 83 3000 3.6 40 19:21 24.09.2019
1374 Thunderstorm 29 1009 83 3000 3.6 40 18:58 24.09.2019
1375 Thunderstorm 29 1009 83 3000 3.1 330 18:39 24.09.2019
1376 Thunderstorm 29 1008 83 3000 3.1 20 18:20 24.09.2019
1377 Thunderstorm 29 1008 83 3000 3.1 20 18:20 24.09.2019
1378 Thunderstorm 29 1008 83 3000 3.1 20 17:57 24.09.2019
1379 Thunderstorm 29 1008 79 4000 3.6 310 17:38 24.09.2019
1380 Thunderstorm 29 1008 79 4000 3.6 310 17:19 24.09.2019
1381 Thunderstorm 29 1006 79 4000 4.6 300 16:42 24.09.2019
1382 Thunderstorm 29 1006 79 4000 4.6 300 16:21 24.09.2019
1383 Thunderstorm 29 1006 79 4000 4.6 300 15:59 24.09.2019
1384 Haze 29 1006 79 5000 5.1 320 15:41 24.09.2019
1385 Haze 30 1006 79 5000 5.1 320 15:22 24.09.2019
1386 Haze 30 1005 74 5000 5.7 300 14:40 24.09.2019
1387 Haze 30 1005 74 5000 5.7 300 14:19 24.09.2019
1388 Haze 30 1005 74 5000 5.7 310 13:45 24.09.2019
1389 Haze 30 1005 74 5000 5.7 310 13:24 24.09.2019
1390 Haze 30 1005 79 5000 5.7 290 12:59 24.09.2019
1391 Haze 31 1005 74 5000 6.2 290 12:39 24.09.2019
1392 Haze 31 1006 70 4000 5.7 300 12:18 24.09.2019
1393 Haze 31 1006 70 4000 5.7 320 11:43 24.09.2019
1394 Haze 31 1006 70 4000 5.7 320 11:43 24.09.2019
1395 Haze 31 1006 70 4000 5.7 320 11:22 24.09.2019
1396 Haze 30 1007 70 3500 5.1 310 10:57 24.09.2019
1397 Haze 30 1007 70 3500 4.6 330 10:37 24.09.2019
1398 Haze 30 1008 70 3500 4.6 330 10:19 24.09.2019
1399 Haze 31 1008 70 3500 4.6 330 09:46 24.09.2019
1400 Haze 31 1008 70 3500 5.1 320 09:27 24.09.2019
1401 Haze 31 1009 70 3500 5.1 330 08:57 24.09.2019
1402 Haze 31 1009 70 3500 3.1 300 08:39 24.09.2019
1403 Haze 31 1009 70 3500 3.1 300 08:20 24.09.2019
1404 Haze 31 1009 74 3500 2.6 310 07:55 24.09.2019
1405 Haze 31 1010 74 3500 3.1 280 07:36 24.09.2019
1406 Haze 31 1010 74 3500 3.1 280 07:36 24.09.2019
1407 Haze 31 1010 74 3000 2.1 340 07:18 24.09.2019
1408 Haze 30 1010 70 3000 1.5 340 06:37 24.09.2019
1409 Haze 30 1010 70 3000 1.5 340 06:37 24.09.2019
1410 Haze 29 1010 79 2500 1.5 320 05:53 24.09.2019
1411 Haze 29 1010 79 2500 1.5 80 05:21 24.09.2019
1412 Haze 28 1008 83 3000 1.5 180 03:46 24.09.2019
1413 Haze 28 1008 83 3000 1.5 180 03:20 24.09.2019
1414 Haze 28 1008 83 3000 1.67 275.571 02:43 24.09.2019
1415 Haze 28 1008 83 3000 1.67 275.571 01:41 24.09.2019
1416 Haze 29 1008 83 3000 2.28 291.703 00:41 24.09.2019
1417 Haze 29 1008 83 3000 2.62 284.195 00:22 24.09.2019
1418 Haze 29 1008 83 3000 2.1 240 23:41 23.09.2019
1419 Haze 28 1008 83 3000 2.1 240 23:22 23.09.2019
1420 Rain 28 1009 88 3000 3.1 270 22:41 23.09.2019
1421 Rain 28 1009 88 3000 3.1 270 22:21 23.09.2019
1422 Rain 29 1009 79 3000 2.1 360 21:59 23.09.2019
1423 Haze 28 1010 83 4000 1.5 320 21:41 23.09.2019
1424 Haze 28 1010 83 4000 1.5 320 21:41 23.09.2019
1425 Haze 28 1010 83 4000 1.5 320 21:20 23.09.2019
1426 Haze 28 1010 83 4000 1.5 320 21:20 23.09.2019
1427 Haze 29 1010 79 4000 1.5 300 20:59 23.09.2019
1428 Haze 29 1010 79 4000 1.5 290 20:39 23.09.2019
1429 Haze 29 1010 79 4000 1.5 290 20:19 23.09.2019
1430 Haze 29 1010 79 4000 2.6 290 19:40 23.09.2019
1431 Haze 29 1010 79 4000 2.6 300 19:22 23.09.2019
1432 Haze 29 1010 79 4000 2.6 300 19:22 23.09.2019
1433 Haze 29 1010 79 4000 2.6 300 18:59 23.09.2019
1434 Haze 29 1010 79 4000 3.1 290 18:41 23.09.2019
1435 Haze 29 1010 79 4000 2.6 280 18:19 23.09.2019
1436 Haze 29 1009 79 4000 3.1 290 17:56 23.09.2019
1437 Haze 29 1010 79 4000 2.6 280 17:56 23.09.2019
1438 Haze 29 1009 79 4000 3.1 290 17:38 23.09.2019
1439 Haze 29 1009 79 4000 3.1 290 17:20 23.09.2019
1440 Haze 29 1009 79 4000 3.6 290 16:55 23.09.2019
1441 Haze 29 1008 79 4000 3.6 270 16:36 23.09.2019
1442 Haze 29 1008 79 4000 3.6 270 16:36 23.09.2019
1443 Haze 29 1008 79 4000 3.6 270 16:36 23.09.2019
1444 Haze 30 1008 79 4000 4.1 260 16:18 23.09.2019
1445 Haze 30 1008 79 4000 4.1 260 15:56 23.09.2019
1446 Haze 30 1008 79 4000 4.1 260 15:56 23.09.2019
1447 Haze 30 1007 79 4000 4.1 280 15:38 23.09.2019
1448 Haze 30 1007 79 5000 4.1 260 15:18 23.09.2019
1449 Haze 31 1007 74 5000 5.1 260 14:40 23.09.2019
1450 Haze 31 1007 74 5000 5.1 260 14:20 23.09.2019
1451 Haze 31 1007 74 5000 4.6 240 13:58 23.09.2019
1452 Haze 31 1007 74 5000 4.6 260 13:38 23.09.2019
1453 Haze 31 1007 74 5000 5.7 250 13:18 23.09.2019
1454 Haze 31 1007 74 5000 5.7 250 13:18 23.09.2019
1455 Haze 31 1007 70 5000 5.1 260 12:44 23.09.2019
1456 Haze 31 1007 70 5000 5.1 260 12:23 23.09.2019
1457 Haze 31 1007 70 5000 4.6 240 12:23 23.09.2019
1458 Haze 31 1007 70 5000 4.6 240 11:58 23.09.2019
1459 Haze 31 1008 70 5000 5.1 250 11:40 23.09.2019
1460 Haze 31 1008 70 5000 5.1 250 11:21 23.09.2019
1461 Haze 32 1008 66 5000 4.6 250 10:49 23.09.2019
1462 Haze 32 1008 66 5000 4.6 250 10:22 23.09.2019
1463 Haze 32 1009 70 5000 4.6 220 09:59 23.09.2019
1464 Haze 31 1009 70 5000 3.1 220 09:38 23.09.2019
1465 Haze 31 1009 70 5000 3.1 220 09:19 23.09.2019
1466 Haze 31 1010 74 5000 3.6 240 08:47 23.09.2019
1467 Haze 31 1010 74 5000 3.6 240 08:28 23.09.2019
1468 Haze 31 1010 66 5000 4.1 210 07:57 23.09.2019
1469 Haze 31 1010 70 4000 3.1 200 07:28 23.09.2019
1470 Haze 31 1010 74 4000 2.6 120 06:37 23.09.2019
1471 Haze 29 1010 79 3500 3.1 110 05:51 23.09.2019
1472 Haze 28 1010 83 3000 3.1 110 05:21 23.09.2019
1473 Haze 28 1010 83 3000 3.1 110 04:54 23.09.2019
1474 Haze 27 1008 88 3000 3.8 174.124 02:42 23.09.2019
1475 Haze 27 1008 88 3000 4.69 164.238 00:46 23.09.2019
1476 Haze 27 1008 88 3000 4.13 189.749 00:22 23.09.2019
1477 Haze 27 1008 88 3000 1.5 90 23:52 22.09.2019
1478 Haze 27 1008 88 3000 2.1 100 23:32 22.09.2019
1479 Haze 27 1008 88 3000 1.5 100 22:58 22.09.2019
1480 Haze 27 1008 88 3000 1.5 110 22:40 22.09.2019
1481 Haze 27 1008 88 3000 1.5 110 22:22 22.09.2019
1482 Haze 27 1009 88 3000 2.6 110 21:43 22.09.2019
1483 Haze 27 1009 88 3000 2.6 110 21:23 22.09.2019
1484 Haze 27 1009 88 3500 2.6 120 20:58 22.09.2019
1485 Haze 27 1009 88 3500 3.6 120 20:40 22.09.2019
1486 Haze 27 1009 88 3500 3.6 120 20:40 22.09.2019
1487 Haze 27 1009 88 3500 3.6 120 20:22 22.09.2019
1488 Haze 28 1009 83 3500 2.1 150 19:42 22.09.2019
1489 Haze 28 1009 83 3500 2.1 150 19:24 22.09.2019
1490 Haze 28 1009 83 3500 2.1 150 19:24 22.09.2019
1491 Haze 28 1009 83 3500 2.1 150 18:59 22.09.2019
1492 Haze 28 1009 83 4000 3.1 170 18:41 22.09.2019
1493 Haze 28 1008 83 4000 3.1 180 18:20 22.09.2019
1494 Haze 28 1008 83 4000 3.1 180 17:59 22.09.2019
1495 Haze 28 1008 83 4000 3.1 180 17:59 22.09.2019
1496 Haze 28 1008 83 4000 4.1 190 17:41 22.09.2019
1497 Haze 28 1008 83 4000 4.1 190 17:20 22.09.2019
1498 Haze 28 1007 74 5000 2.6 190 16:45 22.09.2019
1499 Haze 28 1007 74 5000 2.6 190 16:45 22.09.2019
1500 Haze 28 1007 74 5000 2.6 190 16:26 22.09.2019
1501 Haze 28 1007 74 5000 3.1 200 15:57 22.09.2019
1502 Haze 29 1006 78 5000 3.6 190 15:38 22.09.2019
1503 Haze 29 1006 78 5000 3.6 190 15:19 22.09.2019
1504 Haze 30 1006 79 5000 5.1 210 14:43 22.09.2019
1505 Haze 30 1006 79 5000 5.1 210 14:25 22.09.2019
1506 Haze 30 1006 74 5000 5.7 220 13:59 22.09.2019
1507 Haze 30 1006 70 5000 5.1 220 13:40 22.09.2019
1508 Haze 30 1006 70 5000 5.1 220 13:21 22.09.2019
1509 -273 0 0 0 0 0 12:55 22.09.2019
1510 Clouds 32 1006 66 6000 5.1 220 12:36 22.09.2019
1511 Clouds 32 1006 62 6000 4.6 200 12:18 22.09.2019
1512 Clouds 32 1006 62 6000 5.1 200 11:41 22.09.2019
1513 Clouds 32 1006 62 6000 5.1 200 11:23 22.09.2019
1514 Clouds 32 1006 62 6000 5.1 200 11:23 22.09.2019
1515 Haze 32 1007 62 5000 4.1 180 10:45 22.09.2019
1516 Haze 32 1007 62 5000 4.1 180 10:21 22.09.2019
1517 Haze 32 1007 66 5000 3.6 170 09:59 22.09.2019
1518 Haze 32 1007 66 5000 3.6 170 09:59 22.09.2019
1519 Haze 31 1008 70 4000 3.6 200 09:40 22.09.2019
1520 Haze 31 1008 70 4000 3.6 200 09:20 22.09.2019
1521 Haze 31 1008 70 4000 3.6 180 08:45 22.09.2019
1522 Haze 31 1008 70 4000 3.6 180 08:25 22.09.2019
1523 Haze 31 1008 74 4000 4.6 170 07:56 22.09.2019
1524 Haze 30 1008 74 4000 5.1 170 07:38 22.09.2019
1525 Haze 30 1008 74 4000 3.6 160 07:18 22.09.2019
1526 Haze 30 1008 74 4000 3.6 160 06:55 22.09.2019
1527 Haze 28 1008 78 4000 3.6 130 05:36 22.09.2019
1528 Haze 28 1006 83 4000 2.6 0 03:48 22.09.2019
1529 Haze 27 1005 83 4000 3.6 130 02:38 22.09.2019
1530 Haze 27 1005 83 4000 3.6 130 02:19 22.09.2019
1531 Haze 27 1005 83 3000 3.1 140 01:20 22.09.2019
1532 Haze 27 1005 83 3000 3.6 150 00:33 22.09.2019
1533 Haze 27 1005 83 3000 3.6 130 23:59 21.09.2019
1534 Haze 27 1005 83 3000 4.1 140 23:40 21.09.2019
1535 Haze 27 1005 83 3000 5.1 140 23:19 21.09.2019
1536 Haze 27 1006 83 3000 4.1 150 22:39 21.09.2019
1537 Haze 27 1006 83 3000 4.1 150 22:21 21.09.2019
1538 Haze 27 1006 83 3000 4.1 160 21:55 21.09.2019
1539 Haze 27 1006 83 3000 4.1 160 21:55 21.09.2019
1540 Haze 27 1006 83 3000 3.6 150 21:36 21.09.2019
1541 Haze 27 1006 83 3000 3.6 150 21:18 21.09.2019
1542 Haze 27 1006 88 2500 4.1 140 20:39 21.09.2019
1543 Haze 27 1006 88 2500 4.1 140 20:21 21.09.2019
1544 Rain 27 1007 88 3000 3.6 140 19:47 21.09.2019
1545 Haze 28 1007 83 3000 5.1 150 19:23 21.09.2019
1546 Haze 28 1007 83 3000 5.1 150 18:55 21.09.2019
1547 Haze 28 1006 83 3000 4.1 140 18:37 21.09.2019
1548 Haze 28 1006 83 3000 3.6 150 18:18 21.09.2019
1549 Haze 28 1006 83 3000 5.1 160 17:40 21.09.2019
1550 Haze 28 1006 83 3000 5.1 160 17:21 21.09.2019
1551 Haze 28 1005 83 3000 5.1 180 16:43 21.09.2019
1552 Haze 29 1005 83 3000 5.1 180 16:24 21.09.2019
1553 Haze 29 1005 83 3000 4.1 190 15:56 21.09.2019
1554 Rain 29 1004 79 3000 3.6 170 15:38 21.09.2019
1555 Haze 30 1004 79 5000 3.6 180 15:19 21.09.2019
1556 Haze 30 1003 74 5000 4.1 180 14:43 21.09.2019
1557 Haze 30 1003 74 5000 4.1 180 14:24 21.09.2019
1558 Haze 31 1003 74 5000 4.1 190 13:42 21.09.2019
1559 Haze 31 1003 74 5000 4.1 190 13:23 21.09.2019
1560 Haze 31 1004 74 5000 5.1 180 12:57 21.09.2019
1561 Haze 31 1004 74 5000 5.1 180 12:38 21.09.2019
1562 Haze 31 1004 70 5000 4.1 200 12:20 21.09.2019
1563 Haze 31 1004 70 5000 5.7 190 11:50 21.09.2019
1564 Haze 31 1004 70 5000 5.7 190 11:25 21.09.2019
1565 Haze 31 1004 70 5000 3.6 190 10:56 21.09.2019
1566 Clouds 31 1005 66 6000 3.6 170 10:37 21.09.2019
1567 Clouds 32 1005 66 6000 6.7 160 10:19 21.09.2019
1568 Clouds 31 1005 66 6000 6.7 160 09:55 21.09.2019
1569 Clouds 31 1005 70 6000 3.6 190 09:36 21.09.2019
1570 Clouds 31 1005 70 6000 3.6 190 09:18 21.09.2019
1571 Clouds 32 1006 70 6000 6.7 170 08:42 21.09.2019
1572 Haze 31 1006 70 5000 6.2 140 07:58 21.09.2019
1573 Haze 31 1006 70 5000 5.7 140 07:39 21.09.2019
1574 Haze 30 1007 74 5000 6.7 130 07:18 21.09.2019
1575 Haze 30 1007 74 4000 1.5 130 06:35 21.09.2019
1576 Haze 29 1007 78 4000 6.7 140 05:51 21.09.2019
1577 Haze 26 1006 83 3000 3.6 120 04:39 21.09.2019
1578 Haze 28 1005 83 2500 4.1 120 03:31 21.09.2019
1579 Haze 26 1004 83 2500 5.1 140 02:25 21.09.2019
1580 Haze 26 1004 83 2500 5.1 150 01:48 21.09.2019
1581 Haze 26 1004 83 2500 5.1 150 01:25 21.09.2019
1582 Haze 26 1004 83 2500 5.1 140 00:23 21.09.2019
1583 Haze 27 1004 83 2500 6.2 150 23:49 20.09.2019
1584 Haze 27 1004 83 2500 6.2 150 23:30 20.09.2019
1585 Haze 27 1004 83 2500 4.6 140 22:56 20.09.2019
1586 Haze 27 1005 83 2500 5.1 150 22:37 20.09.2019
1587 Haze 27 1005 83 2500 5.1 150 22:19 20.09.2019
1588 Haze 27 1005 83 2500 4.6 150 21:54 20.09.2019
1589 Haze 27 1006 88 2500 3.6 140 21:36 20.09.2019
1590 Haze 27 1006 88 2500 3.6 140 21:18 20.09.2019
1591 Haze 27 1006 88 2500 2.6 120 20:41 20.09.2019
1592 Haze 27 1007 88 2500 2.6 130 20:20 20.09.2019
1593 Haze 27 1007 88 2500 2.6 130 20:20 20.09.2019
1594 Haze 27 1007 88 2500 2.6 130 19:56 20.09.2019
1595 Rain 27 1007 88 2500 3.6 130 19:37 20.09.2019
1596 Rain 27 1007 94 2500 3.6 110 19:19 20.09.2019
1597 Rain 27 1006 94 2500 2.6 140 18:39 20.09.2019
1598 Rain 26 1006 100 1700 2.6 170 18:20 20.09.2019
1599 Rain 26 1006 94 1500 4.1 180 17:57 20.09.2019
1600 Rain 26 1006 94 1500 4.1 180 17:57 20.09.2019
1601 Rain 26 1006 100 1700 2.6 170 17:57 20.09.2019
1602 Rain 26 1006 94 1500 4.1 180 17:38 20.09.2019
1603 Rain 26 1006 94 1500 4.1 180 17:18 20.09.2019
1604 Rain 28 1005 88 1800 2.1 130 16:41 20.09.2019
1605 Rain 28 1005 88 1800 2.1 130 16:41 20.09.2019
1606 Rain 27 1005 88 1800 4.6 200 16:19 20.09.2019
1607 Rain 28 1005 88 2500 3.1 170 15:43 20.09.2019
1608 Rain 28 1005 88 2500 3.1 170 15:43 20.09.2019
1609 Rain 28 1005 88 2500 3.1 170 15:23 20.09.2019
1610 Haze 28 1004 88 3000 3.6 190 14:58 20.09.2019
1611 Haze 28 1004 88 3000 3.6 190 14:38 20.09.2019
1612 Clouds 28 1004 82 0 9.76 188.463 14:18 20.09.2019
1613 Haze 29 1003 83 3500 6.2 180 13:47 20.09.2019
1614 Haze 29 1003 83 3500 6.2 180 13:27 20.09.2019
1615 Haze 29 1004 88 3000 4.6 180 12:56 20.09.2019
1616 Haze 29 1004 88 3000 4.6 180 12:36 20.09.2019
1617 Rain 29 1004 88 2700 5.1 200 12:18 20.09.2019
1618 Haze 29 1004 83 3000 6.2 200 11:45 20.09.2019
1619 Haze 29 1004 83 3000 6.2 200 11:20 20.09.2019
1620 Haze 29 1005 83 2500 5.7 160 10:43 20.09.2019
1621 Haze 29 1005 83 2500 5.7 160 10:23 20.09.2019
1622 Haze 28 1005 88 2500 5.1 170 09:55 20.09.2019
1623 Rain 28 1006 94 2200 3.1 160 09:36 20.09.2019
1624 Rain 28 1006 94 2200 3.1 160 09:18 20.09.2019
1625 Drizzle 28 1007 94 2200 3.6 160 08:40 20.09.2019
1626 Haze 28 1007 94 2500 2.1 140 08:21 20.09.2019
1627 Haze 28 1007 94 2500 2.6 160 07:45 20.09.2019
1628 Haze 28 1007 94 2500 2.6 160 07:25 20.09.2019
1629 Drizzle 27 1007 94 2200 3.1 190 06:44 20.09.2019
1630 Thunderstorm 25 1007 94 2100 4.6 200 06:20 20.09.2019
1631 Rain 26 1007 94 700 4.6 170 05:42 20.09.2019
1632 Haze 28 1005 88 3500 2.6 120 03:31 20.09.2019
1633 Haze 28 1005 88 2800 1.5 140 02:51 20.09.2019
1634 Haze 28 1005 88 3000 3.1 120 02:51 20.09.2019
1635 Haze 27 1004 88 2500 3.1 120 01:44 20.09.2019
1636 Haze 27 1004 88 2500 1.5 140 00:48 20.09.2019
1637 Haze 27 1004 88 2500 1.5 150 00:21 20.09.2019
1638 Haze 27 1004 88 2500 1.5 140 00:21 20.09.2019
1639 Haze 27 1005 88 2500 3.6 110 23:41 19.09.2019
1640 Haze 27 1005 88 2500 3.6 110 23:19 19.09.2019
1641 Haze 27 1005 94 2500 2.6 110 22:54 19.09.2019
1642 Haze 27 1005 94 2500 3.1 100 22:36 19.09.2019
1643 Haze 27 1006 94 2500 2.1 120 22:18 19.09.2019
1644 Haze 27 1006 94 2500 2.1 120 21:55 19.09.2019
1645 Haze 27 1006 94 2500 3.6 110 21:36 19.09.2019
1646 Drizzle 27 1006 94 2500 4.1 100 21:18 19.09.2019
1647 Haze 27 1006 94 2500 3.6 110 21:18 19.09.2019
1648 Haze 27 1006 94 2500 3.6 110 20:43 19.09.2019
1649 Haze 27 1006 94 2500 3.6 110 20:20 19.09.2019
1650 Haze 26 1006 94 2500 2.6 110 19:55 19.09.2019
1651 Drizzle 27 1007 88 2500 2.6 110 19:37 19.09.2019
1652 Drizzle 27 1007 88 2500 3.1 110 19:19 19.09.2019
1653 Drizzle 27 1007 88 2500 3.1 110 19:19 19.09.2019
1654 Drizzle 27 1007 88 2500 2.6 150 18:42 19.09.2019
1655 Drizzle 27 1006 88 2500 2.1 180 18:24 19.09.2019
1656 Drizzle 27 1006 88 2500 2.1 180 18:24 19.09.2019
1657 Rain 27 1006 88 2100 2.6 170 17:54 19.09.2019
1658 Rain 27 1006 88 2100 2.6 170 17:36 19.09.2019
1659 Rain 27 1006 88 2100 2.6 170 17:18 19.09.2019
1660 Haze 28 1006 83 2100 2.6 140 16:42 19.09.2019
1661 Haze 28 1006 83 2100 2.6 140 16:20 19.09.2019
1662 Drizzle 28 1005 83 2100 2.1 150 15:55 19.09.2019
1663 Drizzle 28 1005 83 2100 2.1 150 15:55 19.09.2019
1664 Drizzle 28 1005 83 2100 2.1 150 15:55 19.09.2019
1665 Drizzle 28 1005 83 2100 2.1 150 15:55 19.09.2019
1666 Drizzle 28 1005 83 2100 2.1 150 15:55 19.09.2019
1667 Haze 28 1005 83 2500 1 170 15:36 19.09.2019
1668 Drizzle 28 1005 83 2500 2.6 240 15:18 19.09.2019
1669 Drizzle 28 1004 83 2500 2.6 240 14:41 19.09.2019
1670 Drizzle 29 1004 79 2500 3.1 190 14:22 19.09.2019
1671 Drizzle 29 1004 79 2500 3.1 190 13:58 19.09.2019
1672 Haze 30 1004 79 3000 4.6 170 13:38 19.09.2019
1673 Haze 30 1003 70 2500 3.1 190 13:18 19.09.2019
1674 Haze 31 1003 70 2500 3.6 230 12:37 19.09.2019
1675 Haze 31 1004 70 2500 3.6 60 12:18 19.09.2019
1676 Haze 31 1004 70 2500 2.1 80 11:41 19.09.2019
1677 Haze 31 1004 70 2500 2.1 80 11:22 19.09.2019
1678 Haze 30 1004 74 2500 2.1 120 10:59 19.09.2019
1679 Haze 29 1005 74 2500 3.1 140 10:40 19.09.2019
1680 Haze 29 1005 74 2500 3.1 140 10:21 19.09.2019
1681 Haze 29 1005 79 2500 2.1 140 09:58 19.09.2019
1682 Rain 29 1006 79 2500 3.6 160 09:40 19.09.2019
1683 Rain 29 1006 79 2500 3.6 160 09:40 19.09.2019
1684 Rain 29 1006 79 2500 3.6 160 09:40 19.09.2019
1685 Haze 30 1006 79 3000 3.6 180 09:19 19.09.2019
1686 Haze 30 1006 79 3000 3.6 180 08:51 19.09.2019
1687 Haze 29 1007 83 3000 2.6 170 08:24 19.09.2019
1688 Haze 29 1007 83 2700 2.1 140 07:45 19.09.2019
1689 Haze 29 1007 83 3000 2.1 100 07:23 19.09.2019
1690 Haze 28 1007 83 3000 2.1 100 06:58 19.09.2019
1691 Haze 28 1007 88 3000 2.6 120 06:38 19.09.2019
1692 Haze 27 1007 88 2500 1.5 0 06:19 19.09.2019
1693 Drizzle 27 1007 88 2500 1 0 05:48 19.09.2019
1694 Mist 27 1006 88 2200 1 0 04:20 19.09.2019
1695 Drizzle 27 1006 88 2000 2.6 100 03:20 19.09.2019
1696 Haze 28 1005 94 2500 2.1 30 01:40 19.09.2019
1697 Haze 28 1005 94 2500 2.1 30 01:19 19.09.2019
1698 Haze 28 1005 94 2500 5.31 277.229 00:43 19.09.2019
1699 Haze 27 1006 94 2500 6.3 303.783 00:19 19.09.2019
1700 Haze 28 1006 94 2500 1.5 60 23:38 18.09.2019
1701 Haze 28 1006 94 2500 1.5 60 23:19 18.09.2019
1702 Thunderstorm 28 1006 94 2500 2.1 270 22:39 18.09.2019
1703 Thunderstorm 28 1007 94 2500 1.5 270 22:19 18.09.2019
1704 Thunderstorm 28 1007 94 2500 1.5 270 21:57 18.09.2019
1705 Thunderstorm 27 1007 100 2500 2.1 360 21:39 18.09.2019
1706 Thunderstorm 28 1007 100 2500 2.1 360 21:18 18.09.2019
1707 Thunderstorm 28 1008 100 2500 1.5 310 20:57 18.09.2019
1708 Thunderstorm 27 1007 94 2200 2.6 340 20:39 18.09.2019
1709 Thunderstorm 27 1007 94 2200 2.6 340 20:39 18.09.2019
1710 Thunderstorm 26 1008 100 1800 3.6 30 20:20 18.09.2019
1711 Thunderstorm 26 1008 94 800 4.1 80 19:56 18.09.2019
1712 Thunderstorm 27 1008 94 800 4.1 80 19:37 18.09.2019
1713 Thunderstorm 29 1007 89 2500 2.1 310 19:18 18.09.2019
1714 Thunderstorm 29 1007 89 2500 2.1 310 19:18 18.09.2019
1715 Thunderstorm 29 1007 89 2500 2.1 310 19:18 18.09.2019
1716 Thunderstorm 28 1007 89 2500 2.1 310 18:55 18.09.2019
1717 Thunderstorm 28 1007 88 2500 25.7 290 18:36 18.09.2019
1718 Thunderstorm 28 1007 88 2500 25.7 290 18:18 18.09.2019
1719 Haze 29 1007 94 2500 1.5 280 17:54 18.09.2019
1720 Haze 28 1007 94 2500 1.5 280 17:36 18.09.2019
1721 Haze 30 1007 83 2500 2.6 340 17:18 18.09.2019
1722 Haze 29 1006 89 2500 2.6 290 16:43 18.09.2019
1723 Haze 28 1006 89 2500 2.6 290 16:22 18.09.2019
1724 Haze 29 1006 89 2500 3.1 310 15:59 18.09.2019
1725 Haze 29 1006 89 2500 3.1 310 15:59 18.09.2019
1726 Haze 29 1006 89 2500 2.6 320 15:40 18.09.2019
1727 Haze 29 1006 89 2500 2.6 320 15:20 18.09.2019
1728 Drizzle 29 1005 89 2500 2.6 320 14:58 18.09.2019
1729 Rain 29 1005 89 2500 3.6 310 14:40 18.09.2019
1730 Rain 29 1005 89 2500 3.6 310 14:22 18.09.2019
1731 Rain 29 1005 94 2100 3.1 300 13:58 18.09.2019
1732 Thunderstorm 29 1005 94 2100 2.6 290 13:38 18.09.2019
1733 Thunderstorm 29 1005 94 700 3.1 300 13:18 18.09.2019
1734 Thunderstorm 29 1005 100 1200 3.6 220 12:45 18.09.2019
1735 Thunderstorm 29 1005 100 1200 3.6 220 12:27 18.09.2019
1736 Rain 29 1006 94 1500 2.6 300 11:41 18.09.2019
1737 Rain 29 1006 94 1500 2.6 300 11:41 18.09.2019
1738 Rain 29 1006 94 1500 2.6 300 11:41 18.09.2019
1739 Rain 29 1006 94 1500 2.6 300 11:21 18.09.2019
1740 Haze 30 1006 79 3500 6.2 300 10:58 18.09.2019
1741 Haze 30 1007 79 4000 4.1 300 10:40 18.09.2019
1742 Haze 30 1007 79 4000 4.1 300 10:20 18.09.2019
1743 Haze 30 1007 74 4000 5.7 280 09:58 18.09.2019
1744 Haze 31 1008 74 4000 3.6 310 09:37 18.09.2019
1745 Haze 31 1008 74 4000 3.6 310 09:37 18.09.2019
1746 Haze 31 1008 74 4000 3.6 310 09:19 18.09.2019
1747 Haze 30 1008 74 4000 2.6 310 08:41 18.09.2019
1748 Haze 30 1008 74 4000 2.6 310 08:23 18.09.2019
1749 Haze 30 1009 79 3000 2.1 290 07:52 18.09.2019
1750 Haze 30 1009 79 3000 2.1 290 07:33 18.09.2019
1751 Haze 29 1009 79 3000 2.6 300 06:59 18.09.2019
1752 Haze 28 1009 88 3000 2.6 300 06:35 18.09.2019
1753 Mist 27 1008 94 2100 2.6 130 05:41 18.09.2019
1754 Haze 26 1008 94 2100 3.6 120 04:43 18.09.2019
1755 Haze 26 1006 94 2500 2.1 100 02:41 18.09.2019
1756 Haze 26 1006 94 2500 2.1 100 02:18 18.09.2019
1757 Haze 26 1006 94 2500 2.1 90 01:20 18.09.2019
1758 Drizzle 26 1006 94 2500 2.6 90 00:47 18.09.2019
1759 Haze 26 1006 100 3000 1.5 0 00:19 18.09.2019
1760 Haze 26 1006 100 2500 3.1 210 23:44 17.09.2019
1761 Haze 26 1006 100 2500 3.1 210 23:22 17.09.2019
1762 Haze 26 1007 94 2500 2.1 110 22:42 17.09.2019
1763 Haze 26 1007 94 2500 2.1 110 22:24 17.09.2019
1764 Haze 26 1007 94 2500 2.1 110 22:24 17.09.2019
1765 Rain 26 1007 94 2200 2.6 110 21:55 17.09.2019
1766 Haze 26 1007 100 2500 5.44 305.354 21:37 17.09.2019
1767 Haze 26 1007 100 2500 5.89 299.742 21:18 17.09.2019
1768 Haze 26 1007 100 2500 5.89 299.742 21:18 17.09.2019
1769 Haze 26 1007 94 2500 2.1 210 20:57 17.09.2019
1770 Haze 26 1007 94 2500 2.1 180 20:39 17.09.2019
1771 Rain 26 1007 94 2200 2.6 140 20:21 17.09.2019
1772 Rain 28 1007 94 1800 2.1 80 19:58 17.09.2019
1773 Rain 28 1007 94 1800 2.1 80 19:39 17.09.2019
1774 Haze 28 1007 88 2500 2.6 120 19:19 17.09.2019
1775 Haze 28 1007 88 2500 2.6 120 19:19 17.09.2019
1776 Haze 28 1007 94 2500 2.6 150 18:56 17.09.2019
1777 Haze 28 1007 94 2500 2.6 150 18:38 17.09.2019
1778 Haze 28 1007 94 2500 2.6 150 18:19 17.09.2019
1779 Haze 28 1007 94 2500 3.1 130 17:45 17.09.2019
1780 Haze 29 1007 94 2500 3.1 130 17:19 17.09.2019
1781 Haze 29 1007 94 2500 3.1 130 17:19 17.09.2019
1782 Haze 29 1007 88 2500 5.61 295.132 16:56 17.09.2019
1783 Rain 29 1007 94 2500 1.5 0 16:37 17.09.2019
1784 Rain 28 1007 94 2500 1.5 0 16:19 17.09.2019
1785 Rain 27 1006 94 2100 2.6 140 15:39 17.09.2019
1786 Rain 28 1006 94 2100 2.6 140 15:20 17.09.2019
1787 Rain 28 1006 88 2500 2.1 90 14:56 17.09.2019
1788 Rain 28 1006 88 2500 2.1 90 14:56 17.09.2019
1789 Rain 28 1006 88 2500 2.6 110 14:38 17.09.2019
1790 Haze 29 1006 88 3000 2.1 90 14:19 17.09.2019
1791 Haze 29 1006 88 3000 2.1 90 13:54 17.09.2019
1792 Rain 29 1006 88 2500 1.5 0 13:36 17.09.2019
1793 Thunderstorm 29 1006 88 2500 2.6 280 13:18 17.09.2019
1794 Thunderstorm 29 1006 89 2500 4.6 300 12:41 17.09.2019
1795 Thunderstorm 29 1006 89 2500 3.6 300 12:19 17.09.2019
1796 Thunderstorm 29 1006 83 2500 4.6 290 11:44 17.09.2019
1797 Thunderstorm 29 1006 83 2500 4.6 290 11:26 17.09.2019
1798 Rain 29 1006 83 2500 5.1 290 10:59 17.09.2019
1799 Haze 30 1007 70 3500 4.1 270 10:40 17.09.2019
1800 Haze 30 1007 70 3500 4.1 270 10:20 17.09.2019
1801 Haze 29 1008 79 3500 5.7 280 09:43 17.09.2019
1802 -273 0 0 0 0 0 09:25 17.09.2019
1803 Haze 30 1008 83 3500 5.7 270 08:57 17.09.2019
1804 Haze 29 1008 84 3500 4.1 290 08:39 17.09.2019
1805 Haze 29 1008 84 3500 4.1 290 08:39 17.09.2019
1806 Haze 29 1008 84 3500 4.1 290 08:20 17.09.2019
1807 Haze 30 1008 83 3000 4.6 280 07:42 17.09.2019
1808 Haze 30 1008 83 3000 4.6 280 07:42 17.09.2019
1809 Haze 30 1008 83 3000 4.6 280 07:24 17.09.2019
1810 Haze 29 1008 88 3500 5.1 270 06:53 17.09.2019
1811 Haze 29 1008 88 3500 5.1 270 06:29 17.09.2019
1812 Drizzle 30 1008 83 3500 6.7 270 05:53 17.09.2019
1813 Haze 29 1007 88 3000 4.1 280 04:46 17.09.2019
1814 Haze 29 1006 88 3000 4.6 260 03:40 17.09.2019
1815 Thunderstorm 28 1006 88 3000 4.1 260 02:39 17.09.2019
1816 Thunderstorm 28 1006 88 3000 4.1 260 02:39 17.09.2019
1817 Thunderstorm 29 1006 88 3000 5.7 260 01:49 17.09.2019
1818 Haze 28 1006 88 3000 4.6 260 00:46 17.09.2019
1819 Haze 28 1006 88 3000 4.6 250 23:41 16.09.2019
1820 Haze 28 1006 88 3000 4.6 250 23:20 16.09.2019
1821 Haze 28 1007 88 3000 4.6 250 22:58 16.09.2019
1822 Haze 28 1007 88 3000 4.1 260 22:40 16.09.2019
1823 Haze 28 1007 88 3000 4.1 260 22:21 16.09.2019
1824 Haze 28 1007 88 3000 3.6 270 21:56 16.09.2019
1825 Haze 28 1008 88 3000 4.1 270 21:38 16.09.2019
1826 Haze 28 1008 88 3000 4.1 270 21:19 16.09.2019
1827 Drizzle 28 1008 88 3000 3.6 280 20:42 16.09.2019
1828 Drizzle 28 1008 88 3000 3.6 280 20:23 16.09.2019
1829 Haze 28 1008 88 3000 4.1 280 19:58 16.09.2019
1830 Haze 28 1008 88 3000 3.1 280 19:39 16.09.2019
1831 Haze 28 1008 88 3000 3.1 280 19:20 16.09.2019
1832 Haze 29 1008 83 3000 3.6 270 18:56 16.09.2019
1833 Haze 29 1008 83 3000 3.6 270 18:37 16.09.2019
1834 Haze 30 1008 83 3000 3.6 270 18:18 16.09.2019
1835 Haze 29 1007 88 3000 3.6 270 17:42 16.09.2019
1836 Haze 28 1007 88 3000 3.6 270 17:24 16.09.2019
1837 Haze 28 1007 88 3000 3.6 280 16:57 16.09.2019
1838 Haze 28 1007 88 3000 3.6 280 16:38 16.09.2019
1839 Haze 29 1006 83 3000 4.1 290 16:20 16.09.2019
1840 Haze 29 1006 83 3000 4.1 290 15:55 16.09.2019
1841 Haze 29 1006 83 3000 4.6 280 15:37 16.09.2019
1842 Haze 29 1006 83 3000 5.1 280 15:18 16.09.2019
1843 Haze 28 1006 83 3000 4.1 290 14:44 16.09.2019
1844 Haze 28 1006 83 3000 4.1 290 14:23 16.09.2019
1845 Rain 29 1006 88 2500 3.6 280 13:58 16.09.2019
1846 Haze 29 1006 94 3000 1.5 260 13:38 16.09.2019
1847 Rain 29 1006 83 2100 5.7 290 13:20 16.09.2019
1848 Rain 29 1006 83 2100 5.7 290 13:20 16.09.2019
1849 Haze 30 1007 79 3000 4.1 300 12:43 16.09.2019
1850 -273 0 0 0 0 0 12:25 16.09.2019
1851 Haze 30 1007 79 3000 4.1 300 12:25 16.09.2019
1852 Haze 30 1007 79 3000 4.1 300 12:25 16.09.2019
1853 Haze 29 1007 83 3000 5.7 290 11:55 16.09.2019
1854 Haze 29 1007 74 3000 5.1 300 11:37 16.09.2019
1855 Haze 29 1007 74 3000 5.1 300 11:19 16.09.2019
1856 Haze 29 1008 83 2500 3.6 300 10:38 16.09.2019
1857 Haze 29 1008 83 2500 3.6 300 10:20 16.09.2019
1858 Rain 29 1008 88 2100 2.6 310 09:58 16.09.2019
1859 Rain 28 1009 83 2100 5.1 290 09:38 16.09.2019
1860 Rain 28 1009 83 2100 5.1 290 09:19 16.09.2019
1861 Haze 29 1009 88 2500 4.1 290 08:46 16.09.2019
1862 Haze 29 1009 88 2500 4.1 290 08:25 16.09.2019
1863 Rain 29 1010 88 2100 4.1 270 07:56 16.09.2019
1864 Rain 29 1010 88 2100 4.1 270 07:56 16.09.2019
1865 Haze 30 1010 79 3000 6.2 280 07:37 16.09.2019
1866 Haze 29 1010 83 2500 4.1 290 07:18 16.09.2019
1867 Haze 29 1010 83 2500 6.2 260 06:44 16.09.2019
1868 Haze 29 1009 83 2500 5.1 280 06:26 16.09.2019
1869 Haze 28 1009 88 2500 4.6 280 05:46 16.09.2019
1870 Haze 28 1009 88 2500 4.6 280 05:26 16.09.2019
1871 Haze 29 1008 88 3500 4.1 290 03:52 16.09.2019
1872 Haze 28 1008 88 3000 3.6 270 01:57 16.09.2019
1873 Haze 28 1008 94 3000 3.1 270 00:44 16.09.2019
1874 Haze 27 1008 94 3000 3.1 270 00:25 16.09.2019
1875 Haze 28 1008 94 3000 2.6 270 23:41 15.09.2019
1876 Haze 27 1008 94 3000 2.6 270 23:21 15.09.2019
1877 Haze 27 1008 88 3000 2.1 200 22:43 15.09.2019
1878 Haze 27 1008 88 3000 2.1 200 22:23 15.09.2019
1879 Haze 27 1009 88 3000 2.1 170 21:58 15.09.2019
1880 Haze 27 1009 88 3000 1.5 180 21:40 15.09.2019
1881 Haze 27 1009 88 3000 1.5 180 21:22 15.09.2019
1882 Haze 27 1009 88 3000 2.1 180 20:59 15.09.2019
1883 Haze 27 1009 83 3000 2.1 190 20:41 15.09.2019
1884 Haze 27 1009 83 3000 2.1 190 20:23 15.09.2019
1885 Haze 27 1010 83 3000 1.5 140 19:45 15.09.2019
1886 Haze 26 1010 88 3500 2.1 140 19:25 15.09.2019
1887 Haze 26 1010 88 3500 2.1 140 18:55 15.09.2019
1888 Haze 27 1009 83 3500 3.1 140 18:36 15.09.2019
1889 Haze 27 1009 83 3500 4.43 295.819 18:18 15.09.2019
1890 Haze 27 1009 83 3500 4.43 295.819 18:18 15.09.2019
1891 Haze 27 1009 83 3500 4.43 295.819 17:40 15.09.2019
1892 Haze 27 1009 83 3500 4.43 295.819 17:21 15.09.2019
1893 Haze 26 1008 88 3500 1.5 360 16:44 15.09.2019
1894 Haze 26 1008 88 3500 1.5 360 16:26 15.09.2019
1895 Haze 26 1008 83 3500 2.6 330 15:59 15.09.2019
1896 Haze 26 1008 83 4000 4.6 290 15:41 15.09.2019
1897 Haze 28 1008 83 4000 4.6 290 15:21 15.09.2019
1898 Haze 26 1008 83 4000 4.6 330 14:58 15.09.2019
1899 Haze 27 1008 83 4000 4.6 310 14:40 15.09.2019
1900 Haze 27 1008 83 4000 4.6 310 14:20 15.09.2019
1901 Haze 30 1008 70 4000 4.6 320 13:47 15.09.2019
1902 Haze 29 1008 70 4000 4.6 320 13:24 15.09.2019
1903 Haze 29 1008 74 4000 3.1 280 12:57 15.09.2019
1904 Haze 29 1008 74 4000 1.5 360 12:39 15.09.2019
1905 Haze 29 1008 78 3500 2.1 320 12:18 15.09.2019
1906 Haze 27 1008 83 2500 2.1 340 11:42 15.09.2019
1907 Haze 28 1008 83 2500 2.1 340 11:22 15.09.2019
1908 Drizzle 27 1009 88 2500 4.6 10 10:58 15.09.2019
1909 Rain 27 1009 94 2500 4.6 10 10:40 15.09.2019
1910 Rain 27 1009 94 2500 4.6 10 10:21 15.09.2019
1911 Rain 27 1010 94 2200 3.6 330 09:42 15.09.2019
1912 Rain 28 1010 94 2200 3.6 330 09:20 15.09.2019
1913 Rain 28 1010 94 2100 2.6 330 08:53 15.09.2019
1914 Rain 27 1011 94 1200 2.1 330 08:30 15.09.2019
1915 Rain 27 1011 94 1600 2.6 90 07:57 15.09.2019
1916 Rain 27 1011 94 1800 2.1 100 07:39 15.09.2019
1917 Rain 27 1011 94 1500 1.5 110 06:43 15.09.2019
1918 Rain 25 1010 94 1000 2.1 340 04:59 15.09.2019
1919 Rain 25 1008 94 1800 2.6 40 03:18 15.09.2019
1920 Haze 26 1008 88 3000 6.7 350 01:58 15.09.2019
1921 Haze 28 1008 88 3000 6.2 250 01:36 15.09.2019
1922 Haze 28 1007 88 3000 5.1 260 00:56 15.09.2019
1923 Haze 28 1007 88 3000 5.7 260 00:36 15.09.2019
1924 Haze 28 1007 88 3000 6.2 250 00:18 15.09.2019
1925 Haze 28 1007 88 3000 6.2 250 23:55 14.09.2019
1926 Haze 28 1007 88 3000 5.1 260 23:37 14.09.2019
1927 Haze 28 1007 88 3000 5.1 260 23:18 14.09.2019
1928 Haze 28 1008 88 3000 5.7 260 22:55 14.09.2019
1929 Haze 28 1008 88 3000 4.1 250 22:37 14.09.2019
1930 Haze 28 1008 88 3000 5.1 260 22:18 14.09.2019
1931 Haze 28 1009 88 3000 6.2 260 21:40 14.09.2019
1932 Haze 28 1009 88 3000 6.2 260 21:20 14.09.2019
1933 Haze 28 1009 88 3000 5.7 250 20:57 14.09.2019
1934 Haze 28 1009 88 3000 5.1 250 20:38 14.09.2019
1935 Haze 28 1009 88 3000 5.1 250 20:20 14.09.2019
1936 Haze 28 1009 88 3000 5.1 240 19:46 14.09.2019
1937 Haze 28 1009 88 2500 5.1 250 19:22 14.09.2019
1938 Haze 28 1009 88 2500 5.1 240 18:57 14.09.2019
1939 Haze 28 1009 88 2500 5.1 240 18:38 14.09.2019
1940 Haze 28 1009 88 2500 4.6 250 18:19 14.09.2019
1941 Haze 28 1009 88 2500 5.1 260 17:44 14.09.2019
1942 Haze 28 1009 88 2500 5.1 260 17:24 14.09.2019
1943 Rain 28 1008 88 2500 5.7 260 16:51 14.09.2019
1944 Haze 29 1008 88 3000 5.7 250 16:29 14.09.2019
1945 Haze 29 1008 79 3000 4.6 260 15:59 14.09.2019
1946 Haze 29 1008 83 4000 5.7 260 15:40 14.09.2019
1947 Haze 30 1008 83 4000 5.7 260 15:22 14.09.2019
1948 Haze 30 1008 83 4000 5.7 260 15:22 14.09.2019
1949 Haze 29 1007 83 4000 5.7 250 14:45 14.09.2019
1950 Haze 29 1007 83 4000 5.7 250 14:20 14.09.2019
1951 Haze 29 1007 83 4000 5.7 270 13:56 14.09.2019
1952 Haze 29 1007 83 4000 3.6 270 13:38 14.09.2019
1953 Haze 30 1007 83 4000 4.6 270 13:20 14.09.2019
1954 Haze 30 1007 79 4000 4.6 270 12:45 14.09.2019
1955 Haze 30 1007 79 4000 4.6 270 12:22 14.09.2019
1956 Haze 30 1008 79 4000 5.1 260 11:41 14.09.2019
1957 Haze 30 1008 84 4000 6.7 270 11:20 14.09.2019
1958 Rain 31 1008 79 3000 7.2 270 10:40 14.09.2019
1959 Haze 30 1009 83 4000 6.2 270 10:21 14.09.2019
1960 Haze 30 1009 83 4000 6.2 270 09:58 14.09.2019
1961 Haze 30 1009 83 4000 3.6 260 09:40 14.09.2019
1962 Haze 30 1009 83 4000 3.6 260 09:20 14.09.2019
1963 Haze 30 1009 79 4000 3.6 260 08:48 14.09.2019
1964 Haze 30 1009 79 4000 3.6 260 08:26 14.09.2019
1965 Haze 30 1010 83 3500 6.7 250 07:54 14.09.2019
1966 Haze 30 1010 83 3500 6.7 250 07:29 14.09.2019
1967 Haze 30 1010 83 3000 6.2 240 06:54 14.09.2019
1968 Haze 30 1010 83 3000 6.2 240 06:31 14.09.2019
1969 Haze 28 1009 88 3000 5.7 240 05:27 14.09.2019
1970 Haze 28 1008 88 3000 4.6 250 03:53 14.09.2019
1971 Haze 28 1007 88 3000 4.6 240 02:57 14.09.2019
1972 Haze 27 1007 94 3000 4.6 240 02:23 14.09.2019
1973 Rain 27 1007 94 2500 5.7 250 01:42 14.09.2019
1974 Thunderstorm 27 1007 94 2500 7.7 250 01:18 14.09.2019
1975 Thunderstorm 27 1007 94 3000 6.2 270 00:39 14.09.2019
1976 Rain 27 1007 94 3000 4.6 270 00:21 14.09.2019
1977 Rain 27 1007 94 3000 4.6 270 23:54 13.09.2019
1978 Haze 27 1007 94 3000 4.6 260 23:36 13.09.2019
1979 Haze 27 1007 94 3000 4.6 260 23:18 13.09.2019
1980 Haze 28 1007 88 3000 6.7 240 22:39 13.09.2019
1981 Haze 28 1007 88 3000 6.7 240 22:20 13.09.2019
1982 Haze 29 1008 88 3000 5.1 240 21:56 13.09.2019
1983 Haze 29 1008 88 3000 4.1 240 21:37 13.09.2019
1984 Haze 29 1008 88 3000 4.1 240 21:19 13.09.2019
1985 Haze 29 1008 88 3000 5.1 250 20:55 13.09.2019
1986 Haze 29 1008 88 3000 5.7 260 20:36 13.09.2019
1987 Haze 28 1008 88 3000 5.7 260 20:18 13.09.2019
1988 Haze 28 1009 88 3000 5.7 250 19:43 13.09.2019
1989 Haze 28 1009 88 3000 5.1 250 19:21 13.09.2019
1990 Haze 28 1009 88 3000 5.1 250 18:58 13.09.2019
1991 Haze 28 1009 88 3000 4.1 250 18:37 13.09.2019
1992 Haze 28 1009 88 2500 4.1 250 18:19 13.09.2019
1993 Haze 28 1008 88 2500 5.7 260 17:43 13.09.2019
1994 Haze 28 1008 88 2500 5.7 260 17:21 13.09.2019
1995 Haze 28 1008 88 2500 5.7 260 16:56 13.09.2019
1996 Haze 27 1008 94 2500 5.1 250 16:37 13.09.2019
1997 Haze 27 1008 88 2500 5.1 260 16:18 13.09.2019
1998 Haze 28 1008 88 2500 5.1 240 15:41 13.09.2019
1999 Haze 28 1008 88 2500 5.1 240 15:23 13.09.2019
2000 Rain 27 1007 88 1500 3.6 240 14:44 13.09.2019
2001 Rain 27 1007 88 1500 3.6 240 14:23 13.09.2019
2002 Rain 27 1007 88 1500 3.1 250 13:59 13.09.2019
2003 Drizzle 27 1007 94 2500 4.1 250 13:40 13.09.2019
2004 Drizzle 27 1007 94 2500 4.1 250 13:21 13.09.2019
2005 Rain 27 1008 83 1800 4.6 270 12:45 13.09.2019
2006 Rain 27 1008 83 1800 4.6 270 12:25 13.09.2019
2007 Haze 29 1008 83 3000 7.2 230 11:57 13.09.2019
2008 Haze 29 1008 83 3000 6.2 240 11:20 13.09.2019
2009 Haze 29 1008 83 3000 5.7 250 10:54 13.09.2019
2010 Rain 29 1009 83 3000 5.1 240 10:36 13.09.2019
2011 Rain 29 1009 83 3000 5.1 240 10:18 13.09.2019
2012 Rain 29 1009 83 3500 6.2 240 09:42 13.09.2019
2013 Rain 29 1009 83 3500 6.2 240 09:19 13.09.2019
2014 Haze 29 1010 83 3500 5.7 240 08:42 13.09.2019
2015 Haze 29 1010 83 3500 5.7 240 08:21 13.09.2019
2016 Haze 29 1010 83 3000 5.1 250 08:21 13.09.2019
2017 Haze 29 1010 83 3500 5.7 240 08:21 13.09.2019
2018 Haze 29 1010 83 3000 5.1 250 07:59 13.09.2019
2019 Haze 29 1010 83 3000 6.2 250 07:40 13.09.2019
2020 Rain 28 1010 88 2500 4.1 250 06:55 13.09.2019
2021 Haze 27 1010 94 2500 2.1 190 06:37 13.09.2019
2022 Rain 26 1010 94 2200 2.1 120 05:32 13.09.2019
2023 Drizzle 25 1009 94 2500 1.5 0 03:48 13.09.2019
2024 Rain 25 1009 100 2200 1.5 260 03:25 13.09.2019
2025 Rain 24 1009 100 2100 5.1 280 02:19 13.09.2019
2026 Rain 28 1008 94 800 5.1 280 01:36 13.09.2019
2027 Rain 27 1008 94 2100 4.6 240 00:59 13.09.2019
2028 Haze 27 1008 88 2500 2.1 210 00:34 13.09.2019
2029 Haze 27 1008 88 2500 5.7 240 23:48 12.09.2019
2030 Haze 27 1008 88 2500 5.7 240 23:24 12.09.2019
2031 Drizzle 27 1008 88 2500 2.6 230 22:57 12.09.2019
2032 Drizzle 27 1009 88 2500 2.6 220 22:39 12.09.2019
2033 Drizzle 27 1009 88 2500 2.6 220 22:21 12.09.2019
2034 Haze 27 1009 88 2500 2.6 210 21:55 12.09.2019
2035 Haze 27 1009 88 2500 2.1 200 21:36 12.09.2019
2036 Haze 27 1009 88 2500 2.1 200 21:18 12.09.2019
2037 Haze 27 1009 88 2500 2.6 240 20:44 12.09.2019
2038 Haze 27 1009 88 2500 2.6 240 20:22 12.09.2019
2039 Rain 27 1010 88 2100 5.7 260 19:57 12.09.2019
2040 Rain 27 1010 88 2100 5.7 260 19:39 12.09.2019
2041 Rain 27 1010 88 2100 5.7 260 19:39 12.09.2019
2042 Haze 27 1009 88 2200 6.7 250 19:19 12.09.2019
2043 Haze 27 1009 88 2200 6.7 260 18:54 12.09.2019
2044 Haze 27 1009 88 2200 6.7 260 18:36 12.09.2019
2045 Haze 27 1009 88 2500 7.2 270 18:18 12.09.2019
2046 Haze 27 1008 88 2200 8.2 260 17:40 12.09.2019
2047 Rain 27 1008 94 2100 5.7 260 17:20 12.09.2019
2048 Rain 27 1008 94 2100 5.7 260 16:55 12.09.2019
2049 Rain 27 1008 94 2100 5.7 260 16:55 12.09.2019
2050 Rain 27 1008 100 1500 7.2 240 16:36 12.09.2019
2051 Rain 27 1008 94 1500 6.7 240 16:18 12.09.2019
2052 Rain 27 1007 88 2500 5.7 240 15:41 12.09.2019
2053 Rain 27 1007 88 2500 5.7 240 15:23 12.09.2019
2054 Rain 28 1007 88 2500 7.7 250 14:45 12.09.2019
2055 Rain 28 1007 88 2500 7.7 250 14:22 12.09.2019
2056 Haze 27 1007 88 3000 5.7 250 13:58 12.09.2019
2057 Haze 27 1007 94 3000 5.1 240 13:37 12.09.2019
2058 Rain 29 1007 83 2200 4.6 270 13:18 12.09.2019
2059 Haze 29 1007 83 3000 4.6 240 12:44 12.09.2019
2060 Haze 29 1008 79 3000 4.6 240 12:19 12.09.2019
2061 Haze 29 1008 79 3000 4.6 240 11:56 12.09.2019
2062 Rain 28 1008 88 2500 5.1 260 11:38 12.09.2019
2063 Rain 28 1008 88 2500 5.1 260 11:19 12.09.2019
2064 Haze 30 1008 83 3000 4.1 230 10:44 12.09.2019
2065 Haze 30 1008 83 3000 4.1 230 10:25 12.09.2019
2066 Haze 30 1009 83 3000 5.7 230 09:45 12.09.2019
2067 Haze 29 1009 83 3000 5.7 230 09:25 12.09.2019
2068 Haze 30 1010 83 3000 5.7 240 08:59 12.09.2019
2069 Haze 29 1010 88 3000 3.6 210 08:40 12.09.2019
2070 Haze 29 1010 88 3000 3.6 210 08:21 12.09.2019
2071 Haze 29 1010 88 3000 4.1 220 08:21 12.09.2019
2072 Haze 29 1010 88 3000 3.6 230 07:39 12.09.2019
2073 Rain 29 1010 88 3000 3.1 220 07:19 12.09.2019
2074 Haze 29 1010 83 3000 3.6 230 06:50 12.09.2019
2075 Drizzle 29 1009 94 3000 4.1 220 06:19 12.09.2019
2076 Haze 28 1009 88 3000 4.1 210 05:49 12.09.2019
2077 Haze 28 1009 88 3000 4.1 210 05:30 12.09.2019
2078 Haze 29 1008 88 3000 3.1 240 04:35 12.09.2019
2079 Haze 27 1007 94 3000 2.6 230 02:24 12.09.2019
2080 Haze 27 1007 94 3000 3.1 230 01:36 12.09.2019
2081 Haze 27 1007 94 3000 1.5 230 01:18 12.09.2019
2082 Haze 27 1007 94 3000 3.1 220 00:42 12.09.2019
2083 Haze 28 1007 94 3000 3.6 220 00:23 12.09.2019
2084 Haze 27 1007 94 3000 3.6 230 23:42 11.09.2019
2085 Haze 27 1007 94 3000 2.1 220 23:22 11.09.2019
2086 Haze 27 1007 94 3000 2.1 220 22:56 11.09.2019
2087 Haze 27 1008 94 3000 2.6 230 22:37 11.09.2019
2088 Haze 27 1008 94 3000 2.6 230 22:19 11.09.2019
2089 Haze 27 1008 94 3000 3.1 220 22:19 11.09.2019
2090 Haze 28 1009 88 3000 3.1 230 21:42 11.09.2019
2091 Haze 28 1009 88 3000 3.1 230 21:42 11.09.2019
2092 Haze 28 1009 88 3000 3.1 230 21:42 11.09.2019
2093 Haze 28 1009 88 3000 2.6 230 21:24 11.09.2019
2094 Haze 28 1009 88 3000 2.6 230 20:58 11.09.2019
2095 Haze 28 1009 88 3000 2.6 230 20:39 11.09.2019
2096 Haze 28 1009 88 3000 2.6 230 20:19 11.09.2019
2097 Haze 27 1009 94 2500 2.1 190 19:58 11.09.2019
2098 Haze 27 1009 94 2500 2.1 190 19:39 11.09.2019
2099 Haze 27 1009 94 2500 2.1 190 19:21 11.09.2019
2100 Haze 27 1009 94 2500 1.5 170 18:58 11.09.2019
2101 Haze 27 1009 88 2500 2.1 160 18:38 11.09.2019
2102 Haze 27 1009 88 2500 2.1 150 18:19 11.09.2019
2103 Haze 29 1009 88 2500 2.1 170 17:55 11.09.2019
2104 Haze 29 1009 88 2500 2.1 170 17:37 11.09.2019
2105 Haze 27 1009 88 2500 2.1 170 17:19 11.09.2019
2106 Haze 27 1008 88 2500 1.5 160 16:46 11.09.2019
2107 Haze 27 1008 88 2500 1.5 160 16:25 11.09.2019
2108 Haze 27 1007 88 2500 2.6 170 15:54 11.09.2019
2109 Haze 27 1007 88 2500 2.6 170 15:54 11.09.2019
2110 Drizzle 27 1007 88 2500 2.1 170 15:36 11.09.2019
2111 Drizzle 28 1007 88 2500 2.1 170 15:18 11.09.2019
2112 Haze 28 1006 78 3000 2.1 210 14:41 11.09.2019
2113 Haze 28 1006 78 3000 2.1 210 14:21 11.09.2019
2114 Rain 28 1006 78 2500 6.2 250 13:59 11.09.2019
2115 Rain 29 1006 74 2500 4.1 230 13:37 11.09.2019
2116 Rain 29 1006 74 2500 4.1 230 13:37 11.09.2019
2117 Haze 28 1006 83 2500 7.2 230 13:19 11.09.2019
2118 Haze 28 1006 83 2500 7.2 230 12:56 11.09.2019
2119 Haze 28 1006 88 2500 6.7 240 12:37 11.09.2019
2120 Rain 28 1006 88 2100 6.7 250 12:19 11.09.2019
2121 Rain 28 1006 88 2500 7.7 250 11:39 11.09.2019
2122 Rain 28 1006 88 2500 7.7 250 11:21 11.09.2019
2123 Haze 29 1007 88 3000 7.2 230 10:56 11.09.2019
2124 Haze 30 1007 83 3000 7.7 240 10:38 11.09.2019
2125 Haze 30 1007 83 3000 6.7 240 10:19 11.09.2019
2126 Haze 30 1007 83 3000 6.7 240 09:39 11.09.2019
2127 Haze 30 1007 83 3000 6.7 240 09:19 11.09.2019
2128 -273 0 0 0 0 0 08:55 11.09.2019
2129 Smoke 30 1008 83 3000 5.1 240 08:36 11.09.2019
2130 Smoke 30 1008 83 3000 5.1 240 08:18 11.09.2019
2131 Haze 30 1008 83 2500 4.6 230 07:40 11.09.2019
2132 Haze 29 1008 83 2500 5.1 240 07:21 11.09.2019
2133 Haze 29 1008 88 2500 4.1 230 06:48 11.09.2019
2134 Haze 28 1008 88 2500 4.1 230 06:27 11.09.2019
2135 Haze 29 1007 88 2500 3.1 210 05:36 11.09.2019
2136 Haze 28 1007 88 2500 3.1 210 05:18 11.09.2019
2137 Drizzle 26 1006 94 2500 1.5 210 04:22 11.09.2019
2138 Mist 26 1006 94 2200 1.5 190 03:29 11.09.2019
2139 Rain 26 1005 94 1700 5.7 200 02:37 11.09.2019
2140 Rain 26 1005 88 1800 3.6 250 01:42 11.09.2019
2141 Haze 27 1005 88 2500 2.6 230 00:46 11.09.2019
2142 Haze 27 1005 88 2500 2.6 230 00:20 11.09.2019
2143 Haze 26 1005 94 2500 1.5 190 23:41 10.09.2019
2144 Haze 26 1005 94 2500 1.5 190 23:41 10.09.2019
2145 Haze 26 1005 94 2500 1.5 190 23:22 10.09.2019
2146 Haze 26 1005 94 3000 1 180 22:57 10.09.2019
2147 Haze 26 1005 94 3000 2.6 240 22:38 10.09.2019
2148 Drizzle 26 1006 94 2500 5.7 260 22:19 10.09.2019
2149 Drizzle 26 1006 94 2500 5.7 260 21:55 10.09.2019
2150 Rain 29 1006 83 4000 3.6 210 21:37 10.09.2019
2151 Smoke 29 1006 83 5000 3.1 210 21:18 10.09.2019
2152 Smoke 29 1006 83 5000 3.1 210 20:56 10.09.2019
2153 Smoke 28 1006 83 4000 4.1 220 20:38 10.09.2019
2154 Smoke 29 1006 83 4000 4.1 220 20:38 10.09.2019
2155 Smoke 29 1006 83 4000 4.1 220 20:19 10.09.2019
2156 Smoke 28 1007 83 4000 3.6 230 19:55 10.09.2019
2157 Smoke 28 1007 83 4000 3.6 230 19:37 10.09.2019
2158 Haze 28 1006 83 3000 3.6 230 19:18 10.09.2019
2159 Haze 28 1006 83 3000 4.1 230 18:46 10.09.2019
2160 Haze 28 1006 83 3000 4.1 230 18:23 10.09.2019
2161 Haze 28 1006 83 3000 4.1 230 17:59 10.09.2019
2162 Haze 28 1006 83 3000 4.1 230 17:59 10.09.2019
2163 Haze 28 1006 83 3000 4.1 230 17:59 10.09.2019
2164 Smoke 28 1006 83 4000 4.1 240 17:41 10.09.2019
2165 Smoke 28 1006 83 4000 4.1 240 17:21 10.09.2019
2166 Smoke 28 1005 83 4000 4.6 240 16:57 10.09.2019
2167 Smoke 28 1005 83 4000 4.6 240 16:38 10.09.2019
2168 Smoke 28 1005 83 4000 4.6 240 16:20 10.09.2019
2169 Smoke 28 1004 83 3500 4.6 240 15:56 10.09.2019
2170 Smoke 28 1004 83 3500 4.6 230 15:38 10.09.2019
2171 Smoke 28 1004 83 3500 4.6 230 15:19 10.09.2019
2172 Haze 30 1003 83 3500 4.6 230 14:40 10.09.2019
2173 Haze 29 1003 83 3500 4.6 230 14:22 10.09.2019
2174 Rain 29 1003 83 3000 5.1 240 13:49 10.09.2019
2175 Rain 29 1003 83 3000 5.1 240 13:24 10.09.2019
2176 Smoke 29 1003 83 3500 6.2 230 12:56 10.09.2019
2177 Smoke 30 1003 83 3200 6.7 250 12:38 10.09.2019
2178 Rain 30 1003 79 3000 6.2 240 12:19 10.09.2019
2179 Haze 30 1003 79 3000 6.2 200 11:42 10.09.2019
2180 Haze 30 1003 79 3000 6.2 200 11:23 10.09.2019
2181 Haze 30 1004 83 3000 5.7 240 10:59 10.09.2019
2182 Haze 30 1004 83 3000 5.7 240 10:38 10.09.2019
2183 Haze 30 1004 83 3000 7.2 250 10:18 10.09.2019
2184 Haze 30 1004 83 3000 7.2 250 09:47 10.09.2019
2185 Haze 30 1005 83 3000 6.2 220 09:20 10.09.2019
2186 Haze 30 1005 83 3000 6.2 220 08:59 10.09.2019
2187 Haze 29 1005 88 3000 5.7 210 08:41 10.09.2019
2188 Haze 29 1005 88 3000 3.6 230 08:21 10.09.2019
2189 Haze 28 1005 94 3000 3.6 230 07:44 10.09.2019
2190 Haze 28 1005 94 3000 3.6 230 07:25 10.09.2019
2191 Rain 28 1005 100 1800 3.6 240 06:48 10.09.2019
2192 Rain 27 1005 100 1800 3.6 240 06:29 10.09.2019
2193 Haze 28 1004 94 2500 3.6 230 04:41 10.09.2019
2194 Haze 28 1003 88 2500 3.1 220 02:44 10.09.2019
2195 Haze 27 1003 88 2500 3.1 220 02:22 10.09.2019
2196 Haze 27 1003 88 2500 3.1 220 02:22 10.09.2019
2197 Haze 27 1003 88 2500 3.1 220 02:22 10.09.2019
2198 Haze 27 1003 88 2500 3.1 220 01:54 10.09.2019
2199 Haze 28 1003 88 2500 3.6 220 01:24 10.09.2019
2200 Haze 28 1003 94 2500 2.6 220 00:44 10.09.2019
2201 Rain 28 1003 94 2200 3.6 220 00:24 10.09.2019
2202 Drizzle 27 1003 88 2500 4.6 220 23:43 09.09.2019
2203 Haze 27 1003 88 2500 3.1 210 23:20 09.09.2019
2204 Haze 27 1003 88 2500 3.1 210 22:56 09.09.2019
2205 Drizzle 27 1004 94 2500 3.6 230 22:37 09.09.2019
2206 Rain 28 1004 88 2100 3.6 240 22:19 09.09.2019
2207 Rain 28 1004 88 2100 3.6 240 21:56 09.09.2019
2208 Rain 27 1004 88 1700 4.1 230 21:37 09.09.2019
2209 Haze 27 1004 88 2500 5.7 240 21:19 09.09.2019
2210 Haze 27 1004 88 2500 5.7 240 20:55 09.09.2019
2211 Rain 27 1005 88 2200 4.1 230 20:37 09.09.2019
2212 Rain 27 1005 88 1300 4.6 240 20:18 09.09.2019
2213 Rain 27 1005 88 1300 4.6 240 20:18 09.09.2019
2214 Haze 28 1005 88 3000 4.6 240 19:56 09.09.2019
2215 Haze 28 1005 88 3000 4.6 240 19:38 09.09.2019
2216 Haze 29 1005 88 3000 4.6 240 19:19 09.09.2019
2217 Haze 28 1005 83 3000 4.6 240 18:57 09.09.2019
2218 Haze 28 1005 83 3000 4.6 240 18:38 09.09.2019
2219 Haze 29 1005 88 2500 4.1 230 18:20 09.09.2019
2220 Haze 29 1005 88 2500 4.1 230 17:57 09.09.2019
2221 Haze 27 1005 88 2500 3.6 230 17:39 09.09.2019
2222 Haze 27 1004 88 2500 3.1 230 17:20 09.09.2019
2223 Haze 27 1004 94 2500 4.1 230 16:55 09.09.2019
2224 Haze 27 1004 88 2500 3.1 230 16:55 09.09.2019
2225 Haze 27 1004 94 2500 4.1 230 16:37 09.09.2019
2226 Haze 27 1003 94 2000 5.1 250 16:18 09.09.2019
2227 Haze 27 1003 94 2000 5.1 250 16:18 09.09.2019
2228 Haze 28 1003 94 2000 5.1 250 15:54 09.09.2019
2229 Haze 28 1003 94 2000 3.6 240 15:36 09.09.2019
2230 Haze 27 1003 100 2000 5.1 270 15:18 09.09.2019
2231 Rain 27 1003 100 1200 5.1 270 14:40 09.09.2019
2232 Rain 27 1003 100 1200 5.1 270 14:40 09.09.2019
2233 Drizzle 28 1003 88 2000 4.1 230 14:22 09.09.2019
2234 Drizzle 28 1003 88 2000 4.1 230 13:58 09.09.2019
2235 Drizzle 28 1003 88 2000 4.1 240 13:40 09.09.2019
2236 Rain 27 1003 94 1800 7.2 240 13:19 09.09.2019
2237 Rain 27 1003 94 1800 7.2 240 12:57 09.09.2019
2238 Rain 27 1003 94 1500 8.2 240 12:37 09.09.2019
2239 Drizzle 28 1003 94 1500 5.7 250 12:18 09.09.2019
2240 Rain 27 1004 94 1000 7.2 250 11:43 09.09.2019
2241 Rain 27 1004 94 2000 3.6 270 11:20 09.09.2019
2242 Rain 27 1004 94 2000 3.6 270 10:57 09.09.2019
2243 Rain 28 1004 100 2100 6.7 250 10:38 09.09.2019
2244 Rain 27 1005 100 2100 3.1 300 10:19 09.09.2019
2245 Rain 27 1005 100 1500 5.1 260 09:48 09.09.2019
2246 Rain 27 1005 100 1500 5.1 260 09:28 09.09.2019
2247 Rain 27 1005 100 1500 7.2 260 08:57 09.09.2019
2248 Rain 27 1005 88 2100 7.7 240 08:38 09.09.2019
2249 Rain 28 1006 94 2500 4.6 270 08:19 09.09.2019
2250 Rain 28 1006 94 2500 4.6 270 08:19 09.09.2019
2251 Rain 28 1006 94 2100 7.7 270 07:41 09.09.2019
2252 Rain 26 1006 94 800 7.7 260 07:21 09.09.2019
2253 Rain 28 1005 83 1200 7.2 250 06:54 09.09.2019
2254 Rain 28 1005 83 1200 7.2 250 06:54 09.09.2019
2255 Rain 28 1005 83 1200 7.2 250 06:54 09.09.2019
2256 Rain 28 1005 83 1200 7.2 250 06:27 09.09.2019
2257 Haze 28 1003 88 2500 6.2 240 03:21 09.09.2019
2258 Haze 28 1003 88 2500 5.1 240 02:42 09.09.2019
2259 Haze 28 1003 88 2500 3.6 240 01:25 09.09.2019
2260 Haze 27 1003 94 2100 5.1 240 00:25 09.09.2019
2261 Mist 28 1003 88 2100 4.6 240 23:58 08.09.2019
2262 Haze 28 1004 88 2500 5.1 240 23:39 08.09.2019
2263 Drizzle 27 1004 88 2100 5.1 220 23:21 08.09.2019
2264 Mist 27 1004 88 2500 4.6 220 22:41 08.09.2019
2265 Mist 27 1004 88 2500 4.6 220 22:23 08.09.2019
2266 Mist 28 1004 88 2500 4.1 220 21:59 08.09.2019
2267 Mist 28 1005 88 2500 4.1 230 21:40 08.09.2019
2268 Mist 28 1005 88 2500 3.6 250 21:22 08.09.2019
2269 Mist 28 1005 88 2500 3.6 250 20:56 08.09.2019
2270 Mist 27 1005 94 2500 4.1 210 20:37 08.09.2019
2271 Mist 27 1005 94 2500 4.1 210 20:37 08.09.2019
2272 Mist 27 1005 94 2500 3.6 220 20:19 08.09.2019
2273 Mist 27 1005 94 2500 3.6 220 19:56 08.09.2019
2274 Haze 28 1005 94 2500 3.6 220 19:36 08.09.2019
2275 Haze 28 1005 94 2500 3.1 230 19:18 08.09.2019
2276 Haze 28 1005 94 2500 3.1 230 18:55 08.09.2019
2277 Haze 27 1005 94 2500 3.1 230 18:37 08.09.2019
2278 Rain 27 1005 88 2200 3.6 230 18:18 08.09.2019
2279 Rain 27 1004 94 2200 3.1 230 17:37 08.09.2019
2280 Rain 27 1004 94 2200 3.1 230 17:37 08.09.2019
2281 Rain 27 1004 94 2200 2.6 240 17:19 08.09.2019
2282 Rain 26 1004 94 1500 3.6 230 16:58 08.09.2019
2283 Rain 26 1004 94 1500 3.6 230 16:40 08.09.2019
2284 Rain 27 1004 100 1500 6.2 260 16:20 08.09.2019
2285 Rain 27 1004 100 1500 6.2 260 15:56 08.09.2019
2286 Rain 25 1004 100 1500 3.6 270 15:36 08.09.2019
2287 Rain 27 1003 100 1500 5.1 260 15:18 08.09.2019
2288 Rain 27 1003 100 600 5.1 260 14:40 08.09.2019
2289 Rain 28 1003 94 800 5.1 260 14:22 08.09.2019
2290 Rain 27 1003 94 800 5.1 260 13:58 08.09.2019
2291 Rain 27 1002 94 2100 5.1 210 13:40 08.09.2019
2292 Rain 28 1003 94 2500 6.7 210 13:22 08.09.2019
2293 Rain 28 1003 94 2500 6.7 210 12:58 08.09.2019
2294 Rain 28 1003 88 2100 5.7 220 12:40 08.09.2019
2295 Rain 28 1003 88 2500 5.7 220 12:22 08.09.2019
2296 Rain 28 1003 88 2500 5.7 220 11:57 08.09.2019
2297 Haze 29 1003 83 2500 5.1 220 11:37 08.09.2019
2298 Haze 29 1004 83 2500 5.1 210 11:19 08.09.2019
2299 Haze 29 1004 88 2500 4.6 220 10:43 08.09.2019
2300 Haze 29 1004 88 2500 4.6 220 10:23 08.09.2019
2301 Haze 26 1005 94 2200 3.1 210 09:56 08.09.2019
2302 Haze 26 1005 94 2200 3.1 210 09:37 08.09.2019
2303 Drizzle 26 1005 94 2100 4.1 200 09:19 08.09.2019
2304 Rain 26 1006 94 1100 3.6 200 08:40 08.09.2019
2305 Rain 27 1006 88 2500 3.6 210 08:19 08.09.2019
2306 Rain 27 1006 88 2500 3.6 210 07:58 08.09.2019
2307 Rain 27 1006 94 2500 2.1 220 07:37 08.09.2019
2308 Haze 27 1006 94 2500 3.1 220 07:19 08.09.2019
2309 Rain 27 1005 94 2100 2.6 210 06:41 08.09.2019
2310 Rain 28 1005 94 2100 2.1 210 05:44 08.09.2019
2311 Rain 28 1005 94 2100 2.1 210 05:26 08.09.2019
2312 Drizzle 27 1003 94 2200 4.1 210 03:24 08.09.2019
2313 Rain 26 1003 100 2200 3.6 220 02:51 08.09.2019
2314 Rain 28 1003 94 2200 4.1 230 01:54 08.09.2019
2315 Rain 28 1003 100 2200 4.6 260 01:33 08.09.2019
2316 Rain 28 1003 100 2200 4.6 240 00:49 08.09.2019
2317 Rain 28 1003 100 2200 4.6 240 00:31 08.09.2019
2318 Rain 26 1003 94 2200 5.1 240 23:58 07.09.2019
2319 Rain 25 1003 100 2200 5.1 250 23:37 07.09.2019
2320 Rain 26 1003 94 1000 6.2 240 23:19 07.09.2019
2321 Rain 27 1003 94 1600 2.6 190 22:44 07.09.2019
2322 Rain 27 1003 94 1600 2.6 190 22:25 07.09.2019
2323 Haze 27 1003 94 2500 3.6 190 21:57 07.09.2019
2324 Rain 27 1004 94 2500 3.1 160 21:38 07.09.2019
2325 Rain 27 1004 94 2500 3.1 160 21:38 07.09.2019
2326 Rain 26 1004 100 2500 1.5 150 21:20 07.09.2019
2327 Rain 26 1004 100 2500 2.6 190 20:40 07.09.2019
2328 Rain 26 1005 94 2500 4.6 240 20:22 07.09.2019
2329 Rain 26 1005 94 2500 4.6 240 19:57 07.09.2019
2330 Rain 26 1005 94 2500 5.1 230 19:38 07.09.2019
2331 Rain 26 1005 94 1700 6.7 220 19:20 07.09.2019
2332 Rain 26 1005 94 1700 6.7 220 18:59 07.09.2019
2333 Rain 27 1004 94 2200 3.6 220 18:39 07.09.2019
2334 Rain 27 1004 94 2000 4.1 210 18:20 07.09.2019
2335 Rain 27 1004 94 2000 4.1 210 17:59 07.09.2019
2336 Rain 27 1004 94 1500 3.6 210 17:39 07.09.2019
2337 Rain 27 1003 94 1500 4.6 210 17:18 07.09.2019
2338 Rain 27 1003 94 1200 7.2 210 16:57 07.09.2019
2339 Rain 27 1003 94 1200 7.2 210 16:39 07.09.2019
2340 Rain 26 1003 94 1200 4.6 210 16:19 07.09.2019
2341 Rain 26 1002 94 800 5.1 210 15:45 07.09.2019
2342 Rain 26 1002 94 800 5.1 210 15:26 07.09.2019
2343 Rain 26 1002 94 1500 2.6 180 14:56 07.09.2019
2344 Rain 26 1002 94 2200 2.6 170 14:36 07.09.2019
2345 Rain 26 1001 94 2200 3.1 220 14:18 07.09.2019
2346 Rain 26 1001 94 2200 3.1 220 13:56 07.09.2019
2347 Rain 26 1001 94 2200 2.6 220 13:37 07.09.2019
2348 Thunderstorm 26 1001 94 1800 4.1 250 13:19 07.09.2019
2349 Thunderstorm 26 1002 94 1500 3.6 240 12:44 07.09.2019
2350 Thunderstorm 26 1002 94 1000 5.1 220 12:24 07.09.2019
2351 Thunderstorm 26 1002 94 1000 5.1 240 11:42 07.09.2019
2352 Rain 26 1002 94 1000 3.6 270 11:22 07.09.2019
2353 Rain 26 1002 94 1000 3.6 270 10:59 07.09.2019
2354 Haze 28 1002 88 2500 4.1 170 10:38 07.09.2019
2355 Haze 29 1002 83 2500 3.6 180 10:19 07.09.2019
2356 Rain 29 1002 79 2500 5.1 200 09:43 07.09.2019
2357 Rain 29 1002 79 2500 5.1 200 09:24 07.09.2019
2358 Haze 29 1003 83 2500 3.6 200 08:57 07.09.2019
2359 Haze 29 1003 83 2500 4.6 210 08:57 07.09.2019
2360 Haze 29 1003 83 2500 4.6 210 08:37 07.09.2019
2361 Haze 29 1003 88 2500 4.1 200 08:19 07.09.2019
2362 Haze 29 1003 88 2500 5.1 220 07:44 07.09.2019
2363 Haze 29 1003 88 2500 5.1 220 07:24 07.09.2019
2364 Rain 28 1003 88 2200 4.1 220 06:43 07.09.2019
2365 Rain 28 1003 88 2500 4.6 230 06:19 07.09.2019
2366 Haze 28 1002 88 2500 4.6 220 04:38 07.09.2019
2367 Haze 27 1002 94 2500 5.1 220 03:49 07.09.2019
2368 Drizzle 26 1001 94 2500 5.1 230 02:43 07.09.2019
2369 Haze 27 1001 94 2500 5.7 220 01:44 07.09.2019
2370 Haze 27 1001 94 2500 5.1 210 00:56 07.09.2019
2371 Rain 27 1001 94 2500 5.1 210 00:37 07.09.2019
2372 Rain 26 1001 100 2100 3.6 180 00:18 07.09.2019
2373 Rain 26 1001 94 1100 5.1 190 23:38 06.09.2019
2374 Rain 26 1001 94 1100 5.1 190 23:38 06.09.2019
2375 Rain 26 1002 94 2100 4.1 200 23:20 06.09.2019
2376 Rain 26 1002 94 2100 4.1 200 22:57 06.09.2019
2377 Rain 26 1002 94 1800 5.7 210 22:37 06.09.2019
2378 Rain 27 1003 88 800 2.6 220 22:19 06.09.2019
2379 Rain 27 1003 88 800 2.6 220 21:56 06.09.2019
2380 Drizzle 27 1003 88 2200 4.6 210 21:38 06.09.2019
2381 Drizzle 27 1003 88 2500 5.1 210 21:19 06.09.2019
2382 Drizzle 27 1003 88 2500 5.1 210 20:55 06.09.2019
2383 Rain 26 1003 94 2500 5.1 220 20:37 06.09.2019
2384 Rain 27 1004 88 2200 5.7 220 20:18 06.09.2019
2385 Rain 27 1004 94 1800 5.1 220 19:42 06.09.2019
2386 Rain 27 1003 94 2200 4.1 220 19:24 06.09.2019
2387 Rain 27 1003 94 2200 4.1 220 18:58 06.09.2019
2388 Rain 27 1003 94 2200 4.6 230 18:39 06.09.2019
2389 Rain 28 1003 83 2200 5.1 220 18:21 06.09.2019
2390 Haze 27 1003 94 2200 5.1 230 17:40 06.09.2019
2391 Rain 27 1003 94 1800 6.2 210 17:21 06.09.2019
2392 Rain 27 1003 94 1800 6.2 210 16:58 06.09.2019
2393 Rain 27 1003 88 2200 3.6 210 16:38 06.09.2019
2394 Rain 28 1002 94 1800 6.2 240 16:18 06.09.2019
2395 Haze 28 1002 83 3000 4.6 230 15:41 06.09.2019
2396 -273 0 0 0 0 0 15:41 06.09.2019
2397 Haze 28 1002 83 3000 4.6 230 15:22 06.09.2019
2398 Drizzle 27 1001 88 3000 3.6 230 14:48 06.09.2019
2399 Haze 28 1001 78 3000 4.1 230 14:20 06.09.2019
2400 Haze 28 1001 83 2500 4.1 230 13:45 06.09.2019
2401 Haze 28 1001 83 2500 4.1 230 13:25 06.09.2019
2402 Haze 28 1001 88 2500 5.1 230 12:59 06.09.2019
2403 Haze 28 1001 88 2500 3.6 230 12:37 06.09.2019
2404 Haze 28 1001 88 2500 4.1 230 12:18 06.09.2019
2405 Haze 28 1001 88 2500 4.1 230 11:42 06.09.2019
2406 Drizzle 27 1001 94 2200 4.1 240 11:24 06.09.2019
2407 Drizzle 27 1001 94 2200 4.1 240 10:58 06.09.2019
2408 Rain 26 1002 94 1500 5.1 250 10:39 06.09.2019
2409 Rain 28 1002 88 1000 5.1 260 10:21 06.09.2019
2410 Rain 29 1003 83 2200 6.2 220 09:40 06.09.2019
2411 Rain 29 1003 88 2200 5.7 230 09:21 06.09.2019
2412 Rain 29 1003 88 2200 5.7 230 08:57 06.09.2019
2413 Haze 29 1003 88 3000 3.6 240 08:38 06.09.2019
2414 Haze 29 1003 83 3500 5.1 240 08:20 06.09.2019
2415 Haze 28 1003 88 3500 6.2 230 07:45 06.09.2019
2416 Rain 29 1003 88 3000 6.2 230 07:26 06.09.2019
2417 Rain 29 1003 88 3000 6.2 230 06:56 06.09.2019
2418 Rain 28 1003 88 3000 4.1 230 05:58 06.09.2019
2419 Haze 28 1002 88 2500 4.1 230 05:27 06.09.2019
2420 Haze 27 1002 94 2200 3.6 250 04:41 06.09.2019
2421 Haze 29 1001 94 2500 4.1 240 03:45 06.09.2019
2422 Drizzle 28 1001 83 2500 4.6 220 01:51 06.09.2019
2423 Drizzle 27 1001 94 2500 3.1 230 00:38 06.09.2019
2424 Rain 26 1001 100 2200 2.6 210 23:44 05.09.2019
2425 Rain 26 1002 94 1500 4.1 210 23:25 05.09.2019
2426 Rain 26 1002 94 1500 4.1 210 22:55 05.09.2019
2427 Drizzle 26 1002 94 2200 3.6 230 22:37 05.09.2019
2428 Haze 26 1002 94 2500 3.6 220 22:19 05.09.2019
2429 Rain 26 1003 94 2200 4.6 250 21:56 05.09.2019
2430 Rain 26 1003 94 2200 4.6 250 21:37 05.09.2019
2431 Rain 25 1003 100 1700 7.2 230 21:19 05.09.2019
2432 Rain 26 1003 100 1200 8.2 240 20:55 05.09.2019
2433 Rain 26 1003 100 1200 8.2 240 20:36 05.09.2019
2434 Rain 27 1003 94 1500 2.6 200 20:18 05.09.2019
2435 Rain 27 1003 94 2100 4.1 240 19:42 05.09.2019
2436 Rain 27 1003 94 2100 4.1 240 19:23 05.09.2019
2437 Rain 27 1003 94 2100 6.7 230 18:57 05.09.2019
2438 Rain 27 1003 94 2100 6.7 230 18:57 05.09.2019
2439 Rain 27 1003 94 2100 6.7 230 18:39 05.09.2019
2440 Rain 26 1002 94 2100 7.2 250 18:19 05.09.2019
2441 Haze 27 1002 94 2500 5.1 240 17:42 05.09.2019
2442 Haze 27 1002 94 2500 5.1 240 17:23 05.09.2019
2443 Rain 28 1002 88 2500 5.1 240 16:58 05.09.2019
2444 Rain 28 1002 88 2500 5.1 240 16:58 05.09.2019
2445 Drizzle 27 1001 94 2200 6.7 240 16:40 05.09.2019
2446 Rain 26 1001 94 1200 4.6 240 16:20 05.09.2019
2447 Rain 26 1001 94 1200 4.6 240 15:57 05.09.2019
2448 Rain 27 1001 94 2500 4.1 230 15:38 05.09.2019
2449 Rain 27 1000 94 2200 4.1 240 15:18 05.09.2019
2450 Rain 27 1000 94 1500 5.7 240 14:43 05.09.2019
2451 Rain 27 1000 94 2200 3.6 240 14:21 05.09.2019
2452 Rain 27 1000 94 1800 5.1 240 13:44 05.09.2019
2453 Rain 27 1000 94 1800 5.1 240 13:44 05.09.2019
2454 Rain 28 1000 94 1800 5.1 240 13:23 05.09.2019
2455 Rain 28 1000 94 2200 3.6 250 12:59 05.09.2019
2456 Rain 27 1000 94 2200 4.6 250 12:41 05.09.2019
2457 Rain 27 1001 94 1800 4.6 260 12:22 05.09.2019
2458 Rain 27 1001 94 2500 3.6 270 11:44 05.09.2019
2459 Rain 28 1001 94 2200 3.6 220 11:20 05.09.2019
2460 Rain 28 1001 94 2200 3.6 240 10:57 05.09.2019
2461 Rain 28 1001 94 2200 3.6 240 10:36 05.09.2019
2462 Rain 27 1002 94 1800 4.1 230 10:18 05.09.2019
2463 Haze 29 1002 94 2500 4.1 230 09:40 05.09.2019
2464 Rain 28 1002 88 2200 5.7 240 09:20 05.09.2019
2465 Rain 28 1002 88 2200 5.7 240 08:56 05.09.2019
2466 Rain 28 1002 88 2200 5.7 240 08:55 05.09.2019
2467 Rain 28 1003 94 2200 5.1 230 08:37 05.09.2019
2468 Rain 29 1003 83 3500 3.6 230 08:19 05.09.2019
2469 Haze 29 1003 83 3500 3.1 250 07:43 05.09.2019
2470 Haze 28 1003 88 3200 4.1 250 07:24 05.09.2019
2471 Drizzle 28 1003 88 3000 3.6 250 06:46 05.09.2019
2472 Drizzle 28 1003 88 3000 3.6 250 06:25 05.09.2019
2473 Haze 28 1002 88 3500 2.6 280 05:43 05.09.2019
2474 Haze 28 1002 88 3500 2.6 280 05:43 05.09.2019
2475 Haze 28 1002 88 3500 2.6 280 05:25 05.09.2019
2476 Haze 27 1002 94 3500 2.6 310 04:30 05.09.2019
2477 Haze 27 1001 88 3000 2.6 280 03:47 05.09.2019
2478 Rain 28 1001 88 2500 4.1 280 02:58 05.09.2019
2479 Haze 27 1001 94 2500 4.6 250 02:29 05.09.2019
2480 Haze 28 1000 88 2500 5.7 250 01:57 05.09.2019
2481 Drizzle 27 1000 94 2500 4.1 240 00:58 05.09.2019
2482 Haze 28 1001 88 2500 4.6 240 00:39 05.09.2019
2483 Haze 27 1001 94 2500 4.1 240 00:19 05.09.2019
2484 Haze 27 1001 94 2500 4.1 230 23:40 04.09.2019
2485 Haze 27 1002 94 2500 4.1 250 23:22 04.09.2019
2486 Haze 27 1002 94 2500 4.6 240 22:49 04.09.2019
2487 Haze 27 1002 94 2500 2.6 210 22:21 04.09.2019
2488 Haze 27 1002 94 2500 2.6 210 21:57 04.09.2019
2489 Haze 27 1003 94 2500 3.6 220 21:38 04.09.2019
2490 Haze 27 1003 94 2500 3.6 220 21:19 04.09.2019
2491 Haze 27 1003 94 2500 3.6 220 20:55 04.09.2019
2492 Haze 27 1003 94 2500 3.6 220 20:55 04.09.2019
2493 Haze 26 1003 100 2200 3.6 220 20:36 04.09.2019
2494 Rain 26 1004 100 2200 4.1 220 20:18 04.09.2019
2495 Rain 26 1004 100 2200 4.1 240 19:40 04.09.2019
2496 Rain 26 1004 100 2200 4.1 240 19:40 04.09.2019
2497 Rain 25 1004 100 2200 2.6 220 19:21 04.09.2019
2498 Rain 24 1003 100 2200 5.1 230 18:55 04.09.2019
2499 Rain 24 1003 100 2200 5.1 230 18:36 04.09.2019
2500 Rain 25 1003 100 1700 5.1 230 18:18 04.09.2019
2501 Haze 27 1003 83 2500 4.1 200 17:41 04.09.2019
2502 Haze 27 1003 83 2500 4.1 200 17:22 04.09.2019
2503 Haze 26 1002 94 2500 3.6 220 16:56 04.09.2019
2504 Rain 26 1002 94 2200 3.6 230 16:38 04.09.2019
2505 Rain 26 1002 94 2200 4.1 240 16:19 04.09.2019
2506 Rain 26 1002 94 2000 4.6 240 15:41 04.09.2019
2507 Rain 26 1002 94 2200 4.6 240 15:22 04.09.2019
2508 Rain 25 1001 94 1800 4.6 240 14:58 04.09.2019
2509 Rain 25 1001 94 1800 4.6 240 14:38 04.09.2019
2510 Rain 26 1001 94 2200 5.7 230 14:20 04.09.2019
2511 Rain 26 1001 94 2200 5.7 230 13:58 04.09.2019
2512 Rain 27 1001 88 2200 5.7 240 13:39 04.09.2019
2513 Rain 26 1001 100 2100 5.1 280 13:21 04.09.2019
2514 Rain 26 1001 100 1700 4.1 280 12:44 04.09.2019
2515 Rain 25 1002 100 1400 4.6 280 12:26 04.09.2019
2516 Rain 25 1002 100 1000 3.6 230 11:58 04.09.2019
2517 Rain 26 1002 100 1000 3.6 230 11:38 04.09.2019
2518 Rain 25 1003 100 1000 2.1 320 11:20 04.09.2019
2519 Rain 27 1003 100 1000 2.1 320 10:56 04.09.2019
2520 Rain 26 1003 94 1200 2.6 300 10:38 04.09.2019
2521 Rain 26 1004 94 500 3.1 270 10:19 04.09.2019
2522 Rain 26 1005 94 500 4.6 270 09:44 04.09.2019
2523 Rain 25 1005 100 500 3.1 230 09:21 04.09.2019
2524 Rain 25 1005 100 300 4.1 190 08:42 04.09.2019
2525 Rain 25 1004 100 1000 4.1 190 08:24 04.09.2019
2526 Rain 27 1004 100 1000 4.1 190 07:59 04.09.2019
2527 Rain 27 1004 100 800 6.7 230 07:36 04.09.2019
2528 Rain 26 1004 94 600 3.6 310 06:58 04.09.2019
2529 Rain 26 1004 94 600 3.6 310 06:38 04.09.2019
2530 Rain 27 1003 88 800 3.6 290 04:55 04.09.2019
2531 Drizzle 28 1002 88 2500 5.1 280 04:22 04.09.2019
2532 Drizzle 26 1002 94 2500 4.6 240 02:50 04.09.2019
2533 Drizzle 27 1002 94 2500 3.1 280 01:20 04.09.2019
2534 Drizzle 26 1002 94 2500 4.1 280 00:45 04.09.2019
2535 Drizzle 26 1002 94 2500 4.1 280 00:27 04.09.2019
2536 Rain 26 1003 94 1500 2.1 330 23:51 03.09.2019
2537 Rain 26 1003 94 1500 2.1 330 23:27 03.09.2019
2538 Rain 26 1003 94 2100 5.1 280 22:43 03.09.2019
2539 Rain 26 1003 94 2100 5.1 280 22:24 03.09.2019
2540 Rain 25 1004 100 1800 4.1 290 21:59 03.09.2019
2541 Rain 26 1004 100 1200 5.1 250 21:38 03.09.2019
2542 Rain 26 1004 100 1200 5.1 250 21:38 03.09.2019
2543 Rain 26 1004 94 1000 3.6 280 21:20 03.09.2019
2544 Rain 26 1004 94 1000 3.6 280 20:57 03.09.2019
2545 Rain 27 1004 94 2100 5.1 240 20:38 03.09.2019
2546 Haze 27 1005 94 2500 5.1 230 20:20 03.09.2019
2547 Drizzle 27 1005 94 2500 4.6 250 19:55 03.09.2019
2548 Drizzle 27 1005 94 2500 4.6 250 19:36 03.09.2019
2549 Drizzle 27 1005 94 2500 4.6 250 19:18 03.09.2019
2550 Drizzle 27 1005 94 2500 4.6 250 19:18 03.09.2019
2551 Rain 28 1004 88 2100 5.1 240 18:41 03.09.2019
2552 Drizzle 28 1004 94 2500 3.1 260 18:23 03.09.2019
2553 Drizzle 26 1004 94 2500 3.1 280 17:56 03.09.2019
2554 Drizzle 26 1004 94 2500 3.1 280 17:38 03.09.2019
2555 Drizzle 26 1004 94 2100 3.6 270 17:19 03.09.2019
2556 Rain 26 1003 94 1200 6.2 250 16:43 03.09.2019
2557 Rain 26 1003 94 1200 6.2 250 16:43 03.09.2019
2558 Rain 26 1003 94 1500 2.1 190 16:23 03.09.2019
2559 Rain 26 1003 94 1500 2.1 190 15:57 03.09.2019
2560 Rain 26 1003 94 1500 2.6 210 15:38 03.09.2019
2561 Rain 26 1003 100 800 2.1 210 15:20 03.09.2019
2562 Rain 26 1003 94 800 3.6 270 14:56 03.09.2019
2563 Rain 26 1003 94 800 3.6 270 14:37 03.09.2019
2564 Rain 27 1002 94 800 3.1 180 14:18 03.09.2019
2565 Rain 27 1002 94 1500 2.6 170 13:55 03.09.2019
2566 Rain 27 1002 94 1500 2.6 170 13:37 03.09.2019
2567 Rain 28 1002 83 2500 5.1 210 13:18 03.09.2019
2568 Haze 28 1003 83 3500 4.1 260 12:48 03.09.2019
2569 Haze 28 1003 83 3500 4.1 260 12:29 03.09.2019
2570 Haze 28 1003 88 3500 5.1 250 11:44 03.09.2019
2571 Haze 28 1003 88 3500 5.1 250 11:25 03.09.2019
2572 Rain 29 1003 83 3500 5.1 250 10:59 03.09.2019
2573 Smoke 29 1004 83 4000 5.7 250 10:40 03.09.2019
2574 Smoke 28 1004 83 4000 5.7 250 10:22 03.09.2019
2575 Drizzle 28 1005 88 3000 6.2 240 09:53 03.09.2019
2576 Drizzle 28 1005 88 3000 6.2 240 09:33 03.09.2019
2577 Rain 27 1006 94 2100 6.7 240 08:58 03.09.2019
2578 Rain 27 1006 94 2100 6.7 240 08:38 03.09.2019
2579 Drizzle 27 1006 94 2500 4.1 240 08:19 03.09.2019
2580 Drizzle 27 1006 94 2500 5.1 230 07:43 03.09.2019
2581 Drizzle 26 1006 94 2500 5.1 230 07:24 03.09.2019
2582 Rain 26 1005 94 2100 6.2 240 06:54 03.09.2019
2583 Rain 26 1005 94 2100 6.2 240 06:36 03.09.2019
2584 Rain 25 1004 100 1800 2.1 190 03:44 03.09.2019
2585 Rain 25 1004 100 1800 1.5 210 02:49 03.09.2019
2586 Rain 25 1004 100 1800 1.5 210 02:30 03.09.2019
2587 Rain 25 1003 100 500 4.1 220 01:59 03.09.2019
2588 Rain 26 1003 94 800 5.7 250 01:41 03.09.2019
2589 Rain 26 1003 94 1500 3.6 270 01:22 03.09.2019
2590 Rain 26 1003 100 1500 3.1 210 00:31 03.09.2019
2591 Rain 26 1003 94 2200 4.1 260 23:56 02.09.2019
2592 Rain 26 1004 94 2200 2.6 250 23:36 02.09.2019
2593 Thunderstorm 26 1004 94 2200 4.1 240 23:18 02.09.2019
2594 Thunderstorm 26 1004 94 2200 4.1 240 22:55 02.09.2019
2595 Thunderstorm 26 1004 94 2200 4.1 240 22:55 02.09.2019
2596 Rain 26 1004 100 2200 2.1 200 22:36 02.09.2019
2597 Rain 26 1004 94 2200 2.6 250 22:18 02.09.2019
2598 Rain 26 1004 94 2200 2.6 250 21:55 02.09.2019
2599 Rain 27 1005 88 1500 4.6 270 21:37 02.09.2019
2600 Rain 27 1005 94 2200 1.5 170 21:18 02.09.2019
2601 Rain 27 1006 94 2200 3.1 220 20:41 02.09.2019
2602 Rain 27 1006 94 2200 3.1 220 20:23 02.09.2019
2603 Rain 27 1006 94 2200 3.1 220 20:23 02.09.2019
2604 Rain 27 1006 94 2200 3.1 220 19:59 02.09.2019
2605 Rain 27 1006 94 2200 2.1 200 19:40 02.09.2019
2606 Rain 27 1006 94 2200 2.1 200 19:22 02.09.2019
2607 Haze 27 1005 94 2500 2.6 130 18:57 02.09.2019
2608 Haze 27 1005 94 2500 2.6 130 18:37 02.09.2019
2609 Drizzle 27 1005 94 2500 1.5 140 18:18 02.09.2019
2610 Rain 27 1005 88 2100 2.1 220 17:40 02.09.2019
2611 Rain 27 1004 88 2100 4.1 220 17:21 02.09.2019
2612 Rain 27 1004 88 2100 4.1 220 16:59 02.09.2019
2613 -273 0 0 0 0 0 16:39 02.09.2019
2614 Haze 28 1004 83 3000 3.6 210 16:20 02.09.2019
2615 Haze 29 1003 88 3000 4.6 230 15:46 02.09.2019
2616 Haze 29 1003 88 3000 4.6 230 15:27 02.09.2019
2617 Haze 29 1003 88 2500 2.6 200 14:58 02.09.2019
2618 Haze 28 1003 94 2100 3.1 210 14:40 02.09.2019
2619 Rain 28 1003 94 1500 4.6 220 14:22 02.09.2019
2620 Rain 26 1003 94 1500 4.6 220 13:56 02.09.2019
2621 Rain 28 1003 94 1000 3.6 160 13:37 02.09.2019
2622 Rain 29 1003 88 2100 4.1 170 13:19 02.09.2019
2623 Rain 29 1003 83 1500 2.6 280 12:45 02.09.2019
2624 Rain 29 1003 83 1500 2.6 280 12:25 02.09.2019
2625 Haze 31 1004 79 3000 5.7 220 11:58 02.09.2019
2626 Haze 31 1004 79 3000 5.7 220 11:39 02.09.2019
2627 Rain 30 1005 74 3000 5.7 230 11:21 02.09.2019
2628 Rain 30 1005 74 3000 5.7 230 10:57 02.09.2019
2629 Haze 31 1005 74 4000 5.7 200 10:38 02.09.2019
2630 Haze 31 1005 74 4000 5.7 200 10:38 02.09.2019
2631 Haze 31 1005 74 3500 6.7 220 10:19 02.09.2019
2632 Haze 31 1005 70 3000 6.7 230 09:46 02.09.2019
2633 Haze 31 1006 74 3000 6.2 240 09:22 02.09.2019
2634 Haze 31 1006 74 3000 5.1 240 08:45 02.09.2019
2635 Haze 31 1006 79 3000 5.7 230 08:24 02.09.2019
2636 Haze 31 1006 79 3000 5.7 230 07:59 02.09.2019
2637 Haze 31 1006 74 3000 6.7 230 07:40 02.09.2019
2638 Haze 30 1006 83 3000 5.1 220 07:21 02.09.2019
2639 Haze 30 1006 83 2500 3.6 220 06:44 02.09.2019
2640 Haze 30 1006 79 3000 5.1 230 06:25 02.09.2019
2641 Haze 29 1006 88 2500 3.6 210 05:47 02.09.2019
2642 Haze 29 1006 88 2500 1.5 150 05:18 02.09.2019
2643 Haze 28 1004 83 2500 2.6 220 02:59 02.09.2019
2644 Haze 28 1004 83 2500 4.6 240 01:45 02.09.2019
2645 Haze 29 1004 83 2500 2.6 200 00:47 02.09.2019
2646 Haze 29 1004 83 2500 2.6 200 00:28 02.09.2019
2647 Haze 28 1004 83 2500 3.6 230 23:43 01.09.2019
2648 Haze 28 1004 83 2500 2.6 200 23:22 01.09.2019
2649 Haze 28 1004 83 2500 2.6 200 22:58 01.09.2019
2650 Haze 28 1005 83 2500 1.5 160 22:39 01.09.2019
2651 Haze 28 1005 83 2500 1.5 210 22:19 01.09.2019
2652 Haze 28 1005 83 2500 1.5 210 21:57 01.09.2019
2653 Haze 28 1005 83 2500 1.5 170 21:38 01.09.2019
2654 Haze 28 1005 88 2500 1.5 150 21:20 01.09.2019
2655 Haze 28 1005 88 2500 2.6 120 20:56 01.09.2019
2656 Haze 29 1005 88 2500 2.6 120 20:36 01.09.2019
2657 Haze 27 1006 88 2500 1.5 130 20:18 01.09.2019
2658 Haze 29 1006 88 2500 1.5 130 20:18 01.09.2019
2659 Haze 27 1006 88 2500 1.5 130 19:56 01.09.2019
2660 Haze 27 1006 88 2500 1.5 130 19:37 01.09.2019
2661 Rain 27 1005 88 2500 2.6 220 19:18 01.09.2019
2662 Rain 27 1005 88 2500 2.6 220 18:42 01.09.2019
2663 Rain 29 1005 88 2200 2.6 230 18:24 01.09.2019
2664 Rain 29 1005 83 2200 3.6 220 17:55 01.09.2019
2665 Rain 28 1005 83 2200 3.6 220 17:37 01.09.2019
2666 Rain 28 1004 83 2500 4.1 230 17:18 01.09.2019
2667 Haze 28 1003 83 2500 3.6 230 16:39 01.09.2019
2668 Haze 28 1003 83 2500 4.6 230 16:19 01.09.2019
2669 Haze 28 1003 88 2500 3.1 240 15:47 01.09.2019
2670 Haze 28 1003 88 2500 3.1 240 15:29 01.09.2019
2671 Rain 27 1002 83 2500 4.1 200 14:57 01.09.2019
2672 Haze 28 1002 83 2500 5.1 210 14:38 01.09.2019
2673 Rain 29 1002 88 2500 3.1 210 14:20 01.09.2019
2674 Rain 29 1002 88 2500 3.1 210 13:54 01.09.2019
2675 Drizzle 29 1002 88 2500 3.1 170 13:36 01.09.2019
2676 Rain 28 1002 94 2200 3.1 140 13:18 01.09.2019
2677 Rain 28 1002 94 2500 1.5 170 12:40 01.09.2019
2678 Rain 28 1003 88 2500 1.5 0 12:21 01.09.2019
2679 Rain 27 1003 94 2200 1.5 0 11:41 01.09.2019
2680 Rain 27 1004 88 2200 2.1 330 11:20 01.09.2019
2681 Rain 27 1004 88 2200 2.1 330 10:58 01.09.2019
2682 Rain 27 1004 88 2100 3.6 270 10:40 01.09.2019
2683 Rain 27 1005 88 2100 5.7 270 10:21 01.09.2019
2684 Rain 27 1005 94 2100 5.1 270 09:43 01.09.2019
2685 Rain 26 1005 94 2100 5.1 270 09:25 01.09.2019
2686 Rain 26 1005 94 1800 4.6 270 08:44 01.09.2019
2687 Rain 26 1005 88 2500 5.7 260 08:24 01.09.2019
2688 Rain 26 1005 88 2200 7.2 240 07:51 01.09.2019
2689 Rain 26 1005 88 2200 7.2 240 07:51 01.09.2019
2690 Rain 26 1005 88 2200 7.2 240 07:33 01.09.2019
2691 Rain 27 1004 88 3000 4.1 260 06:42 01.09.2019
2692 Rain 27 1004 88 3000 4.6 230 06:23 01.09.2019
2693 Haze 27 1004 88 2500 3.1 230 05:39 01.09.2019
2694 Rain 27 1003 88 2100 4.1 240 04:29 01.09.2019
2695 Haze 27 1002 88 2500 5.1 250 03:41 01.09.2019
2696 Haze 27 1002 88 2500 4.6 240 02:57 01.09.2019
2697 Haze 27 1001 88 2200 5.1 240 02:26 01.09.2019
2698 Rain 28 1001 83 1500 4.1 240 01:50 01.09.2019
2699 Drizzle 27 1001 94 2500 3.6 240 01:22 01.09.2019
2700 Haze 27 1001 88 2500 4.6 240 00:45 01.09.2019
2701 Haze 27 1001 88 2500 5.7 240 00:22 01.09.2019
2702 Haze 28 1001 83 2500 4.6 230 23:49 31.08.2019
2703 Haze 28 1002 83 2500 5.1 230 23:22 31.08.2019
2704 Haze 28 1002 83 3000 5.7 250 22:58 31.08.2019
2705 Haze 28 1002 83 3000 5.7 250 22:40 31.08.2019
2706 Haze 28 1003 83 3000 6.2 250 22:22 31.08.2019
2707 Haze 28 1003 88 3000 5.1 240 21:55 31.08.2019
2708 Haze 28 1003 88 3000 5.1 240 21:55 31.08.2019
2709 Haze 28 1003 88 3000 5.1 240 21:37 31.08.2019
2710 Haze 28 1003 83 3000 6.2 250 21:19 31.08.2019
2711 Haze 28 1003 83 3000 6.2 250 20:46 31.08.2019
2712 Haze 28 1003 83 3000 4.6 250 20:28 31.08.2019
2713 Haze 28 1003 88 3000 5.1 250 19:47 31.08.2019
2714 Haze 28 1003 88 3000 5.1 250 19:47 31.08.2019
2715 Haze 28 1003 88 3000 5.1 250 19:24 31.08.2019
2716 Haze 28 1003 88 3000 5.1 250 19:24 31.08.2019
2717 Haze 28 1003 88 3000 5.1 250 18:59 31.08.2019
2718 Haze 28 1003 83 3000 5.1 240 18:39 31.08.2019
2719 Haze 29 1003 88 3000 5.7 240 18:20 31.08.2019
2720 Haze 28 1002 88 3000 6.2 240 17:55 31.08.2019
2721 Haze 28 1002 88 3000 6.2 240 17:37 31.08.2019
2722 Haze 28 1002 88 3000 2.6 240 17:18 31.08.2019
2723 Haze 28 1002 88 3000 2.6 240 16:55 31.08.2019
2724 Haze 28 1001 83 3000 4.1 240 16:37 31.08.2019
2725 Haze 28 1001 88 3000 3.1 230 16:19 31.08.2019
2726 Haze 28 1001 83 3000 4.6 220 15:42 31.08.2019
2727 Rain 29 1000 83 2500 4.1 230 15:19 31.08.2019
2728 Haze 29 1000 83 2500 5.1 240 14:56 31.08.2019
2729 Haze 30 1000 83 2500 5.1 240 14:37 31.08.2019
2730 Rain 29 1000 88 2500 4.1 240 14:19 31.08.2019
2731 Rain 29 1000 88 2500 4.1 240 14:19 31.08.2019
2732 Rain 29 1000 83 2200 5.7 240 13:40 31.08.2019
2733 Haze 30 1000 79 3500 5.7 230 13:22 31.08.2019
2734 Haze 29 1000 79 3500 5.7 230 12:58 31.08.2019
2735 Haze 29 1000 79 3500 5.7 260 12:38 31.08.2019
2736 Haze 29 1001 83 3500 5.7 240 12:19 31.08.2019
2737 Haze 29 1001 83 3500 5.7 240 12:19 31.08.2019
2738 Haze 28 1001 83 3000 4.6 210 11:48 31.08.2019
2739 Haze 28 1001 83 3000 4.6 210 11:29 31.08.2019
2740 Rain 28 1002 83 3000 4.1 240 10:59 31.08.2019
2741 Haze 29 1002 79 3000 4.6 240 10:41 31.08.2019
2742 Drizzle 29 1003 83 3000 4.6 230 10:19 31.08.2019
2743 Drizzle 29 1003 83 3000 4.6 230 09:56 31.08.2019
2744 Haze 29 1003 88 2500 4.1 240 09:37 31.08.2019
2745 Haze 29 1003 88 2500 4.1 240 09:19 31.08.2019
2746 Rain 29 1003 88 2500 5.1 240 08:42 31.08.2019
2747 Rain 29 1003 88 2500 5.1 240 08:22 31.08.2019
2748 Rain 30 1003 83 2100 5.7 230 07:40 31.08.2019
2749 Rain 29 1003 88 2500 5.7 290 07:21 31.08.2019
2750 Rain 28 1003 88 2500 3.6 230 06:28 31.08.2019
2751 Smoke 29 1003 88 2500 3.1 230 05:58 31.08.2019
2752 Haze 28 1003 83 2500 4.6 220 05:31 31.08.2019
2753 Rain 29 1002 83 2500 3.6 240 04:32 31.08.2019
2754 Haze 28 1002 94 2500 2.6 230 03:44 31.08.2019
2755 Rain 27 1002 88 1700 2.6 260 02:30 31.08.2019
2756 Haze 28 1001 83 2500 4.1 230 01:52 31.08.2019
2757 Haze 28 1001 83 2500 4.1 230 01:31 31.08.2019
2758 Haze 28 1002 88 2500 4.1 250 00:49 31.08.2019
2759 Haze 28 1002 88 2500 4.1 250 00:49 31.08.2019
2760 Thunderstorm 28 1002 83 2500 4.6 250 00:28 31.08.2019
2761 Thunderstorm 28 1002 83 2500 4.1 250 23:57 30.08.2019
2762 Thunderstorm 28 1002 83 2500 4.1 250 23:38 30.08.2019
2763 Haze 28 1002 83 2500 4.6 250 23:18 30.08.2019
2764 Haze 28 1003 83 2500 5.1 230 22:40 30.08.2019
2765 Haze 28 1003 88 2500 4.6 240 22:22 30.08.2019
2766 Haze 28 1003 88 2500 4.1 240 21:58 30.08.2019
2767 Haze 28 1003 88 2500 4.1 240 21:37 30.08.2019
2768 Haze 28 1003 88 2500 4.6 240 21:19 30.08.2019
2769 Haze 28 1003 88 2500 4.6 240 20:58 30.08.2019
2770 Haze 28 1003 88 2500 3.6 220 20:39 30.08.2019
2771 Haze 28 1004 88 2500 5.1 230 20:20 30.08.2019
2772 Haze 28 1004 88 2500 5.1 230 19:57 30.08.2019
2773 Haze 28 1004 88 2500 4.1 240 19:38 30.08.2019
2774 Haze 28 1004 88 2500 4.1 240 19:19 30.08.2019
2775 Rain 28 1004 88 1800 5.1 220 18:47 30.08.2019
2776 Rain 28 1003 88 3000 4.1 250 18:25 30.08.2019
2777 Rain 28 1003 88 3000 2.1 310 17:58 30.08.2019
2778 Rain 28 1003 88 3000 2.1 310 17:58 30.08.2019
2779 Rain 28 1003 88 3000 2.1 310 17:40 30.08.2019
2780 Haze 29 1003 83 3000 2.6 230 17:19 30.08.2019
2781 Haze 29 1003 83 3000 2.6 230 16:59 30.08.2019
2782 Haze 29 1002 83 3000 4.1 240 16:40 30.08.2019
2783 Rain 29 1002 79 4000 4.1 250 16:21 30.08.2019
2784 Haze 29 1002 74 4000 4.1 250 15:43 30.08.2019
2785 Haze 30 1002 74 4000 5.7 270 15:23 30.08.2019
2786 Haze 30 1002 74 4000 5.7 270 15:23 30.08.2019
2787 Haze 29 1001 83 3000 4.1 260 14:47 30.08.2019
2788 Haze 29 1001 83 3000 4.1 260 14:29 30.08.2019
2789 Haze 30 1001 74 4000 6.2 280 13:58 30.08.2019
2790 Haze 30 1001 74 4000 6.2 280 13:40 30.08.2019
2791 Haze 30 1002 74 4000 7.2 260 13:22 30.08.2019
2792 Haze 29 1002 79 4000 3.6 250 12:46 30.08.2019
2793 Haze 29 1002 79 4000 3.6 250 12:26 30.08.2019
2794 Haze 29 1002 79 4000 5.1 250 11:59 30.08.2019
2795 Haze 29 1002 74 4000 4.1 270 11:41 30.08.2019
2796 Rain 28 1003 83 3000 3.6 270 11:23 30.08.2019
2797 Rain 29 1003 74 3000 6.7 290 10:39 30.08.2019
2798 Haze 28 1004 79 3000 5.7 260 10:20 30.08.2019
2799 Haze 29 1004 79 3000 5.7 270 09:56 30.08.2019
2800 Haze 29 1004 79 3000 5.7 260 09:56 30.08.2019
2801 Haze 29 1004 79 3000 5.7 270 09:36 30.08.2019
2802 Haze 29 1004 79 3000 5.7 270 09:36 30.08.2019
2803 Haze 29 1004 84 3000 3.1 270 09:18 30.08.2019
2804 Rain 29 1005 79 3000 6.2 270 08:44 30.08.2019
2805 Rain 28 1005 79 3000 6.2 270 08:24 30.08.2019
2806 Haze 28 1005 83 3000 2.1 270 07:57 30.08.2019
2807 Haze 29 1005 89 2500 1.5 310 07:37 30.08.2019
2808 Drizzle 28 1005 94 2500 2.1 280 07:19 30.08.2019
2809 Rain 28 1005 88 1500 4.6 220 06:40 30.08.2019
2810 Rain 28 1005 88 2500 4.1 200 06:22 30.08.2019
2811 Rain 28 1005 88 2500 3.1 180 05:32 30.08.2019
2812 Haze 27 1004 88 2500 2.1 160 03:57 30.08.2019
2813 Haze 27 1004 88 2500 2.1 160 03:37 30.08.2019
2814 Haze 27 1003 94 2500 3.1 120 02:45 30.08.2019
2815 Haze 27 1003 94 2500 3.1 120 02:45 30.08.2019
2816 Drizzle 27 1003 94 2500 3.1 120 02:19 30.08.2019
2817 Haze 27 1003 94 2500 3.1 160 00:58 30.08.2019
2818 Haze 27 1003 94 2500 2.6 120 00:26 30.08.2019
2819 Haze 27 1003 94 2500 2.6 110 23:56 29.08.2019
2820 Haze 28 1004 88 2500 2.6 90 23:37 29.08.2019
2821 Haze 28 1004 88 2500 2.19 268.138 23:19 29.08.2019
2822 Haze 28 1005 88 2500 2.1 140 22:42 29.08.2019
2823 Haze 28 1005 88 2500 2.19 268.138 22:23 29.08.2019
2824 Haze 28 1005 88 2500 3.97 284.683 21:42 29.08.2019
2825 Haze 27 1006 94 2500 3.1 240 21:22 29.08.2019
2826 Haze 27 1006 94 2500 3.1 240 20:59 29.08.2019
2827 Haze 28 1006 88 2500 4.1 210 20:41 29.08.2019
2828 Haze 29 1006 88 2500 4.1 210 20:20 29.08.2019
2829 Haze 27 1006 88 1000 5.7 250 19:58 29.08.2019
2830 Haze 28 1006 83 3000 2.6 210 19:39 29.08.2019
2831 Haze 28 1006 83 3000 2.6 210 19:21 29.08.2019
2832 Haze 29 1005 79 3500 4.1 210 18:42 29.08.2019
2833 Haze 29 1005 79 3500 4.1 210 18:20 29.08.2019
2834 Haze 29 1005 79 4000 2.6 230 17:56 29.08.2019
2835 Haze 29 1005 83 4000 2.6 240 17:38 29.08.2019
2836 Haze 29 1005 83 4000 2.6 240 17:19 29.08.2019
2837 Haze 29 1004 79 4000 4.1 230 16:55 29.08.2019
2838 Rain 28 1006 83 0 4.95 238.824 16:36 29.08.2019
2839 Haze 31 1003 74 5000 5.1 240 16:18 29.08.2019
2840 Haze 30 1003 74 5000 5.1 240 15:38 29.08.2019
2841 Clouds 30 1003 74 6000 5.7 220 15:20 29.08.2019
2842 Clouds 31 1003 74 6000 5.7 250 14:50 29.08.2019
2843 Clouds 32 1003 70 6000 5.1 260 14:23 29.08.2019
2844 Clouds 32 1003 70 6000 5.1 260 13:59 29.08.2019
2845 Clouds 32 1003 70 6000 4.6 270 13:39 29.08.2019
2846 Haze 32 1003 70 5000 4.6 250 13:20 29.08.2019
2847 Haze 32 1003 70 5000 4.6 250 12:59 29.08.2019
2848 Haze 33 1004 66 5000 5.1 270 12:39 29.08.2019
2849 Haze 32 1004 66 5000 5.1 240 12:21 29.08.2019
2850 Haze 33 1004 66 5000 5.1 240 11:58 29.08.2019
2851 Haze 33 1004 66 5000 4.6 230 11:38 29.08.2019
2852 Haze 32 1005 66 5000 5.1 240 11:19 29.08.2019
2853 Haze 32 1005 70 5000 5.7 220 10:44 29.08.2019
2854 Haze 32 1005 70 5000 5.7 220 10:25 29.08.2019
2855 Haze 31 1005 74 5000 4.6 220 09:56 29.08.2019
2856 Haze 32 1006 70 4000 4.1 220 09:38 29.08.2019
2857 Haze 31 1006 74 4000 3.6 200 09:18 29.08.2019
2858 Haze 31 1007 74 4000 4.6 210 08:40 29.08.2019
2859 Haze 31 1007 74 4000 4.6 210 08:22 29.08.2019
2860 Haze 31 1007 74 3500 1.5 220 07:51 29.08.2019
2861 Haze 31 1007 74 3500 1.5 220 07:29 29.08.2019
2862 Haze 30 1007 83 3000 1.5 200 06:53 29.08.2019
2863 Haze 30 1007 83 3000 1.5 200 06:33 29.08.2019
2864 Haze 29 1006 94 2500 3.1 120 05:48 29.08.2019
2865 Haze 28 1006 94 2500 3.1 110 04:51 29.08.2019
2866 Haze 27 1006 94 2500 3.1 110 04:30 29.08.2019
2867 Haze 29 1005 94 2500 1.5 0 03:35 29.08.2019
2868 Haze 28 1004 88 3000 4.99 165.599 01:53 29.08.2019
2869 Haze 28 1004 88 3000 2.1 110 01:34 29.08.2019
2870 Haze 28 1004 88 3000 2.1 110 01:34 29.08.2019
2871 Haze 28 1004 94 2500 2.6 150 00:46 29.08.2019
2872 Rain 28 1004 94 2200 2.6 150 00:21 29.08.2019
2873 Rain 28 1004 94 2200 2.6 150 23:56 28.08.2019
2874 Rain 28 1005 94 2200 2.6 170 23:38 28.08.2019
2875 Rain 28 1005 94 1600 1.5 140 23:19 28.08.2019
2876 Rain 27 1005 94 2500 2.1 160 22:39 28.08.2019
2877 Rain 28 1005 83 3000 4.1 190 22:19 28.08.2019
2878 Rain 28 1005 83 3000 4.1 190 21:59 28.08.2019
2879 Haze 28 1006 83 4000 3.6 170 21:41 28.08.2019
2880 Haze 27 1006 83 4000 3.6 190 21:21 28.08.2019
2881 Haze 28 1006 83 4000 2.1 220 20:56 28.08.2019
2882 Haze 27 1006 83 4000 2.1 220 20:37 28.08.2019
2883 Haze 28 1006 83 4000 2.1 190 20:19 28.08.2019
2884 Haze 28 1006 79 4000 3.6 190 19:40 28.08.2019
2885 Haze 28 1006 79 4000 3.6 190 19:21 28.08.2019
2886 Haze 28 1006 79 4000 4.1 190 18:56 28.08.2019
2887 Haze 28 1006 79 4000 4.1 190 18:37 28.08.2019
2888 Haze 28 1005 79 4000 2.1 200 18:18 28.08.2019
2889 Haze 29 1005 79 4000 3.6 200 17:37 28.08.2019
2890 Haze 29 1005 79 4000 3.6 200 17:37 28.08.2019
2891 Haze 29 1005 79 4000 3.6 200 17:19 28.08.2019
2892 Haze 29 1004 79 4000 4.1 200 16:43 28.08.2019
2893 Haze 30 1004 79 4000 4.1 200 16:23 28.08.2019
2894 Haze 30 1003 74 5000 5.1 230 15:59 28.08.2019
2895 Haze 30 1003 74 5000 5.1 230 15:37 28.08.2019
2896 Haze 31 1003 74 5000 6.2 220 15:19 28.08.2019
2897 Haze 31 1003 74 5000 6.2 240 14:57 28.08.2019
2898 Haze 31 1003 74 5000 6.2 240 14:38 28.08.2019
2899 Haze 31 1003 74 5000 4.6 210 14:20 28.08.2019
2900 Haze 31 1003 74 5000 4.6 210 13:58 28.08.2019
2901 Haze 31 1003 74 5000 5.7 190 13:37 28.08.2019
2902 Haze 31 1003 74 5000 5.1 230 13:19 28.08.2019
2903 Haze 31 1004 74 5000 4.1 220 12:42 28.08.2019
2904 Haze 31 1004 74 5000 6.7 220 12:23 28.08.2019
2905 Haze 31 1004 70 5000 5.1 220 11:55 28.08.2019
2906 Haze 31 1004 70 5000 5.1 220 11:36 28.08.2019
2907 Haze 31 1004 74 5000 6.2 230 11:18 28.08.2019
2908 Haze 32 1004 66 5000 7.7 230 10:41 28.08.2019
2909 Haze 32 1005 66 5000 6.2 240 10:21 28.08.2019
2910 Haze 32 1005 66 5000 6.2 240 09:59 28.08.2019
2911 Haze 31 1005 74 5000 4.1 220 09:40 28.08.2019
2912 Haze 30 1006 70 5000 6.2 180 09:19 28.08.2019
2913 Haze 30 1006 74 4000 5.7 180 08:39 28.08.2019
2914 Haze 30 1006 74 4000 4.6 170 08:20 28.08.2019
2915 Haze 31 1006 74 4000 5.1 180 07:43 28.08.2019
2916 Haze 31 1006 74 4000 5.1 180 07:24 28.08.2019
2917 Haze 31 1006 79 3000 4.6 170 06:55 28.08.2019
2918 Haze 31 1006 79 2500 3.6 170 06:36 28.08.2019
2919 Haze 29 1005 88 2500 3.1 170 05:43 28.08.2019
2920 Mist 28 1004 88 2500 1.5 110 03:32 28.08.2019
2921 Mist 26 1003 88 2500 2.6 110 01:37 28.08.2019
2922 Rain 26 1003 88 1500 1.5 180 01:18 28.08.2019
2923 Rain 27 1003 88 1500 1.5 180 00:41 28.08.2019
2924 Haze 27 1003 88 3000 1.5 140 23:59 27.08.2019
2925 Haze 27 1004 88 3000 1.5 120 23:40 27.08.2019
2926 Haze 27 1004 88 3000 1.5 120 23:40 27.08.2019
2927 Haze 27 1004 88 3000 2.1 120 23:21 27.08.2019
2928 Haze 28 1004 83 3000 2.1 220 22:54 27.08.2019
2929 Haze 28 1004 83 3000 2.1 220 22:36 27.08.2019
2930 Haze 28 1005 83 3000 4.1 210 22:18 27.08.2019
2931 Haze 28 1005 83 3000 4.1 210 21:54 27.08.2019
2932 Haze 28 1005 83 3000 1.5 110 21:36 27.08.2019
2933 Haze 28 1005 78 3000 2.6 170 21:18 27.08.2019
2934 Haze 28 1005 78 3000 3.6 220 20:41 27.08.2019
2935 Haze 28 1005 78 3000 4.1 210 20:21 27.08.2019
2936 Haze 28 1005 78 3000 4.1 210 19:57 27.08.2019
2937 Haze 28 1005 83 3000 3.6 230 19:39 27.08.2019
2938 Haze 28 1005 83 3000 3.6 230 19:39 27.08.2019
2939 Haze 28 1005 83 3000 3.6 230 19:20 27.08.2019
2940 Haze 28 1005 78 3000 4.1 220 18:42 27.08.2019
2941 Haze 28 1005 78 3000 4.1 230 18:19 27.08.2019
2942 Haze 30 1004 74 3000 3.6 220 17:59 27.08.2019
2943 Haze 29 1004 74 3000 3.6 220 17:41 27.08.2019
2944 Rain 28 1004 83 3000 3.1 180 17:22 27.08.2019
2945 Rain 29 1004 78 3000 3.6 210 16:47 27.08.2019
2946 Rain 29 1004 78 3000 3.6 210 16:28 27.08.2019
2947 Haze 29 1003 74 4000 5.7 240 15:58 27.08.2019
2948 Rain 30 1003 74 4000 5.1 220 15:39 27.08.2019
2949 Haze 30 1002 74 4000 5.7 240 15:20 27.08.2019
2950 Haze 31 1002 70 4000 6.2 250 14:54 27.08.2019
2951 Haze 31 1002 70 4000 6.2 250 14:36 27.08.2019
2952 Haze 31 1002 70 4000 6.7 240 14:18 27.08.2019
2953 Haze 31 1002 66 4000 7.2 230 13:41 27.08.2019
2954 Haze 31 1003 70 4000 7.7 240 13:20 27.08.2019
2955 Haze 31 1003 70 4000 5.7 240 12:42 27.08.2019
2956 Haze 32 1003 66 4000 6.7 240 12:21 27.08.2019
2957 Haze 31 1003 66 4000 7.7 220 11:57 27.08.2019
2958 Haze 31 1003 66 4000 7.7 220 11:37 27.08.2019
2959 Haze 31 1004 66 4000 6.7 250 11:19 27.08.2019
2960 Haze 31 1004 70 4000 3.6 230 10:41 27.08.2019
2961 Haze 30 1005 70 4000 6.2 250 10:20 27.08.2019
2962 Haze 31 1005 66 4000 6.2 240 09:56 27.08.2019
2963 Haze 31 1005 66 4000 6.2 240 09:37 27.08.2019
2964 Haze 30 1005 70 4000 6.2 240 09:19 27.08.2019
2965 Haze 30 1005 74 4000 4.6 250 08:45 27.08.2019
2966 Haze 30 1005 74 4000 4.6 250 08:24 27.08.2019
2967 Rain 31 1005 70 4000 4.1 230 07:55 27.08.2019
2968 Haze 30 1006 70 3000 6.2 230 07:36 27.08.2019
2969 Haze 30 1006 70 3000 6.2 230 07:36 27.08.2019
2970 Haze 31 1006 70 3000 6.2 210 07:18 27.08.2019
2971 Haze 31 1006 74 3000 5.1 220 06:44 27.08.2019
2972 Haze 29 1006 78 3000 3.6 210 06:19 27.08.2019
2973 Haze 29 1005 83 3000 1.5 140 05:26 27.08.2019
2974 Haze 29 1004 83 3000 2.1 130 03:43 27.08.2019
2975 Haze 27 1004 83 3000 1.5 190 02:40 27.08.2019
2976 Haze 27 1004 83 3000 2.1 220 01:46 27.08.2019
2977 Haze 27 1004 83 3000 3.25 280.429 01:24 27.08.2019
2978 Haze 28 1004 78 3000 1.5 210 00:49 27.08.2019
2979 Haze 28 1004 78 3000 1.5 210 00:28 27.08.2019
2980 Haze 28 1004 78 3000 2.1 230 23:40 26.08.2019
2981 Haze 28 1005 78 3000 2.1 220 23:22 26.08.2019
2982 Haze 28 1005 78 3000 2.1 220 22:58 26.08.2019
2983 Haze 28 1005 78 3000 2.1 230 22:36 26.08.2019
2984 Haze 28 1005 78 3000 2.1 230 22:18 26.08.2019
2985 Haze 28 1006 74 3000 3.1 220 21:39 26.08.2019
2986 Haze 28 1006 74 3000 3.1 220 21:21 26.08.2019
2987 Haze 28 1006 74 3000 3.1 220 20:58 26.08.2019
2988 Haze 28 1006 74 3000 3.1 220 20:58 26.08.2019
2989 Haze 28 1006 78 3000 3.6 220 20:39 26.08.2019
2990 Haze 28 1006 78 3000 3.6 220 20:19 26.08.2019
2991 Haze 28 1006 78 3000 3.6 230 19:56 26.08.2019
2992 Haze 28 1006 78 3000 3.6 220 19:38 26.08.2019
2993 Haze 28 1006 78 3000 3.6 220 19:18 26.08.2019
2994 Haze 29 1006 74 3000 3.6 220 18:39 26.08.2019
2995 Haze 29 1006 74 3000 3.6 220 18:20 26.08.2019
2996 Haze 28 1006 78 3000 3.1 220 17:59 26.08.2019
2997 Haze 29 1006 70 3000 4.1 230 17:40 26.08.2019
2998 Haze 29 1006 70 3000 4.1 230 17:19 26.08.2019
2999 Haze 29 1005 70 4000 3.1 230 16:56 26.08.2019
3000 Haze 29 1005 70 4000 4.6 240 16:38 26.08.2019
3001 Haze 30 1005 70 4000 4.6 240 16:18 26.08.2019
3002 Haze 30 1005 66 5000 5.7 230 15:42 26.08.2019
3003 Haze 30 1005 66 5000 5.7 230 15:22 26.08.2019
3004 Haze 31 1004 66 5000 5.1 250 14:56 26.08.2019
3005 Haze 31 1004 62 5000 5.7 250 14:37 26.08.2019
3006 Haze 31 1004 62 5000 5.1 250 14:18 26.08.2019
3007 Haze 31 1004 66 5000 6.7 260 13:42 26.08.2019
3008 Haze 31 1004 66 5000 6.7 260 13:21 26.08.2019
3009 Haze 32 1005 66 4000 6.7 250 12:46 26.08.2019
3010 Haze 31 1005 66 4000 6.7 250 12:28 26.08.2019
3011 Haze 31 1005 70 4000 6.7 250 11:59 26.08.2019
3012 Haze 31 1005 70 4000 6.2 260 11:38 26.08.2019
3013 Haze 31 1005 70 4000 7.2 250 11:19 26.08.2019
3014 Haze 31 1005 70 4000 7.2 250 10:55 26.08.2019
3015 Haze 31 1006 74 4000 7.2 230 10:36 26.08.2019
3016 Haze 31 1006 74 4000 7.2 230 10:18 26.08.2019
3017 Haze 30 1006 74 4000 6.2 250 09:41 26.08.2019
3018 Haze 30 1006 74 4000 6.2 250 09:23 26.08.2019
3019 Haze 30 1006 70 4000 6.7 240 08:56 26.08.2019
3020 Haze 29 1006 79 4000 5.7 250 08:37 26.08.2019
3021 Haze 29 1006 79 4000 5.7 250 08:19 26.08.2019
3022 Haze 30 1006 78 3000 4.6 240 07:42 26.08.2019
3023 Haze 29 1006 78 3000 4.6 240 07:23 26.08.2019
3024 Haze 29 1006 83 2500 3.1 160 06:49 26.08.2019
3025 Rain 29 1006 83 2500 1.5 0 06:25 26.08.2019
3026 Haze 29 1006 83 2500 2.1 0 05:56 26.08.2019
3027 Haze 27 1006 88 3000 3.8 257.623 04:35 26.08.2019
3028 Haze 26 1005 94 3000 3.8 257.623 03:30 26.08.2019
3029 Haze 26 1005 94 3000 2.6 100 01:41 26.08.2019
3030 Haze 26 1005 94 3000 2.6 110 01:21 26.08.2019
3031 Haze 26 1005 94 3000 4.2 263.141 00:42 26.08.2019
3032 Haze 26 1005 94 3000 2.6 100 00:24 26.08.2019
3033 Haze 27 1005 88 3000 2.6 120 23:43 25.08.2019
3034 Haze 27 1005 88 3000 2.6 120 23:19 25.08.2019
3035 Haze 27 1005 88 2500 2.6 90 22:57 25.08.2019
3036 Rain 27 1006 88 2500 2.6 100 22:39 25.08.2019
3037 Rain 27 1006 88 2500 2.6 100 22:20 25.08.2019
3038 Haze 28 1006 78 3500 2.1 90 21:58 25.08.2019
3039 Rain 28 1006 78 3500 1.5 230 21:38 25.08.2019
3040 Rain 28 1006 78 3500 1.5 230 21:18 25.08.2019
3041 Haze 28 1007 78 3500 2.1 230 20:40 25.08.2019
3042 Haze 28 1007 78 3500 2.1 230 20:20 25.08.2019
3043 Haze 28 1007 78 4000 2.6 240 19:58 25.08.2019
3044 Haze 28 1007 78 4000 3.1 240 19:39 25.08.2019
3045 Haze 28 1007 78 4000 3.1 240 19:20 25.08.2019
3046 Haze 28 1006 78 4000 3.1 220 18:58 25.08.2019
3047 Haze 28 1006 78 4000 3.1 220 18:39 25.08.2019
3048 Haze 28 1006 78 3000 2.6 240 18:21 25.08.2019
3049 Haze 29 1006 74 3000 2.6 230 17:45 25.08.2019
3050 Haze 29 1006 74 3000 2.6 230 17:25 25.08.2019
3051 Haze 29 1005 74 3000 3.6 250 16:59 25.08.2019
3052 Haze 29 1005 78 3000 3.6 230 16:37 25.08.2019
3053 Haze 29 1005 78 3000 3.6 230 16:18 25.08.2019
3054 Haze 29 1004 74 5000 4.1 260 15:43 25.08.2019
3055 Haze 30 1004 74 5000 4.1 260 15:25 25.08.2019
3056 Haze 30 1004 74 5000 5.1 260 14:43 25.08.2019
3057 Haze 30 1004 74 5000 5.1 260 14:25 25.08.2019
3058 Haze 30 1004 74 5000 5.7 260 13:57 25.08.2019
3059 Haze 31 1004 70 5000 6.2 250 13:38 25.08.2019
3060 Haze 31 1004 74 4000 6.7 260 13:19 25.08.2019
3061 Haze 29 1004 70 4000 5.7 270 12:48 25.08.2019
3062 Haze 29 1004 70 4000 5.7 270 12:26 25.08.2019
3063 Haze 29 1005 74 4000 5.7 240 11:59 25.08.2019
3064 Haze 29 1005 74 4000 4.6 260 11:40 25.08.2019
3065 Haze 29 1005 74 4000 4.6 260 11:21 25.08.2019
3066 Haze 30 1005 74 3000 4.6 260 10:57 25.08.2019
3067 Haze 30 1006 74 3000 4.6 270 10:39 25.08.2019
3068 Haze 30 1006 74 3000 4.6 270 10:19 25.08.2019
3069 Haze 29 1006 74 2200 4.6 250 09:44 25.08.2019
3070 Haze 30 1006 74 2200 4.6 250 09:25 25.08.2019
3071 Haze 28 1007 88 2200 4.1 200 08:48 25.08.2019
3072 Haze 28 1007 88 2200 4.1 200 08:30 25.08.2019
3073 Haze 28 1007 88 2200 5.41 263.772 07:55 25.08.2019
3074 Rain 28 1007 88 1800 2.1 180 07:34 25.08.2019
3075 Rain 29 1007 83 2500 5.41 263.772 06:45 25.08.2019
3076 Haze 28 1007 88 2500 5.62 261.345 05:42 25.08.2019
3077 Rain 28 1006 88 1700 4.1 150 04:23 25.08.2019
3078 Haze 27 1006 88 3000 1.5 180 02:58 25.08.2019
3079 Haze 28 1006 83 3000 2.1 190 02:38 25.08.2019
3080 Haze 28 1005 78 3000 4.91 256.301 01:18 25.08.2019
3081 Haze 27 1005 83 3000 2.1 210 00:38 25.08.2019
3082 Haze 27 1005 83 3000 2.1 210 00:20 25.08.2019
3083 Haze 27 1005 83 3000 2.1 220 23:47 24.08.2019
3084 Haze 28 1006 88 3000 1.87 239.489 23:22 24.08.2019
3085 Rain 27 1006 88 3000 1.5 220 22:55 24.08.2019
3086 Rain 26 1006 83 3000 2.1 220 22:37 24.08.2019
3087 Rain 26 1006 83 3000 2.1 220 22:18 24.08.2019
3088 Haze 28 1006 78 3000 2.1 240 21:55 24.08.2019
3089 Haze 28 1007 78 3000 2.1 230 21:36 24.08.2019
3090 Haze 28 1007 78 3000 2.1 230 21:18 24.08.2019
3091 Haze 28 1007 78 3000 3.6 220 20:41 24.08.2019
3092 Haze 28 1007 78 3000 3.6 220 20:20 24.08.2019
3093 Haze 28 1007 78 3000 3.1 210 19:59 24.08.2019
3094 Haze 28 1007 78 3000 3.1 230 19:41 24.08.2019
3095 Haze 29 1007 78 3000 3.1 230 19:22 24.08.2019
3096 Haze 28 1007 78 3000 2.6 220 18:59 24.08.2019
3097 Haze 28 1007 78 3000 2.6 240 18:38 24.08.2019
3098 Haze 28 1007 83 3000 3.1 230 18:19 24.08.2019
3099 Haze 28 1007 83 3000 3.6 230 17:43 24.08.2019
3100 Haze 28 1007 83 3000 3.6 230 17:24 24.08.2019
3101 Haze 29 1006 83 3000 3.1 240 16:48 24.08.2019
3102 Haze 29 1006 74 3500 4.1 240 16:20 24.08.2019
3103 Haze 29 1006 74 3500 1.5 210 15:58 24.08.2019
3104 Haze 29 1006 74 3500 3.1 230 15:40 24.08.2019
3105 Haze 29 1006 74 3500 3.1 230 15:22 24.08.2019
3106 Rain 30 1005 74 3500 5.1 230 14:43 24.08.2019
3107 Rain 30 1005 74 3500 5.1 230 14:22 24.08.2019
3108 Rain 30 1005 70 3500 6.2 250 13:56 24.08.2019
3109 Haze 31 1005 70 4000 5.7 250 13:37 24.08.2019
3110 Haze 31 1005 70 4000 5.7 250 13:19 24.08.2019
3111 Haze 30 1006 79 3000 4.1 250 12:42 24.08.2019
3112 Haze 30 1006 79 3000 4.1 250 12:24 24.08.2019
3113 Rain 30 1006 74 2500 3.6 270 11:58 24.08.2019
3114 Haze 31 1006 62 4000 5.7 230 11:39 24.08.2019
3115 Haze 31 1007 70 4000 5.7 240 11:20 24.08.2019
3116 Haze 31 1007 70 4000 5.1 250 10:44 24.08.2019
3117 Haze 31 1007 70 4000 5.1 250 10:23 24.08.2019
3118 Haze 31 1008 70 4000 6.2 250 09:44 24.08.2019
3119 Haze 31 1008 70 4000 6.2 250 09:21 24.08.2019
3120 Haze 31 1008 70 4000 6.2 260 08:58 24.08.2019
3121 Haze 31 1008 70 4000 7.2 250 08:39 24.08.2019
3122 Haze 31 1008 70 4000 7.2 250 08:21 24.08.2019
3123 Rain 30 1008 79 4000 7.2 240 07:47 24.08.2019
3124 Rain 30 1008 79 4000 7.2 240 07:26 24.08.2019
3125 Rain 28 1008 88 3000 3.6 230 06:28 24.08.2019
3126 Haze 29 1008 79 4000 4.6 230 05:41 24.08.2019
3127 Haze 28 1007 83 4000 3.6 240 04:46 24.08.2019
3128 Haze 28 1006 78 3000 4.6 240 03:37 24.08.2019
3129 Haze 28 1006 83 3000 2.6 220 02:26 24.08.2019
3130 Rain 27 1006 83 2500 4.1 240 01:31 24.08.2019
3131 Haze 28 1006 78 3500 3.1 220 00:54 24.08.2019
3132 Haze 28 1006 83 3500 3.1 220 00:26 24.08.2019
3133 Haze 28 1006 78 4000 3.6 220 23:59 23.08.2019
3134 Haze 28 1007 83 4000 4.1 220 23:39 23.08.2019
3135 Haze 28 1007 83 4000 4.1 220 23:19 23.08.2019
3136 Haze 28 1007 79 4000 3.6 240 22:42 23.08.2019
3137 Haze 28 1007 79 4000 3.6 240 22:24 23.08.2019
3138 Haze 28 1007 74 4000 5.1 240 21:41 23.08.2019
3139 Haze 28 1007 74 4000 5.1 240 21:23 23.08.2019
3140 Haze 28 1008 79 4000 4.6 230 20:59 23.08.2019
3141 Haze 28 1008 79 4000 3.1 220 20:40 23.08.2019
3142 Haze 28 1008 79 4000 3.1 220 20:21 23.08.2019
3143 Haze 28 1008 74 4000 4.1 220 19:44 23.08.2019
3144 Haze 29 1008 74 4000 4.1 220 19:19 23.08.2019
3145 Haze 28 1008 74 4000 3.6 220 18:49 23.08.2019
3146 Haze 28 1008 79 4000 3.6 230 18:31 23.08.2019
3147 Haze 28 1008 74 4000 2.6 220 17:58 23.08.2019
3148 Haze 28 1007 74 4000 3.6 230 17:39 23.08.2019
3149 Haze 28 1007 74 4000 3.6 230 17:20 23.08.2019
3150 Haze 30 1007 74 4000 4.1 240 16:48 23.08.2019
3151 Haze 30 1007 74 4000 4.1 250 16:29 23.08.2019
3152 Haze 30 1007 79 5000 3.1 280 15:57 23.08.2019
3153 Haze 30 1006 74 6000 4.6 270 15:37 23.08.2019
3154 Haze 30 1006 74 6000 4.6 270 15:19 23.08.2019
3155 Clouds 31 1006 74 6000 4.1 260 14:42 23.08.2019
3156 Clouds 31 1006 74 6000 4.1 260 14:21 23.08.2019
3157 Clouds 31 1006 66 6000 5.1 250 13:58 23.08.2019
3158 Clouds 31 1006 66 6000 5.7 280 13:40 23.08.2019
3159 Clouds 31 1006 66 6000 5.7 280 13:22 23.08.2019
3160 Clouds 31 1006 70 6000 4.1 280 12:58 23.08.2019
3161 Clouds 32 1006 66 6000 5.7 270 12:39 23.08.2019
3162 Clouds 32 1006 70 6000 5.7 280 12:20 23.08.2019
3163 Clouds 32 1006 70 6000 5.7 280 11:56 23.08.2019
3164 Haze 31 1006 66 6000 5.1 300 11:37 23.08.2019
3165 Haze 31 1006 66 6000 5.1 300 11:18 23.08.2019
3166 Haze 31 1007 70 4000 6.7 260 10:43 23.08.2019
3167 Haze 32 1007 70 4000 6.7 260 10:22 23.08.2019
3168 Haze 31 1007 74 4000 5.7 270 09:57 23.08.2019
3169 Haze 31 1008 66 4000 6.2 270 09:39 23.08.2019
3170 Haze 30 1008 66 4000 6.2 270 09:20 23.08.2019
3171 Haze 30 1008 70 4000 5.1 290 08:43 23.08.2019
3172 Haze 31 1008 70 4000 5.1 290 08:19 23.08.2019
3173 Haze 31 1008 74 2500 5.1 270 07:43 23.08.2019
3174 Haze 31 1008 74 2500 5.1 270 07:24 23.08.2019
3175 Haze 31 1008 74 2500 5.1 270 07:24 23.08.2019
3176 Haze 31 1008 74 2500 5.1 270 07:24 23.08.2019
3177 Haze 30 1008 88 2500 2.1 160 06:58 23.08.2019
3178 Haze 29 1008 88 2500 2.6 140 06:39 23.08.2019
3179 Haze 28 1008 88 2500 2.6 140 06:20 23.08.2019
3180 Rain 27 1008 88 2500 1.5 130 05:42 23.08.2019
3181 Rain 27 1008 88 2500 1.5 130 05:21 23.08.2019
3182 Haze 27 1007 88 3000 2.1 110 03:23 23.08.2019
3183 Haze 27 1007 88 3500 2.1 100 02:24 23.08.2019
3184 Haze 27 1007 83 3500 2.6 110 01:52 23.08.2019
3185 Haze 28 1006 83 3500 2.1 230 00:46 23.08.2019
3186 Haze 28 1006 83 3500 2.1 230 00:22 23.08.2019
3187 Haze 28 1007 83 4000 4.1 230 23:50 22.08.2019
3188 Haze 28 1007 83 4000 4.1 230 23:32 22.08.2019
3189 Haze 28 1007 83 4000 4.1 250 22:58 22.08.2019
3190 Haze 28 1007 78 4000 5.1 240 22:40 22.08.2019
3191 Haze 28 1007 78 4000 5.1 240 22:22 22.08.2019
3192 Haze 28 1007 83 4000 4.6 240 21:57 22.08.2019
3193 Haze 28 1008 83 4000 4.6 240 21:39 22.08.2019
3194 Haze 28 1008 83 4000 4.6 240 21:19 22.08.2019
3195 Haze 29 1008 79 4000 5.1 240 20:57 22.08.2019
3196 Haze 29 1008 79 4000 2.6 230 20:38 22.08.2019
3197 Haze 28 1008 79 4000 2.6 230 20:18 22.08.2019
3198 Haze 28 1008 79 4000 2.6 230 20:18 22.08.2019
3199 Haze 28 1008 79 4000 3.1 220 19:56 22.08.2019
3200 Haze 27 1008 74 4000 3.1 240 19:37 22.08.2019
3201 Haze 28 1008 74 4000 3.1 240 19:19 22.08.2019
3202 Haze 28 1008 74 4000 3.6 240 18:56 22.08.2019
3203 Haze 28 1008 74 4000 4.1 250 18:37 22.08.2019
3204 Haze 29 1007 74 4000 3.6 250 18:18 22.08.2019
3205 Haze 29 1007 74 4000 3.6 250 17:42 22.08.2019
3206 Haze 29 1007 74 4000 4.6 250 17:23 22.08.2019
3207 Haze 29 1007 74 4000 4.6 250 16:58 22.08.2019
3208 Haze 29 1007 79 4000 4.6 260 16:40 22.08.2019
3209 Haze 29 1007 79 4000 4.6 260 16:21 22.08.2019
3210 Haze 29 1007 79 4000 4.6 260 16:21 22.08.2019
3211 Haze 29 1006 74 5000 4.1 260 15:59 22.08.2019
3212 Haze 30 1006 74 5000 4.1 250 15:39 22.08.2019
3213 Haze 30 1006 74 5000 4.1 250 15:39 22.08.2019
3214 Haze 30 1006 74 5000 4.1 250 15:20 22.08.2019
3215 Haze 30 1006 74 5000 4.1 250 15:20 22.08.2019
3216 Haze 30 1006 70 5000 4.1 300 14:56 22.08.2019
3217 Haze 30 1006 70 5000 5.1 280 14:38 22.08.2019
3218 Haze 31 1006 70 5000 6.2 290 14:18 22.08.2019
3219 Haze 31 1006 70 5000 6.2 290 13:55 22.08.2019
3220 Haze 31 1006 66 4000 5.7 280 13:36 22.08.2019
3221 Haze 31 1006 66 4000 5.7 280 13:18 22.08.2019
3222 Haze 31 1006 66 4000 6.2 280 12:40 22.08.2019
3223 Haze 31 1006 66 4000 6.2 280 12:21 22.08.2019
3224 -273 0 0 0 0 0 11:55 22.08.2019
3225 -273 0 0 0 0 0 11:55 22.08.2019
3226 Haze 31 1007 70 4000 5.7 300 11:36 22.08.2019
3227 Haze 30 1007 74 3000 5.7 280 11:18 22.08.2019
3228 Haze 30 1007 74 3000 5.7 280 10:56 22.08.2019
3229 Haze 30 1007 74 3000 6.7 200 10:36 22.08.2019
3230 Rain 30 1008 74 3000 6.2 260 10:18 22.08.2019
3231 Haze 31 1008 74 4000 6.7 280 09:39 22.08.2019
3232 Haze 31 1008 74 4000 6.7 280 09:21 22.08.2019
3233 Haze 29 1008 74 3000 5.7 270 08:58 22.08.2019
3234 Haze 29 1008 74 3000 5.7 270 08:39 22.08.2019
3235 Haze 29 1009 79 2700 3.6 300 08:20 22.08.2019
3236 Haze 29 1009 79 2700 3.6 300 07:41 22.08.2019
3237 Haze 29 1009 79 2700 3.6 300 07:23 22.08.2019
3238 Haze 29 1008 83 2500 3.6 220 06:55 22.08.2019
3239 Rain 28 1008 78 2500 5.1 250 06:37 22.08.2019
3240 Haze 28 1008 78 2500 3.6 220 06:18 22.08.2019
3241 Haze 28 1008 83 4000 3.1 270 04:42 22.08.2019
3242 Haze 28 1007 83 3000 4.1 250 02:52 22.08.2019
3243 Haze 28 1007 83 3000 3.6 260 02:34 22.08.2019
3244 Haze 28 1007 83 3000 3.1 270 01:26 22.08.2019
3245 Haze 28 1006 83 3000 4.1 250 00:47 22.08.2019
3246 Haze 28 1006 83 3000 4.1 250 00:28 22.08.2019
3247 Haze 28 1007 83 3000 3.6 260 23:58 21.08.2019
3248 Haze 28 1007 83 3000 4.1 270 23:37 21.08.2019
3249 Haze 28 1007 83 3000 4.1 270 23:19 21.08.2019
3250 Haze 28 1007 83 3000 4.1 260 22:55 21.08.2019
3251 Haze 28 1007 83 3000 4.6 260 22:37 21.08.2019
3252 Haze 28 1007 83 3000 4.6 260 22:19 21.08.2019
3253 Haze 28 1008 83 3000 4.6 270 21:55 21.08.2019
3254 Haze 29 1008 79 3000 5.1 250 21:36 21.08.2019
3255 Haze 28 1008 83 3000 5.1 260 21:18 21.08.2019
3256 Haze 29 1009 79 3000 5.7 270 20:43 21.08.2019
3257 Haze 29 1009 79 3000 5.7 270 20:24 21.08.2019
3258 Haze 29 1009 79 3000 5.7 260 19:57 21.08.2019
3259 Haze 29 1009 79 3000 5.7 260 19:39 21.08.2019
3260 Haze 29 1009 79 3000 5.7 250 19:20 21.08.2019
3261 Haze 29 1009 79 3000 5.7 250 18:55 21.08.2019
3262 Haze 29 1008 79 3000 6.2 260 18:37 21.08.2019
3263 Haze 29 1008 79 3000 6.2 260 18:19 21.08.2019
3264 Haze 29 1008 79 3000 6.2 260 17:42 21.08.2019
3265 Haze 29 1008 79 3000 6.2 260 17:20 21.08.2019
3266 Haze 29 1007 79 3000 6.7 260 16:54 21.08.2019
3267 Haze 29 1007 79 3000 6.7 260 16:36 21.08.2019
3268 Haze 29 1007 79 3000 6.7 260 16:18 21.08.2019
3269 Haze 29 1007 79 4000 6.7 260 15:42 21.08.2019
3270 Haze 29 1007 79 4000 6.7 260 15:22 21.08.2019
3271 Haze 30 1007 74 5000 7.2 260 14:58 21.08.2019
3272 Haze 30 1007 74 5000 6.2 270 14:39 21.08.2019
3273 Haze 30 1007 74 5000 6.2 270 14:21 21.08.2019
3274 Haze 30 1007 74 5000 7.2 260 13:58 21.08.2019
3275 Haze 31 1007 74 5000 7.2 270 13:40 21.08.2019
3276 Haze 31 1007 74 5000 7.2 270 13:19 21.08.2019
3277 Haze 31 1007 74 4500 7.2 280 12:57 21.08.2019
3278 Haze 31 1007 70 4500 4.6 270 12:38 21.08.2019
3279 Haze 31 1007 74 4000 6.7 280 12:18 21.08.2019
3280 Haze 31 1007 74 4000 6.7 280 12:18 21.08.2019
3281 Haze 30 1008 74 4000 3.6 290 11:43 21.08.2019
3282 Haze 30 1008 74 4000 3.6 290 11:22 21.08.2019
3283 Haze 30 1008 74 4000 4.1 280 10:58 21.08.2019
3284 Rain 30 1008 74 4000 4.1 260 10:38 21.08.2019
3285 Rain 30 1008 74 4000 4.1 260 10:20 21.08.2019
3286 Haze 31 1009 74 4000 4.1 270 09:57 21.08.2019
3287 Haze 31 1009 74 4000 4.6 280 09:39 21.08.2019
3288 Haze 31 1009 74 4000 4.6 280 09:20 21.08.2019
3289 Haze 30 1009 74 4000 6.2 270 08:48 21.08.2019
3290 Haze 30 1009 74 4000 6.2 270 08:24 21.08.2019
3291 Haze 29 1009 74 3500 5.1 260 07:45 21.08.2019
3292 Haze 29 1009 79 3000 6.7 260 07:25 21.08.2019
3293 Rain 28 1009 88 3000 5.1 250 06:51 21.08.2019
3294 Rain 28 1009 88 3000 5.1 250 06:32 21.08.2019
3295 Haze 28 1009 88 3000 5.7 250 05:57 21.08.2019
3296 Rain 27 1008 88 1500 4.1 240 05:28 21.08.2019
3297 Haze 26 1008 88 3000 1 180 04:35 21.08.2019
3298 Haze 28 1007 78 5000 3.6 250 02:40 21.08.2019
3299 Haze 28 1007 83 4000 3.6 240 01:30 21.08.2019
3300 Haze 28 1007 83 4000 3.1 240 00:41 21.08.2019
3301 Haze 28 1008 83 4000 2.6 260 00:20 21.08.2019
3302 Haze 28 1008 83 4000 3.6 250 23:45 20.08.2019
3303 Haze 28 1008 83 4000 3.6 250 23:20 20.08.2019
3304 Haze 28 1008 83 4000 3.6 250 23:20 20.08.2019
3305 Haze 28 1008 83 4000 2.6 280 22:59 20.08.2019
3306 Haze 28 1008 83 4000 2.6 280 22:59 20.08.2019
3307 Haze 28 1008 83 4000 3.1 270 22:40 20.08.2019
3308 Haze 28 1008 83 4000 3.1 270 22:40 20.08.2019
3309 Haze 28 1008 83 4000 3.1 270 22:21 20.08.2019
3310 Haze 28 1009 78 4000 2.6 280 21:58 20.08.2019
3311 Haze 29 1009 74 4000 2.6 290 21:39 20.08.2019
3312 Haze 29 1009 74 4000 2.6 290 21:19 20.08.2019
3313 Haze 29 1009 74 4000 2.6 290 20:58 20.08.2019
3314 Haze 29 1009 74 4000 2.6 290 20:58 20.08.2019
3315 Haze 29 1009 74 4000 3.1 270 20:40 20.08.2019
3316 Haze 29 1009 74 4000 3.1 270 20:21 20.08.2019
3317 Haze 29 1010 79 4000 3.1 280 19:39 20.08.2019
3318 Haze 29 1010 79 4000 3.1 280 19:21 20.08.2019
3319 Haze 29 1009 74 4000 3.1 280 18:57 20.08.2019
3320 Clouds 27 1010 86 0 3.88 254.539 18:39 20.08.2019
3321 Clouds 27 1010 86 0 3.88 254.539 18:39 20.08.2019
3322 Haze 29 1008 74 4000 4.1 280 18:19 20.08.2019
3323 Haze 29 1008 74 4000 4.1 280 17:57 20.08.2019
3324 Haze 29 1008 74 4000 4.1 280 17:38 20.08.2019
3325 Haze 29 1008 74 4000 4.6 270 17:19 20.08.2019
3326 Haze 29 1008 74 5000 4.6 270 16:44 20.08.2019
3327 Haze 29 1007 74 5000 4.6 270 16:26 20.08.2019
3328 Haze 29 1007 74 5000 4.6 270 15:56 20.08.2019
3329 Haze 30 1007 74 5000 5.1 270 15:38 20.08.2019
3330 Haze 30 1007 74 6000 5.1 270 15:18 20.08.2019
3331 Haze 31 1007 70 6000 5.7 260 14:43 20.08.2019
3332 Clouds 31 1007 74 6000 5.7 270 14:22 20.08.2019
3333 Clouds 31 1007 74 6000 5.7 270 13:57 20.08.2019
3334 Clouds 31 1007 74 6000 7.2 260 13:38 20.08.2019
3335 Clouds 31 1007 74 6000 6.2 270 13:20 20.08.2019
3336 Clouds 31 1007 66 6000 4.1 270 12:51 20.08.2019
3337 Clouds 31 1007 66 6000 4.1 270 12:30 20.08.2019
3338 Clouds 31 1008 62 6000 5.7 270 11:59 20.08.2019
3339 Clouds 31 1008 70 6000 5.7 260 11:40 20.08.2019
3340 Clouds 31 1009 66 6000 6.2 260 11:20 20.08.2019
3341 Clouds 31 1009 66 6000 6.2 260 10:57 20.08.2019
3342 Clouds 31 1009 66 6000 5.1 260 10:38 20.08.2019
3343 Clouds 31 1009 66 6000 3.6 270 10:20 20.08.2019
3344 Clouds 31 1009 66 6000 3.6 270 09:54 20.08.2019
3345 Clouds 31 1010 66 6000 4.1 280 09:36 20.08.2019
3346 Haze 31 1010 70 5000 4.6 270 09:18 20.08.2019
3347 Haze 30 1010 70 5000 4.1 260 08:41 20.08.2019
3348 Haze 30 1010 70 5000 3.6 250 08:21 20.08.2019
3349 Haze 30 1011 70 5000 4.1 270 07:57 20.08.2019
3350 Haze 30 1011 70 5000 4.1 270 07:37 20.08.2019
3351 Haze 30 1011 70 5000 3.1 270 07:18 20.08.2019
3352 Haze 30 1011 74 4000 3.6 250 06:41 20.08.2019
3353 Haze 29 1010 74 4000 3.6 240 06:19 20.08.2019
3354 Haze 29 1010 78 4000 3.6 280 05:40 20.08.2019
3355 Haze 28 1009 83 3000 2.1 280 04:21 20.08.2019
3356 Haze 28 1008 78 3000 2.1 290 02:47 20.08.2019
3357 Haze 28 1008 78 3000 2.23 290.099 01:50 20.08.2019
3358 Haze 28 1008 78 3000 3.1 280 01:20 20.08.2019
3359 Haze 28 1008 83 3000 2.1 320 00:43 20.08.2019
3360 Haze 28 1008 78 3000 2.1 290 00:21 20.08.2019
3361 Haze 28 1009 78 3000 2.6 280 23:42 19.08.2019
3362 Haze 28 1009 78 3000 3.1 250 23:19 19.08.2019
3363 Haze 28 1009 78 3000 3.1 250 22:58 19.08.2019
3364 Haze 28 1009 78 3000 2.6 250 22:39 19.08.2019
3365 Haze 28 1009 83 3000 3.1 280 22:19 19.08.2019
3366 Haze 28 1009 83 3000 3.1 280 22:19 19.08.2019
3367 Haze 28 1009 83 3000 3.1 280 21:56 19.08.2019
3368 Haze 28 1010 83 3500 3.6 270 21:38 19.08.2019
3369 Haze 28 1010 83 3500 2.1 270 21:19 19.08.2019
3370 Haze 28 1010 83 3500 3.6 270 20:40 19.08.2019
3371 Haze 28 1010 83 3500 3.6 240 20:21 19.08.2019
3372 Haze 28 1010 83 3500 3.6 240 19:59 19.08.2019
3373 Haze 28 1010 83 3500 3.6 240 19:41 19.08.2019
3374 Haze 28 1010 83 3500 3.6 260 19:19 19.08.2019
3375 Haze 28 1010 83 3500 3.6 260 19:19 19.08.2019
3376 Haze 28 1010 83 3500 3.6 260 19:19 19.08.2019
3377 Haze 29 1010 79 3500 4.6 250 18:59 19.08.2019
3378 Haze 29 1010 79 3500 4.6 250 18:39 19.08.2019
3379 Haze 29 1009 79 3500 3.1 250 18:21 19.08.2019
3380 Haze 29 1009 79 3500 3.6 260 17:55 19.08.2019
3381 Haze 29 1009 79 3500 3.6 260 17:36 19.08.2019
3382 Haze 29 1009 74 3500 4.1 240 17:18 19.08.2019
3383 Haze 29 1009 74 3500 4.1 240 16:39 19.08.2019
3384 Haze 29 1008 74 4000 5.1 260 16:21 19.08.2019
3385 Haze 29 1008 79 5000 5.1 260 15:56 19.08.2019
3386 Haze 29 1008 79 5000 5.1 260 15:56 19.08.2019
3387 Haze 30 1008 74 6000 4.6 280 15:38 19.08.2019
3388 Haze 30 1008 74 6000 4.6 280 15:19 19.08.2019
3389 Haze 30 1007 79 6000 6.2 250 14:44 19.08.2019
3390 Haze 30 1007 79 6000 6.2 250 14:23 19.08.2019
3391 Haze 31 1007 74 6000 5.7 250 13:58 19.08.2019
3392 Haze 31 1008 74 6000 5.1 260 13:39 19.08.2019
3393 Haze 31 1008 74 6000 5.1 260 13:20 19.08.2019
3394 Haze 31 1008 74 6000 5.1 260 12:58 19.08.2019
3395 Haze 31 1008 74 6000 5.7 260 12:40 19.08.2019
3396 Haze 31 1009 74 5000 4.6 250 12:20 19.08.2019
3397 Haze 30 1009 74 4500 4.1 260 11:40 19.08.2019
3398 Haze 30 1009 74 4500 4.1 260 11:22 19.08.2019
3399 Haze 30 1009 74 4000 5.7 240 10:58 19.08.2019
3400 Haze 31 1009 74 3000 4.6 240 10:38 19.08.2019
3401 Haze 31 1009 70 3000 6.2 250 10:19 19.08.2019
3402 Haze 31 1009 70 3000 6.2 250 09:54 19.08.2019
3403 Haze 31 1010 70 3000 6.2 230 09:36 19.08.2019
3404 Haze 31 1010 70 3000 6.2 230 09:18 19.08.2019
3405 Haze 30 1010 79 2500 4.6 250 08:41 19.08.2019
3406 Haze 30 1010 79 2500 4.6 250 08:41 19.08.2019
3407 Haze 30 1010 79 2500 4.6 250 08:20 19.08.2019
3408 Rain 29 1010 88 2500 3.6 240 07:50 19.08.2019
3409 Haze 28 1010 88 2500 2.1 260 07:31 19.08.2019
3410 Haze 28 1010 88 2500 3.1 20 06:58 19.08.2019
3411 Rain 28 1010 88 2500 2.1 180 06:36 19.08.2019
3412 Haze 29 1009 79 3000 3.6 230 05:25 19.08.2019
3413 Smoke 29 1009 83 4000 3.1 220 04:33 19.08.2019
3414 Smoke 28 1008 83 4000 2.6 230 03:24 19.08.2019
3415 Clouds 27 1007 88 6000 3.1 210 02:29 19.08.2019
3416 Clouds 28 1007 83 6000 3.6 230 01:36 19.08.2019
3417 Smoke 28 1008 83 4000 1.5 190 00:46 19.08.2019
3418 Smoke 28 1008 83 3500 1.5 200 00:23 19.08.2019
3419 Haze 28 1008 83 3000 4.1 220 23:43 18.08.2019
3420 Haze 28 1008 83 3000 4.1 220 23:22 18.08.2019
3421 Haze 28 1008 83 3000 3.1 220 22:59 18.08.2019
3422 Haze 28 1009 83 3000 2.1 220 22:39 18.08.2019
3423 Haze 28 1009 83 2500 3.1 220 22:21 18.08.2019
3424 Haze 28 1009 83 2500 3.1 220 21:56 18.08.2019
3425 Haze 28 1009 83 2500 3.6 230 21:38 18.08.2019
3426 Haze 28 1009 83 2500 3.6 230 21:20 18.08.2019
3427 Rain 28 1009 83 2200 3.1 230 20:45 18.08.2019
3428 Rain 28 1009 83 2200 3.1 230 20:26 18.08.2019
3429 Haze 28 1009 83 3000 2.6 210 19:59 18.08.2019
3430 Haze 28 1009 83 3000 2.6 230 19:40 18.08.2019
3431 Haze 28 1009 83 3000 2.6 230 19:22 18.08.2019
3432 Haze 29 1009 79 3000 2.1 210 18:56 18.08.2019
3433 Haze 28 1009 83 3000 3.1 210 18:38 18.08.2019
3434 Haze 28 1009 83 3000 3.1 210 18:19 18.08.2019
3435 Haze 29 1008 79 3000 3.1 230 17:43 18.08.2019
3436 Haze 29 1008 79 3000 3.1 230 17:19 18.08.2019
3437 Haze 29 1008 79 3000 3.1 230 17:19 18.08.2019
3438 Haze 29 1008 79 3500 2.1 230 16:59 18.08.2019
3439 Haze 29 1007 79 4000 3.6 250 16:41 18.08.2019
3440 Haze 29 1007 79 4000 3.6 250 16:20 18.08.2019
3441 Haze 29 1007 79 5000 3.1 260 15:58 18.08.2019
3442 Haze 30 1007 79 5000 2.6 260 15:39 18.08.2019
3443 Haze 30 1007 79 5000 2.6 260 15:20 18.08.2019
3444 Haze 30 1007 79 5000 2.6 260 15:20 18.08.2019
3445 Haze 30 1007 74 5000 3.6 250 14:56 18.08.2019
3446 Haze 31 1007 74 5000 5.1 270 14:37 18.08.2019
3447 Haze 31 1007 74 5000 5.1 270 14:19 18.08.2019
3448 Haze 31 1007 74 5000 5.1 250 13:55 18.08.2019
3449 Haze 31 1007 70 5000 5.1 240 13:36 18.08.2019
3450 Haze 31 1007 70 5000 5.1 240 13:18 18.08.2019
3451 Haze 31 1007 74 4000 5.7 270 12:41 18.08.2019
3452 Haze 31 1007 74 4000 5.7 270 12:22 18.08.2019
3453 Haze 31 1007 74 4000 6.2 260 11:55 18.08.2019
3454 Haze 31 1008 74 4000 5.7 260 11:36 18.08.2019
3455 Haze 31 1008 74 4000 5.7 260 11:18 18.08.2019
3456 Haze 31 1008 74 4000 6.7 250 10:41 18.08.2019
3457 Haze 31 1008 74 4000 5.7 260 10:19 18.08.2019
3458 Haze 31 1008 74 4000 5.7 260 09:50 18.08.2019
3459 Haze 31 1008 74 4000 6.7 260 09:22 18.08.2019
3460 Haze 31 1009 74 3500 5.1 260 08:54 18.08.2019
3461 Haze 31 1009 74 3500 6.2 250 08:36 18.08.2019
3462 Haze 31 1009 74 3500 6.2 250 08:18 18.08.2019
3463 Haze 29 1009 79 3000 5.7 250 07:43 18.08.2019
3464 Haze 29 1009 79 3000 5.7 250 07:24 18.08.2019
3465 Rain 29 1008 88 3000 5.1 220 05:48 18.08.2019
3466 Haze 28 1008 88 3000 2.6 210 04:53 18.08.2019
3467 Haze 26 1007 88 3000 4.1 230 03:36 18.08.2019
3468 Rain 27 1007 83 4000 5.7 240 02:46 18.08.2019
3469 Rain 27 1007 83 4000 5.7 240 02:23 18.08.2019
3470 Haze 28 1006 83 4000 2.1 210 01:31 18.08.2019
3471 Haze 27 1007 88 3500 7.54 243.404 00:59 18.08.2019
3472 Haze 27 1007 88 3500 1.5 190 00:38 18.08.2019
3473 Haze 27 1007 88 3000 2.1 220 00:18 18.08.2019
3474 Haze 27 1007 88 3000 2.1 220 23:56 17.08.2019
3475 Haze 27 1007 88 3000 3.6 200 23:37 17.08.2019
3476 Haze 27 1007 88 3000 3.6 200 23:18 17.08.2019
3477 Haze 27 1007 88 3000 3.6 200 23:18 17.08.2019
3478 Haze 27 1007 88 2500 7.32 231.197 22:56 17.08.2019
3479 Rain 27 1007 83 2100 3.1 230 22:37 17.08.2019
3480 Haze 28 1007 83 4000 3.6 200 22:18 17.08.2019
3481 Haze 28 1007 83 4000 3.6 200 21:41 17.08.2019
3482 Haze 28 1007 83 4000 3.6 200 21:23 17.08.2019
3483 Haze 28 1008 83 4000 3.1 200 20:41 17.08.2019
3484 Haze 28 1008 83 4000 3.1 200 20:21 17.08.2019
3485 Haze 28 1008 83 4000 3.1 200 20:21 17.08.2019
3486 Haze 29 1007 79 4000 4.6 210 19:59 17.08.2019
3487 Haze 28 1007 83 4000 4.1 210 19:40 17.08.2019
3488 Haze 28 1007 83 4000 4.1 210 19:21 17.08.2019
3489 Haze 28 1007 78 4000 3.6 210 18:41 17.08.2019
3490 Haze 28 1007 78 4000 4.1 210 18:20 17.08.2019
3491 Haze 28 1007 78 4000 4.1 210 17:59 17.08.2019
3492 Smoke 28 1006 83 5000 3.6 230 17:41 17.08.2019
3493 Smoke 28 1006 83 5000 3.6 230 17:21 17.08.2019
3494 Smoke 28 1006 83 5000 5.1 230 16:55 17.08.2019
3495 Smoke 29 1006 79 4000 5.1 240 16:36 17.08.2019
3496 Smoke 29 1006 79 4000 5.7 210 16:18 17.08.2019
3497 Smoke 30 1005 79 4000 5.7 220 15:42 17.08.2019
3498 Smoke 30 1005 79 4000 5.7 220 15:21 17.08.2019
3499 Smoke 30 1005 79 4500 4.6 240 14:57 17.08.2019
3500 Smoke 30 1005 79 5000 5.7 230 14:36 17.08.2019
3501 Smoke 30 1005 79 4000 6.2 230 14:18 17.08.2019
3502 Smoke 31 1005 74 4000 6.2 230 13:42 17.08.2019
3503 Smoke 31 1005 74 4000 6.2 230 13:19 17.08.2019
3504 Haze 31 1005 74 4000 4.6 210 12:42 17.08.2019
3505 Haze 31 1006 70 4000 4.1 230 12:20 17.08.2019
3506 Haze 31 1006 70 4000 4.1 230 11:58 17.08.2019
3507 Haze 31 1006 74 4000 5.1 220 11:38 17.08.2019
3508 Haze 31 1006 74 4000 5.1 220 11:19 17.08.2019
3509 Haze 31 1006 74 4000 6.7 220 10:40 17.08.2019
3510 Haze 31 1006 74 4000 6.7 220 10:21 17.08.2019
3511 Haze 31 1007 74 4000 7.2 200 09:55 17.08.2019
3512 Haze 31 1007 79 3500 7.2 220 09:36 17.08.2019
3513 Haze 31 1007 74 3000 7.7 220 09:18 17.08.2019
3514 Haze 31 1007 74 3000 6.7 210 08:42 17.08.2019
3515 Haze 31 1007 74 3000 6.7 210 08:20 17.08.2019
3516 Haze 29 1007 79 3000 6.2 210 07:42 17.08.2019
3517 Haze 29 1007 79 3000 6.7 230 07:19 17.08.2019
3518 Haze 28 1007 83 3000 5.1 230 06:21 17.08.2019
3519 Haze 28 1006 83 3000 4.6 240 04:32 17.08.2019
3520 Haze 28 1006 83 3000 4.6 240 04:32 17.08.2019
3521 Haze 27 1006 88 3000 4.6 230 03:38 17.08.2019
3522 Haze 27 1005 88 2500 2.6 220 02:36 17.08.2019
3523 Haze 27 1005 88 2500 3.6 220 01:36 17.08.2019
3524 Haze 27 1005 88 2500 3.6 220 01:18 17.08.2019
3525 Rain 27 1005 88 2500 3.6 230 00:44 17.08.2019
3526 Haze 28 1005 83 3000 4.1 220 23:58 16.08.2019
3527 Haze 28 1005 83 3000 4.1 230 23:39 16.08.2019
3528 Haze 28 1005 83 3000 4.1 230 23:20 16.08.2019
3529 Haze 28 1006 83 3000 5.7 220 22:42 16.08.2019
3530 Haze 28 1006 83 3000 5.7 220 22:19 16.08.2019
3531 Haze 28 1006 83 3000 4.1 220 21:43 16.08.2019
3532 Haze 28 1006 83 3000 4.1 220 21:22 16.08.2019
3533 Haze 28 1007 83 3000 5.1 230 20:59 16.08.2019
3534 Haze 28 1007 83 3000 5.7 220 20:41 16.08.2019
3535 Haze 28 1007 83 3000 5.7 220 20:19 16.08.2019
3536 Haze 28 1007 83 2500 4.6 230 19:55 16.08.2019
3537 Haze 28 1007 83 2500 4.1 230 19:37 16.08.2019
3538 Drizzle 28 1007 78 2500 4.6 230 19:19 16.08.2019
3539 Haze 28 1006 83 3000 5.7 240 18:41 16.08.2019
3540 Haze 28 1006 83 3500 6.2 240 18:22 16.08.2019
3541 Haze 28 1006 83 3500 5.1 240 17:45 16.08.2019
3542 Haze 28 1006 83 3500 5.1 240 17:25 16.08.2019
3543 Haze 29 1005 83 3500 4.1 240 16:56 16.08.2019
3544 Haze 29 1005 83 3500 5.7 240 16:38 16.08.2019
3545 Haze 29 1005 79 3500 5.1 240 16:18 16.08.2019
3546 Haze 29 1005 79 3500 5.1 240 15:55 16.08.2019
3547 Haze 29 1005 79 3500 5.1 220 15:37 16.08.2019
3548 Haze 29 1005 79 3500 5.1 220 15:19 16.08.2019
3549 Haze 30 1005 83 3500 6.2 240 14:42 16.08.2019
3550 Haze 30 1005 79 3500 6.2 240 14:19 16.08.2019
3551 Haze 30 1005 79 3500 6.2 240 13:59 16.08.2019
3552 Haze 30 1005 79 3500 7.7 250 13:38 16.08.2019
3553 Haze 30 1005 79 3500 6.2 240 13:20 16.08.2019
3554 Haze 31 1005 74 3500 7.2 240 12:40 16.08.2019
3555 Haze 31 1006 79 3500 3.6 250 12:20 16.08.2019
3556 Haze 31 1005 74 3500 7.2 240 12:20 16.08.2019
3557 Haze 31 1006 74 3500 5.1 250 11:43 16.08.2019
3558 Haze 31 1006 74 3500 5.1 250 11:24 16.08.2019
3559 Haze 31 1006 74 3500 5.1 250 11:24 16.08.2019
3560 Haze 30 1006 79 4000 4.1 240 10:59 16.08.2019
3561 Smoke 30 1006 79 4000 7.2 240 10:41 16.08.2019
3562 Smoke 30 1006 79 4000 7.2 240 10:20 16.08.2019
3563 Smoke 29 1007 83 4000 5.1 240 09:38 16.08.2019
3564 Smoke 28 1007 94 4000 8.2 240 09:19 16.08.2019
3565 Smoke 28 1007 94 4000 8.2 240 08:57 16.08.2019
3566 Rain 27 1008 88 2100 5.7 270 08:38 16.08.2019
3567 Smoke 30 1008 83 3500 6.2 240 08:19 16.08.2019
3568 Haze 29 1008 88 3000 7.7 240 07:44 16.08.2019
3569 Haze 29 1008 88 3000 7.7 240 07:25 16.08.2019
3570 Drizzle 29 1007 79 3000 8.7 260 06:53 16.08.2019
3571 Haze 29 1007 88 3000 6.2 240 06:18 16.08.2019
3572 Haze 29 1007 88 3000 5.1 230 05:33 16.08.2019
3573 Haze 28 1006 88 2500 5.1 240 03:20 16.08.2019
3574 Haze 27 1005 94 2500 5.7 240 01:52 16.08.2019
3575 Haze 27 1005 94 2500 4.6 240 01:25 16.08.2019
3576 Haze 27 1005 94 2500 3.1 240 00:50 16.08.2019
3577 Drizzle 26 1006 94 2500 2.6 210 00:24 16.08.2019
3578 Haze 28 1006 83 3000 4.1 250 23:57 15.08.2019
3579 Haze 28 1006 83 3000 4.1 250 23:39 15.08.2019
3580 Haze 28 1006 83 3000 4.1 250 23:18 15.08.2019
3581 Haze 28 1006 83 3000 5.7 240 22:41 15.08.2019
3582 Haze 28 1006 83 3000 5.7 240 22:23 15.08.2019
3583 Haze 28 1007 83 3000 4.6 220 21:58 15.08.2019
3584 Haze 28 1007 83 3000 3.6 230 21:39 15.08.2019
3585 Haze 28 1007 83 3000 3.6 230 21:39 15.08.2019
3586 Haze 28 1007 83 3000 3.6 230 21:19 15.08.2019
3587 Haze 28 1007 88 3000 4.1 230 20:58 15.08.2019
3588 Haze 28 1007 88 3000 4.6 240 20:40 15.08.2019
3589 Haze 28 1007 88 3000 4.6 240 20:20 15.08.2019
3590 Haze 28 1007 88 3000 4.1 240 19:40 15.08.2019
3591 Haze 28 1007 88 3000 4.1 240 19:22 15.08.2019
3592 Haze 28 1007 88 3000 4.6 240 18:57 15.08.2019
3593 Drizzle 28 1007 83 3000 3.6 240 18:39 15.08.2019
3594 Drizzle 28 1007 83 3000 3.6 240 18:21 15.08.2019
3595 Haze 27 1007 88 3000 4.6 230 17:54 15.08.2019
3596 Haze 28 1007 88 3000 4.1 240 17:36 15.08.2019
3597 Haze 28 1007 88 3000 4.1 240 17:18 15.08.2019
3598 Rain 28 1006 88 2500 4.1 250 16:43 15.08.2019
3599 Rain 29 1006 88 2500 4.1 250 16:24 15.08.2019
3600 Haze 29 1006 79 3000 5.1 240 15:55 15.08.2019
3601 Haze 29 1006 79 3000 6.7 250 15:37 15.08.2019
3602 Haze 29 1006 79 3000 6.7 250 15:18 15.08.2019
3603 Haze 29 1005 79 3000 3.6 260 14:42 15.08.2019
3604 Haze 29 1005 79 3000 3.6 260 14:23 15.08.2019
3605 Rain 29 1005 79 3000 6.7 250 13:57 15.08.2019
3606 Haze 30 1005 79 3000 6.7 260 13:39 15.08.2019
3607 Haze 30 1005 79 3000 8.7 260 13:20 15.08.2019
3608 Haze 30 1005 79 3000 8.7 260 12:56 15.08.2019
3609 Haze 30 1006 79 3000 7.7 240 12:37 15.08.2019
3610 Haze 30 1006 79 3000 4.6 260 12:18 15.08.2019
3611 Rain 30 1006 79 3000 8.2 250 11:40 15.08.2019
3612 Rain 30 1006 79 3000 8.2 250 11:21 15.08.2019
3613 Rain 30 1006 79 3000 6.7 250 10:59 15.08.2019
3614 Haze 29 1006 83 3000 4.1 260 10:38 15.08.2019
3615 Haze 29 1006 83 3000 4.1 260 10:38 15.08.2019
3616 Haze 29 1006 83 3000 4.1 260 10:20 15.08.2019
3617 Drizzle 28 1007 78 3000 5.7 240 09:45 15.08.2019
3618 Drizzle 28 1007 78 3000 5.7 240 09:24 15.08.2019
3619 Rain 29 1007 83 3000 6.7 250 08:57 15.08.2019
3620 Haze 30 1007 79 3000 6.2 260 08:37 15.08.2019
3621 Haze 30 1007 79 3000 6.2 260 08:37 15.08.2019
3622 Haze 30 1007 79 3000 6.2 260 08:18 15.08.2019
3623 Haze 28 1008 83 3000 6.2 250 07:44 15.08.2019
3624 Haze 28 1008 83 3000 6.2 250 07:26 15.08.2019
3625 Rain 29 1008 83 3000 6.2 240 06:54 15.08.2019
3626 Haze 29 1008 79 3000 5.1 250 06:33 15.08.2019
3627 Haze 28 1007 88 2800 5.1 240 05:48 15.08.2019
3628 Haze 28 1007 88 2800 5.1 240 05:28 15.08.2019
3629 Haze 27 1007 88 2200 3.1 260 04:34 15.08.2019
3630 Haze 28 1006 83 2500 4.6 260 03:45 15.08.2019
3631 Haze 28 1006 83 2500 5.1 270 02:45 15.08.2019
3632 Haze 28 1006 83 2500 4.6 250 01:52 15.08.2019
3633 Haze 27 1006 88 2500 5.1 250 01:31 15.08.2019
3634 Drizzle 27 1005 88 2500 5.7 260 00:41 15.08.2019
3635 Drizzle 27 1005 88 2500 5.7 260 00:21 15.08.2019
3636 Haze 27 1006 88 2500 4.6 240 23:57 14.08.2019
3637 Haze 27 1006 94 2500 5.7 240 23:38 14.08.2019
3638 Haze 27 1006 94 2500 5.7 240 23:19 14.08.2019
3639 Haze 27 1006 94 2500 4.1 230 22:57 14.08.2019
3640 Haze 27 1006 94 2500 3.6 240 22:39 14.08.2019
3641 Haze 27 1006 94 2500 3.6 240 22:20 14.08.2019
3642 Rain 26 1007 94 2500 4.1 270 21:55 14.08.2019
3643 Haze 28 1007 88 3000 4.6 240 21:37 14.08.2019
3644 Haze 28 1007 88 3000 4.6 240 21:18 14.08.2019
3645 Haze 28 1008 83 3000 5.1 240 20:42 14.08.2019
3646 Haze 28 1008 83 3000 5.1 240 20:21 14.08.2019
3647 Haze 28 1008 83 3000 5.1 240 20:21 14.08.2019
3648 Haze 28 1008 83 3000 5.1 240 20:21 14.08.2019
3649 Haze 28 1008 88 3000 4.1 240 19:56 14.08.2019
3650 Haze 27 1008 88 3000 2.1 230 19:38 14.08.2019
3651 Drizzle 28 1008 88 3000 4.1 240 19:20 14.08.2019
3652 Drizzle 28 1008 88 3000 4.1 240 18:57 14.08.2019
3653 Haze 28 1008 83 3000 4.1 240 18:38 14.08.2019
3654 Haze 28 1007 83 3000 4.1 250 18:19 14.08.2019
3655 Haze 28 1007 83 3000 4.1 250 17:56 14.08.2019
3656 Haze 28 1007 88 3000 5.1 260 17:37 14.08.2019
3657 Haze 28 1007 88 3000 5.1 260 17:19 14.08.2019
3658 Haze 29 1006 83 3000 5.1 250 16:43 14.08.2019
3659 Haze 29 1006 83 3000 5.1 250 16:20 14.08.2019
3660 Haze 29 1006 83 3000 5.1 250 15:59 14.08.2019
3661 Haze 29 1005 83 3000 6.2 250 15:40 14.08.2019
3662 Haze 29 1005 83 3000 5.1 250 15:18 14.08.2019
3663 Haze 29 1005 83 3000 5.7 260 14:41 14.08.2019
3664 Haze 29 1005 83 3000 5.7 260 14:19 14.08.2019
3665 Haze 29 1004 83 3000 6.7 260 13:59 14.08.2019
3666 Haze 29 1004 83 2500 6.2 240 13:41 14.08.2019
3667 Haze 29 1004 83 2500 6.2 240 13:22 14.08.2019
3668 Haze 29 1004 83 2500 6.2 240 13:22 14.08.2019
3669 Haze 29 1004 83 2500 6.2 240 13:22 14.08.2019
3670 Haze 30 1005 79 2800 6.7 260 12:56 14.08.2019
3671 Haze 30 1005 79 2800 6.7 260 12:38 14.08.2019
3672 Haze 29 1005 83 2500 3.6 260 12:19 14.08.2019
3673 Drizzle 29 1005 83 2500 5.7 260 11:46 14.08.2019
3674 Drizzle 29 1005 83 2500 5.7 260 11:23 14.08.2019
3675 Haze 29 1005 83 2500 6.7 250 10:58 14.08.2019
3676 Haze 29 1006 89 2500 6.2 230 10:38 14.08.2019
3677 Haze 29 1006 89 2500 6.2 230 10:38 14.08.2019
3678 Haze 29 1006 89 2500 6.2 230 10:38 14.08.2019
3679 Haze 29 1006 89 2500 6.2 230 10:20 14.08.2019
3680 Rain 28 1006 88 2200 3.6 210 09:44 14.08.2019
3681 Rain 28 1006 88 2200 3.6 210 09:21 14.08.2019
3682 Rain 28 1006 88 2200 3.6 210 09:21 14.08.2019
3683 Rain 28 1007 83 3000 5.1 280 08:47 14.08.2019
3684 Haze 30 1006 83 3000 5.7 260 08:29 14.08.2019
3685 Haze 30 1006 83 3000 5.7 260 07:57 14.08.2019
3686 Haze 30 1007 83 2500 5.1 230 07:38 14.08.2019
3687 Haze 29 1007 83 2500 3.6 260 07:19 14.08.2019
3688 Drizzle 29 1007 79 2500 2.6 270 06:43 14.08.2019
3689 Haze 28 1006 88 2500 3.6 240 05:47 14.08.2019
3690 Haze 28 1006 83 2500 3.1 210 04:45 14.08.2019
3691 Haze 27 1004 88 2500 2.1 220 02:47 14.08.2019
3692 Haze 27 1004 88 2500 2.1 220 02:25 14.08.2019
3693 Haze 27 1004 88 3000 3.1 230 01:34 14.08.2019
3694 Haze 28 1005 83 3000 3.1 260 00:48 14.08.2019
3695 Haze 28 1005 83 3000 3.1 230 23:47 13.08.2019
3696 Haze 28 1005 83 3000 2.6 250 23:21 13.08.2019
3697 Haze 28 1005 83 3000 3.6 250 22:57 13.08.2019
3698 Haze 28 1005 88 3000 4.1 240 22:39 13.08.2019
3699 Haze 28 1005 88 3000 4.1 240 22:20 13.08.2019
3700 Haze 28 1006 83 3000 3.6 250 21:56 13.08.2019
3701 Haze 28 1006 83 3000 2.1 300 21:37 13.08.2019
3702 Haze 28 1006 88 3000 3.6 230 21:18 13.08.2019
3703 Haze 28 1007 88 3000 3.6 240 20:44 13.08.2019
3704 Haze 28 1007 88 3000 3.6 240 20:20 13.08.2019
3705 Haze 29 1007 83 3000 4.6 240 19:58 13.08.2019
3706 Haze 28 1006 88 2500 4.1 240 19:40 13.08.2019
3707 Haze 28 1006 88 2500 4.1 240 19:21 13.08.2019
3708 Haze 28 1006 88 2500 4.6 230 18:42 13.08.2019
3709 Haze 28 1006 88 2500 4.6 230 18:23 13.08.2019
3710 Rain 28 1006 88 2500 4.1 280 17:58 13.08.2019
3711 Rain 29 1006 83 2500 4.1 250 17:39 13.08.2019
3712 Rain 29 1006 83 2500 4.1 250 17:19 13.08.2019
3713 Haze 28 1005 88 2500 4.1 250 16:56 13.08.2019
3714 Haze 28 1005 88 2500 5.1 250 16:37 13.08.2019
3715 Haze 28 1005 88 3000 4.1 250 16:19 13.08.2019
3716 Rain 28 1005 88 3000 4.6 240 15:39 13.08.2019
3717 Rain 28 1005 88 3000 4.6 240 15:20 13.08.2019
3718 Rain 29 1004 83 3000 5.1 240 14:58 13.08.2019
3719 Haze 29 1004 83 3000 5.7 250 14:38 13.08.2019
3720 Haze 29 1004 83 3000 6.2 260 14:18 13.08.2019
3721 Haze 30 1004 83 3000 5.1 260 13:42 13.08.2019
3722 Haze 30 1004 83 3000 5.1 260 13:21 13.08.2019
3723 Haze 30 1004 83 3000 5.1 260 12:59 13.08.2019
3724 Haze 30 1004 83 3000 3.6 250 12:40 13.08.2019
3725 Haze 30 1005 83 3000 5.7 250 12:22 13.08.2019
3726 Haze 30 1005 83 3000 5.7 250 11:58 13.08.2019
3727 Haze 29 1005 83 3000 5.1 260 11:38 13.08.2019
3728 Haze 29 1005 83 3000 4.6 270 11:19 13.08.2019
3729 Haze 29 1005 83 3000 4.6 270 10:56 13.08.2019
3730 -273 0 0 0 0 0 10:56 13.08.2019
3731 Haze 29 1006 83 3000 6.7 260 10:36 13.08.2019
3732 Haze 28 1006 88 3000 6.2 260 10:18 13.08.2019
3733 Rain 28 1006 88 2200 6.7 250 09:42 13.08.2019
3734 Rain 28 1006 88 2200 6.7 250 09:23 13.08.2019
3735 Rain 28 1006 83 1500 6.2 250 08:43 13.08.2019
3736 Haze 31 1006 79 4000 6.2 240 08:22 13.08.2019
3737 Haze 31 1006 79 4000 6.2 240 07:57 13.08.2019
3738 Haze 31 1006 79 4000 5.7 270 07:34 13.08.2019
3739 Haze 30 1006 79 3500 5.7 230 06:56 13.08.2019
3740 Haze 30 1006 79 3500 5.7 230 06:36 13.08.2019
3741 Haze 29 1005 88 3500 4.6 240 05:35 13.08.2019
3742 Haze 28 1004 83 3000 4.6 250 02:52 13.08.2019
3743 Haze 28 1004 83 3000 3.1 210 02:19 13.08.2019
3744 Haze 27 1003 88 3000 4.6 250 01:18 13.08.2019
3745 Drizzle 28 1003 83 3000 2.6 240 00:42 13.08.2019
3746 Haze 28 1004 83 3000 3.1 230 23:57 12.08.2019
3747 Haze 28 1004 83 3000 2.6 220 23:36 12.08.2019
3748 Haze 28 1004 83 3000 2.6 220 23:18 12.08.2019
3749 Haze 28 1005 83 3000 4.1 240 22:40 12.08.2019
3750 Haze 28 1005 83 3000 4.1 240 22:20 12.08.2019
3751 Haze 28 1005 83 3000 4.1 240 21:55 12.08.2019
3752 Haze 28 1005 83 3000 3.6 240 21:37 12.08.2019
3753 Haze 28 1005 83 3000 3.6 240 21:18 12.08.2019
3754 Haze 28 1006 83 3000 4.1 240 20:57 12.08.2019
3755 Haze 28 1006 83 3000 3.6 240 20:38 12.08.2019
3756 Haze 28 1006 83 3000 3.6 240 20:20 12.08.2019
3757 Haze 28 1006 88 3000 3.6 230 19:55 12.08.2019
3758 Haze 28 1006 88 3000 4.1 240 19:37 12.08.2019
3759 Haze 28 1006 88 3000 4.1 240 19:18 12.08.2019
3760 Haze 28 1006 88 3000 4.6 240 18:54 12.08.2019
3761 Haze 28 1006 83 3000 4.6 250 18:36 12.08.2019
3762 Haze 28 1005 83 3000 5.1 250 18:18 12.08.2019
3763 Haze 28 1005 88 3000 6.7 250 17:46 12.08.2019
3764 Haze 28 1005 88 3000 6.7 250 17:28 12.08.2019
3765 Haze 29 1005 83 3000 4.6 260 16:56 12.08.2019
3766 Haze 29 1004 83 3000 4.1 230 16:38 12.08.2019
3767 Haze 29 1004 83 3000 4.1 230 16:19 12.08.2019
3768 Haze 29 1004 83 3000 4.1 230 16:19 12.08.2019
3769 Haze 29 1004 88 3000 4.1 250 15:58 12.08.2019
3770 -273 0 0 0 0 0 15:39 12.08.2019
3771 Haze 29 1004 83 3000 5.7 240 15:38 12.08.2019
3772 Haze 29 1004 83 3000 5.1 250 15:20 12.08.2019
3773 Haze 29 1004 83 3000 5.1 250 14:54 12.08.2019
3774 Haze 29 1004 83 3000 5.1 250 14:36 12.08.2019
3775 Haze 30 1004 83 2500 6.7 240 14:18 12.08.2019
3776 Haze 30 1004 84 4000 6.2 280 13:42 12.08.2019
3777 Haze 30 1004 84 4000 6.2 280 13:23 12.08.2019
3778 Haze 31 1004 79 3000 6.7 260 12:44 12.08.2019
3779 Haze 31 1004 79 3000 6.7 260 12:22 12.08.2019
3780 -273 0 0 0 0 0 11:56 12.08.2019
3781 Haze 31 1005 79 3000 5.7 250 11:38 12.08.2019
3782 Haze 31 1005 79 3000 5.7 250 11:19 12.08.2019
3783 Haze 31 1005 79 3000 6.2 250 10:40 12.08.2019
3784 Haze 31 1005 79 3000 6.2 250 10:22 12.08.2019
3785 Haze 30 1005 83 3000 6.7 260 09:56 12.08.2019
3786 Drizzle 31 1005 79 3000 6.2 250 09:37 12.08.2019
3787 Haze 31 1006 74 3000 4.6 250 09:18 12.08.2019
3788 Haze 30 1006 79 3000 3.6 240 08:42 12.08.2019
3789 Haze 30 1006 83 3000 4.1 240 08:24 12.08.2019
3790 Haze 30 1006 83 3000 4.1 240 07:56 12.08.2019
3791 Haze 29 1006 83 3000 4.1 250 07:36 12.08.2019
3792 Haze 29 1006 83 2500 6.2 240 06:58 12.08.2019
3793 Haze 28 1006 88 2500 5.7 240 06:22 12.08.2019
3794 Rain 28 1005 88 1500 5.7 270 04:40 12.08.2019
3795 Haze 28 1004 83 2200 5.1 220 02:43 12.08.2019
3796 Haze 28 1004 83 2500 5.1 210 01:49 12.08.2019
3797 Haze 28 1004 83 2500 3.6 230 01:19 12.08.2019
3798 Haze 28 1004 83 2500 3.6 230 00:56 12.08.2019
3799 Drizzle 28 1004 83 2400 4.1 230 00:37 12.08.2019
3800 Drizzle 28 1004 83 2400 4.1 230 00:18 12.08.2019
3801 Haze 28 1004 83 2200 4.6 220 23:41 11.08.2019
3802 Haze 28 1004 83 2200 4.6 220 23:20 11.08.2019
3803 Haze 28 1005 83 2500 4.6 230 22:58 11.08.2019
3804 Haze 28 1005 83 2500 4.6 230 22:39 11.08.2019
3805 Haze 28 1005 83 2500 4.6 230 22:18 11.08.2019
3806 Drizzle 28 1005 83 2500 5.1 220 21:56 11.08.2019
3807 Haze 28 1005 83 2500 4.1 240 21:38 11.08.2019
3808 Haze 28 1005 83 2500 4.1 240 21:19 11.08.2019
3809 Haze 28 1006 83 2500 4.6 220 20:44 11.08.2019
3810 Haze 28 1006 83 2500 4.6 220 20:23 11.08.2019
3811 Haze 28 1005 83 2500 4.6 230 19:57 11.08.2019
3812 Haze 28 1006 83 2500 5.1 240 19:39 11.08.2019
3813 Haze 28 1005 83 2500 5.1 240 19:18 11.08.2019
3814 Haze 28 1005 83 2500 6.2 240 18:41 11.08.2019
3815 Haze 28 1005 83 2500 5.7 240 18:20 11.08.2019
3816 Haze 28 1005 83 2500 5.7 240 17:56 11.08.2019
3817 Haze 28 1005 83 2500 5.7 240 17:38 11.08.2019
3818 Haze 28 1005 83 2500 5.7 240 17:20 11.08.2019
3819 Haze 28 1004 83 2500 5.7 240 16:55 11.08.2019
3820 Drizzle 28 1004 88 2200 4.1 250 16:37 11.08.2019
3821 Drizzle 28 1004 88 2200 4.1 250 16:18 11.08.2019
3822 Rain 28 1004 88 2200 4.6 240 16:18 11.08.2019
3823 Rain 29 1003 83 2500 5.1 230 15:42 11.08.2019
3824 Rain 29 1003 83 2500 5.1 230 15:23 11.08.2019
3825 Drizzle 29 1003 88 2500 6.2 230 14:56 11.08.2019
3826 Rain 29 1003 88 2500 6.2 240 14:38 11.08.2019
3827 Rain 29 1003 88 2500 6.2 240 14:19 11.08.2019
3828 Rain 29 1003 88 2500 6.2 240 14:19 11.08.2019
3829 Rain 29 1003 83 2500 6.7 240 13:44 11.08.2019
3830 Rain 29 1003 83 2500 6.7 240 13:24 11.08.2019
3831 Rain 29 1003 83 2500 4.1 230 12:48 11.08.2019
3832 Rain 29 1003 79 1200 7.7 230 12:23 11.08.2019
3833 Rain 30 1003 79 2500 6.2 230 11:56 11.08.2019
3834 Rain 30 1003 83 2200 7.7 230 11:38 11.08.2019
3835 Haze 30 1004 83 3000 5.1 230 11:20 11.08.2019
3836 Haze 31 1004 74 3000 6.7 230 10:41 11.08.2019
3837 Haze 31 1004 74 3000 6.7 230 10:22 11.08.2019
3838 Haze 31 1004 74 3000 8.7 240 09:59 11.08.2019
3839 Haze 31 1005 79 3000 5.1 210 09:38 11.08.2019
3840 Haze 31 1005 79 3000 5.1 210 09:20 11.08.2019
3841 Haze 30 1005 79 2500 9.3 240 08:47 11.08.2019
3842 Haze 30 1005 79 2500 9.3 240 08:27 11.08.2019
3843 Haze 30 1005 83 2500 7.2 230 07:55 11.08.2019
3844 Haze 29 1005 83 2500 6.7 230 07:25 11.08.2019
3845 Haze 28 1005 83 2500 5.7 240 06:45 11.08.2019
3846 Drizzle 28 1004 88 2000 4.6 230 05:39 11.08.2019
3847 Haze 28 1003 83 2500 6.2 230 03:43 11.08.2019
3848 Rain 28 1003 83 2500 6.2 220 02:49 11.08.2019
3849 Haze 28 1002 83 2500 7.2 230 01:39 11.08.2019
3850 Haze 28 1002 83 2500 7.2 230 01:20 11.08.2019
3851 Haze 28 1002 83 2500 7.2 230 01:20 11.08.2019
3852 Haze 28 1003 83 2500 5.7 230 00:44 11.08.2019
3853 Haze 28 1003 83 2500 5.7 230 00:25 11.08.2019
3854 Haze 28 1003 83 2500 3.6 210 23:45 10.08.2019
3855 Haze 28 1003 83 2500 3.6 210 23:27 10.08.2019
3856 Haze 28 1003 83 2500 5.1 220 22:43 10.08.2019
3857 Haze 28 1003 83 2500 5.1 220 22:25 10.08.2019
3858 Haze 28 1004 83 2500 5.1 220 21:58 10.08.2019
3859 Haze 28 1004 83 2500 4.1 240 21:38 10.08.2019
3860 Haze 28 1004 83 2500 3.6 230 21:19 10.08.2019
3861 Haze 28 1004 83 2500 3.6 230 20:56 10.08.2019
3862 Haze 28 1005 83 2500 4.6 230 20:37 10.08.2019
3863 Haze 28 1005 83 2500 4.6 230 20:18 10.08.2019
3864 Haze 28 1004 83 2500 8.2 240 19:39 10.08.2019
3865 Haze 28 1004 83 2500 8.2 240 19:21 10.08.2019
3866 Haze 28 1004 83 2500 6.2 230 18:41 10.08.2019
3867 Haze 28 1004 83 2500 6.2 230 18:22 10.08.2019
3868 Haze 28 1003 83 2500 8.2 240 17:46 10.08.2019
3869 Haze 28 1003 83 2500 8.2 240 17:25 10.08.2019
3870 Haze 29 1002 83 2500 7.2 240 16:47 10.08.2019
3871 Haze 29 1002 83 3000 7.7 240 16:29 10.08.2019
3872 Haze 29 1002 79 3000 7.2 240 15:59 10.08.2019
3873 Haze 29 1001 79 3000 7.2 240 15:40 10.08.2019
3874 Haze 29 1001 79 3000 7.2 240 15:21 10.08.2019
3875 Haze 29 1001 79 3000 7.2 240 15:21 10.08.2019
3876 Haze 29 1001 79 2500 7.7 240 14:43 10.08.2019
3877 Haze 29 1001 79 2500 7.7 240 14:18 10.08.2019
3878 Rain 29 1000 83 2500 6.7 230 13:39 10.08.2019
3879 Rain 29 1000 83 2500 6.7 230 13:19 10.08.2019
3880 Rain 30 1001 83 2500 7.7 240 12:42 10.08.2019
3881 Rain 30 1001 83 2500 7.7 240 12:22 10.08.2019
3882 Rain 30 1001 74 2500 7.7 240 11:57 10.08.2019
3883 Haze 29 1001 79 2500 8.2 240 11:39 10.08.2019
3884 Haze 29 1001 79 2500 8.2 240 11:20 10.08.2019
3885 Rain 29 1001 83 2500 5.1 230 10:39 10.08.2019
3886 Rain 29 1001 83 2500 5.1 230 10:20 10.08.2019
3887 Rain 30 1002 83 2500 5.7 220 09:59 10.08.2019
3888 Rain 30 1002 79 2200 6.2 230 09:38 10.08.2019
3889 Rain 30 1002 79 2200 6.2 230 09:20 10.08.2019
3890 Rain 29 1002 83 2200 6.7 230 08:39 10.08.2019
3891 Rain 29 1002 83 2200 6.7 230 08:19 10.08.2019
3892 Haze 30 1002 83 3000 5.1 240 07:52 10.08.2019
3893 Rain 29 1002 83 3000 7.7 240 07:27 10.08.2019
3894 Rain 29 1002 83 3000 7.7 240 07:27 10.08.2019
3895 Haze 29 1002 88 2500 4.6 240 06:48 10.08.2019
3896 Haze 29 1002 88 2500 4.6 240 06:21 10.08.2019
3897 Rain 29 1001 79 2500 4.1 230 05:24 10.08.2019
3898 Haze 28 1001 88 2500 4.6 240 04:21 10.08.2019
3899 Haze 28 1000 83 2500 5.1 240 02:54 10.08.2019
3900 Haze 28 1000 83 2500 5.1 230 02:23 10.08.2019
3901 Drizzle 28 999 88 2500 5.7 230 01:41 10.08.2019
3902 Drizzle 28 999 88 2500 5.7 230 01:21 10.08.2019
3903 Haze 28 1000 83 2500 8.2 230 00:46 10.08.2019
3904 Haze 28 1000 83 2500 8.2 230 00:22 10.08.2019
3905 Drizzle 28 1000 88 2200 6.7 230 23:44 09.08.2019
3906 Drizzle 28 1000 88 2200 6.7 230 23:24 09.08.2019
3907 Haze 28 1000 88 2500 6.7 230 22:57 09.08.2019
3908 Rain 28 1000 88 2200 5.1 230 22:38 09.08.2019
3909 Rain 28 1000 88 2200 5.1 230 22:38 09.08.2019
3910 Rain 28 1000 88 2200 5.1 230 22:20 09.08.2019
3911 Haze 28 1001 88 2500 5.7 240 21:43 09.08.2019
3912 Haze 28 1001 88 2500 5.7 240 21:23 09.08.2019
3913 Haze 28 1001 83 2500 6.7 230 20:59 09.08.2019
3914 Haze 28 1001 83 2500 6.7 240 20:40 09.08.2019
3915 Haze 28 1001 88 2500 6.7 240 20:21 09.08.2019
3916 Haze 28 1001 88 2500 6.7 240 19:56 09.08.2019
3917 Haze 28 1001 88 2500 5.7 240 19:38 09.08.2019
3918 Haze 28 1001 88 2500 5.7 240 19:18 09.08.2019
3919 Haze 28 1001 88 2500 5.1 230 18:41 09.08.2019
3920 Haze 28 1001 88 2500 5.1 230 18:22 09.08.2019
3921 Drizzle 28 1001 88 2500 6.2 230 17:57 09.08.2019
3922 Haze 28 1000 88 2500 8.7 240 17:39 09.08.2019
3923 Haze 28 1000 88 2500 8.7 240 17:20 09.08.2019
3924 Drizzle 27 1000 88 2200 3.6 230 16:41 09.08.2019
3925 Drizzle 27 1000 88 2200 3.6 230 16:23 09.08.2019
3926 Rain 28 1000 88 2100 3.6 240 15:57 09.08.2019
3927 Rain 28 999 88 2200 5.7 230 15:39 09.08.2019
3928 Rain 28 999 88 2200 5.7 230 15:20 09.08.2019
3929 Rain 28 999 88 2200 5.7 230 15:20 09.08.2019
3930 Haze 28 999 88 2500 6.2 230 14:55 09.08.2019
3931 Haze 28 999 88 2500 6.2 230 14:55 09.08.2019
3932 Haze 28 999 88 2500 6.7 230 14:36 09.08.2019
3933 Rain 28 999 88 2500 7.2 240 14:18 09.08.2019
3934 Rain 28 999 88 2500 7.7 250 13:42 09.08.2019
3935 Rain 28 999 88 2500 7.7 250 13:20 09.08.2019
3936 Rain 28 999 88 2100 5.7 250 12:46 09.08.2019
3937 Rain 28 999 88 2100 5.7 250 12:24 09.08.2019
3938 Drizzle 28 999 88 2500 5.1 240 11:59 09.08.2019
3939 Haze 28 1000 88 2500 5.1 250 11:37 09.08.2019
3940 Haze 28 1000 88 2500 5.1 250 11:19 09.08.2019
3941 Rain 29 1000 83 2000 8.7 250 10:41 09.08.2019
3942 Rain 29 1000 83 2000 8.7 250 10:41 09.08.2019
3943 Rain 29 1000 83 2000 8.7 250 10:22 09.08.2019
3944 Haze 29 1001 83 2500 7.7 240 09:46 09.08.2019
3945 Haze 29 1001 83 2500 7.2 250 09:20 09.08.2019
3946 Haze 29 1001 83 2500 7.2 250 08:59 09.08.2019
3947 Haze 29 1001 83 2500 8.2 240 08:40 09.08.2019
3948 Haze 29 1001 83 2500 8.2 240 08:20 09.08.2019
3949 Rain 29 1001 83 2500 6.7 240 07:53 09.08.2019
3950 Rain 29 1001 83 2500 6.7 240 07:24 09.08.2019
3951 Rain 28 1001 83 2200 8.2 240 06:56 09.08.2019
3952 Rain 28 1001 83 2200 8.2 240 06:33 09.08.2019
3953 Rain 28 1001 88 2100 9.3 240 05:58 09.08.2019
3954 Haze 28 1000 88 2500 4.6 240 04:25 09.08.2019
3955 Haze 28 999 88 2500 6.2 240 02:23 09.08.2019
3956 Haze 28 998 88 2500 4.1 240 00:56 09.08.2019
3957 Haze 28 999 88 2500 4.1 230 00:38 09.08.2019
3958 Haze 28 999 88 2500 4.1 230 00:20 09.08.2019
3959 Haze 28 999 88 2500 4.1 240 23:38 08.08.2019
3960 Haze 28 999 88 2500 4.1 240 23:20 08.08.2019
3961 Haze 27 999 88 2500 7.7 240 22:59 08.08.2019
3962 Haze 28 999 88 2500 7.7 240 22:37 08.08.2019
3963 Haze 28 1000 88 2500 7.2 240 22:19 08.08.2019
3964 Haze 28 1000 88 2500 7.2 240 21:59 08.08.2019
3965 Haze 28 1000 88 2500 5.1 240 21:40 08.08.2019
3966 Haze 28 1000 88 2500 5.1 240 21:21 08.08.2019
3967 Haze 28 1000 88 2500 7.2 240 20:56 08.08.2019
3968 Haze 28 1000 88 2500 6.7 240 20:38 08.08.2019
3969 Haze 28 1000 88 2500 4.1 240 20:19 08.08.2019
3970 Rain 28 1000 88 1800 4.1 240 19:43 08.08.2019
3971 Rain 28 1000 88 1800 4.1 240 19:21 08.08.2019
3972 Haze 28 1000 88 2500 6.2 250 18:43 08.08.2019
3973 Haze 28 1000 88 2500 6.2 250 18:23 08.08.2019
3974 Haze 28 1000 88 2500 6.7 230 17:58 08.08.2019
3975 Haze 28 1000 88 2500 6.7 250 17:40 08.08.2019
3976 Haze 28 1000 88 2500 6.7 250 17:21 08.08.2019
3977 Haze 28 1000 88 2500 7.7 240 16:55 08.08.2019
3978 Haze 28 999 83 2500 5.1 270 16:37 08.08.2019
3979 Haze 28 999 83 2500 5.1 270 16:18 08.08.2019
3980 Haze 28 999 88 2500 6.7 240 15:41 08.08.2019
3981 Haze 28 999 88 2500 6.7 240 15:23 08.08.2019
3982 Haze 28 999 88 2500 8.2 240 14:56 08.08.2019
3983 Haze 28 998 88 2500 5.7 250 14:37 08.08.2019
3984 Haze 28 998 88 2500 5.7 250 14:18 08.08.2019
3985 Haze 29 998 83 2500 7.7 240 13:39 08.08.2019
3986 Haze 29 998 83 2500 7.7 240 13:20 08.08.2019
3987 Haze 29 999 88 2500 6.7 280 12:40 08.08.2019
3988 Haze 29 999 88 2500 6.7 280 12:21 08.08.2019
3989 Haze 29 999 83 2500 6.2 260 11:59 08.08.2019
3990 Drizzle 29 999 83 2200 7.7 250 11:39 08.08.2019
3991 Haze 29 1000 83 2200 8.2 240 11:21 08.08.2019
3992 Rain 29 1000 83 2200 9.3 250 10:41 08.08.2019
3993 Rain 29 1000 83 2200 9.3 250 10:21 08.08.2019
3994 Rain 29 1000 83 2100 7.7 240 09:52 08.08.2019
3995 Rain 29 1001 83 2100 7.7 240 09:30 08.08.2019
3996 Haze 29 1001 83 2500 7.2 250 08:57 08.08.2019
3997 Haze 28 1001 83 2500 9.3 250 08:39 08.08.2019
3998 Haze 28 1001 83 2500 9.3 250 08:19 08.08.2019
3999 Rain 28 1001 88 2200 4.6 250 07:41 08.08.2019
4000 Rain 29 1001 83 2000 7.2 240 07:20 08.08.2019
4001 Rain 29 1001 83 2000 7.2 240 06:49 08.08.2019
4002 Haze 29 1001 83 2500 6.7 250 06:30 08.08.2019
4003 Haze 29 1001 79 2500 7.2 250 05:53 08.08.2019
4004 Haze 28 1001 88 2500 6.2 250 05:18 08.08.2019
4005 Haze 28 1000 88 2500 3.6 250 03:53 08.08.2019
4006 Haze 28 1000 88 2500 4.1 250 02:30 08.08.2019
4007 Haze 28 1000 88 2500 5.1 250 01:38 08.08.2019
4008 Haze 28 999 88 2500 6.2 250 00:26 08.08.2019
4009 Haze 28 999 88 2500 7.2 240 23:56 07.08.2019
4010 Haze 28 1000 88 2500 5.1 260 23:21 07.08.2019
4011 Haze 28 1000 88 2500 5.1 260 22:57 07.08.2019
4012 Haze 28 1000 88 2500 4.6 250 22:39 07.08.2019
4013 Haze 28 1000 88 2500 4.6 250 22:20 07.08.2019
4014 Haze 28 1000 88 2500 4.6 250 22:20 07.08.2019
4015 Haze 28 1000 88 2500 5.1 250 21:56 07.08.2019
4016 Rain 28 1000 88 2500 4.1 240 21:37 07.08.2019
4017 Rain 28 1000 88 2500 4.1 240 21:19 07.08.2019
4018 Drizzle 28 1001 88 2500 7.7 250 20:43 07.08.2019
4019 Drizzle 28 1001 88 2500 7.7 250 20:43 07.08.2019
4020 Drizzle 28 1001 88 2500 7.7 250 20:24 07.08.2019
4021 Haze 28 1001 88 2500 3.6 250 19:59 07.08.2019
4022 Haze 28 1001 88 2500 4.6 240 19:39 07.08.2019
4023 Haze 28 1001 83 2500 6.2 260 19:21 07.08.2019
4024 Haze 28 1001 88 2200 3.6 240 18:44 07.08.2019
4025 Haze 28 1001 88 2200 4.1 250 18:22 07.08.2019
4026 Haze 28 1001 88 2200 4.1 250 17:59 07.08.2019
4027 Haze 28 1001 88 2200 6.7 250 17:41 07.08.2019
4028 Haze 28 1001 88 2200 6.7 250 17:22 07.08.2019
4029 Rain 28 1000 88 2200 5.7 250 16:57 07.08.2019
4030 Rain 28 1000 88 2200 6.2 250 16:39 07.08.2019
4031 Rain 28 1000 88 2200 5.1 260 16:21 07.08.2019
4032 Rain 28 1000 88 2200 5.1 260 15:58 07.08.2019
4033 Rain 28 1000 88 2200 5.7 250 15:40 07.08.2019
4034 Rain 27 999 94 2200 5.7 250 15:19 07.08.2019
4035 Rain 27 999 94 2200 5.7 250 14:49 07.08.2019
4036 Rain 27 999 94 2200 5.7 250 14:49 07.08.2019
4037 Rain 28 999 88 2000 7.7 250 14:28 07.08.2019
4038 Haze 29 999 83 3000 8.2 260 13:56 07.08.2019
4039 Haze 29 999 83 3000 8.2 250 13:38 07.08.2019
4040 Rain 29 1000 83 2500 7.2 240 13:18 07.08.2019
4041 Rain 29 1000 83 2500 7.2 240 12:55 07.08.2019
4042 Haze 29 1000 83 3000 7.7 250 12:36 07.08.2019
4043 Haze 29 1000 79 3000 8.2 260 12:18 07.08.2019
4044 Haze 29 1000 83 3000 9.3 260 11:43 07.08.2019
4045 Haze 29 1000 83 3000 9.3 260 11:21 07.08.2019
4046 Haze 29 1001 83 3000 7.2 250 10:58 07.08.2019
4047 -273 0 0 0 0 0 10:39 07.08.2019
4048 Haze 29 1001 83 3000 6.2 250 10:18 07.08.2019
4049 Haze 29 1001 83 3000 6.7 250 09:46 07.08.2019
4050 Haze 29 1001 83 3000 6.7 250 09:22 07.08.2019
4051 Haze 29 1002 83 3000 4.6 250 08:57 07.08.2019
4052 Haze 29 1002 83 3000 7.2 260 08:39 07.08.2019
4053 Haze 29 1002 83 3000 5.7 250 08:21 07.08.2019
4054 Haze 29 1002 83 2500 3.6 250 07:43 07.08.2019
4055 Haze 29 1002 83 2500 3.6 250 07:21 07.08.2019
4056 Rain 28 1002 88 2500 4.6 250 06:31 07.08.2019
4057 Rain 28 1002 88 2500 5.1 250 05:59 07.08.2019
4058 Rain 28 1001 88 2200 6.2 250 04:58 07.08.2019
4059 Drizzle 27 1001 88 2200 3.1 220 03:21 07.08.2019
4060 Haze 28 1000 88 2500 4.1 240 02:50 07.08.2019
4061 Haze 28 1000 88 2500 4.1 240 02:22 07.08.2019
4062 Haze 27 1000 94 2500 5.7 240 01:45 07.08.2019
4063 Haze 27 1000 88 2500 4.6 240 00:52 07.08.2019
4064 Drizzle 28 1000 88 2500 6.2 250 00:22 07.08.2019
4065 Haze 27 1001 88 2500 7.2 240 23:44 06.08.2019
4066 Haze 27 1001 88 2500 7.2 240 23:23 06.08.2019
4067 Rain 27 1001 94 2500 6.2 230 22:59 06.08.2019
4068 Drizzle 28 1001 88 2500 6.7 240 22:38 06.08.2019
4069 Drizzle 28 1001 88 2500 6.7 240 22:20 06.08.2019
4070 Haze 28 1002 83 2500 7.2 250 21:44 06.08.2019
4071 Haze 28 1002 83 2500 7.2 250 21:26 06.08.2019
4072 Haze 28 1002 83 2500 7.2 250 21:26 06.08.2019
4073 Drizzle 28 1002 88 2500 6.7 250 20:59 06.08.2019
4074 Haze 28 1002 83 2500 5.7 240 20:41 06.08.2019
4075 Haze 28 1002 83 2500 5.7 240 20:22 06.08.2019
4076 Haze 28 1003 83 2500 5.1 240 19:47 06.08.2019
4077 Drizzle 28 1003 88 2500 3.6 250 19:28 06.08.2019
4078 Drizzle 28 1002 83 2500 5.1 240 18:56 06.08.2019
4079 Drizzle 28 1002 88 2500 6.2 240 18:36 06.08.2019
4080 Drizzle 28 1002 88 2500 6.2 240 18:18 06.08.2019
4081 Haze 28 1002 83 2500 3.6 230 17:56 06.08.2019
4082 Haze 28 1002 83 2500 3.6 230 17:56 06.08.2019
4083 Haze 28 1002 88 2500 3.6 230 17:36 06.08.2019
4084 Drizzle 28 1002 88 2500 5.1 240 17:18 06.08.2019
4085 Rain 27 1001 94 2200 3.6 240 16:42 06.08.2019
4086 Rain 27 1001 94 2200 3.6 240 16:24 06.08.2019
4087 Rain 28 1001 83 2200 5.7 240 15:58 06.08.2019
4088 Rain 28 1000 88 2200 7.7 240 15:39 06.08.2019
4089 Rain 28 1000 88 2200 7.7 240 15:20 06.08.2019
4090 Rain 28 1000 88 2200 4.6 250 14:45 06.08.2019
4091 Rain 28 1000 88 2200 4.6 250 14:26 06.08.2019
4092 Rain 29 1000 83 2500 6.7 240 13:58 06.08.2019
4093 Drizzle 29 1000 83 2500 7.7 250 13:40 06.08.2019
4094 Drizzle 29 1000 83 2500 7.7 250 13:22 06.08.2019
4095 Rain 29 1000 83 2500 7.2 240 12:58 06.08.2019
4096 Rain 28 1001 88 2500 6.7 250 12:39 06.08.2019
4097 Rain 28 1001 88 2500 6.7 250 12:21 06.08.2019
4098 Drizzle 29 1001 88 2500 5.1 250 11:43 06.08.2019
4099 Drizzle 29 1001 88 2500 5.1 250 11:20 06.08.2019
4100 Haze 29 1001 83 3000 7.2 250 10:56 06.08.2019
4101 Haze 29 1001 83 3000 7.2 250 10:56 06.08.2019
4102 Haze 29 1002 83 2500 4.1 250 10:38 06.08.2019
4103 Haze 29 1002 83 2500 4.1 250 10:19 06.08.2019
4104 Haze 29 1002 83 2500 5.7 240 09:41 06.08.2019
4105 Haze 29 1002 83 2500 3.6 250 09:20 06.08.2019
4106 Haze 29 1003 83 2500 4.1 250 08:49 06.08.2019
4107 Haze 29 1003 83 2500 4.1 250 08:27 06.08.2019
4108 Haze 29 1002 83 2500 6.7 250 07:56 06.08.2019
4109 Rain 29 1003 83 2200 5.7 240 07:23 06.08.2019
4110 Haze 28 1003 88 2500 4.1 250 06:43 06.08.2019
4111 Haze 28 1003 88 2500 4.1 250 06:19 06.08.2019
4112 Rain 26 1002 94 1500 6.2 270 04:36 06.08.2019
4113 Haze 28 1001 88 2500 6.2 240 01:59 06.08.2019
4114 Haze 28 1001 83 2500 5.7 250 01:24 06.08.2019
4115 Haze 28 1001 88 2200 6.2 250 00:39 06.08.2019
4116 Haze 28 1001 88 2200 6.2 240 23:52 05.08.2019
4117 Haze 28 1001 88 2200 5.7 250 23:19 05.08.2019
4118 Rain 28 1002 88 2200 7.7 250 22:42 05.08.2019
4119 Rain 28 1002 88 2200 7.7 250 22:23 05.08.2019
4120 Rain 28 1002 88 1700 5.1 250 21:58 05.08.2019
4121 Rain 28 1003 83 1900 6.7 250 21:39 05.08.2019
4122 Rain 28 1003 83 1900 6.7 250 21:39 05.08.2019
4123 Rain 28 1003 88 1500 6.7 250 21:19 05.08.2019
4124 Rain 28 1003 88 1500 6.7 250 20:56 05.08.2019
4125 Haze 28 1003 88 2500 6.7 240 20:37 05.08.2019
4126 Haze 28 1003 88 2500 6.7 240 20:19 05.08.2019
4127 Haze 28 1003 88 2500 6.2 240 19:43 05.08.2019
4128 Haze 28 1003 88 2500 6.2 240 19:24 05.08.2019
4129 Haze 28 1003 88 2500 5.7 240 18:58 05.08.2019
4130 Haze 28 1003 88 2500 6.2 240 18:40 05.08.2019
4131 Haze 28 1003 88 2500 6.7 250 18:19 05.08.2019
4132 Haze 28 1002 88 2500 3.6 250 17:45 05.08.2019
4133 Haze 28 1002 88 2500 3.6 250 17:45 05.08.2019
4134 Haze 28 1002 88 2500 3.6 250 17:26 05.08.2019
4135 Haze 28 1002 83 2500 5.1 240 16:46 05.08.2019
4136 Haze 28 1002 83 2500 5.1 240 16:26 05.08.2019
4137 Haze 28 1002 83 2200 8.7 260 15:56 05.08.2019
4138 Haze 28 1001 88 2200 6.7 250 15:38 05.08.2019
4139 Haze 28 1001 88 2200 6.7 250 15:19 05.08.2019
4140 Haze 29 1001 83 2200 5.1 250 14:39 05.08.2019
4141 Haze 29 1001 83 2200 5.1 250 14:19 05.08.2019
4142 Rain 29 1001 83 1800 6.7 250 13:44 05.08.2019
4143 Rain 29 1001 83 1800 6.7 250 13:22 05.08.2019
4144 Rain 29 1001 83 1800 6.7 250 13:22 05.08.2019
4145 Rain 29 1001 83 2200 4.1 260 12:48 05.08.2019
4146 Rain 29 1002 83 3000 6.2 270 12:20 05.08.2019
4147 Haze 29 1002 83 3000 7.2 270 11:47 05.08.2019
4148 Rain 29 1002 83 3000 5.1 260 11:28 05.08.2019
4149 Rain 28 1002 83 3000 4.1 250 10:59 05.08.2019
4150 Rain 28 1003 83 2500 5.7 280 10:41 05.08.2019
4151 Rain 29 1003 83 2500 4.1 280 10:21 05.08.2019
4152 Haze 29 1003 83 3000 4.1 270 09:43 05.08.2019
4153 Haze 29 1003 83 3000 4.1 270 09:24 05.08.2019
4154 Haze 29 1003 83 3000 3.6 280 08:51 05.08.2019
4155 Haze 29 1003 83 3000 6.7 250 08:28 05.08.2019
4156 Haze 29 1003 83 3000 6.2 260 07:59 05.08.2019
4157 Haze 28 1004 88 2500 3.6 250 07:41 05.08.2019
4158 Haze 28 1004 88 2500 3.6 250 07:20 05.08.2019
4159 Haze 28 1003 88 2500 7.7 250 06:30 05.08.2019
4160 Haze 28 1003 88 2500 4.6 250 05:51 05.08.2019
4161 Rain 28 1003 88 1500 4.6 250 05:51 05.08.2019
4162 Haze 28 1003 88 2500 4.6 250 05:19 05.08.2019
4163 Rain 28 1002 88 2100 4.1 250 04:25 05.08.2019
4164 Rain 28 1001 88 2500 3.6 270 03:30 05.08.2019
4165 Haze 28 1001 88 2500 4.1 250 02:35 05.08.2019
4166 Drizzle 28 1001 88 2200 3.6 250 01:34 05.08.2019
4167 Rain 27 1001 94 2200 5.1 250 00:42 05.08.2019
4168 Rain 27 1001 94 2200 5.1 250 00:23 05.08.2019
4169 Rain 27 1001 94 2100 8.2 260 23:58 04.08.2019
4170 Rain 27 1001 94 1000 12.3 250 23:40 04.08.2019
4171 Rain 27 1001 94 1000 12.3 250 23:19 04.08.2019
4172 Rain 27 1001 94 1000 10.3 280 22:55 04.08.2019
4173 Rain 27 1001 94 1500 7.7 250 22:37 04.08.2019
4174 Rain 26 1002 100 1000 12.3 270 22:18 04.08.2019
4175 Rain 26 1002 100 2100 4.1 280 21:43 04.08.2019
4176 Rain 26 1002 100 2100 4.1 280 21:20 04.08.2019
4177 Rain 26 1003 94 2100 8.2 250 20:46 04.08.2019
4178 Rain 26 1003 94 2100 8.2 250 20:21 04.08.2019
4179 Haze 28 1003 88 2500 7.2 250 19:59 04.08.2019
4180 Haze 28 1003 88 2200 6.2 250 19:39 04.08.2019
4181 Haze 28 1003 88 2200 6.2 250 19:21 04.08.2019
4182 Haze 28 1003 88 2100 7.2 250 18:42 04.08.2019
4183 Haze 28 1003 88 2100 7.2 250 18:21 04.08.2019
4184 Haze 28 1002 88 2500 5.7 250 17:46 04.08.2019
4185 Haze 28 1002 88 2500 5.7 250 17:26 04.08.2019
4186 Haze 28 1002 88 2500 6.2 250 16:59 04.08.2019
4187 Drizzle 28 1002 88 2500 5.1 250 16:40 04.08.2019
4188 Drizzle 28 1002 88 2500 5.1 250 16:20 04.08.2019
4189 Drizzle 28 1001 88 2500 5.1 250 15:44 04.08.2019
4190 Drizzle 28 1001 88 2500 5.1 250 15:23 04.08.2019
4191 Rain 28 1001 88 2500 4.1 260 14:45 04.08.2019
4192 Rain 28 1001 88 2500 4.1 260 14:27 04.08.2019
4193 Rain 28 1001 88 2500 4.6 260 13:56 04.08.2019
4194 Rain 28 1001 88 2500 4.6 270 13:38 04.08.2019
4195 Rain 28 1001 88 2500 4.6 270 13:20 04.08.2019
4196 Rain 27 1002 94 2100 6.2 280 12:44 04.08.2019
4197 Rain 27 1002 94 2100 6.2 280 12:25 04.08.2019
4198 Rain 26 1002 94 1700 8.7 270 11:56 04.08.2019
4199 Rain 28 1002 88 1300 7.7 260 11:37 04.08.2019
4200 Drizzle 28 1003 88 1900 3.6 280 11:18 04.08.2019
4201 Rain 27 1003 88 1600 4.1 300 10:40 04.08.2019
4202 Rain 27 1003 88 1600 4.1 300 10:20 04.08.2019
4203 Rain 28 1003 94 1800 3.6 260 09:44 04.08.2019
4204 Rain 28 1003 94 1800 3.6 260 09:22 04.08.2019
4205 Rain 26 1004 91 0 12.64 269.724 08:44 04.08.2019
4206 Rain 26 1004 91 0 12.64 269.724 08:26 04.08.2019
4207 Rain 26 1004 91 0 12.64 269.724 07:52 04.08.2019
4208 Rain 26 1004 100 600 5.1 280 06:56 04.08.2019
4209 Rain 26 1004 100 600 5.1 280 06:28 04.08.2019
4210 Rain 27 1002 94 1000 7.2 250 03:46 04.08.2019
4211 Rain 26 1002 100 1000 11.8 260 02:41 04.08.2019
4212 Rain 26 1001 100 500 7.2 230 01:39 04.08.2019
4213 Rain 26 1001 100 1500 6.7 230 01:18 04.08.2019
4214 Rain 26 1002 94 2100 7.2 240 00:41 04.08.2019
4215 Rain 26 1002 94 2100 7.2 240 00:19 04.08.2019
4216 Rain 27 1002 94 2100 6.7 240 23:40 03.08.2019
4217 Rain 27 1002 94 2100 6.7 240 23:18 03.08.2019
4218 Rain 26 1003 94 2000 7.7 240 22:44 03.08.2019
4219 Rain 26 1003 94 2000 7.7 240 22:21 03.08.2019
4220 Rain 27 1003 94 2200 8.2 260 21:56 03.08.2019
4221 Rain 27 1003 100 2200 5.7 260 21:36 03.08.2019
4222 Rain 27 1003 100 2200 5.7 260 21:36 03.08.2019
4223 Rain 27 1003 100 2200 5.7 260 21:18 03.08.2019
4224 Rain 27 1003 100 2200 5.7 260 21:18 03.08.2019
4225 Rain 26 1004 100 2100 8.7 250 20:41 03.08.2019
4226 Rain 26 1004 100 2100 8.7 250 20:20 03.08.2019
4227 Haze 28 1004 88 2100 7.2 240 19:42 03.08.2019
4228 Haze 28 1004 88 2100 7.2 240 19:23 03.08.2019
4229 Haze 28 1004 83 2100 8.7 250 18:50 03.08.2019
4230 Haze 28 1004 83 2100 7.2 260 18:27 03.08.2019
4231 Rain 27 1003 94 2100 8.7 260 17:49 03.08.2019
4232 Rain 27 1003 94 1500 8.2 260 17:21 03.08.2019
4233 Rain 27 1003 94 1500 4.1 250 16:56 03.08.2019
4234 Rain 27 1002 94 1500 4.1 250 16:37 03.08.2019
4235 Rain 27 1002 94 1500 4.6 240 16:19 03.08.2019
4236 Rain 27 1002 94 1500 4.6 260 15:43 03.08.2019
4237 Rain 27 1002 94 1500 4.6 260 15:22 03.08.2019
4238 Rain 27 1002 88 2100 8.7 260 14:40 03.08.2019
4239 Rain 27 1002 88 2100 8.7 260 14:21 03.08.2019
4240 Rain 27 1002 88 2100 9.3 260 13:51 03.08.2019
4241 Rain 27 1002 88 2100 9.3 260 13:51 03.08.2019
4242 Rain 27 1002 88 2100 4.6 250 13:24 03.08.2019
4243 Rain 27 1002 88 2100 4.6 250 12:57 03.08.2019
4244 Rain 27 1002 88 2100 4.6 250 12:57 03.08.2019
4245 Rain 27 1002 94 2100 4.1 240 12:38 03.08.2019
4246 Rain 27 1002 88 2100 5.7 240 12:20 03.08.2019
4247 Rain 27 1003 88 2100 5.1 210 11:47 03.08.2019
4248 Rain 27 1003 88 2100 5.1 210 11:25 03.08.2019
4249 Rain 26 1003 94 2100 4.1 210 10:41 03.08.2019
4250 Rain 26 1003 94 2100 4.1 210 10:22 03.08.2019
4251 Rain 26 1004 94 1500 3.6 230 09:41 03.08.2019
4252 Rain 26 1004 94 1500 3.6 230 09:21 03.08.2019
4253 Rain 25 1004 100 1000 5.1 230 08:46 03.08.2019
4254 Rain 25 1004 100 800 4.6 230 07:49 03.08.2019
4255 Rain 25 1005 100 1200 6.2 230 07:30 03.08.2019
4256 Rain 25 1004 94 500 5.1 250 06:23 03.08.2019
4257 Rain 27 1002 94 1800 4.6 230 03:58 03.08.2019
4258 Rain 27 1002 88 2100 8.7 240 02:36 03.08.2019
4259 Rain 27 1002 88 2100 8.2 230 01:42 03.08.2019
4260 Rain 27 1002 88 2100 7.2 240 00:49 03.08.2019
4261 Rain 26 1002 100 2100 5.7 230 23:58 02.08.2019
4262 Rain 25 1003 100 1800 8.7 230 23:40 02.08.2019
4263 Rain 25 1003 100 1800 8.7 230 23:18 02.08.2019
4264 Rain 25 1003 100 2100 4.6 250 22:56 02.08.2019
4265 Rain 26 1003 88 1800 5.7 260 22:38 02.08.2019
4266 Rain 27 1003 88 2100 8.2 240 22:18 02.08.2019
4267 Rain 27 1004 88 2100 7.7 240 21:43 02.08.2019
4268 Rain 27 1004 88 2100 7.7 240 21:23 02.08.2019
4269 Rain 27 1004 88 2100 7.2 240 20:55 02.08.2019
4270 Rain 27 1004 94 2100 7.2 230 20:37 02.08.2019
4271 Rain 27 1004 94 2100 7.2 230 20:19 02.08.2019
4272 Rain 27 1004 88 1600 8.7 250 19:42 02.08.2019
4273 Rain 27 1004 88 2100 6.2 240 19:24 02.08.2019
4274 Rain 27 1004 88 2100 5.7 240 18:44 02.08.2019
4275 Rain 27 1004 88 2100 5.7 240 18:24 02.08.2019
4276 Rain 26 1004 94 2100 8.2 260 17:44 02.08.2019
4277 Rain 26 1004 94 2100 8.2 260 17:24 02.08.2019
4278 Rain 26 1003 94 1500 7.2 260 16:56 02.08.2019
4279 Rain 27 1003 88 1500 9.8 270 16:37 02.08.2019
4280 Rain 27 1003 88 1500 9.8 270 16:18 02.08.2019
4281 Rain 26 1003 94 1500 8.7 240 15:39 02.08.2019
4282 Rain 26 1003 94 1500 8.7 240 15:19 02.08.2019
4283 Haze 28 1002 88 3000 7.7 230 14:45 02.08.2019
4284 Rain 27 1002 88 2500 7.7 240 14:18 02.08.2019
4285 Rain 27 1002 88 2500 7.7 240 13:48 02.08.2019
4286 Rain 27 1002 88 2500 6.7 240 13:25 02.08.2019
4287 Rain 28 1002 88 2500 7.2 250 12:45 02.08.2019
4288 Rain 28 1002 88 2500 7.2 250 12:21 02.08.2019
4289 Rain 27 1003 94 2100 7.2 240 11:51 02.08.2019
4290 Rain 27 1003 94 2100 7.2 240 11:32 02.08.2019
4291 Rain 27 1003 94 2100 6.2 240 10:55 02.08.2019
4292 Rain 26 1004 94 2100 4.1 260 10:37 02.08.2019
4293 Rain 26 1004 94 2100 4.1 260 10:19 02.08.2019
4294 Rain 25 1004 100 1300 5.1 300 09:51 02.08.2019
4295 Thunderstorm 25 1004 100 1200 5.7 260 09:25 02.08.2019
4296 Thunderstorm 25 1005 100 1500 5.1 270 08:47 02.08.2019
4297 Thunderstorm 25 1005 100 800 7.7 280 08:21 02.08.2019
4298 Thunderstorm 27 1005 94 500 8.2 280 07:49 02.08.2019
4299 Rain 27 1004 83 2200 6.2 240 07:31 02.08.2019
4300 Rain 27 1004 88 2500 7.7 230 06:46 02.08.2019
4301 Haze 28 1004 88 2500 6.2 230 05:52 02.08.2019
4302 Haze 28 1004 88 2500 6.2 230 05:52 02.08.2019
4303 Rain 26 1004 88 1600 6.2 260 05:25 02.08.2019
4304 Haze 28 1003 83 2500 3.6 240 03:28 02.08.2019
4305 Haze 28 1003 83 2500 4.1 240 02:33 02.08.2019
4306 Rain 26 1003 94 1800 7.7 250 00:40 02.08.2019
4307 Rain 26 1003 94 1500 4.1 250 23:56 01.08.2019
4308 Rain 26 1004 94 2200 3.6 230 23:38 01.08.2019
4309 Rain 26 1004 100 1500 4.1 250 23:18 01.08.2019
4310 Rain 26 1004 94 2200 4.1 250 22:40 01.08.2019
4311 Rain 26 1004 94 2200 4.1 250 22:21 01.08.2019
4312 Haze 28 1005 83 2500 6.2 250 21:44 01.08.2019
4313 Haze 28 1005 83 2500 6.2 250 21:24 01.08.2019
4314 Haze 28 1005 88 2500 6.7 240 20:59 01.08.2019
4315 Haze 28 1005 88 2500 6.2 250 20:40 01.08.2019
4316 Haze 28 1005 88 2500 6.2 250 20:21 01.08.2019
4317 Rain 28 1005 83 2200 5.7 240 19:42 01.08.2019
4318 Rain 28 1005 83 2200 5.7 240 19:20 01.08.2019
4319 Haze 27 1005 88 2500 4.6 250 18:44 01.08.2019
4320 Haze 27 1005 88 2500 4.6 250 18:25 01.08.2019
4321 Haze 29 1005 83 2500 3.6 250 17:56 01.08.2019
4322 Haze 28 1005 88 2500 7.7 230 17:38 01.08.2019
4323 Haze 28 1005 88 2500 7.7 230 17:19 01.08.2019
4324 Rain 28 1004 83 2500 6.2 250 16:44 01.08.2019
4325 Rain 28 1004 83 2500 6.2 250 16:21 01.08.2019
4326 Rain 29 1004 83 3000 9.3 240 15:42 01.08.2019
4327 Rain 29 1004 83 3000 9.3 240 15:20 01.08.2019
4328 Rain 28 1003 88 3000 6.7 250 14:44 01.08.2019
4329 Rain 28 1003 88 3000 6.7 250 14:21 01.08.2019
4330 Rain 29 1004 88 1500 7.2 290 13:59 01.08.2019
4331 Rain 29 1004 83 2100 8.7 250 13:40 01.08.2019
4332 Rain 29 1004 83 2100 8.7 250 13:21 01.08.2019
4333 Haze 29 1004 83 4000 7.2 280 12:49 01.08.2019
4334 Haze 29 1004 79 4000 6.7 260 12:28 01.08.2019
4335 Haze 30 1004 74 4000 9.3 250 11:58 01.08.2019
4336 Smoke 31 1005 74 3500 7.2 270 11:40 01.08.2019
4337 Smoke 31 1005 74 3500 7.2 270 11:22 01.08.2019
4338 Haze 31 1005 79 3000 6.2 250 10:41 01.08.2019
4339 Haze 31 1005 79 3000 6.2 250 10:23 01.08.2019
4340 Haze 31 1005 79 3000 6.2 240 09:50 01.08.2019
4341 Haze 30 1006 79 3000 7.7 240 09:24 01.08.2019
4342 Haze 29 1006 83 2500 4.1 250 08:57 01.08.2019
4343 Rain 28 1006 88 2200 8.2 240 08:39 01.08.2019
4344 Rain 29 1006 83 2500 6.2 240 08:18 01.08.2019
4345 Haze 28 1006 88 2500 6.7 250 07:45 01.08.2019
4346 Rain 29 1006 83 2000 7.2 230 07:20 01.08.2019
4347 Haze 29 1006 83 3000 5.1 240 06:39 01.08.2019
4348 Haze 29 1006 83 3000 7.2 250 05:32 01.08.2019
4349 Haze 28 1004 83 2500 4.6 250 02:36 01.08.2019
4350 Haze 28 1004 83 2500 4.6 250 01:45 01.08.2019
4351 Haze 28 1004 83 2200 3.6 250 00:37 01.08.2019
4352 Haze 28 1004 88 2200 4.1 250 00:18 01.08.2019
4353 Rain 27 1005 94 1600 5.1 280 23:42 31.07.2019
4354 Rain 27 1005 94 1600 5.1 280 23:42 31.07.2019
4355 Haze 28 1005 83 2500 6.7 250 23:20 31.07.2019
4356 Haze 28 1005 83 2500 4.1 250 22:46 31.07.2019
4357 Haze 28 1005 83 2500 4.1 250 22:28 31.07.2019
4358 Haze 28 1006 83 2500 7.7 250 21:45 31.07.2019
4359 Haze 28 1006 83 2500 7.7 250 21:24 31.07.2019
4360 Haze 28 1006 83 2500 6.7 250 20:52 31.07.2019
4361 Haze 28 1006 88 2500 5.7 250 20:25 31.07.2019
4362 Haze 28 1007 88 2500 6.2 240 19:58 31.07.2019
4363 Haze 28 1007 88 2500 6.2 250 19:39 31.07.2019
4364 Haze 28 1006 88 2500 3.6 260 19:20 31.07.2019
4365 Haze 28 1006 88 2500 6.7 240 18:41 31.07.2019
4366 Haze 28 1006 88 2500 6.7 240 18:22 31.07.2019
4367 Drizzle 28 1006 88 2200 6.2 250 17:55 31.07.2019
4368 Haze 28 1006 88 2200 5.1 250 17:37 31.07.2019
4369 Haze 28 1005 88 2200 6.7 250 17:18 31.07.2019
4370 Haze 28 1005 83 2200 6.2 260 16:41 31.07.2019
4371 Haze 28 1005 83 2200 6.2 260 16:41 31.07.2019
4372 Haze 28 1005 83 2200 6.2 260 16:19 31.07.2019
4373 Haze 28 1005 83 2500 7.2 260 15:44 31.07.2019
4374 Haze 28 1005 83 2500 7.2 260 15:24 31.07.2019
4375 Haze 28 1005 88 2500 6.2 240 14:42 31.07.2019
4376 Haze 28 1005 88 2500 6.2 240 14:21 31.07.2019
4377 Rain 27 1005 88 2500 7.2 240 13:57 31.07.2019
4378 Rain 27 1005 88 2200 6.7 250 13:38 31.07.2019
4379 Rain 28 1005 88 1000 7.7 250 13:19 31.07.2019
4380 Rain 29 1005 83 3000 7.2 240 12:44 31.07.2019
4381 Rain 29 1005 83 3000 7.2 240 12:26 31.07.2019
4382 Haze 28 1005 88 3000 7.2 240 11:55 31.07.2019
4383 Haze 28 1006 83 2500 6.2 230 11:36 31.07.2019
4384 Haze 28 1006 83 2500 6.2 230 11:18 31.07.2019
4385 Haze 29 1007 83 2500 6.2 250 10:41 31.07.2019
4386 Haze 29 1007 83 2500 6.2 250 10:20 31.07.2019
4387 Rain 28 1007 83 1800 7.7 270 09:43 31.07.2019
4388 Rain 28 1007 83 1800 7.7 270 09:24 31.07.2019
4389 Smoke 29 1007 83 2500 5.1 240 08:44 31.07.2019
4390 Smoke 29 1007 83 2500 5.1 240 08:26 31.07.2019
4391 Smoke 29 1007 83 2500 6.2 240 07:56 31.07.2019
4392 Smoke 29 1007 83 2500 6.2 240 07:56 31.07.2019
4393 Haze 28 1007 88 2500 5.1 240 07:34 31.07.2019
4394 Rain 28 1007 88 1800 6.7 230 05:54 31.07.2019
4395 Rain 28 1006 88 2500 8.2 280 04:41 31.07.2019
4396 Haze 28 1004 83 3000 5.7 250 00:58 31.07.2019
4397 Haze 28 1004 83 3000 4.6 250 23:56 30.07.2019
4398 Haze 28 1005 83 3000 4.6 250 23:38 30.07.2019
4399 Haze 28 1005 83 3000 4.6 250 23:18 30.07.2019
4400 Haze 28 1005 83 2500 5.1 250 22:42 30.07.2019
4401 Haze 28 1005 83 2500 5.1 250 22:22 30.07.2019
4402 Haze 28 1006 83 2500 6.7 250 21:38 30.07.2019
4403 Haze 28 1006 83 2500 6.7 250 21:20 30.07.2019
4404 Rain 28 1006 88 2500 5.7 250 20:57 30.07.2019
4405 Rain 28 1006 88 2500 5.7 250 20:39 30.07.2019
4406 Rain 28 1006 88 2500 5.7 250 20:19 30.07.2019
4407 Rain 28 1006 88 2200 5.1 230 19:49 30.07.2019
4408 Rain 28 1006 88 2500 4.6 230 19:29 30.07.2019
4409 Rain 28 1006 83 2500 5.7 250 18:48 30.07.2019
4410 Rain 27 1006 88 2500 5.7 230 18:27 30.07.2019
4411 Rain 27 1006 94 2500 5.1 240 17:59 30.07.2019
4412 Rain 26 1006 94 2100 4.6 250 17:40 30.07.2019
4413 Rain 26 1006 94 2100 4.6 250 17:19 30.07.2019
4414 Rain 25 1006 94 1500 8.2 270 16:46 30.07.2019
4415 Rain 26 1005 88 2100 2.6 290 16:20 30.07.2019
4416 Rain 27 1005 88 2100 4.6 250 15:44 30.07.2019
4417 Rain 27 1005 88 2100 4.6 250 15:22 30.07.2019
4418 Rain 25 1004 94 2100 6.2 250 14:46 30.07.2019
4419 Rain 25 1004 94 2100 6.2 250 14:27 30.07.2019
4420 Rain 25 1004 94 2100 6.2 250 14:27 30.07.2019
4421 Rain 25 1005 100 600 8.2 270 13:59 30.07.2019
4422 Rain 25 1004 100 1800 5.1 260 13:40 30.07.2019
4423 Rain 25 1004 100 1800 5.1 260 13:22 30.07.2019
4424 Rain 25 1005 100 300 7.2 300 12:46 30.07.2019
4425 Rain 25 1005 100 300 7.2 300 12:28 30.07.2019
4426 Rain 26 1005 94 1000 3.6 310 11:58 30.07.2019
4427 Rain 26 1005 94 2200 6.2 250 11:38 30.07.2019
4428 Rain 26 1005 94 2200 6.2 250 11:18 30.07.2019
4429 Rain 26 1005 100 2500 4.6 280 10:42 30.07.2019
4430 Rain 26 1005 100 2500 4.6 280 10:21 30.07.2019
4431 Rain 27 1005 88 2500 4.6 230 09:48 30.07.2019
4432 Rain 27 1005 88 2500 4.6 230 09:29 30.07.2019
4433 Rain 28 1005 88 2500 4.1 240 08:44 30.07.2019
4434 Rain 28 1005 88 2500 4.1 240 08:22 30.07.2019
4435 Rain 27 1005 88 2200 5.1 250 07:46 30.07.2019
4436 Rain 27 1005 88 2200 5.1 250 07:25 30.07.2019
4437 Rain 27 1005 94 2500 4.1 230 06:46 30.07.2019
4438 Rain 28 1004 88 2500 6.7 250 05:52 30.07.2019
4439 Rain 28 1004 88 2500 6.7 250 05:32 30.07.2019
4440 Rain 28 1002 88 2500 6.7 250 01:40 30.07.2019
4441 Rain 28 1002 88 2200 7.7 250 00:41 30.07.2019
4442 Rain 28 1002 88 2200 7.7 250 00:20 30.07.2019
4443 Haze 27 1002 94 2500 5.7 250 23:44 29.07.2019
4444 Haze 27 1002 94 2500 5.7 250 23:25 29.07.2019
4445 Rain 25 1003 94 2200 5.1 240 22:57 29.07.2019
4446 Rain 28 1003 88 2200 3.6 240 22:38 29.07.2019
4447 Rain 28 1003 88 2200 3.6 240 22:19 29.07.2019
4448 Rain 28 1003 88 2200 3.6 240 22:19 29.07.2019
4449 Rain 28 1004 83 2500 6.2 260 21:55 29.07.2019
4450 Rain 27 1004 88 2500 4.1 290 21:37 29.07.2019
4451 Rain 28 1004 88 2200 5.1 270 21:18 29.07.2019
4452 Rain 28 1005 88 2200 5.7 250 20:45 29.07.2019
4453 Rain 28 1005 88 2200 5.7 250 20:23 29.07.2019
4454 Rain 28 1005 88 2200 3.6 250 19:55 29.07.2019
4455 Rain 28 1005 88 2200 3.6 250 19:36 29.07.2019
4456 Rain 28 1004 88 2200 3.6 270 19:18 29.07.2019
4457 Rain 28 1004 88 2500 5.1 240 18:41 29.07.2019
4458 Rain 28 1004 88 2500 5.1 240 18:21 29.07.2019
4459 Rain 28 1004 88 2500 4.1 270 17:50 29.07.2019
4460 Rain 28 1004 88 2500 4.6 280 17:32 29.07.2019
4461 Rain 27 1004 94 2500 4.1 290 16:58 29.07.2019
4462 Rain 27 1004 88 2200 4.1 290 16:39 29.07.2019
4463 Rain 27 1003 94 2500 3.6 290 16:21 29.07.2019
4464 Rain 27 1003 94 2500 3.6 290 15:50 29.07.2019
4465 Rain 27 1003 94 2500 3.6 290 15:50 29.07.2019
4466 Rain 27 1003 94 2500 3.6 240 15:30 29.07.2019
4467 Rain 27 1002 94 2500 6.2 240 14:45 29.07.2019
4468 Rain 27 1002 94 2500 6.2 240 14:21 29.07.2019
4469 Rain 27 1002 94 2500 6.2 240 14:21 29.07.2019
4470 Rain 27 1002 94 2500 6.2 240 14:21 29.07.2019
4471 Rain 27 1002 88 2500 4.1 280 13:59 29.07.2019
4472 Rain 27 1003 94 2000 8.2 300 13:41 29.07.2019
4473 Rain 27 1003 94 2000 8.2 300 13:22 29.07.2019
4474 Haze 28 1003 94 2000 8.2 300 12:42 29.07.2019
4475 Haze 28 1003 94 2000 8.2 300 12:22 29.07.2019
4476 -273 0 0 0 0 0 11:43 29.07.2019
4477 Haze 29 1003 83 2500 4.6 260 11:43 29.07.2019
4478 Haze 29 1003 83 2500 4.6 260 11:21 29.07.2019
4479 Rain 27 1003 100 2500 5.7 260 10:45 29.07.2019
4480 Rain 27 1003 100 2500 5.7 260 10:24 29.07.2019
4481 Drizzle 29 1004 83 2500 7.2 260 09:45 29.07.2019
4482 Drizzle 29 1004 83 2500 7.2 260 09:25 29.07.2019
4483 Drizzle 29 1004 83 2500 6.7 260 08:57 29.07.2019
4484 Drizzle 29 1004 83 2500 7.7 250 08:28 29.07.2019
4485 Rain 29 1005 83 2500 6.7 250 07:56 29.07.2019
4486 Drizzle 29 1005 79 2500 7.2 260 07:32 29.07.2019
4487 Haze 29 1005 83 2500 5.1 270 06:44 29.07.2019
4488 Haze 29 1004 83 2500 5.7 270 05:43 29.07.2019
4489 Haze 29 1004 79 2500 6.7 270 04:49 29.07.2019
4490 Haze 29 1002 79 3000 6.7 280 01:57 29.07.2019
4491 Haze 29 1002 79 3000 7.7 270 01:39 29.07.2019
4492 Haze 28 1002 83 3000 6.2 270 01:18 29.07.2019
4493 Haze 28 1003 83 3000 7.7 270 00:38 29.07.2019
4494 Haze 28 1003 83 3000 7.7 270 00:18 29.07.2019
4495 Haze 28 1003 83 3000 7.7 260 23:38 28.07.2019
4496 Haze 28 1003 83 3000 7.7 260 23:18 28.07.2019
4497 Drizzle 29 1004 83 3000 7.7 270 22:37 28.07.2019
4498 Drizzle 29 1004 83 3000 7.7 270 22:18 28.07.2019
4499 Haze 29 1004 83 3000 6.2 270 21:43 28.07.2019
4500 Haze 29 1004 83 3000 6.2 270 21:18 28.07.2019
4501 Haze 29 1005 83 3000 6.2 260 20:44 28.07.2019
4502 Haze 29 1005 83 3000 6.2 260 20:26 28.07.2019
4503 Haze 29 1005 83 3000 6.2 260 19:42 28.07.2019
4504 Haze 29 1005 83 3000 6.2 260 19:22 28.07.2019
4505 Haze 29 1004 83 2500 7.7 260 18:51 28.07.2019
4506 Haze 29 1004 83 2500 7.7 260 18:30 28.07.2019
4507 Haze 29 1004 83 2500 6.7 250 17:59 28.07.2019
4508 Haze 29 1004 83 2500 6.7 260 17:41 28.07.2019
4509 Haze 29 1004 83 2500 4.1 260 17:21 28.07.2019
4510 Haze 29 1004 83 2500 4.1 260 16:47 28.07.2019
4511 Haze 29 1004 83 3000 5.1 260 16:28 28.07.2019
4512 Haze 29 1003 83 3000 6.7 260 15:59 28.07.2019
4513 Haze 29 1003 83 3000 6.7 260 15:41 28.07.2019
4514 Haze 30 1003 79 3000 7.7 260 15:21 28.07.2019
4515 Haze 29 1003 83 3000 7.2 250 14:37 28.07.2019
4516 Rain 29 1003 79 3000 6.2 270 14:19 28.07.2019
4517 Haze 30 1003 74 3000 4.1 250 13:42 28.07.2019
4518 Haze 30 1003 74 3000 4.1 250 13:22 28.07.2019
4519 Haze 30 1003 74 3200 5.1 260 12:59 28.07.2019
4520 Haze 30 1004 79 3000 4.1 260 12:40 28.07.2019
4521 Haze 30 1004 79 3000 4.1 260 12:22 28.07.2019
4522 Haze 30 1004 79 3000 5.1 260 11:46 28.07.2019
4523 Haze 30 1004 79 3000 5.1 260 11:27 28.07.2019
4524 Haze 30 1004 79 3000 5.1 260 11:27 28.07.2019
4525 Haze 30 1005 79 3000 4.1 250 10:40 28.07.2019
4526 Haze 30 1005 79 3000 4.1 250 10:21 28.07.2019
4527 Haze 30 1005 79 3000 4.6 260 09:45 28.07.2019
4528 Haze 30 1005 79 3000 4.6 260 09:27 28.07.2019
4529 Haze 30 1005 79 3000 3.6 260 08:52 28.07.2019
4530 Haze 30 1006 79 3000 3.6 260 08:29 28.07.2019
4531 Haze 30 1006 79 3000 3.6 260 07:57 28.07.2019
4532 Haze 30 1006 79 3000 6.2 250 07:37 28.07.2019
4533 Haze 30 1006 79 3000 6.2 250 07:37 28.07.2019
4534 Haze 29 1006 83 3000 4.1 260 06:45 28.07.2019
4535 Haze 29 1006 83 2500 6.2 250 05:44 28.07.2019
4536 Rain 27 1005 88 2100 7.2 260 03:31 28.07.2019
4537 Rain 27 1004 88 1500 6.2 260 02:24 28.07.2019
4538 Rain 28 1003 88 2200 6.2 250 01:20 28.07.2019
4539 Haze 29 1004 83 2500 5.7 240 00:45 28.07.2019
4540 Haze 29 1004 83 2500 5.7 240 00:20 28.07.2019
4541 Haze 29 1004 79 2500 5.7 240 23:46 27.07.2019
4542 Rain 28 1004 88 2100 5.1 240 23:22 27.07.2019
4543 Haze 28 1005 88 2500 3.6 240 22:41 27.07.2019
4544 Haze 28 1005 88 2500 3.6 240 22:22 27.07.2019
4545 Haze 28 1005 88 2500 3.6 240 22:22 27.07.2019
4546 Rain 28 1006 88 2100 6.7 240 21:41 27.07.2019
4547 Rain 28 1006 88 2100 6.7 240 21:20 27.07.2019
4548 Haze 29 1006 83 2500 6.7 240 20:52 27.07.2019
4549 Haze 29 1006 83 2500 6.7 240 20:26 27.07.2019
4550 Haze 28 1007 88 2200 5.7 240 19:58 27.07.2019
4551 Haze 28 1006 88 2100 5.7 230 19:38 27.07.2019
4552 Haze 28 1006 88 2100 5.7 230 19:19 27.07.2019
4553 Rain 27 1006 88 2100 5.7 230 18:45 27.07.2019
4554 Rain 27 1006 88 2100 5.7 230 18:27 27.07.2019
4555 Thunderstorm 27 1006 94 1800 6.2 240 17:42 27.07.2019
4556 Thunderstorm 27 1006 94 1800 6.2 240 17:24 27.07.2019
4557 Thunderstorm 27 1005 94 1500 6.7 260 16:51 27.07.2019
4558 Rain 28 1005 83 2500 6.7 250 16:32 27.07.2019
4559 Rain 28 1004 83 2500 6.2 250 15:55 27.07.2019
4560 Rain 28 1004 88 2500 4.1 250 15:25 27.07.2019
4561 Rain 28 1003 94 2200 3.6 260 14:51 27.07.2019
4562 Rain 29 1003 83 2500 7.7 250 14:33 27.07.2019
4563 Rain 29 1003 83 2500 5.7 250 13:58 27.07.2019
4564 Rain 29 1004 83 2500 3.6 250 13:40 27.07.2019
4565 Rain 29 1004 83 2500 3.6 250 13:20 27.07.2019
4566 Rain 28 1004 88 1000 6.2 270 12:45 27.07.2019
4567 Rain 28 1004 88 1000 6.2 270 12:25 27.07.2019
4568 Rain 29 1004 83 2500 5.7 260 11:46 27.07.2019
4569 Rain 29 1004 83 2500 5.7 260 11:25 27.07.2019
4570 Rain 29 1004 83 2500 5.7 260 11:25 27.07.2019
4571 Rain 29 1005 83 2500 6.2 250 10:56 27.07.2019
4572 Thunderstorm 29 1004 83 2500 7.7 260 10:38 27.07.2019
4573 Thunderstorm 28 1005 88 2200 5.1 280 10:18 27.07.2019
4574 Thunderstorm 29 1005 83 2500 5.1 260 09:39 27.07.2019
4575 Thunderstorm 29 1005 83 2500 5.1 260 09:21 27.07.2019
4576 Thunderstorm 28 1005 88 2200 3.6 260 08:45 27.07.2019
4577 Drizzle 28 1005 88 2500 3.6 250 08:25 27.07.2019
4578 Rain 30 1005 84 2200 3.6 250 07:45 27.07.2019
4579 Drizzle 29 1005 89 2500 6.2 250 07:22 27.07.2019
4580 Drizzle 29 1005 89 2500 6.2 250 06:54 27.07.2019
4581 Haze 29 1005 83 2500 3.6 250 06:28 27.07.2019
4582 Haze 29 1004 83 2500 7.7 250 05:42 27.07.2019
4583 Drizzle 29 1004 83 2200 6.7 270 04:54 27.07.2019
4584 Thunderstorm 27 1003 94 2000 6.2 250 03:57 27.07.2019
4585 Thunderstorm 25 1003 94 550 1.5 140 02:44 27.07.2019
4586 Thunderstorm 25 1003 94 550 1.5 140 02:24 27.07.2019
4587 Thunderstorm 27 1003 88 1500 6.7 240 01:41 27.07.2019
4588 Thunderstorm 27 1003 88 1500 8.7 250 00:57 27.07.2019
4589 Thunderstorm 27 1003 88 1200 8.2 260 00:31 27.07.2019
4590 Haze 28 1003 83 1500 8.2 240 23:50 26.07.2019
4591 Haze 28 1003 83 1500 9.3 250 23:29 26.07.2019
4592 Haze 29 1004 83 1500 8.2 250 22:45 26.07.2019
4593 Haze 29 1004 83 1500 8.2 250 22:26 26.07.2019
4594 Thunderstorm 29 1004 83 1500 8.2 260 21:58 26.07.2019
4595 Thunderstorm 28 1005 88 1500 9.3 240 21:37 26.07.2019
4596 Thunderstorm 28 1005 88 1500 9.3 240 21:18 26.07.2019
4597 Thunderstorm 29 1005 83 1500 6.7 250 20:42 26.07.2019
4598 Thunderstorm 29 1005 83 1500 6.7 250 20:22 26.07.2019
4599 Thunderstorm 29 1005 83 1500 8.7 250 19:43 26.07.2019
4600 Thunderstorm 29 1005 83 1500 8.7 250 19:24 26.07.2019
4601 Thunderstorm 26 1005 94 1500 6.2 240 18:47 26.07.2019
4602 Thunderstorm 26 1005 94 1500 6.2 240 18:23 26.07.2019
4603 Thunderstorm 26 1005 94 600 6.2 240 17:58 26.07.2019
4604 Thunderstorm 26 1004 100 1500 3.6 240 17:40 26.07.2019
4605 Thunderstorm 26 1004 100 1500 3.6 240 17:19 26.07.2019
4606 -273 0 0 0 0 0 16:56 26.07.2019
4607 Thunderstorm 26 1004 100 200 8.2 240 16:37 26.07.2019
4608 Thunderstorm 26 1004 100 200 9.8 240 16:18 26.07.2019
4609 Rain 26 1003 100 200 6.2 240 15:45 26.07.2019
4610 Rain 26 1003 100 200 6.2 240 15:23 26.07.2019
4611 Rain 27 1003 94 700 5.1 220 14:58 26.07.2019
4612 Rain 28 1003 88 1300 6.2 240 14:40 26.07.2019
4613 Rain 28 1003 88 1300 6.2 240 14:21 26.07.2019
4614 Thunderstorm 28 1003 83 2500 4.1 250 13:40 26.07.2019
4615 Thunderstorm 27 1003 94 2200 4.1 240 13:21 26.07.2019
4616 Thunderstorm 26 1003 94 1500 5.7 250 12:45 26.07.2019
4617 Thunderstorm 26 1003 94 1500 5.7 250 12:20 26.07.2019
4618 Rain 27 1004 88 800 7.2 270 11:40 26.07.2019
4619 Drizzle 28 1004 88 2200 3.6 240 11:20 26.07.2019
4620 Drizzle 28 1004 88 2200 3.6 240 10:55 26.07.2019
4621 Drizzle 28 1004 94 2100 3.1 230 10:36 26.07.2019
4622 Haze 27 1004 88 2100 5.1 240 09:55 26.07.2019
4623 Rain 30 1005 89 2100 5.7 250 09:36 26.07.2019
4624 Haze 31 1005 74 3000 4.1 240 08:44 26.07.2019
4625 Haze 31 1005 74 3000 4.1 240 08:23 26.07.2019
4626 Haze 30 1006 79 3000 4.1 250 07:59 26.07.2019
4627 Haze 30 1005 79 2500 5.7 240 07:29 26.07.2019
4628 Haze 30 1005 79 2500 6.2 240 06:53 26.07.2019
4629 Haze 29 1005 83 2500 5.7 260 05:23 26.07.2019
4630 Haze 29 1005 83 2200 5.1 250 04:29 26.07.2019
4631 Rain 28 1004 88 2200 4.6 240 03:43 26.07.2019
4632 Haze 29 1004 83 3000 5.1 240 01:44 26.07.2019
4633 Haze 29 1004 83 3000 6.7 240 00:47 26.07.2019
4634 Haze 29 1004 83 3000 6.7 240 00:23 26.07.2019
4635 Haze 28 1005 83 3000 5.1 250 23:25 25.07.2019
4636 Haze 28 1005 88 2800 5.1 240 22:59 25.07.2019
4637 Haze 28 1005 88 2800 5.1 240 22:59 25.07.2019
4638 Rain 27 1005 94 2200 3.1 250 22:40 25.07.2019
4639 Rain 27 1006 88 2100 4.6 240 22:21 25.07.2019
4640 Rain 28 1006 88 2100 5.1 240 21:46 25.07.2019
4641 Rain 28 1006 88 2100 5.1 240 21:23 25.07.2019
4642 Haze 28 1006 94 2500 4.6 240 20:49 25.07.2019
4643 Rain 27 1007 94 2200 3.6 270 20:30 25.07.2019
4644 Haze 27 1007 88 2200 3.6 240 19:55 25.07.2019
4645 Haze 27 1007 88 2200 3.6 240 19:37 25.07.2019
4646 Haze 27 1007 88 2200 3.6 240 19:19 25.07.2019
4647 Rain 28 1007 88 2100 5.1 240 18:40 25.07.2019
4648 Rain 28 1007 88 2100 5.1 240 18:22 25.07.2019
4649 Rain 29 1006 83 2100 6.2 260 17:48 25.07.2019
4650 Haze 29 1006 83 2200 5.7 240 17:30 25.07.2019
4651 Rain 28 1006 83 2200 5.7 250 16:47 25.07.2019
4652 Rain 28 1006 83 2200 5.7 250 16:29 25.07.2019
4653 Rain 27 1005 88 1500 5.1 260 15:58 25.07.2019
4654 Rain 29 1005 83 2200 5.7 240 15:38 25.07.2019
4655 Rain 29 1005 88 2200 7.7 240 15:19 25.07.2019
4656 Rain 29 1005 83 2000 6.2 250 14:41 25.07.2019
4657 Rain 29 1005 83 2000 6.2 250 14:22 25.07.2019
4658 Rain 29 1005 83 2000 5.1 260 13:44 25.07.2019
4659 Rain 29 1005 83 2000 5.1 260 13:26 25.07.2019
4660 Rain 29 1005 83 2000 6.2 260 12:55 25.07.2019
4661 Rain 28 1005 88 2200 4.1 250 12:28 25.07.2019
4662 Rain 28 1006 88 2000 5.1 230 11:45 25.07.2019
4663 Rain 28 1006 88 2000 5.1 230 11:24 25.07.2019
4664 Rain 28 1006 88 2200 5.1 240 10:55 25.07.2019
4665 Rain 27 1006 94 2200 4.1 330 10:36 25.07.2019
4666 Rain 29 1006 89 2200 7.2 240 10:18 25.07.2019
4667 Rain 30 1007 79 2200 6.2 240 09:40 25.07.2019
4668 Haze 29 1007 89 2500 5.7 240 08:59 25.07.2019
4669 Haze 29 1007 89 2500 3.6 230 08:40 25.07.2019
4670 Haze 29 1007 88 2500 4.6 230 07:55 25.07.2019
4671 Haze 28 1007 88 2500 5.1 240 07:30 25.07.2019
4672 Rain 29 1007 88 2200 4.6 240 06:42 25.07.2019
4673 Rain 29 1007 88 2200 4.6 240 06:42 25.07.2019
4674 Rain 28 1006 88 2200 3.6 140 05:37 25.07.2019
4675 Rain 27 1006 88 2200 2.6 170 04:57 25.07.2019
4676 Rain 26 1006 94 2200 2.6 170 04:31 25.07.2019
4677 Rain 28 1004 88 2100 4.6 230 01:31 25.07.2019
4678 Rain 28 1004 88 2100 4.1 240 00:45 25.07.2019
4679 Rain 28 1005 88 2200 4.1 220 00:19 25.07.2019
4680 Rain 28 1005 88 2100 4.1 220 23:45 24.07.2019
4681 Rain 28 1005 88 2100 4.1 220 23:27 24.07.2019
4682 Rain 27 1005 94 2100 4.6 230 22:48 24.07.2019
4683 Rain 27 1005 94 2200 3.6 240 22:27 24.07.2019
4684 Rain 28 1005 88 2500 5.1 240 21:59 24.07.2019
4685 Drizzle 28 1006 88 2500 5.7 240 21:41 24.07.2019
4686 Drizzle 28 1006 88 2500 5.7 240 21:21 24.07.2019
4687 Drizzle 27 1006 94 2500 5.1 240 20:48 24.07.2019
4688 Rain 28 1006 88 2200 4.1 220 20:30 24.07.2019
4689 Drizzle 28 1006 88 3000 4.6 230 20:00 24.07.2019
4690 Haze 28 1006 83 3000 5.7 230 19:41 24.07.2019
4691 Haze 28 1006 83 3000 5.7 230 19:21 24.07.2019
4692 Drizzle 28 1006 88 3000 6.2 240 18:45 24.07.2019
4693 Drizzle 28 1006 88 3000 6.2 240 18:25 24.07.2019
4694 Rain 28 1005 88 3000 4.6 240 17:56 24.07.2019
4695 Rain 27 1005 94 3000 7.2 250 17:37 24.07.2019
4696 Rain 27 1005 94 3000 7.2 250 17:18 24.07.2019
4697 Rain 27 1004 88 3000 8.2 260 16:40 24.07.2019
4698 Rain 27 1004 88 3000 8.2 260 16:21 24.07.2019
4699 Rain 28 1003 88 3000 4.1 240 15:39 24.07.2019
4700 Rain 28 1003 88 3000 4.1 240 15:21 24.07.2019
4701 Rain 27 1003 94 2500 4.1 270 14:47 24.07.2019
4702 Rain 27 1003 94 1900 5.7 240 14:23 24.07.2019
4703 Rain 27 1003 94 1500 5.1 260 13:58 24.07.2019
4704 Rain 26 1003 94 1500 5.1 250 13:36 24.07.2019
4705 Rain 27 1003 94 1000 7.2 250 13:18 24.07.2019
4706 Thunderstorm 27 1003 94 1500 6.7 250 12:45 24.07.2019
4707 Thunderstorm 27 1003 94 1500 6.7 250 12:22 24.07.2019
4708 Rain 27 1003 94 1500 7.2 260 11:37 24.07.2019
4709 Rain 27 1003 94 1000 8.7 250 11:19 24.07.2019
4710 Thunderstorm 28 1004 94 1000 6.7 330 10:43 24.07.2019
4711 Thunderstorm 28 1004 94 1000 6.7 330 10:24 24.07.2019
4712 Rain 28 1004 94 2500 7.2 340 09:44 24.07.2019
4713 Rain 28 1004 94 2500 7.2 340 09:44 24.07.2019
4714 Rain 28 1004 94 2500 7.2 340 09:24 24.07.2019
4715 Rain 28 1004 94 2200 3.1 300 08:55 24.07.2019
4716 Rain 28 1004 94 2200 2.6 320 08:27 24.07.2019
4717 Rain 27 1004 94 2200 3.6 300 07:51 24.07.2019
4718 Rain 27 1004 94 1500 5.1 280 07:23 24.07.2019
4719 Rain 27 1004 94 2000 4.6 290 06:28 24.07.2019
4720 Rain 27 1004 94 2000 4.6 290 06:28 24.07.2019
4721 Rain 27 1003 94 2000 5.1 230 05:33 24.07.2019
4722 Rain 27 1001 100 1500 4.1 210 01:59 24.07.2019
4723 Rain 26 1001 100 1200 1.5 210 01:29 24.07.2019
4724 Thunderstorm 26 1001 100 500 2.1 110 00:57 24.07.2019
4725 Thunderstorm 26 1001 100 500 2.1 110 00:22 24.07.2019
4726 Thunderstorm 26 1002 94 1000 2.1 130 23:42 23.07.2019
4727 Thunderstorm 26 1002 94 1000 2.1 130 23:23 23.07.2019
4728 Thunderstorm 26 1002 94 2100 3.1 210 22:39 23.07.2019
4729 Thunderstorm 26 1002 94 2100 3.1 210 22:19 23.07.2019
4730 Thunderstorm 26 1003 94 1700 4.6 220 21:58 23.07.2019
4731 Thunderstorm 26 1003 94 1700 4.6 220 21:58 23.07.2019
4732 Rain 29 1003 89 2500 3.1 150 21:40 23.07.2019
4733 Rain 29 1003 89 2500 3.1 150 21:21 23.07.2019
4734 Haze 29 1003 83 2500 4.6 250 20:44 23.07.2019
4735 Haze 29 1003 83 2500 4.6 250 20:21 23.07.2019
4736 Haze 29 1003 89 2500 3.1 230 19:42 23.07.2019
4737 Haze 29 1003 89 2500 3.1 230 19:19 23.07.2019
4738 Haze 29 1002 89 2500 4.1 230 18:48 23.07.2019
4739 Haze 29 1002 89 2500 4.1 230 18:24 23.07.2019
4740 Thunderstorm 29 1001 83 2500 4.1 240 17:45 23.07.2019
4741 Thunderstorm 29 1001 83 2500 4.1 240 17:26 23.07.2019
4742 Thunderstorm 29 1001 83 2500 4.1 240 16:58 23.07.2019
4743 Thunderstorm 29 1001 83 2500 5.1 250 16:39 23.07.2019
4744 Thunderstorm 29 1001 83 2500 5.1 250 16:19 23.07.2019
4745 Thunderstorm 29 1000 83 2500 5.1 240 15:45 23.07.2019
4746 Thunderstorm 29 1000 83 2500 5.1 240 15:45 23.07.2019
4747 Thunderstorm 29 1000 83 2500 5.1 240 15:24 23.07.2019
4748 Thunderstorm 30 999 89 2100 4.1 240 14:39 23.07.2019
4749 Thunderstorm 30 999 89 2100 4.1 240 14:20 23.07.2019
4750 Haze 31 999 79 2500 6.2 250 13:58 23.07.2019
4751 Haze 32 999 79 2500 5.7 250 13:39 23.07.2019
4752 Haze 31 999 89 2500 5.1 230 13:20 23.07.2019
4753 Rain 30 1000 89 2500 1 0 12:48 23.07.2019
4754 Rain 30 1000 89 2500 1 0 12:25 23.07.2019
4755 Rain 31 1000 84 2500 4.1 230 11:49 23.07.2019
4756 Rain 31 1000 84 2500 3.6 190 11:31 23.07.2019
4757 Drizzle 31 1000 89 2500 4.1 190 10:57 23.07.2019
4758 Rain 31 1000 84 2500 5.1 190 10:38 23.07.2019
4759 Rain 31 1000 84 2500 5.1 190 10:20 23.07.2019
4760 Haze 32 1000 70 3500 3.6 150 09:41 23.07.2019
4761 Haze 32 1000 70 3500 3.6 150 09:19 23.07.2019
4762 Haze 29 1001 83 3500 4.1 130 08:42 23.07.2019
4763 Haze 29 1001 83 3500 4.1 130 08:19 23.07.2019
4764 Rain 31 1001 74 4000 3.6 160 07:55 23.07.2019
4765 Haze 31 1001 74 4500 3.6 170 07:33 23.07.2019
4766 Haze 31 1001 74 4000 4.1 140 06:44 23.07.2019
4767 Haze 31 1001 74 4000 4.1 140 06:26 23.07.2019
4768 Haze 28 999 88 3000 2.6 170 02:44 23.07.2019
4769 Thunderstorm 28 998 88 3000 2.6 110 01:32 23.07.2019
4770 Thunderstorm 29 999 83 3000 3.1 150 00:30 23.07.2019
4771 Thunderstorm 29 999 83 3000 7.28 277.809 23:43 22.07.2019
4772 Thunderstorm 29 999 83 3000 7.28 277.809 23:22 22.07.2019
4773 Thunderstorm 29 999 83 3000 7.28 277.809 22:59 22.07.2019
4774 Thunderstorm 30 999 79 3000 7.28 277.809 22:41 22.07.2019
4775 Thunderstorm 30 999 79 3000 7.28 277.809 22:20 22.07.2019
4776 Haze 30 1000 79 3000 2.6 200 21:43 22.07.2019
4777 Haze 30 1000 79 3000 2.6 200 21:22 22.07.2019
4778 Haze 30 1000 84 3000 1.5 220 20:49 22.07.2019
4779 Haze 30 1001 84 3000 3.1 210 20:30 22.07.2019
4780 Haze 30 1000 84 3000 2.1 200 19:55 22.07.2019
4781 Haze 30 1001 84 3000 2.6 210 19:37 22.07.2019
4782 Haze 30 1000 84 3000 2.6 230 19:18 22.07.2019
4783 Haze 30 1000 84 3000 2.6 230 19:18 22.07.2019
4784 Haze 30 1000 79 3000 3.1 230 18:41 22.07.2019
4785 Haze 30 1000 79 3000 3.1 230 18:23 22.07.2019
4786 Smoke 30 1000 79 3000 3.1 220 17:44 22.07.2019
4787 Smoke 30 1000 79 3000 3.1 220 17:26 22.07.2019
4788 Smoke 31 1000 79 3000 4.1 230 16:58 22.07.2019
4789 Smoke 31 999 79 4000 4.1 210 16:38 22.07.2019
4790 Smoke 31 999 79 4000 4.1 210 16:18 22.07.2019
4791 Smoke 31 998 79 4000 4.1 230 15:43 22.07.2019
4792 Smoke 31 998 79 4000 4.1 230 15:19 22.07.2019
4793 Smoke 32 998 74 4000 6.2 230 14:44 22.07.2019
4794 Smoke 32 998 74 4000 6.2 230 14:22 22.07.2019
4795 Smoke 33 998 70 4000 5.1 230 13:50 22.07.2019
4796 Smoke 33 998 70 4500 5.7 220 13:30 22.07.2019
4797 Smoke 34 999 66 5000 4.1 230 12:50 22.07.2019
4798 Smoke 34 999 66 5000 4.1 230 12:31 22.07.2019
4799 Smoke 33 999 66 5000 5.1 230 11:55 22.07.2019
4800 Haze 33 999 66 5000 5.1 180 11:36 22.07.2019
4801 Haze 33 999 66 5000 5.1 180 11:18 22.07.2019
4802 Haze 33 1000 66 4500 4.6 200 10:34 22.07.2019
4803 Haze 32 1000 70 4500 5.7 190 09:46 22.07.2019
4804 Haze 32 1000 70 4500 5.7 190 09:26 22.07.2019
4805 Haze 31 1000 79 4000 5.1 190 08:59 22.07.2019
4806 Haze 31 1001 79 4000 5.1 180 08:38 22.07.2019
4807 Haze 31 1001 79 4000 4.6 170 08:20 22.07.2019
4808 Haze 31 1001 79 4000 4.6 170 07:52 22.07.2019
4809 Haze 31 1000 79 4000 4.6 170 07:27 22.07.2019
4810 Mist 29 1000 88 2200 2.6 140 05:30 22.07.2019
4811 Haze 27 1000 88 2500 2.6 120 03:45 22.07.2019
4812 Thunderstorm 27 999 88 2500 0.5 70 01:28 22.07.2019
4813 Thunderstorm 27 999 94 2500 2.1 90 00:49 22.07.2019
4814 Thunderstorm 27 999 94 2500 2.1 90 00:22 22.07.2019
4815 Thunderstorm 26 999 100 2200 1.5 50 23:50 21.07.2019
4816 Thunderstorm 26 1000 100 2500 2.1 260 22:59 21.07.2019
4817 Thunderstorm 26 1000 94 2500 4.6 250 22:41 21.07.2019
4818 Thunderstorm 26 1000 94 2500 4.6 250 22:21 21.07.2019
4819 Thunderstorm 27 1000 88 1300 6.2 240 21:55 21.07.2019
4820 Thunderstorm 30 1000 79 3000 4.6 150 21:36 21.07.2019
4821 Thunderstorm 30 1000 79 3000 4.6 150 21:18 21.07.2019
4822 Thunderstorm 30 1000 79 3000 2.6 340 20:41 21.07.2019
4823 Thunderstorm 30 1000 79 3000 2.6 340 20:23 21.07.2019
4824 Thunderstorm 30 1000 74 3000 2.6 350 19:52 21.07.2019
4825 Haze 30 1001 79 3000 1.5 350 19:29 21.07.2019
4826 Haze 30 1001 79 3000 3.1 300 18:56 21.07.2019
4827 Haze 31 1000 74 3000 3.1 320 18:37 21.07.2019
4828 Haze 30 1000 79 3000 3.1 280 18:19 21.07.2019
4829 Haze 30 1000 79 3000 2.1 350 17:40 21.07.2019
4830 Haze 30 999 79 3000 2.1 290 17:19 21.07.2019
4831 Haze 31 999 79 3000 1.5 290 16:42 21.07.2019
4832 Haze 31 999 79 3000 1.5 290 16:24 21.07.2019
4833 Haze 31 998 74 4000 3.6 280 15:43 21.07.2019
4834 Haze 31 998 74 4000 3.6 280 15:22 21.07.2019
4835 Haze 32 998 74 4000 3.6 280 14:54 21.07.2019
4836 Haze 32 998 74 4000 5.1 270 14:25 21.07.2019
4837 Haze 32 998 74 4000 4.6 280 13:59 21.07.2019
4838 Haze 32 998 70 4000 5.1 260 13:40 21.07.2019
4839 Haze 32 998 70 4000 5.1 260 13:20 21.07.2019
4840 Haze 32 999 70 4000 4.6 260 12:41 21.07.2019
4841 Haze 32 999 70 4000 4.6 260 12:22 21.07.2019
4842 Haze 32 1000 70 4000 3.6 250 11:46 21.07.2019
4843 Haze 32 1000 70 4000 3.6 250 11:27 21.07.2019
4844 Haze 32 1000 70 4000 4.1 290 10:47 21.07.2019
4845 Haze 31 1001 74 4000 3.6 250 10:25 21.07.2019
4846 Haze 31 1001 74 4000 3.1 270 09:55 21.07.2019
4847 Haze 31 1001 79 4000 2.6 270 09:36 21.07.2019
4848 Haze 30 1001 79 4000 3.6 270 08:50 21.07.2019
4849 Haze 30 1001 79 4000 4.1 240 08:32 21.07.2019
4850 Haze 29 1001 83 4000 3.1 270 07:56 21.07.2019
4851 Haze 30 1001 79 3000 1.12 199.064 07:19 21.07.2019
4852 Haze 29 1001 83 2500 1.1 6.899 06:34 21.07.2019
4853 Haze 28 1001 88 2500 1.1 6.899 04:19 21.07.2019
4854 Mist 27 1000 94 2100 2.1 80 01:57 21.07.2019
4855 Mist 27 1000 94 1800 2.6 100 00:48 21.07.2019
4856 Mist 27 1000 94 2100 2.35 14.616 00:22 21.07.2019
4857 Mist 27 1000 94 2100 2.35 14.616 23:48 20.07.2019
4858 Mist 27 1000 94 2100 2.35 14.616 23:27 20.07.2019
4859 Mist 27 1001 94 2100 2.35 14.616 22:58 20.07.2019
4860 Haze 27 1001 94 2100 2.35 14.616 22:40 20.07.2019
4861 Haze 27 1002 94 2100 1.5 70 22:19 20.07.2019
4862 Haze 27 1002 94 2100 2.1 100 21:43 20.07.2019
4863 Haze 27 1002 94 2100 2.1 100 21:24 20.07.2019
4864 Rain 28 1002 83 2100 2.1 100 20:43 20.07.2019
4865 Rain 27 1002 88 2100 2.1 120 20:23 20.07.2019
4866 Rain 27 1002 88 2100 2.1 120 19:52 20.07.2019
4867 Haze 27 1002 88 2100 2.1 120 19:33 20.07.2019
4868 Haze 27 1002 88 1600 2.6 120 18:57 20.07.2019
4869 Thunderstorm 27 1002 88 1600 2.6 100 18:38 20.07.2019
4870 Thunderstorm 27 1001 88 2100 1.93 314.937 18:19 20.07.2019
4871 Thunderstorm 27 1001 88 2100 1.5 90 17:46 20.07.2019
4872 Thunderstorm 27 1001 88 2100 1.5 90 17:20 20.07.2019
4873 Thunderstorm 27 1001 88 1800 3.1 80 16:42 20.07.2019
4874 Thunderstorm 28 1001 88 1800 3.1 80 16:24 20.07.2019
4875 Thunderstorm 28 1001 88 1700 4.1 90 15:55 20.07.2019
4876 Thunderstorm 28 1000 88 2500 2.1 110 15:37 20.07.2019
4877 Thunderstorm 28 1000 88 2500 2.1 110 15:18 20.07.2019
4878 Thunderstorm 29 1000 88 2100 2.6 340 14:42 20.07.2019
4879 Thunderstorm 29 1000 88 2100 2.6 340 14:20 20.07.2019
4880 Thunderstorm 30 1000 89 1600 2.1 30 13:38 20.07.2019
4881 Thunderstorm 30 1000 89 1600 2.1 30 13:19 20.07.2019
4882 Thunderstorm 31 1001 84 2500 3.1 340 12:51 20.07.2019
4883 Rain 31 1000 74 4000 3.1 310 12:20 20.07.2019
4884 Haze 32 1001 70 4000 5.7 280 11:52 20.07.2019
4885 Haze 32 1001 70 4000 5.1 290 11:23 20.07.2019
4886 Haze 32 1002 74 3500 5.1 240 10:49 20.07.2019
4887 Haze 31 1002 74 3500 5.1 240 10:26 20.07.2019
4888 Rain 31 1002 79 3000 5.1 230 09:53 20.07.2019
4889 Haze 31 1002 74 3500 4.1 260 09:27 20.07.2019
4890 Haze 31 1002 74 3500 5.1 270 08:57 20.07.2019
4891 Haze 30 1003 79 3500 3.1 260 08:36 20.07.2019
4892 Haze 30 1003 79 3500 3.1 260 08:18 20.07.2019
4893 Haze 30 1003 79 3000 3.6 160 07:18 20.07.2019
4894 Haze 31 1003 79 3000 2.6 170 06:31 20.07.2019
4895 Rain 29 1002 83 2600 3.1 80 04:31 20.07.2019
4896 Haze 29 1001 83 4000 4.24 180.324 02:36 20.07.2019
4897 Smoke 28 1001 94 5000 1.5 190 01:21 20.07.2019
4898 Smoke 29 1001 83 5000 1 170 00:45 20.07.2019
4899 Smoke 29 1001 83 5000 1 280 00:18 20.07.2019
4900 Smoke 29 1002 83 5000 2.1 290 23:43 19.07.2019
4901 Smoke 29 1002 83 5000 2.1 290 23:22 19.07.2019
4902 Smoke 29 1002 83 5000 2.6 190 22:44 19.07.2019
4903 Smoke 29 1002 83 5000 2.6 190 22:25 19.07.2019
4904 Clouds 30 1003 79 6000 2.6 80 21:47 19.07.2019
4905 Clouds 30 1003 79 6000 2.6 80 21:29 19.07.2019
4906 Clouds 30 1003 79 6000 2.6 210 20:50 19.07.2019
4907 Smoke 30 1003 79 5000 1.5 210 20:31 19.07.2019
4908 Smoke 30 1003 79 4000 2.6 230 19:55 19.07.2019
4909 Smoke 30 1003 79 3500 2.6 230 19:34 19.07.2019
4910 Haze 30 1002 79 3000 2.6 240 18:43 19.07.2019
4911 Haze 30 1002 79 3000 2.6 240 18:43 19.07.2019
4912 Haze 30 1002 79 3000 2.6 240 18:23 19.07.2019
4913 Haze 30 1002 74 3000 4.1 270 17:55 19.07.2019
4914 Haze 30 1002 74 3000 4.1 270 17:29 19.07.2019
4915 Haze 31 1001 70 3500 4.1 270 16:49 19.07.2019
4916 Haze 31 1001 70 3500 4.1 270 16:29 19.07.2019
4917 Haze 31 1001 70 3500 3.6 280 15:56 19.07.2019
4918 Haze 32 1001 74 4000 4.1 270 15:38 19.07.2019
4919 Haze 32 1000 66 4000 5.1 260 15:20 19.07.2019
4920 Haze 32 1000 70 4000 4.1 290 14:44 19.07.2019
4921 Haze 32 1000 70 4000 4.1 290 14:25 19.07.2019
4922 Haze 32 1000 70 4000 6.2 250 13:46 19.07.2019
4923 Haze 32 1000 70 4000 6.2 250 13:27 19.07.2019
4924 Haze 32 1000 66 4000 4.6 260 12:57 19.07.2019
4925 Haze 32 1001 66 4000 6.2 270 12:37 19.07.2019
4926 Haze 32 1001 66 4000 6.7 250 12:19 19.07.2019
4927 Haze 32 1002 66 4000 4.6 280 11:44 19.07.2019
4928 Haze 32 1002 66 4000 4.6 280 11:18 19.07.2019
4929 Haze 32 1003 66 4000 4.6 240 10:48 19.07.2019
4930 Haze 32 1003 70 4000 3.6 290 10:23 19.07.2019
4931 Haze 32 1003 70 4000 3.6 290 09:59 19.07.2019
4932 Haze 32 1003 70 4000 3.6 270 09:40 19.07.2019
4933 Haze 32 1003 70 4000 3.6 270 09:21 19.07.2019
4934 Haze 31 1004 74 3000 2.6 270 08:48 19.07.2019
4935 Haze 30 1004 74 3000 2.6 280 07:59 19.07.2019
4936 Haze 29 1004 79 3000 4.1 230 07:29 19.07.2019
4937 Haze 31 1004 74 2500 1.5 140 05:57 19.07.2019
4938 Haze 28 1002 88 1600 1.5 130 02:43 19.07.2019
4939 Haze 29 1002 83 2500 2.64 252.231 01:20 19.07.2019
4940 Mist 29 1002 79 3000 2.1 260 00:45 19.07.2019
4941 Haze 29 1003 79 3000 3.1 240 23:58 18.07.2019
4942 Haze 29 1003 79 3000 1.5 240 23:39 18.07.2019
4943 Haze 29 1003 79 3000 1.5 240 23:21 18.07.2019
4944 Haze 29 1003 83 3000 2.1 220 22:41 18.07.2019
4945 Haze 29 1004 79 3000 2.6 240 22:20 18.07.2019
4946 Haze 30 1004 79 3000 4.6 250 21:49 18.07.2019
4947 Haze 30 1004 79 3000 4.6 250 21:30 18.07.2019
4948 Haze 29 1004 79 3000 2.6 230 20:54 18.07.2019
4949 Haze 29 1005 79 3000 3.1 220 20:36 18.07.2019
4950 Haze 29 1005 79 3000 3.6 240 20:18 18.07.2019
4951 Haze 29 1005 83 3000 4.1 240 19:43 18.07.2019
4952 Haze 29 1005 83 3000 4.1 240 19:20 18.07.2019
4953 Haze 30 1004 74 3000 4.1 250 18:43 18.07.2019
4954 Haze 30 1004 74 3000 4.1 250 18:21 18.07.2019
4955 Haze 30 1003 74 3000 3.6 250 17:44 18.07.2019
4956 Haze 30 1003 74 3000 3.6 250 17:25 18.07.2019
4957 Haze 31 1003 74 4000 4.1 250 16:57 18.07.2019
4958 Haze 31 1003 74 4000 4.6 260 16:39 18.07.2019
4959 Haze 31 1002 74 4000 4.6 260 16:19 18.07.2019
4960 Haze 31 1002 74 4000 4.6 260 15:51 18.07.2019
4961 Haze 31 1002 70 5000 5.1 270 15:33 18.07.2019
4962 Haze 31 1002 70 5000 5.7 270 14:53 18.07.2019
4963 Haze 31 1002 70 5000 5.7 260 14:33 18.07.2019
4964 Haze 32 1003 74 5000 4.6 290 13:50 18.07.2019
4965 Haze 32 1003 66 5000 5.1 280 13:27 18.07.2019
4966 Haze 32 1003 66 5000 3.6 280 12:54 18.07.2019
4967 Haze 32 1003 66 5000 3.6 280 12:36 18.07.2019
4968 Haze 32 1004 66 5000 5.7 300 12:18 18.07.2019
4969 Haze 32 1004 66 5000 5.7 300 12:18 18.07.2019
4970 Haze 32 1004 66 4000 5.7 290 11:46 18.07.2019
4971 Haze 32 1004 62 4000 4.6 300 11:22 18.07.2019
4972 Haze 32 1004 62 4000 4.6 300 10:51 18.07.2019
4973 Haze 31 1005 70 4000 4.6 270 09:50 18.07.2019
4974 Haze 31 1005 70 4000 4.6 270 09:27 18.07.2019
4975 Haze 31 1005 74 4000 4.6 250 08:54 18.07.2019
4976 Haze 31 1005 74 4000 4.6 250 08:25 18.07.2019
4977 Haze 31 1005 74 3500 5.7 260 07:58 18.07.2019
4978 Haze 31 1005 74 3500 5.7 260 07:36 18.07.2019
4979 Haze 29 1005 84 3000 5.1 270 06:55 18.07.2019
4980 Rain 28 1005 88 2200 1.5 250 06:30 18.07.2019
4981 Smoke 28 1005 88 4000 2.6 220 03:46 18.07.2019
4982 Smoke 28 1005 88 2500 2.1 220 02:51 18.07.2019
4983 Haze 28 1004 88 2500 2.6 220 01:36 18.07.2019
4984 Haze 28 1005 88 2500 2.1 210 00:23 18.07.2019
4985 Haze 28 1005 88 2500 3.1 220 23:45 17.07.2019
4986 Haze 29 1005 83 2500 2.6 220 23:18 17.07.2019
4987 Haze 29 1005 83 2500 3.1 230 22:42 17.07.2019
4988 Haze 29 1005 83 2500 3.1 230 22:23 17.07.2019
4989 Haze 29 1005 83 2500 3.1 230 22:23 17.07.2019
4990 Haze 29 1006 83 3000 4.1 220 21:58 17.07.2019
4991 Haze 29 1006 83 3000 4.1 220 21:39 17.07.2019
4992 Haze 29 1006 83 3000 2.6 210 21:20 17.07.2019
4993 Haze 29 1006 83 3000 2.6 210 20:56 17.07.2019
4994 Haze 29 1006 83 3000 3.6 210 20:38 17.07.2019
4995 Haze 29 1007 79 3000 2.6 220 20:19 17.07.2019
4996 Haze 29 1007 79 3000 2.6 220 19:42 17.07.2019
4997 Haze 29 1007 79 3500 3.6 230 19:20 17.07.2019
4998 Haze 29 1006 79 3500 3.1 250 18:56 17.07.2019
4999 Haze 29 1006 79 3500 3.1 250 18:37 17.07.2019
5000 Haze 30 1006 79 3500 3.6 220 18:18 17.07.2019
5001 Haze 30 1006 79 3500 3.6 220 17:43 17.07.2019
5002 Haze 30 1006 79 3500 3.6 220 17:22 17.07.2019
5003 Haze 30 1005 79 3500 3.6 250 16:42 17.07.2019
5004 Haze 30 1005 79 3500 3.6 250 16:22 17.07.2019
5005 Haze 30 1005 79 4000 4.6 250 15:51 17.07.2019
5006 Haze 30 1005 79 4000 4.6 250 15:31 17.07.2019
5007 Haze 31 1005 74 4000 6.2 250 14:57 17.07.2019
5008 Haze 31 1005 74 4000 5.7 270 14:39 17.07.2019
5009 Haze 31 1005 74 4000 5.7 270 14:20 17.07.2019
5010 Haze 32 1005 74 4000 6.2 250 13:51 17.07.2019
5011 Haze 32 1005 74 4000 6.2 250 13:31 17.07.2019
5012 Haze 32 1005 74 4000 6.7 260 12:59 17.07.2019
5013 Haze 32 1005 70 4000 6.7 250 12:38 17.07.2019
5014 Haze 32 1006 74 4000 4.6 270 12:19 17.07.2019
5015 Haze 32 1006 74 4000 6.7 250 11:41 17.07.2019
5016 Haze 32 1006 74 4000 6.2 260 11:19 17.07.2019
5017 Smoke 32 1006 74 4000 5.1 260 10:48 17.07.2019
5018 Smoke 32 1006 70 4000 5.7 240 10:24 17.07.2019
5019 Smoke 32 1006 70 4000 6.2 240 09:45 17.07.2019
5020 Smoke 31 1007 74 4000 5.7 240 09:27 17.07.2019
5021 Smoke 31 1007 74 4000 6.7 260 08:45 17.07.2019
5022 Smoke 31 1007 79 4000 4.1 280 08:24 17.07.2019
5023 Smoke 31 1007 79 4000 4.1 280 07:59 17.07.2019
5024 Smoke 31 1007 79 4000 6.2 260 07:40 17.07.2019
5025 Smoke 30 1007 84 3500 5.7 260 07:21 17.07.2019
5026 Smoke 30 1007 79 3000 3.6 260 06:45 17.07.2019
5027 Smoke 30 1007 79 3000 3.6 260 06:24 17.07.2019
5028 Smoke 30 1007 79 3000 5.7 250 05:38 17.07.2019
5029 Smoke 29 1007 89 3000 2.1 180 04:58 17.07.2019
5030 Haze 28 1006 88 3000 1.5 170 03:55 17.07.2019
5031 Haze 28 1006 88 3000 1.5 190 02:44 17.07.2019
5032 Haze 28 1005 88 3000 3.1 230 01:42 17.07.2019
5033 Haze 28 1005 88 3000 3.1 230 01:22 17.07.2019
5034 Haze 28 1006 88 3000 6.29 254.308 00:43 17.07.2019
5035 Haze 28 1006 88 3000 7.14 244.931 00:23 17.07.2019
5036 Haze 28 1006 88 3000 2.1 170 23:46 16.07.2019
5037 Haze 28 1006 88 3000 2.1 170 23:25 16.07.2019
5038 Haze 29 1007 79 3000 2.6 200 22:57 16.07.2019
5039 Haze 29 1007 79 3000 2.6 260 22:39 16.07.2019
5040 Haze 29 1007 83 3000 2.6 220 22:19 16.07.2019
5041 Haze 29 1007 83 3000 3.6 230 21:43 16.07.2019
5042 Haze 29 1007 83 3000 2.6 230 21:20 16.07.2019
5043 Haze 29 1007 83 3000 3.1 220 20:41 16.07.2019
5044 Haze 29 1007 83 3000 3.1 220 20:23 16.07.2019
5045 Haze 29 1007 83 3000 2.6 210 19:56 16.07.2019
5046 Haze 29 1007 83 3000 2.6 210 19:37 16.07.2019
5047 Haze 29 1007 83 3000 2.6 220 19:19 16.07.2019
5048 Haze 29 1007 83 3000 3.6 230 18:45 16.07.2019
5049 Haze 29 1007 83 3000 3.1 270 18:21 16.07.2019
5050 Haze 29 1007 83 3000 4.1 240 17:55 16.07.2019
5051 Haze 29 1007 83 3000 4.1 240 17:36 16.07.2019
5052 Haze 29 1007 83 3000 4.1 240 16:59 16.07.2019
5053 Haze 29 1006 79 3000 4.1 260 16:38 16.07.2019
5054 Haze 29 1006 83 3000 4.1 250 16:18 16.07.2019
5055 Haze 29 1006 83 3000 4.1 280 15:40 16.07.2019
5056 Haze 30 1006 74 3000 6.2 260 15:21 16.07.2019
5057 Haze 30 1006 74 3000 6.2 260 14:58 16.07.2019
5058 Haze 30 1005 79 3000 5.1 280 14:39 16.07.2019
5059 Haze 30 1006 79 3000 5.7 260 14:20 16.07.2019
5060 Haze 30 1006 79 3000 5.7 260 13:44 16.07.2019
5061 Haze 30 1006 79 3000 5.7 260 13:44 16.07.2019
5062 Haze 31 1006 74 3000 6.2 250 13:21 16.07.2019
5063 Haze 30 1006 79 3000 5.7 250 12:45 16.07.2019
5064 Haze 31 1006 79 3000 8.2 250 12:20 16.07.2019
5065 Haze 31 1006 79 3000 8.2 250 11:58 16.07.2019
5066 Rain 31 1006 79 3000 4.1 260 11:40 16.07.2019
5067 Haze 31 1007 79 3500 3.6 260 11:21 16.07.2019
5068 Haze 30 1007 84 3500 5.1 270 10:45 16.07.2019
5069 Haze 30 1007 84 3500 5.1 270 10:22 16.07.2019
5070 Haze 30 1007 79 3000 5.1 260 09:56 16.07.2019
5071 Haze 29 1007 79 2500 6.2 240 09:36 16.07.2019
5072 Rain 28 1008 83 2500 4.6 230 09:18 16.07.2019
5073 Haze 29 1008 79 2500 6.2 250 08:41 16.07.2019
5074 Rain 28 1008 88 2500 4.1 290 08:19 16.07.2019
5075 Rain 29 1007 89 1500 3.6 260 07:41 16.07.2019
5076 Rain 29 1007 89 1500 3.6 260 07:23 16.07.2019
5077 Rain 30 1007 79 2500 4.6 260 06:47 16.07.2019
5078 Haze 30 1007 79 3000 4.1 230 06:22 16.07.2019
5079 Haze 30 1007 79 2500 5.1 230 05:36 16.07.2019
5080 Haze 30 1006 89 2500 4.6 230 05:18 16.07.2019
5081 Haze 29 1006 83 2500 3.6 240 03:54 16.07.2019
5082 Haze 28 1005 94 2500 3.6 230 03:20 16.07.2019
5083 Haze 28 1005 94 2500 3.6 230 02:30 16.07.2019
5084 Rain 28 1005 82 0 7 238.314 01:44 16.07.2019
5085 Haze 29 1005 83 2500 3.1 240 00:47 16.07.2019
5086 Haze 29 1005 83 2500 3.1 240 00:20 16.07.2019
5087 Haze 29 1005 83 2500 4.6 240 23:47 15.07.2019
5088 Haze 29 1005 83 2500 4.6 240 23:29 15.07.2019
5089 Haze 29 1006 89 2500 2.6 240 22:48 15.07.2019
5090 Haze 29 1006 89 3000 3.6 220 22:22 15.07.2019
5091 Haze 29 1006 89 3000 3.6 220 21:59 15.07.2019
5092 Haze 29 1006 89 3000 3.6 220 21:41 15.07.2019
5093 Haze 29 1006 89 3000 4.6 210 21:20 15.07.2019
5094 Haze 29 1006 89 3000 4.6 210 20:57 15.07.2019
5095 Haze 29 1006 83 3000 3.1 230 20:38 15.07.2019
5096 Haze 29 1006 83 3000 4.1 210 20:19 15.07.2019
5097 Haze 29 1006 83 3000 3.1 220 19:43 15.07.2019
5098 Haze 29 1006 83 3000 4.1 230 19:21 15.07.2019
5099 Haze 29 1006 83 3000 4.1 230 19:21 15.07.2019
5100 Haze 29 1006 83 3000 4.1 230 18:55 15.07.2019
5101 Haze 29 1006 83 3000 4.1 230 18:55 15.07.2019
5102 Haze 29 1006 83 3000 4.1 220 18:36 15.07.2019
5103 Haze 29 1005 83 3000 4.1 230 18:18 15.07.2019
5104 Haze 29 1005 83 3000 4.1 240 17:44 15.07.2019
5105 Haze 29 1005 83 3000 4.1 240 17:26 15.07.2019
5106 Haze 30 1005 83 3000 4.1 230 16:59 15.07.2019
5107 Haze 30 1005 79 3500 5.1 240 16:38 15.07.2019
5108 Haze 30 1005 79 3500 6.7 220 16:20 15.07.2019
5109 Haze 30 1005 79 3500 6.7 220 16:20 15.07.2019
5110 Haze 30 1005 79 3500 6.7 220 15:55 15.07.2019
5111 Haze 30 1005 79 3500 6.2 240 15:36 15.07.2019
5112 Haze 30 1005 79 3500 4.1 240 15:18 15.07.2019
5113 Haze 30 1005 79 3500 4.6 240 14:41 15.07.2019
5114 Haze 30 1005 79 3500 4.6 240 14:23 15.07.2019
5115 Haze 31 1005 79 3500 6.2 230 13:50 15.07.2019
5116 Haze 31 1005 79 3500 6.2 230 13:50 15.07.2019
5117 Haze 31 1005 79 3500 7.2 240 13:22 15.07.2019
5118 Haze 31 1005 79 3500 7.2 240 12:58 15.07.2019
5119 Haze 31 1006 79 3000 5.1 260 12:40 15.07.2019
5120 Haze 31 1006 74 3000 6.2 230 12:20 15.07.2019
5121 Haze 32 1006 74 3000 5.1 260 11:41 15.07.2019
5122 Haze 32 1006 74 3000 5.1 260 11:22 15.07.2019
5123 Haze 32 1006 74 3000 5.7 240 10:45 15.07.2019
5124 Haze 32 1006 74 3000 5.7 240 10:26 15.07.2019
5125 Rain 32 1006 79 3000 6.2 250 09:48 15.07.2019
5126 Rain 32 1006 79 3000 6.2 250 09:26 15.07.2019
5127 Smoke 32 1007 74 4000 5.1 230 08:59 15.07.2019
5128 Smoke 32 1007 74 4000 5.1 230 08:41 15.07.2019
5129 Smoke 32 1007 74 4000 5.1 230 08:23 15.07.2019
5130 Haze 31 1007 79 4000 6.2 240 07:38 15.07.2019
5131 Rain 31 1007 79 4000 6.7 260 06:59 15.07.2019
5132 Smoke 31 1006 74 5000 6.2 250 06:38 15.07.2019
5133 Smoke 30 1006 79 4000 5.1 250 05:44 15.07.2019
5134 Smoke 30 1006 79 4000 5.1 250 05:26 15.07.2019
5135 Haze 30 1005 83 3000 4.1 250 04:41 15.07.2019
5136 Haze 29 1005 83 3000 3.6 250 03:39 15.07.2019
5137 Haze 29 1004 83 3000 4.6 240 02:44 15.07.2019
5138 Haze 29 1005 83 3000 5.1 240 01:43 15.07.2019
5139 Haze 29 1005 83 3000 5.1 240 01:24 15.07.2019
5140 Haze 29 1004 83 3000 3.6 260 00:51 15.07.2019
5141 Haze 29 1005 83 3000 4.6 250 00:19 15.07.2019
5142 Haze 29 1005 83 3000 4.6 250 23:55 14.07.2019
5143 Haze 29 1005 83 3000 5.1 260 23:36 14.07.2019
5144 Haze 29 1005 83 3000 4.6 240 23:18 14.07.2019
5145 Haze 29 1006 83 3000 4.1 240 22:40 14.07.2019
5146 Haze 29 1006 83 3000 4.1 240 22:40 14.07.2019
5147 Haze 29 1006 83 3000 4.6 240 22:22 14.07.2019
5148 Haze 29 1006 83 3000 4.6 240 21:58 14.07.2019
5149 Haze 29 1006 83 3000 3.6 230 21:40 14.07.2019
5150 Haze 29 1007 83 3000 4.1 240 21:18 14.07.2019
5151 Haze 29 1007 83 3000 4.1 240 20:55 14.07.2019
5152 Haze 29 1007 83 3000 5.1 240 20:36 14.07.2019
5153 Haze 29 1007 83 3000 4.6 250 20:18 14.07.2019
5154 Haze 29 1007 83 3000 3.1 240 19:43 14.07.2019
5155 Haze 29 1007 83 3000 4.6 240 19:24 14.07.2019
5156 Haze 29 1007 83 3000 4.6 240 18:57 14.07.2019
5157 Haze 29 1007 83 3000 4.1 240 18:38 14.07.2019
5158 Haze 29 1007 83 3000 4.6 240 18:18 14.07.2019
5159 Haze 29 1006 83 3000 4.6 240 17:47 14.07.2019
5160 Haze 29 1006 89 3000 4.1 260 17:20 14.07.2019
5161 Haze 30 1006 83 3000 4.6 260 16:46 14.07.2019
5162 Haze 30 1006 83 3000 4.6 260 16:24 14.07.2019
5163 Smoke 30 1005 84 4000 4.6 240 15:54 14.07.2019
5164 Smoke 30 1005 84 4000 4.6 240 15:29 14.07.2019
5165 Smoke 29 1005 83 4000 4.6 260 14:49 14.07.2019
5166 Smoke 29 1005 83 4000 4.6 260 14:22 14.07.2019
5167 Smoke 30 1006 79 4000 4.1 260 13:49 14.07.2019
5168 Smoke 30 1006 79 4000 4.1 260 13:26 14.07.2019
5169 Smoke 30 1006 79 4000 4.6 250 12:59 14.07.2019
5170 Smoke 29 1006 83 4000 4.1 260 12:41 14.07.2019
5171 Smoke 30 1006 74 4000 5.7 260 12:21 14.07.2019
5172 Smoke 31 1007 79 4000 6.7 250 11:52 14.07.2019
5173 Smoke 31 1007 74 4000 7.2 270 11:24 14.07.2019
5174 Haze 30 1007 79 4000 4.1 270 10:50 14.07.2019
5175 Haze 29 1007 79 4000 4.1 270 10:26 14.07.2019
5176 Haze 29 1008 79 3000 6.2 270 09:56 14.07.2019
5177 Haze 29 1008 79 3000 6.2 270 09:37 14.07.2019
5178 Haze 29 1008 79 3000 3.6 270 09:19 14.07.2019
5179 Rain 28 1008 88 2200 5.7 260 08:41 14.07.2019
5180 Haze 31 1008 79 4000 5.1 240 07:57 14.07.2019
5181 Haze 31 1008 79 4000 4.1 240 07:35 14.07.2019
5182 Haze 31 1008 79 4000 5.7 250 06:40 14.07.2019
5183 Haze 30 1008 84 3500 5.1 240 05:44 14.07.2019
5184 Haze 29 1006 83 3000 4.6 240 03:46 14.07.2019
5185 Haze 29 1006 83 3000 4.6 240 03:28 14.07.2019
5186 Haze 29 1006 83 3000 4.1 230 02:41 14.07.2019
5187 Haze 29 1006 83 3000 5.7 250 02:21 14.07.2019
5188 Haze 29 1006 83 3000 5.1 240 01:32 14.07.2019
5189 Haze 28 1006 88 3000 5.7 250 00:56 14.07.2019
5190 Haze 28 1006 88 3000 5.7 250 00:37 14.07.2019
5191 Haze 29 1006 83 3000 6.2 240 00:19 14.07.2019
5192 Haze 29 1007 83 3000 6.7 240 23:43 13.07.2019
5193 Haze 29 1007 83 3000 6.7 240 23:23 13.07.2019
5194 Haze 29 1007 89 3000 4.6 230 22:47 13.07.2019
5195 Haze 29 1007 89 3000 4.6 230 22:23 13.07.2019
5196 Haze 29 1008 83 3000 4.1 240 21:58 13.07.2019
5197 Haze 29 1008 89 3000 5.7 230 21:39 13.07.2019
5198 Haze 28 1008 88 3000 2.6 240 21:19 13.07.2019
5199 Haze 29 1008 83 3000 5.1 210 20:41 13.07.2019
5200 Haze 29 1008 83 3000 5.1 210 20:23 13.07.2019
5201 Haze 29 1008 89 3000 5.1 240 19:43 13.07.2019
5202 Haze 29 1008 89 3000 5.1 240 19:25 13.07.2019
5203 Haze 29 1008 89 3000 3.6 230 18:42 13.07.2019
5204 Haze 29 1008 89 3000 4.6 230 18:20 13.07.2019
5205 Haze 29 1008 89 3000 3.6 230 17:38 13.07.2019
5206 Haze 29 1008 89 2500 4.1 230 17:20 13.07.2019
5207 Haze 30 1007 89 2500 4.6 230 16:46 13.07.2019
5208 Haze 30 1007 89 2500 4.6 230 16:26 13.07.2019
5209 Haze 30 1007 89 2500 4.6 230 16:26 13.07.2019
5210 Rain 30 1007 89 2500 4.1 250 15:59 13.07.2019
5211 Haze 30 1007 89 2500 5.1 220 15:40 13.07.2019
5212 Rain 29 1007 89 2500 5.7 240 15:20 13.07.2019
5213 Rain 29 1006 89 2500 5.1 220 14:41 13.07.2019
5214 Rain 29 1006 89 2500 5.1 220 14:21 13.07.2019
5215 Rain 28 1007 88 2500 5.1 220 13:45 13.07.2019
5216 Rain 28 1007 88 2500 5.1 220 13:24 13.07.2019
5217 Rain 28 1007 83 2500 3.1 220 12:56 13.07.2019
5218 Rain 28 1007 88 2500 5.1 240 12:36 13.07.2019
5219 Rain 27 1007 94 2200 6.7 250 12:18 13.07.2019
5220 Rain 30 1007 79 1500 4.6 240 11:39 13.07.2019
5221 Haze 30 1007 79 2500 3.6 250 11:19 13.07.2019
5222 Haze 29 1008 79 2500 5.1 260 10:42 13.07.2019
5223 Rain 29 1008 83 2100 6.7 260 10:23 13.07.2019
5224 Rain 29 1008 83 2100 6.7 260 09:52 13.07.2019
5225 Haze 29 1008 83 3500 4.1 280 09:30 13.07.2019
5226 Haze 30 1008 79 3500 6.7 260 08:57 13.07.2019
5227 Haze 29 1008 83 3000 7.7 260 08:29 13.07.2019
5228 Haze 30 1008 74 2500 10.8 290 07:56 13.07.2019
5229 Haze 30 1008 79 2500 6.7 260 07:29 13.07.2019
5230 Haze 27 1008 94 2500 5.1 270 06:37 13.07.2019
5231 Rain 29 1007 88 2500 3.6 240 05:51 13.07.2019
5232 Mist 29 1007 89 2500 3.1 210 04:42 13.07.2019
5233 Mist 29 1007 89 2500 3.1 210 04:21 13.07.2019
5234 Mist 29 1007 83 2500 3.6 230 03:55 13.07.2019
5235 Mist 28 1006 88 2500 3.6 220 03:37 13.07.2019
5236 Drizzle 28 1006 88 2200 3.6 230 01:54 13.07.2019
5237 Drizzle 28 1006 88 2200 3.6 230 01:36 13.07.2019
5238 Drizzle 28 1006 88 2500 3.6 230 01:18 13.07.2019
5239 Mist 28 1006 88 3000 3.1 220 00:46 13.07.2019
5240 Haze 29 1006 89 3000 3.6 210 00:18 13.07.2019
5241 Haze 28 1007 94 3000 3.6 230 23:42 12.07.2019
5242 Haze 28 1007 94 3000 3.6 230 23:23 12.07.2019
5243 Haze 29 1007 89 3000 3.6 220 22:42 12.07.2019
5244 Haze 29 1007 89 3000 3.6 220 22:23 12.07.2019
5245 Haze 29 1008 89 3000 4.1 220 21:42 12.07.2019
5246 Haze 29 1008 89 3000 4.1 220 21:22 12.07.2019
5247 Haze 29 1008 89 3000 4.1 210 20:54 12.07.2019
5248 Haze 29 1008 89 3000 4.6 240 20:54 12.07.2019
5249 Haze 29 1008 89 3000 4.1 220 20:24 12.07.2019
5250 Haze 29 1008 83 3000 3.1 230 19:45 12.07.2019
5251 Haze 29 1008 89 3000 4.1 210 19:27 12.07.2019
5252 Haze 29 1007 83 3000 5.1 210 18:59 12.07.2019
5253 Haze 29 1007 83 3000 5.1 210 18:39 12.07.2019
5254 Haze 29 1007 89 3000 3.1 200 18:20 12.07.2019
5255 Haze 29 1007 89 3000 4.1 220 17:48 12.07.2019
5256 Haze 29 1007 89 3000 4.1 220 17:27 12.07.2019
5257 Haze 30 1006 89 3000 4.1 230 16:44 12.07.2019
5258 Haze 30 1006 89 3000 4.1 230 16:21 12.07.2019
5259 Haze 30 1006 79 3500 4.1 220 15:41 12.07.2019
5260 Haze 30 1006 79 3500 4.1 220 15:21 12.07.2019
5261 Haze 30 1005 79 4000 5.1 220 14:56 12.07.2019
5262 Haze 30 1005 84 4000 5.7 240 14:38 12.07.2019
5263 Haze 32 1005 79 5000 5.7 220 14:20 12.07.2019
5264 Haze 32 1005 74 5000 5.1 250 13:39 12.07.2019
5265 Haze 32 1005 79 4000 6.7 240 12:59 12.07.2019
5266 Haze 32 1005 74 4000 5.1 240 12:40 12.07.2019
5267 Haze 32 1006 74 4000 5.1 240 12:20 12.07.2019
5268 Rain 31 1006 84 3000 4.6 240 11:44 12.07.2019
5269 Rain 31 1006 84 3000 4.6 240 11:22 12.07.2019
5270 Haze 31 1006 84 3500 6.7 220 10:44 12.07.2019
5271 Haze 31 1006 84 3500 6.7 220 10:24 12.07.2019
5272 Haze 32 1006 74 3500 5.1 240 09:54 12.07.2019
5273 Haze 33 1007 75 3500 4.6 240 09:31 12.07.2019
5274 Haze 32 1007 74 3500 5.1 230 08:59 12.07.2019
5275 Haze 32 1007 79 3000 5.7 230 08:41 12.07.2019
5276 Haze 31 1007 79 3000 4.1 230 08:19 12.07.2019
5277 Haze 31 1007 84 3000 5.7 220 07:46 12.07.2019
5278 Haze 31 1007 84 3000 5.7 220 07:26 12.07.2019
5279 Haze 30 1007 84 3000 6.2 220 06:29 12.07.2019
5280 Haze 29 1007 89 2500 4.6 220 05:48 12.07.2019
5281 Haze 28 1005 94 2000 5.7 250 03:23 12.07.2019
5282 Rain 26 1005 100 2100 3.6 110 01:45 12.07.2019
5283 Rain 26 1005 100 2100 3.6 110 01:26 12.07.2019
5284 Rain 26 1005 94 2100 9.41 230.194 00:30 12.07.2019
5285 Haze 26 1005 94 2500 2.1 150 23:50 11.07.2019
5286 Haze 26 1005 94 2500 2.1 150 23:26 11.07.2019
5287 Rain 26 1006 94 2100 3.1 200 22:59 11.07.2019
5288 Rain 27 1006 94 1600 3.6 220 22:39 11.07.2019
5289 Haze 28 1006 88 2500 6.2 210 22:21 11.07.2019
5290 Haze 29 1006 83 2500 3.1 210 21:42 11.07.2019
5291 Haze 29 1006 83 2500 3.1 210 21:42 11.07.2019
5292 Haze 28 1006 88 2500 3.6 210 21:19 11.07.2019
5293 Haze 28 1007 88 2500 3.1 190 20:56 11.07.2019
5294 Haze 28 1007 88 2500 3.1 190 20:37 11.07.2019
5295 Haze 28 1007 88 2500 3.6 170 20:18 11.07.2019
5296 Haze 28 1007 88 2500 2.6 190 19:45 11.07.2019
5297 Haze 28 1007 88 2500 2.6 190 19:25 11.07.2019
5298 Haze 28 1006 83 2500 3.1 230 18:53 11.07.2019
5299 Haze 28 1006 83 2500 3.1 230 18:53 11.07.2019
5300 Haze 28 1006 83 2500 3.1 230 18:33 11.07.2019
5301 Haze 28 1006 83 2500 4.1 240 17:59 11.07.2019
5302 Drizzle 27 1006 83 2500 3.6 230 17:40 11.07.2019
5303 Haze 29 1006 89 2500 5.1 220 17:22 11.07.2019
5304 Haze 30 1005 89 3000 6.2 230 16:45 11.07.2019
5305 Haze 30 1005 89 3000 6.2 230 16:23 11.07.2019
5306 Drizzle 30 1005 89 3000 5.7 220 15:44 11.07.2019
5307 Drizzle 30 1005 89 3000 5.7 220 15:25 11.07.2019
5308 Rain 31 1004 84 3000 4.1 230 14:59 11.07.2019
5309 Rain 31 1004 84 3000 3.6 230 14:40 11.07.2019
5310 Haze 31 1004 79 3000 4.6 220 14:20 11.07.2019
5311 Haze 32 1004 79 3000 4.6 240 13:46 11.07.2019
5312 Haze 32 1004 79 3000 4.6 240 13:26 11.07.2019
5313 Haze 31 1005 79 3000 4.1 230 12:45 11.07.2019
5314 Haze 31 1005 79 3000 5.7 250 12:26 11.07.2019
5315 Haze 31 1005 74 3000 4.1 240 11:53 11.07.2019
5316 Haze 31 1005 74 3000 4.1 240 11:31 11.07.2019
5317 Haze 31 1005 79 3000 4.1 240 10:59 11.07.2019
5318 Rain 31 1006 79 3000 6.2 240 10:41 11.07.2019
5319 Haze 31 1006 79 3000 6.2 250 10:18 11.07.2019
5320 Haze 31 1006 84 3000 5.7 250 09:44 11.07.2019
5321 Haze 31 1006 84 3000 5.7 250 09:24 11.07.2019
5322 Haze 30 1006 84 2500 6.2 250 08:51 11.07.2019
5323 Haze 30 1006 84 2500 6.2 250 08:24 11.07.2019
5324 Drizzle 30 1006 89 2500 6.2 240 07:52 11.07.2019
5325 Drizzle 30 1006 89 2500 6.2 240 07:32 11.07.2019
5326 Haze 29 1006 83 2500 4.6 240 06:30 11.07.2019
5327 Rain 29 1005 89 2200 7.2 240 05:48 11.07.2019
5328 Rain 29 1005 89 2200 7.2 240 05:29 11.07.2019
5329 Rain 29 1005 94 1500 5.1 250 04:53 11.07.2019
5330 Mist 29 1003 89 2500 6.2 240 02:40 11.07.2019
5331 Rain 29 1003 83 2500 6.2 240 01:27 11.07.2019
5332 Rain 29 1002 89 2500 7.2 240 00:26 11.07.2019
5333 Rain 28 1003 94 2500 7.7 240 23:37 10.07.2019
5334 Rain 28 1003 94 2500 6.2 240 23:18 10.07.2019
5335 Mist 29 1003 89 2500 6.7 240 22:42 10.07.2019
5336 Mist 29 1004 89 2500 6.2 240 22:19 10.07.2019
5337 Rain 29 1004 89 2100 6.2 240 21:44 10.07.2019
5338 Rain 29 1004 89 2100 6.2 240 21:26 10.07.2019
5339 Rain 29 1004 89 2100 6.7 250 20:56 10.07.2019
5340 Rain 28 1004 100 2100 5.7 250 20:37 10.07.2019
5341 Rain 28 1004 100 2100 5.7 250 20:37 10.07.2019
5342 Rain 26 1004 100 1500 6.2 240 20:18 10.07.2019
5343 Rain 27 1004 100 2100 2.6 250 19:42 10.07.2019
5344 Rain 26 1004 94 1500 1.5 310 19:21 10.07.2019
5345 Rain 26 1004 94 2000 2.1 200 18:48 10.07.2019
5346 Rain 26 1004 94 2000 2.1 200 18:25 10.07.2019
5347 Rain 26 1004 94 1400 7.7 260 17:59 10.07.2019
5348 Rain 28 1004 83 2200 6.2 250 17:40 10.07.2019
5349 Haze 28 1003 83 2500 5.7 280 17:19 10.07.2019
5350 Rain 28 1003 88 2100 6.2 280 16:22 10.07.2019
5351 Rain 28 1003 88 2100 6.2 280 15:59 10.07.2019
5352 Drizzle 28 1002 94 2200 5.7 250 15:40 10.07.2019
5353 Drizzle 28 1002 94 2200 5.1 250 15:18 10.07.2019
5354 Drizzle 28 1002 94 1000 1.5 70 14:39 10.07.2019
5355 Drizzle 28 1002 94 2500 9.44 260.431 14:21 10.07.2019
5356 Drizzle 28 1002 94 2500 2.1 210 13:44 10.07.2019
5357 Drizzle 27 1002 100 2500 1.5 230 13:19 10.07.2019
5358 Drizzle 27 1002 100 2500 1.5 230 13:19 10.07.2019
5359 Drizzle 27 1002 100 2500 1.5 230 13:19 10.07.2019
5360 Drizzle 27 1002 100 2500 1.5 230 12:55 10.07.2019
5361 Drizzle 27 1002 94 2200 2.6 280 12:36 10.07.2019
5362 Rain 27 1002 94 2100 2.1 310 12:18 10.07.2019
5363 Rain 27 1002 100 2200 4.1 300 11:40 10.07.2019
5364 Rain 27 1003 100 2100 5.1 260 11:20 10.07.2019
5365 Rain 27 1003 100 2100 5.7 280 10:41 10.07.2019
5366 Rain 27 1003 100 1000 5.1 280 10:19 10.07.2019
5367 Rain 27 1003 100 1500 5.1 270 09:44 10.07.2019
5368 Rain 28 1003 94 2200 7.2 270 09:21 10.07.2019
5369 Rain 28 1003 94 2200 6.2 270 08:50 10.07.2019
5370 Rain 28 1003 94 2200 6.2 270 08:29 10.07.2019
5371 Rain 28 1003 94 2500 6.7 260 07:54 10.07.2019
5372 Rain 28 1003 94 2500 6.7 260 07:31 10.07.2019
5373 Rain 29 1003 88 1500 4.6 240 06:42 10.07.2019
5374 Haze 29 1002 88 3000 2.1 250 05:44 10.07.2019
5375 Haze 28 1002 94 2800 5.7 260 04:35 10.07.2019
5376 Rain 27 1001 94 2100 3.1 230 03:20 10.07.2019
5377 Haze 28 1001 88 2500 3.1 210 00:45 10.07.2019
5378 Rain 28 1001 88 2500 6.2 240 23:59 09.07.2019
5379 Haze 28 1001 88 2500 2.1 210 23:39 09.07.2019
5380 Haze 28 1002 88 2500 2.6 170 23:21 09.07.2019
5381 Haze 28 1002 88 2500 3.1 200 22:40 09.07.2019
5382 Haze 28 1002 88 2500 3.1 200 22:22 09.07.2019
5383 Haze 28 1002 88 2500 3.6 210 21:54 09.07.2019
5384 Haze 28 1002 88 2500 3.6 210 21:54 09.07.2019
5385 Haze 29 1003 83 2500 3.6 210 21:36 09.07.2019
5386 Haze 29 1003 89 2500 2.6 220 21:18 09.07.2019
5387 Haze 29 1003 83 2500 4.1 220 20:42 09.07.2019
5388 Haze 29 1003 83 2500 4.1 220 20:24 09.07.2019
5389 Haze 29 1003 83 2500 3.6 220 19:39 09.07.2019
5390 Haze 29 1003 83 2500 3.1 210 19:20 09.07.2019
5391 Haze 29 1003 83 2500 3.6 230 18:44 09.07.2019
5392 Haze 29 1003 83 2500 3.6 230 18:23 09.07.2019
5393 Haze 29 1002 89 2500 4.1 230 17:54 09.07.2019
5394 Haze 29 1002 89 2500 4.1 230 17:36 09.07.2019
5395 Haze 29 1002 89 2500 5.7 230 17:18 09.07.2019
5396 Haze 29 1002 83 2500 5.1 230 16:41 09.07.2019
5397 Haze 29 1002 83 2500 5.1 230 16:23 09.07.2019
5398 Haze 29 1001 88 2500 6.7 230 15:44 09.07.2019
5399 Haze 30 1001 83 3000 5.1 220 15:26 09.07.2019
5400 Rain 30 1001 83 2500 6.2 210 14:47 09.07.2019
5401 Rain 30 1001 84 2500 6.7 220 14:24 09.07.2019
5402 Rain 30 1001 84 2500 6.7 220 13:59 09.07.2019
5403 Rain 30 1001 84 1200 7.2 230 13:39 09.07.2019
5404 Haze 31 1001 84 3000 6.2 220 13:20 09.07.2019
5405 Haze 31 1001 84 3000 6.7 220 12:40 09.07.2019
5406 Haze 32 1002 79 3000 7.7 220 12:19 09.07.2019
5407 Haze 32 1002 79 3000 7.7 220 11:57 09.07.2019
5408 Haze 32 1002 79 3000 7.2 220 11:38 09.07.2019
5409 Haze 31 1002 84 2500 4.6 220 11:20 09.07.2019
5410 Haze 31 1002 84 2000 4.6 220 10:48 09.07.2019
5411 Rain 29 1003 88 2000 5.1 230 10:26 09.07.2019
5412 Haze 29 1003 88 2000 5.7 210 09:39 09.07.2019
5413 Rain 30 1003 84 2000 5.7 220 09:20 09.07.2019
5414 Rain 30 1003 84 2000 5.7 220 09:20 09.07.2019
5415 Haze 31 1003 84 2100 4.6 220 08:45 09.07.2019
5416 Rain 31 1003 79 1800 5.7 220 08:21 09.07.2019
5417 Mist 29 1002 89 2100 3.6 220 03:52 05.07.2019
5418 Mist 29 1002 89 2500 4.1 230 03:24 05.07.2019
5419 Mist 29 1002 89 2500 4.1 230 03:24 05.07.2019
5420 Mist 29 1001 89 2500 4.1 230 02:54 05.07.2019
5421 Mist 29 1001 89 2500 2.6 250 02:36 05.07.2019
5422 Mist 29 1001 83 2500 3.6 250 01:37 05.07.2019
5423 Mist 28 1001 88 2500 2.1 230 00:54 05.07.2019
5424 Mist 29 1002 83 2500 4.1 220 00:33 05.07.2019
5425 Rain 29 1002 89 2200 4.1 250 23:48 04.07.2019
5426 Rain 29 1002 83 1900 4.1 220 23:20 04.07.2019
5427 Mist 29 1002 89 2200 3.1 230 22:44 04.07.2019
5428 Mist 29 1002 89 2200 3.1 230 22:44 04.07.2019
5429 Mist 29 1003 89 2200 3.1 240 22:24 04.07.2019
5430 Mist 29 1003 89 2200 3.1 240 21:55 04.07.2019
5431 Mist 29 1003 89 2200 2.6 250 21:37 04.07.2019
5432 Drizzle 28 1003 94 2000 7.67 244.628 21:19 04.07.2019
5433 Mist 28 1003 94 2100 2.1 160 20:39 04.07.2019
5434 Mist 28 1004 94 2000 1.5 0 20:21 04.07.2019
5435 Mist 28 1004 94 2000 1.5 0 19:56 04.07.2019
5436 Mist 28 1003 94 2100 9.39 241.325 19:38 04.07.2019
5437 Mist 28 1003 94 2500 1.5 120 19:19 04.07.2019
5438 Mist 28 1003 94 2500 2.6 160 18:41 04.07.2019
5439 Mist 28 1003 94 2500 7.52 243.851 18:23 04.07.2019
5440 Haze 27 1003 94 2500 1.5 110 17:44 04.07.2019
5441 Haze 27 1003 94 2500 1.5 120 17:19 04.07.2019
5442 Haze 27 1002 94 2500 2.1 290 15:58 04.07.2019
5443 Haze 27 1002 94 2500 2.1 290 15:39 04.07.2019
5444 Rain 27 1002 94 2500 2.1 330 15:20 04.07.2019
5445 Rain 27 1002 94 2500 2.1 330 14:55 04.07.2019
5446 Drizzle 27 1003 94 2500 2.6 280 14:36 04.07.2019
5447 Haze 29 1002 89 2500 2.1 300 14:18 04.07.2019
5448 Drizzle 28 1002 94 2500 3.1 290 13:42 04.07.2019
5449 Drizzle 28 1003 94 2500 3.1 290 13:22 04.07.2019
5450 Drizzle 28 1003 94 2500 3.1 290 12:55 04.07.2019
5451 Rain 29 1003 84 1500 6.2 260 12:36 04.07.2019
5452 Haze 30 1003 89 2500 4.6 250 12:18 04.07.2019
5453 Drizzle 29 1003 89 2500 2.6 260 11:39 04.07.2019
5454 Drizzle 29 1003 89 2500 2.6 260 11:39 04.07.2019
5455 Drizzle 29 1003 89 2500 3.6 240 11:19 04.07.2019
5456 Haze 29 1003 84 2500 2.6 230 10:40 04.07.2019
5457 Drizzle 29 1004 83 2500 1.5 200 10:20 04.07.2019
5458 Rain 27 1004 94 2200 3.6 240 09:44 04.07.2019
5459 Rain 27 1004 94 2200 3.6 240 09:25 04.07.2019
5460 Rain 26 1004 94 1000 4.1 270 08:56 04.07.2019
5461 Rain 26 1004 88 700 5.1 300 08:23 04.07.2019
5462 Rain 28 1004 88 2200 5.1 330 07:45 04.07.2019
5463 Rain 29 1004 89 2500 2.1 190 07:22 04.07.2019
5464 Rain 30 1004 89 2200 2.1 200 06:51 04.07.2019
5465 Haze 29 1003 94 3000 3.1 190 05:52 04.07.2019
5466 Haze 29 1003 94 3000 3.1 190 05:33 04.07.2019
5467 Haze 27 1002 94 3000 3.1 160 02:43 04.07.2019
5468 Haze 27 1003 88 3000 3.6 160 01:42 04.07.2019
5469 Haze 27 1003 88 3000 2.6 160 01:21 04.07.2019
5470 Haze 27 1003 88 3000 2.1 160 23:58 03.07.2019
5471 Haze 27 1003 94 3000 3.1 180 23:40 03.07.2019
5472 Haze 27 1004 94 3000 2.6 160 23:20 03.07.2019
5473 Haze 27 1004 94 3000 2.6 160 22:44 03.07.2019
5474 Haze 27 1004 94 3000 2.6 160 22:25 03.07.2019
5475 Haze 27 1004 94 3000 2.1 160 21:59 03.07.2019
5476 Haze 27 1004 94 2500 2.6 160 21:41 03.07.2019
5477 Haze 27 1004 94 2500 2.6 160 21:23 03.07.2019
5478 Haze 27 1004 94 2500 2.6 180 20:46 03.07.2019
5479 Haze 27 1005 94 2500 1.5 190 20:24 03.07.2019
5480 Haze 27 1004 88 2500 2.6 200 19:51 03.07.2019
5481 Haze 27 1004 88 2500 2.6 200 19:32 03.07.2019
5482 Haze 27 1004 94 2500 2.6 180 18:49 03.07.2019
5483 Haze 27 1004 94 2500 2.6 180 18:30 03.07.2019
5484 Haze 26 1005 94 2500 1.5 200 17:57 03.07.2019
5485 Haze 26 1004 94 2500 2.6 180 17:37 03.07.2019
5486 Haze 26 1004 94 2500 2.1 230 17:18 03.07.2019
5487 Haze 27 1004 94 2500 5.1 210 16:43 03.07.2019
5488 Rain 29 1003 94 2200 2.1 180 16:22 03.07.2019
5489 Rain 29 1003 83 3000 2.1 200 15:49 03.07.2019
5490 Rain 29 1003 83 3000 2.1 200 15:31 03.07.2019
5491 Haze 29 1003 88 3000 3.1 190 14:57 03.07.2019
5492 Haze 29 1003 88 3000 2.6 200 14:38 03.07.2019
5493 Haze 29 1003 88 3000 2.6 210 14:18 03.07.2019
5494 Haze 28 1003 88 3000 2.6 210 13:40 03.07.2019
5495 Haze 28 1003 88 3000 3.1 210 13:18 03.07.2019
5496 Haze 28 1003 88 3000 2.6 210 12:43 03.07.2019
5497 Haze 28 1003 94 3000 3.1 250 12:18 03.07.2019
5498 Rain 29 1004 89 1700 3.1 290 11:42 03.07.2019
5499 Rain 30 1003 74 3500 3.1 230 11:21 03.07.2019
5500 Haze 30 1004 74 4000 3.1 240 10:43 03.07.2019
5501 Haze 30 1004 79 4000 2.6 260 10:24 03.07.2019
5502 Haze 30 1004 79 4000 2.6 260 09:55 03.07.2019
5503 Haze 30 1004 84 3000 3.1 210 09:36 03.07.2019
5504 Haze 30 1005 84 3000 3.1 180 09:18 03.07.2019
5505 Haze 30 1005 70 3000 4.6 190 08:41 03.07.2019
5506 Haze 30 1005 79 3000 4.6 190 08:22 03.07.2019
5507 Haze 28 1005 89 2500 3.6 240 07:38 03.07.2019
5508 Haze 28 1005 88 2500 2.1 220 06:56 03.07.2019
5509 Haze 27 1005 94 2500 2.1 200 05:57 03.07.2019
5510 Drizzle 26 1004 100 2200 3.29 281.348 05:29 03.07.2019
5511 Rain 26 1004 100 2000 3.29 281.348 04:27 03.07.2019
5512 Rain 25 1003 100 1400 1.5 140 02:58 03.07.2019
5513 Mist 26 1003 94 2500 3.8 278.927 01:40 03.07.2019
5514 Mist 26 1003 94 2500 3.8 278.927 01:21 03.07.2019
5515 Rain 26 1003 100 2100 3.8 278.927 00:40 03.07.2019
5516 Mist 27 1003 94 2500 3.16 265.814 23:57 02.07.2019
5517 Mist 27 1003 94 2500 3.16 265.814 23:37 02.07.2019
5518 Mist 27 1003 94 2500 3.16 265.814 23:19 02.07.2019
5519 Mist 27 1004 94 2500 3.16 265.814 22:41 02.07.2019
5520 Haze 27 1004 94 2500 1.5 0 22:23 02.07.2019
5521 Haze 27 1004 94 2500 1.5 220 21:58 02.07.2019
5522 Haze 27 1004 94 2500 1.5 220 21:39 02.07.2019
5523 Haze 27 1005 94 2500 2.1 150 21:20 02.07.2019
5524 Haze 27 1005 94 2500 2.1 150 20:57 02.07.2019
5525 Haze 27 1005 94 2500 2.1 150 20:38 02.07.2019
5526 Haze 27 1005 94 2500 2.1 140 20:19 02.07.2019
5527 Haze 26 1004 100 2500 2.6 140 19:41 02.07.2019
5528 Haze 27 1005 94 2500 2.6 120 19:22 02.07.2019
5529 Haze 26 1005 100 2500 3.94 265.864 18:46 02.07.2019
5530 Haze 26 1005 100 2500 3.59 246.976 18:18 02.07.2019
5531 Haze 26 1004 100 2500 3.1 150 17:41 02.07.2019
5532 Haze 26 1003 100 3000 3.59 246.976 17:22 02.07.2019
5533 Drizzle 26 1003 94 2500 3.59 246.976 16:49 02.07.2019
5534 Drizzle 26 1003 94 2500 3.59 246.976 16:31 02.07.2019
5535 Rain 27 1003 88 1700 4.1 290 15:46 02.07.2019
5536 Rain 27 1003 88 2500 4.1 280 15:26 02.07.2019
5537 Drizzle 27 1002 88 2500 3.1 310 14:57 02.07.2019
5538 Drizzle 27 1002 88 2500 3.1 310 14:38 02.07.2019
5539 Haze 28 1003 83 3000 5.1 300 14:19 02.07.2019
5540 Haze 28 1003 83 3000 5.1 300 13:38 02.07.2019
5541 Haze 28 1003 88 3000 3.6 300 13:18 02.07.2019
5542 Haze 29 1003 83 2300 2.1 310 12:44 02.07.2019
5543 Rain 28 1003 94 2300 2.1 210 12:22 02.07.2019
5544 Rain 28 1004 88 2500 2.6 180 11:43 02.07.2019
5545 Rain 28 1004 83 2500 1.5 120 11:23 02.07.2019
5546 Rain 28 1004 88 2500 1.5 120 10:54 02.07.2019
5547 Rain 28 1004 88 2500 1.5 120 10:26 02.07.2019
5548 Drizzle 27 1004 94 2500 2.1 50 09:49 02.07.2019
5549 Drizzle 27 1005 94 2500 1.5 70 09:22 02.07.2019
5550 Drizzle 26 1006 94 2500 1.5 100 08:55 02.07.2019
5551 Drizzle 26 1006 94 2500 1.5 100 08:35 02.07.2019
5552 Rain 26 1006 100 2100 2.6 150 07:57 02.07.2019
5553 Rain 25 1006 100 2100 4.95 271.982 07:21 02.07.2019
5554 Rain 26 1005 94 2500 1.5 160 06:55 02.07.2019
5555 Rain 25 1005 94 2500 1.5 160 06:36 02.07.2019
5556 Rain 25 1004 100 1700 2.6 320 05:19 02.07.2019
5557 Thunderstorm 25 1003 100 1700 3.1 110 02:37 02.07.2019
5558 Rain 25 1002 100 2100 2.1 30 00:26 02.07.2019
5559 Thunderstorm 25 1003 100 1200 2.6 200 23:30 01.07.2019
5560 Thunderstorm 25 1003 100 1200 2.6 200 22:54 01.07.2019
5561 Thunderstorm 25 1003 100 1500 2.6 70 22:28 01.07.2019
5562 Thunderstorm 25 1004 100 1500 2.1 330 21:56 01.07.2019
5563 Thunderstorm 25 1004 100 1500 2.1 330 21:37 01.07.2019
5564 Thunderstorm 25 1003 100 1000 5.1 320 21:19 01.07.2019
5565 Thunderstorm 25 1003 100 2100 2.6 150 20:45 01.07.2019
5566 Thunderstorm 26 1003 100 2100 6.2 90 20:20 01.07.2019
5567 Thunderstorm 26 1003 94 800 2.6 120 19:44 01.07.2019
5568 Rain 26 1002 94 2100 3.1 80 19:25 01.07.2019
5569 Rain 26 1002 100 2100 3.1 120 18:56 01.07.2019
5570 Rain 26 1002 100 2100 3.1 120 18:37 01.07.2019
5571 Rain 25 1002 100 800 4.1 230 18:19 01.07.2019
5572 Rain 26 1002 94 2100 2.6 130 17:43 01.07.2019
5573 Rain 26 1002 94 2100 2.6 130 17:23 01.07.2019
5574 Rain 25 1002 94 2100 3.6 20 16:48 01.07.2019
5575 Rain 25 1002 94 2100 3.6 20 16:27 01.07.2019
5576 Rain 26 1001 94 2100 5.1 340 15:58 01.07.2019
5577 Rain 25 1002 100 1500 5.7 20 15:40 01.07.2019
5578 Rain 25 1002 100 1500 5.7 20 15:22 01.07.2019
5579 Rain 26 1001 94 1500 4.1 20 14:44 01.07.2019
5580 Rain 26 1002 94 800 2.6 300 14:20 01.07.2019
5581 Rain 25 1002 94 1000 5.1 320 13:45 01.07.2019
5582 Rain 25 1002 94 1000 5.1 320 13:23 01.07.2019
5583 Rain 26 1002 94 800 5.1 280 12:56 01.07.2019
5584 Rain 26 1002 94 1500 4.1 230 12:37 01.07.2019
5585 Rain 26 1002 94 1500 2.6 280 12:18 01.07.2019
5586 Rain 26 1003 94 500 4.1 320 11:43 01.07.2019
5587 Rain 26 1003 94 500 4.1 320 11:21 01.07.2019
5588 Rain 26 1003 88 2500 1.5 250 10:47 01.07.2019
5589 Rain 26 1003 88 2500 1.5 250 10:24 01.07.2019
5590 Rain 27 1003 88 2400 2.1 360 09:58 01.07.2019
5591 Rain 27 1003 94 2400 4.1 280 09:40 01.07.2019
5592 Rain 27 1003 100 800 4.1 310 09:21 01.07.2019
5593 Rain 27 1003 88 1700 2.6 350 08:37 01.07.2019
5594 Rain 27 1004 94 2100 2.6 320 07:48 01.07.2019
5595 Rain 27 1004 94 2100 2.6 320 07:27 01.07.2019
5596 Rain 27 1004 88 1900 6.2 310 06:20 01.07.2019
5597 Rain 27 1001 94 2200 3.6 300 01:42 01.07.2019
5598 Rain 26 1001 94 2100 6.7 240 00:48 01.07.2019
5599 Rain 26 1001 94 2100 6.7 240 00:28 01.07.2019
5600 Rain 27 1002 88 2100 9.3 250 23:56 30.06.2019
5601 Rain 26 1002 100 1800 5.7 280 23:21 30.06.2019
5602 Rain 25 1003 100 1800 2.6 300 22:49 30.06.2019
5603 Rain 25 1003 100 1800 2.6 300 22:21 30.06.2019
5604 Rain 25 1004 100 800 3.6 100 21:42 30.06.2019
5605 Rain 25 1004 100 1000 3.1 140 21:20 30.06.2019
5606 Rain 25 1004 100 1000 3.1 140 20:56 30.06.2019
5607 Rain 26 1004 94 1500 2.1 130 20:38 30.06.2019
5608 Rain 27 1004 88 2500 1.5 140 20:19 30.06.2019
5609 Haze 27 1005 88 2500 2.6 200 19:44 30.06.2019
5610 Haze 27 1005 88 2500 2.6 200 19:25 30.06.2019
5611 Mist 27 1004 94 2500 2.1 140 18:39 30.06.2019
5612 Mist 27 1004 94 2500 2.1 120 18:20 30.06.2019
5613 Mist 27 1004 94 2500 2.6 160 17:39 30.06.2019
5614 Mist 27 1004 94 2500 2.1 110 17:18 30.06.2019
5615 Rain 28 1003 94 2500 3.1 120 16:49 30.06.2019
5616 Rain 28 1003 94 2500 3.1 120 16:27 30.06.2019
5617 Rain 28 1003 88 2500 2.1 160 15:38 30.06.2019
5618 Rain 28 1003 88 2500 1.5 210 15:19 30.06.2019
5619 Rain 28 1003 88 2500 1.5 210 14:55 30.06.2019
5620 Rain 28 1003 88 2400 3.1 180 14:36 30.06.2019
5621 Rain 28 1003 83 2400 5.7 230 13:57 30.06.2019
5622 Rain 28 1003 83 2400 5.7 230 13:37 30.06.2019
5623 Rain 29 1003 83 2400 3.1 240 13:18 30.06.2019
5624 Rain 29 1004 79 2400 3.6 270 12:42 30.06.2019
5625 Rain 29 1004 83 2400 5.1 270 12:20 30.06.2019
5626 Rain 29 1004 83 2400 6.2 270 11:45 30.06.2019
5627 Rain 29 1004 83 2400 6.2 270 11:22 30.06.2019
5628 Rain 28 1004 94 2100 3.1 170 10:56 30.06.2019
5629 Rain 28 1004 94 2100 3.1 170 10:36 30.06.2019
5630 Rain 28 1004 88 2200 4.1 110 10:18 30.06.2019
5631 Rain 28 1005 88 2200 2.1 40 09:43 30.06.2019
5632 Rain 29 1005 83 2200 5.7 300 09:21 30.06.2019
5633 Rain 26 1005 94 800 5.1 270 08:42 30.06.2019
5634 Rain 28 1005 94 1300 3.6 90 08:23 30.06.2019
5635 Rain 28 1005 94 1300 3.6 90 07:52 30.06.2019
5636 Rain 28 1005 88 1300 2.6 140 07:26 30.06.2019
5637 Rain 27 1005 88 2500 2.1 60 06:39 30.06.2019
5638 Rain 29 1003 89 2500 6.2 250 04:48 30.06.2019
5639 Rain 29 1002 83 2200 6.7 250 02:41 30.06.2019
5640 Drizzle 29 1002 83 2200 6.2 260 01:24 30.06.2019
5641 Rain 26 1002 94 2200 3.1 90 00:26 30.06.2019
5642 Rain 26 1002 88 2200 1.5 180 23:53 29.06.2019
5643 Rain 26 1003 94 2500 6.2 230 23:24 29.06.2019
5644 Rain 26 1003 94 2500 6.2 230 22:55 29.06.2019
5645 Rain 26 1003 94 2500 2.6 200 22:25 29.06.2019
5646 Rain 26 1003 100 2500 3.1 200 21:59 29.06.2019
5647 Rain 26 1003 88 1500 2.1 160 21:40 29.06.2019
5648 Haze 26 1004 83 2500 4.1 230 21:20 29.06.2019
5649 Rain 27 1004 83 1500 5.1 250 20:40 29.06.2019
5650 Drizzle 28 1004 88 3000 4.1 240 20:22 29.06.2019
5651 Haze 29 1004 83 3000 3.6 250 19:48 29.06.2019
5652 Haze 29 1004 83 3000 3.6 250 19:23 29.06.2019
5653 Haze 29 1004 83 3000 3.1 220 18:49 29.06.2019
5654 Haze 29 1004 83 3000 3.1 220 18:25 29.06.2019
5655 Haze 29 1003 83 2500 4.1 280 17:42 29.06.2019
5656 Haze 29 1003 83 2500 5.7 250 17:22 29.06.2019
5657 Haze 29 1003 83 2500 5.7 250 16:57 29.06.2019
5658 Haze 29 1003 79 2500 4.1 260 16:35 29.06.2019
5659 Rain 29 1002 83 2500 3.1 230 15:48 29.06.2019
5660 Rain 29 1002 83 2500 3.1 230 15:24 29.06.2019
5661 Haze 29 1002 83 3000 7.7 270 14:44 29.06.2019
5662 Haze 29 1002 83 3000 7.7 270 14:25 29.06.2019
5663 Rain 29 1002 79 2500 6.7 270 13:46 29.06.2019
5664 Rain 29 1002 79 2500 6.7 270 13:26 29.06.2019
5665 Rain 29 1002 83 2500 5.7 250 12:51 29.06.2019
5666 Rain 29 1002 83 2500 5.7 250 12:33 29.06.2019
5667 Rain 28 1003 78 2100 5.7 260 11:54 29.06.2019
5668 Rain 27 1003 100 2100 8.7 260 11:33 29.06.2019
5669 Rain 26 1003 100 1800 3.1 310 10:56 29.06.2019
5670 Rain 26 1004 100 1000 7.7 280 10:36 29.06.2019
5671 Rain 26 1004 100 1000 7.7 280 10:36 29.06.2019
5672 Rain 28 1003 94 2000 4.1 130 09:59 29.06.2019
5673 Rain 27 1004 94 2000 4.1 110 09:38 29.06.2019
5674 Rain 26 1005 100 1500 4.1 110 08:50 29.06.2019
5675 Rain 25 1005 100 1500 2.1 200 07:59 29.06.2019
5676 Rain 25 1005 100 2000 2.6 90 07:36 29.06.2019
5677 Rain 26 1005 94 1000 2.6 70 06:45 29.06.2019
5678 Rain 26 1005 94 2500 2.1 140 06:23 29.06.2019
5679 Rain 26 1003 94 2200 5.7 250 02:51 29.06.2019
5680 Rain 26 1002 100 2200 7.7 280 01:21 29.06.2019
5681 Rain 26 1002 94 1700 5.7 290 00:24 29.06.2019
5682 Rain 25 1003 100 800 4.1 290 23:27 28.06.2019
5683 Rain 27 1003 94 1800 5.1 280 22:57 28.06.2019
5684 Rain 27 1003 94 1700 5.1 260 22:37 28.06.2019
5685 Rain 27 1004 94 1700 5.7 250 21:53 28.06.2019
5686 Rain 26 1004 100 1700 6.7 240 21:26 28.06.2019
5687 Rain 25 1005 106 1700 5.1 270 20:49 28.06.2019
5688 Rain 25 1005 106 1700 5.1 270 20:29 28.06.2019
5689 Rain 25 1005 100 1700 5.7 280 19:57 28.06.2019
5690 Rain 26 1004 88 1500 5.1 290 19:37 28.06.2019
5691 Rain 26 1004 100 1500 10.3 260 19:18 28.06.2019
5692 Rain 26 1004 100 1500 8.2 250 18:40 28.06.2019
5693 Rain 26 1003 100 1800 7.2 250 18:20 28.06.2019
5694 Rain 26 1003 100 1800 7.2 250 18:20 28.06.2019
5695 Rain 26 1003 100 2100 9.3 260 17:34 28.06.2019
5696 Rain 27 1003 100 2200 9.3 250 16:55 28.06.2019
5697 Rain 27 1002 94 2200 8.2 250 16:29 28.06.2019
5698 Rain 27 1002 88 2500 6.2 220 15:49 28.06.2019
5699 Rain 27 1002 88 2500 6.2 220 15:29 28.06.2019
5700 Rain 27 1002 88 2500 7.7 240 14:59 28.06.2019
5701 Rain 28 1001 88 2500 8.7 250 14:39 28.06.2019
5702 Drizzle 28 1002 88 2500 6.7 250 14:20 28.06.2019
5703 Rain 28 1001 88 2500 2.1 0 13:45 28.06.2019
5704 Rain 28 1001 88 2500 2.1 0 13:22 28.06.2019
5705 Rain 28 1002 88 2500 4.1 110 12:50 28.06.2019
5706 Rain 28 1002 88 2500 4.1 110 12:25 28.06.2019
5707 Rain 28 1003 94 2100 5.1 260 11:29 28.06.2019
5708 Thunderstorm 26 1004 100 1500 6.7 270 10:47 28.06.2019
5709 Thunderstorm 27 1004 100 1500 6.7 270 10:23 28.06.2019
5710 Thunderstorm 27 1005 100 1500 4.6 40 10:00 28.06.2019
5711 Thunderstorm 26 1004 100 1500 5.7 220 09:41 28.06.2019
5712 Thunderstorm 26 1004 100 1500 5.7 220 09:22 28.06.2019
5713 Rain 26 1004 100 800 5.1 30 08:42 28.06.2019
5714 Rain 26 1004 100 800 5.1 30 08:23 28.06.2019
5715 Rain 26 1005 100 1500 3.6 320 07:42 28.06.2019
5716 Rain 27 1005 88 700 5.1 300 06:49 28.06.2019
5717 Haze 29 1002 83 3000 3.6 240 03:35 28.06.2019
5718 Haze 29 1001 83 3000 4.6 230 00:46 28.06.2019
5719 Haze 29 1003 83 3000 6.7 250 23:59 27.06.2019
5720 Haze 29 1003 83 3000 6.7 250 23:41 27.06.2019
5721 Haze 29 1003 83 3000 6.7 250 23:22 27.06.2019
5722 Haze 28 1003 88 3000 5.1 240 22:43 27.06.2019
5723 Haze 28 1004 88 3000 5.1 240 22:24 27.06.2019
5724 Haze 28 1004 88 3000 5.1 240 21:57 27.06.2019
5725 Haze 28 1004 88 3000 4.1 230 21:38 27.06.2019
5726 Rain 28 1004 88 2500 3.1 220 21:19 27.06.2019
5727 Rain 28 1005 88 2500 5.1 240 20:45 27.06.2019
5728 Rain 28 1005 88 2500 5.1 240 20:27 27.06.2019
5729 Rain 28 1005 88 2500 7.2 250 19:48 27.06.2019
5730 Rain 28 1005 88 2500 7.2 250 19:29 27.06.2019
5731 Rain 28 1004 88 2500 5.1 240 18:52 27.06.2019
5732 Rain 28 1004 88 2500 5.1 240 18:30 27.06.2019
5733 Haze 29 1004 83 3000 3.6 250 17:47 27.06.2019
5734 Haze 29 1004 83 3000 3.6 250 17:24 27.06.2019
5735 Haze 29 1003 88 3000 3.6 240 16:59 27.06.2019
5736 Haze 29 1003 88 3000 5.1 240 16:37 27.06.2019
5737 Rain 29 1003 88 3000 4.1 240 16:18 27.06.2019
5738 Rain 29 1002 88 3000 5.1 240 15:45 27.06.2019
5739 Rain 29 1002 94 2200 5.1 240 15:21 27.06.2019
5740 Rain 30 1002 79 3000 5.1 210 14:46 27.06.2019
5741 Rain 31 1002 79 3000 5.1 210 14:28 27.06.2019
5742 Haze 32 1001 70 4000 5.1 230 13:49 27.06.2019
5743 Haze 32 1001 70 4000 5.1 230 13:30 27.06.2019
5744 Haze 31 1002 79 4000 4.6 220 12:55 27.06.2019
5745 Haze 31 1002 74 4000 4.1 340 12:35 27.06.2019
5746 Rain 32 1002 74 4000 4.6 250 11:59 27.06.2019
5747 Haze 32 1002 66 4000 5.1 290 11:39 27.06.2019
5748 Haze 32 1002 66 4000 4.6 280 11:20 27.06.2019
5749 Haze 32 1003 66 4000 4.1 270 10:45 27.06.2019
5750 Haze 32 1003 66 4000 4.1 270 10:22 27.06.2019
5751 Haze 31 1003 70 4000 2.6 280 09:55 27.06.2019
5752 Haze 31 1004 74 4000 4.1 260 09:22 27.06.2019
5753 Haze 32 1004 70 3000 3.1 280 08:55 27.06.2019
5754 Haze 32 1004 74 3000 5.1 240 08:37 27.06.2019
5755 Rain 31 1004 74 3000 3.1 240 08:19 27.06.2019
5756 Haze 31 1004 79 3000 3.6 210 07:31 27.06.2019
5757 Haze 30 1004 79 2500 2.1 150 06:53 27.06.2019
5758 Haze 30 1004 79 2500 2.1 150 06:24 27.06.2019
5759 Rain 27 1004 88 2000 2.6 90 03:21 27.06.2019
5760 Mist 28 1003 88 2000 2.1 130 02:30 27.06.2019
5761 Mist 27 1003 88 2200 3.1 140 00:59 27.06.2019
5762 Mist 27 1003 88 2200 2.6 110 00:41 27.06.2019
5763 Mist 28 1003 88 2200 3.1 120 00:19 27.06.2019
5764 Mist 28 1003 88 2200 3.1 110 23:40 26.06.2019
5765 Mist 28 1003 88 2200 4.1 110 23:21 26.06.2019
5766 Mist 28 1004 88 2200 2.1 130 22:45 26.06.2019
5767 Mist 28 1004 88 2200 2.1 130 22:26 26.06.2019
5768 Mist 28 1004 88 2200 2.1 110 21:59 26.06.2019
5769 Mist 28 1004 88 2200 1.5 160 21:38 26.06.2019
5770 Rain 28 1004 88 2200 4.1 220 21:19 26.06.2019
5771 Mist 29 1005 83 3000 2.1 160 20:44 26.06.2019
5772 Mist 29 1005 83 3000 2.1 160 20:26 26.06.2019
5773 Rain 28 1006 88 3500 3.6 190 19:50 26.06.2019
5774 Rain 28 1006 88 3500 3.6 190 19:31 26.06.2019
5775 Haze 30 1005 79 3500 5.1 190 18:57 26.06.2019
5776 Haze 30 1005 79 4000 4.6 190 18:39 26.06.2019
5777 Haze 30 1005 79 4000 4.1 170 18:19 26.06.2019
5778 Haze 30 1005 79 4000 3.6 200 17:43 26.06.2019
5779 Haze 30 1005 79 4000 3.6 200 17:23 26.06.2019
5780 Haze 31 1004 79 4000 6.2 220 16:51 26.06.2019
5781 Haze 31 1004 79 4000 6.2 220 16:28 26.06.2019
5782 Haze 31 1003 79 4000 5.1 230 15:52 26.06.2019
5783 Haze 31 1003 74 4000 6.2 220 15:28 26.06.2019
5784 Haze 31 1003 74 4000 5.7 210 14:42 26.06.2019
5785 Haze 31 1003 74 5000 5.1 220 14:21 26.06.2019
5786 Haze 32 1003 70 5000 4.1 220 13:46 26.06.2019
5787 Haze 32 1003 70 5000 4.1 220 13:21 26.06.2019
5788 Haze 32 1003 74 5000 6.7 250 13:21 26.06.2019
5789 Haze 32 1003 74 5000 6.7 250 12:54 26.06.2019
5790 Haze 32 1003 74 5000 6.7 250 12:54 26.06.2019
5791 Haze 33 1003 70 5000 6.7 250 12:36 26.06.2019
5792 Haze 33 1003 66 5000 6.7 240 12:18 26.06.2019
5793 Haze 33 1004 66 5000 5.1 240 11:25 26.06.2019
5794 Haze 33 1004 66 5000 5.1 240 10:51 26.06.2019
5795 Haze 33 1005 66 4500 5.7 220 10:31 26.06.2019
5796 Haze 33 1005 70 4000 4.6 250 09:59 26.06.2019
5797 Haze 33 1005 70 4000 4.6 250 09:30 26.06.2019
5798 Haze 31 1005 74 3500 4.1 240 08:55 26.06.2019
5799 Rain 31 1006 74 3000 4.6 230 08:22 26.06.2019
5800 Haze 30 1006 79 3000 3.1 220 07:57 26.06.2019
5801 Haze 30 1006 79 3000 3.1 220 07:38 26.06.2019
5802 Haze 30 1006 74 3000 3.6 230 06:33 26.06.2019
5803 Haze 29 1004 79 3000 2.1 160 01:59 26.06.2019
5804 Haze 29 1004 79 3000 1.5 150 00:36 26.06.2019
5805 Haze 29 1004 83 3000 2.6 170 23:57 25.06.2019
5806 Haze 29 1005 79 3000 1.5 180 23:38 25.06.2019
5807 Haze 29 1005 79 3000 2.6 150 23:19 25.06.2019
5808 Haze 30 1005 74 3000 2.6 220 22:41 25.06.2019
5809 Haze 30 1006 74 3000 2.1 230 22:22 25.06.2019
5810 Haze 30 1006 74 3000 2.1 250 21:46 25.06.2019
5811 Haze 30 1006 74 3000 2.1 210 21:26 25.06.2019
5812 Haze 30 1006 74 3000 3.1 230 20:50 25.06.2019
5813 Haze 30 1006 74 3000 3.1 230 20:49 25.06.2019
5814 Haze 30 1006 74 3000 3.1 230 20:49 25.06.2019
5815 Haze 30 1006 74 3500 3.1 230 20:24 25.06.2019
5816 Haze 30 1006 74 3500 3.1 230 19:57 25.06.2019
5817 Haze 30 1006 74 3500 2.1 220 19:38 25.06.2019
5818 Haze 30 1006 74 3500 2.1 210 19:20 25.06.2019
5819 Haze 30 1006 74 3500 4.1 240 18:42 25.06.2019
5820 Haze 30 1006 74 3500 3.6 240 18:23 25.06.2019
5821 Haze 30 1005 74 4000 4.1 240 17:45 25.06.2019
5822 -273 0 0 0 0 0 17:26 25.06.2019
5823 -273 0 0 0 0 0 17:25 25.06.2019
5824 Haze 31 1004 79 4000 4.1 240 16:44 25.06.2019
5825 Haze 31 1004 79 4000 4.6 230 16:25 25.06.2019
5826 Haze 31 1004 79 4000 4.6 230 15:59 25.06.2019
5827 Haze 31 1004 74 4000 5.1 240 15:38 25.06.2019
5828 Haze 32 1004 74 4000 5.7 240 15:18 25.06.2019
5829 Haze 32 1003 74 4000 4.1 230 14:45 25.06.2019
5830 Haze 32 1003 74 4000 4.1 230 14:26 25.06.2019
5831 Haze 32 1003 74 4000 5.1 270 13:42 25.06.2019
5832 Haze 32 1003 74 4000 5.1 270 13:23 25.06.2019
5833 Haze 32 1004 70 4000 4.6 250 12:42 25.06.2019
5834 Haze 32 1004 70 4000 4.6 250 12:24 25.06.2019
5835 Haze 32 1005 66 4000 3.6 240 11:45 25.06.2019
5836 Haze 32 1005 66 4000 3.6 240 11:23 25.06.2019
5837 Haze 32 1005 66 4000 3.6 240 11:23 25.06.2019
5838 Haze 32 1005 70 3000 4.6 250 10:57 25.06.2019
5839 Haze 31 1005 74 2500 4.6 270 10:36 25.06.2019
5840 Haze 30 1005 84 2200 4.6 250 10:18 25.06.2019
5841 Rain 30 1006 83 1700 5.1 220 09:39 25.06.2019
5842 Rain 30 1006 83 2100 3.6 260 09:21 25.06.2019
5843 Rain 30 1006 83 2100 3.6 260 09:21 25.06.2019
5844 Rain 30 1006 83 2100 3.6 260 08:51 25.06.2019
5845 Rain 31 1006 74 3000 5.1 220 08:31 25.06.2019
5846 Haze 32 1006 74 3500 2.6 170 07:44 25.06.2019
5847 Haze 32 1006 74 3500 2.6 170 07:24 25.06.2019
5848 Haze 30 1006 74 3000 2.6 150 06:44 25.06.2019
5849 Haze 30 1006 79 3000 2.6 160 05:48 25.06.2019
5850 Mist 27 1005 88 2500 3.1 180 02:37 25.06.2019
5851 Haze 28 1004 83 3000 2.1 170 00:38 25.06.2019
5852 Haze 28 1004 88 3000 2.1 190 00:19 25.06.2019
5853 Haze 28 1004 88 3000 2.6 190 23:51 24.06.2019
5854 Haze 28 1004 88 3000 2.6 190 23:32 24.06.2019
5855 Haze 28 1005 88 3000 1.5 110 22:48 24.06.2019
5856 Haze 29 1005 83 3000 1.5 150 22:20 24.06.2019
5857 Haze 29 1005 83 3000 1.5 150 21:56 24.06.2019
5858 Haze 29 1005 83 3000 2.1 160 21:37 24.06.2019
5859 Haze 29 1005 83 3000 2.6 180 21:18 24.06.2019
5860 Haze 29 1005 83 3000 2.1 120 20:42 24.06.2019
5861 Haze 29 1005 83 3000 2.1 120 20:22 24.06.2019
5862 Haze 29 1005 79 3000 2.1 170 19:49 24.06.2019
5863 Haze 29 1005 79 3000 2.1 170 19:26 24.06.2019
5864 Haze 29 1005 79 3000 2.1 160 18:56 24.06.2019
5865 Haze 29 1005 79 3000 2.1 200 18:37 24.06.2019
5866 Haze 29 1005 79 3000 2.1 190 18:18 24.06.2019
5867 Haze 29 1004 79 3000 2.6 210 17:37 24.06.2019
5868 Haze 30 1004 79 3000 2.6 200 16:57 24.06.2019
5869 Haze 30 1004 79 3000 2.1 160 16:39 24.06.2019
5870 Haze 30 1003 79 3500 2.6 190 16:19 24.06.2019
5871 Haze 30 1003 74 4000 2.6 220 15:41 24.06.2019
5872 Haze 30 1003 74 4000 3.6 230 15:22 24.06.2019
5873 Haze 31 1003 74 4000 3.6 220 14:35 24.06.2019
5874 Haze 31 1003 74 3500 2.1 190 13:59 24.06.2019
5875 Haze 31 1003 74 3500 1.5 140 13:32 24.06.2019
5876 -273 0 0 0 0 0 12:57 24.06.2019
5877 Haze 30 1003 79 3000 2.6 220 12:38 24.06.2019
5878 Drizzle 30 1004 83 3000 3.1 240 12:20 24.06.2019
5879 Rain 29 1004 83 3000 3.1 230 11:43 24.06.2019
5880 Rain 29 1004 83 3000 3.1 230 11:24 24.06.2019
5881 Rain 30 1005 70 3000 2.44 313.421 10:51 24.06.2019
5882 Thunderstorm 30 1005 79 3000 3.6 10 10:31 24.06.2019
5883 Thunderstorm 30 1005 79 3000 3.1 70 09:51 24.06.2019
5884 Rain 30 1005 83 3000 4.6 220 09:23 24.06.2019
5885 Rain 31 1005 74 3000 5.7 220 08:55 24.06.2019
5886 Haze 31 1005 79 3000 3.6 180 08:32 24.06.2019
5887 Haze 31 1005 83 3000 4.6 140 07:49 24.06.2019
5888 Rain 31 1005 83 3000 3.6 170 07:27 24.06.2019
5889 Haze 31 1005 70 3000 2.1 210 06:56 24.06.2019
5890 Haze 31 1005 70 3000 2.1 210 06:23 24.06.2019
5891 Haze 31 1005 66 3000 1.5 0 05:29 24.06.2019
5892 Rain 30 1004 66 3000 2.6 300 04:34 24.06.2019
5893 Haze 30 1004 74 3000 2.6 240 03:32 24.06.2019
5894 Haze 29 1003 79 3000 2.6 220 02:34 24.06.2019
5895 Haze 29 1003 74 3000 2.1 210 01:54 24.06.2019
5896 Haze 30 1003 70 3000 4.6 220 01:28 24.06.2019
5897 Haze 30 1003 74 3000 3.1 250 00:45 24.06.2019
5898 Haze 30 1002 74 3000 4.1 250 00:20 24.06.2019
5899 Haze 30 1002 74 3000 4.6 240 23:47 23.06.2019
5900 Haze 30 1002 79 3000 4.1 250 23:27 23.06.2019
5901 Haze 30 1002 79 3000 4.1 250 22:55 23.06.2019
5902 Haze 30 1003 79 3000 4.1 250 22:37 23.06.2019
5903 Haze 30 1003 74 3000 3.1 260 22:19 23.06.2019
5904 Haze 30 1003 74 3000 3.1 260 21:40 23.06.2019
5905 Haze 30 1004 74 3000 3.6 260 21:21 23.06.2019
5906 Haze 30 1004 74 3000 4.1 240 20:45 23.06.2019
5907 Haze 30 1004 74 3000 2.6 260 20:26 23.06.2019
5908 Haze 30 1004 74 3000 3.6 250 19:46 23.06.2019
5909 Haze 30 1004 74 3000 3.6 250 19:22 23.06.2019
5910 Haze 30 1004 74 3000 3.6 250 18:54 23.06.2019
5911 Haze 31 1003 70 3000 3.6 240 18:26 23.06.2019
5912 Haze 31 1003 70 3500 3.6 260 17:59 23.06.2019
5913 Haze 31 1003 70 4000 4.6 260 17:38 23.06.2019
5914 Haze 31 1003 70 4000 4.1 260 17:19 23.06.2019
5915 Haze 31 1002 70 5000 4.1 280 16:43 23.06.2019
5916 Haze 31 1002 70 6000 4.1 300 16:23 23.06.2019
5917 Haze 31 1002 70 6000 5.1 270 15:41 23.06.2019
5918 Haze 32 1001 70 6000 6.7 270 15:22 23.06.2019
5919 Haze 32 1001 70 6000 6.7 270 14:56 23.06.2019
5920 Haze 32 1001 66 6000 5.1 280 14:37 23.06.2019
5921 Haze 32 1001 66 6000 5.7 270 14:18 23.06.2019
5922 Haze 32 1001 66 6000 6.2 280 13:42 23.06.2019
5923 Haze 33 1001 66 6000 6.2 270 13:20 23.06.2019
5924 Haze 33 1001 66 6000 6.2 270 12:54 23.06.2019
5925 Haze 33 1001 66 6000 5.7 300 12:36 23.06.2019
5926 Haze 33 1002 62 6000 6.2 270 12:18 23.06.2019
5927 Haze 33 1002 62 5000 6.7 260 11:42 23.06.2019
5928 Haze 33 1002 62 5000 6.7 260 11:24 23.06.2019
5929 Haze 33 1003 66 4000 5.1 280 10:47 23.06.2019
5930 Haze 33 1003 66 4000 6.2 270 10:20 23.06.2019
5931 Haze 33 1003 66 4000 6.2 270 09:54 23.06.2019
5932 Haze 33 1003 66 4000 5.7 250 09:22 23.06.2019
5933 Haze 32 1004 66 4000 5.7 270 08:46 23.06.2019
5934 Haze 32 1004 70 4000 3.1 280 08:27 23.06.2019
5935 Haze 32 1004 70 4000 3.1 280 07:55 23.06.2019
5936 Haze 32 1004 70 4000 3.1 280 07:55 23.06.2019
5937 Haze 31 1004 70 3500 3.1 270 07:25 23.06.2019
5938 Haze 31 1004 70 3500 3.1 270 06:59 23.06.2019
5939 Haze 31 1004 74 3500 2.6 300 06:39 23.06.2019
5940 Haze 30 1003 74 3500 2.6 300 04:38 23.06.2019
5941 Haze 30 1002 74 3000 3.1 280 02:24 23.06.2019
5942 Haze 30 1002 74 3000 2.6 260 01:37 23.06.2019
5943 Haze 30 1003 74 3000 3.6 270 00:47 23.06.2019
5944 Haze 30 1003 74 3000 3.6 270 00:26 23.06.2019
5945 Haze 30 1003 74 3000 3.1 260 23:42 22.06.2019
5946 Haze 30 1003 74 3000 3.1 260 23:24 22.06.2019
5947 Haze 30 1004 74 3000 2.1 270 22:46 22.06.2019
5948 Haze 30 1004 74 3000 2.1 270 22:24 22.06.2019
5949 Haze 30 1004 74 4000 3.6 260 21:41 22.06.2019
5950 Haze 30 1004 74 4000 3.6 250 21:20 22.06.2019
5951 Haze 30 1004 74 4000 5.1 250 20:53 22.06.2019
5952 Haze 30 1004 74 4000 5.1 250 20:27 22.06.2019
5953 Haze 30 1004 74 4000 3.6 270 19:58 22.06.2019
5954 Haze 30 1004 74 4000 3.6 270 19:39 22.06.2019
5955 Haze 30 1004 74 4000 2.6 270 19:19 22.06.2019
5956 Haze 30 1004 74 4000 3.1 270 18:41 22.06.2019
5957 Haze 30 1003 74 4000 4.6 250 18:19 22.06.2019
5958 Haze 31 1003 70 4000 4.1 270 17:40 22.06.2019
5959 Haze 31 1003 70 4000 4.1 270 17:22 22.06.2019
5960 Haze 31 1003 74 5000 4.6 260 16:40 22.06.2019
5961 Haze 31 1003 70 6000 5.1 260 16:22 22.06.2019
5962 Haze 31 1002 70 6000 4.6 270 15:42 22.06.2019
5963 Haze 31 1002 70 6000 4.6 270 15:24 22.06.2019
5964 Haze 32 1001 70 6000 6.2 270 14:51 22.06.2019
5965 Haze 32 1001 70 6000 6.2 270 14:31 22.06.2019
5966 Haze 32 1002 66 6000 6.7 270 13:55 22.06.2019
5967 Haze 32 1002 66 6000 6.7 270 13:36 22.06.2019
5968 Haze 33 1002 66 5000 4.6 280 13:18 22.06.2019
5969 Haze 33 1002 66 5000 4.6 260 12:41 22.06.2019
5970 Haze 33 1003 66 5000 6.2 270 12:18 22.06.2019
5971 Haze 33 1003 66 5000 7.2 270 11:40 22.06.2019
5972 Haze 33 1004 66 4000 6.7 270 10:58 22.06.2019
5973 Haze 32 1004 66 4000 5.7 280 10:22 22.06.2019
5974 Haze 33 1004 63 4000 6.2 260 09:56 22.06.2019
5975 Haze 32 1004 66 4000 5.7 270 09:29 22.06.2019
5976 Haze 32 1005 66 4000 4.6 240 08:46 22.06.2019
5977 Haze 32 1005 66 4000 4.6 240 08:28 22.06.2019
5978 Haze 31 1005 70 3500 3.6 260 07:44 22.06.2019
5979 Rain 31 1005 70 3000 4.1 260 07:20 22.06.2019
5980 Rain 31 1005 70 3000 2.1 290 06:35 22.06.2019
5981 Haze 30 1004 74 3000 1.5 280 03:42 22.06.2019
5982 Haze 29 1003 79 3000 2.6 280 02:24 22.06.2019
5983 Haze 30 1003 74 3000 2.6 270 00:52 22.06.2019
5984 Haze 30 1003 74 3000 2.6 270 00:29 22.06.2019
5985 Haze 30 1003 74 3000 3.1 250 23:49 21.06.2019
5986 Haze 30 1003 74 3000 3.1 250 23:23 21.06.2019
5987 Haze 30 1004 74 3000 3.6 260 22:56 21.06.2019
5988 Haze 30 1004 74 3000 3.6 260 22:32 21.06.2019
5989 Haze 30 1005 74 3000 3.6 250 21:58 21.06.2019
5990 Haze 30 1005 74 3000 4.1 250 21:38 21.06.2019
5991 Haze 30 1005 74 3000 3.6 250 21:19 21.06.2019
5992 Haze 30 1005 74 3000 4.1 230 20:47 21.06.2019
5993 Haze 30 1005 74 3000 4.1 230 20:25 21.06.2019
5994 Haze 30 1005 79 3000 4.1 240 19:46 21.06.2019
5995 Haze 30 1005 74 3000 4.6 250 19:21 21.06.2019
5996 Haze 30 1004 74 3000 5.1 240 18:40 21.06.2019
5997 Haze 30 1004 74 3000 4.6 260 18:22 21.06.2019
5998 Haze 30 1004 79 3500 5.1 240 17:31 21.06.2019
5999 Haze 31 1003 74 4000 5.1 260 16:43 21.06.2019
6000 Haze 31 1003 74 4000 5.1 260 16:24 21.06.2019
6001 Haze 31 1003 70 5000 5.1 280 15:58 21.06.2019
6002 Haze 31 1003 70 5000 5.1 280 15:36 21.06.2019
6003 Haze 32 1002 70 5000 7.2 270 14:57 21.06.2019
6004 Haze 32 1002 70 5000 7.2 270 14:38 21.06.2019
6005 Haze 33 1002 70 5000 5.7 270 14:20 21.06.2019
6006 Haze 33 1003 70 5000 6.2 270 13:39 21.06.2019
6007 Haze 33 1003 66 5000 6.2 270 13:21 21.06.2019
6008 Haze 33 1003 66 5000 5.7 280 12:49 21.06.2019
6009 Haze 33 1003 66 5000 5.7 280 12:23 21.06.2019
6010 Haze 33 1003 66 5000 5.7 280 12:23 21.06.2019
6011 Haze 33 1004 63 5000 6.2 280 11:49 21.06.2019
6012 Haze 33 1004 63 5000 6.2 280 11:28 21.06.2019
6013 Haze 33 1005 70 6000 5.7 250 10:59 21.06.2019
6014 Haze 33 1005 70 6000 7.2 250 10:40 21.06.2019
6015 Smoke 32 1005 66 5000 4.6 270 10:20 21.06.2019
6016 Smoke 32 1006 66 4000 4.6 260 09:43 21.06.2019
6017 Smoke 32 1006 66 4000 5.7 250 09:22 21.06.2019
6018 Smoke 32 1006 66 4000 5.7 250 08:56 21.06.2019
6019 Haze 32 1006 66 3500 4.6 250 08:37 21.06.2019
6020 Haze 32 1006 70 3500 4.6 260 08:18 21.06.2019
6021 Haze 32 1006 70 3500 4.1 260 07:42 21.06.2019
6022 Haze 32 1006 70 3500 3.6 270 07:19 21.06.2019
6023 Haze 32 1006 70 3000 2.6 250 06:25 21.06.2019
6024 Rain 31 1006 79 3000 2.1 190 05:35 21.06.2019
6025 Haze 30 1005 79 3000 2.1 130 04:40 21.06.2019
6026 Haze 30 1005 79 3000 2.1 220 03:41 21.06.2019
6027 Haze 30 1005 79 3000 2.1 220 03:23 21.06.2019
6028 Haze 29 1004 83 3000 2.1 220 02:21 21.06.2019
6029 Haze 29 1004 83 3000 2.6 230 01:27 21.06.2019
6030 Haze 29 1004 83 3000 4.65 236.586 00:35 21.06.2019
6031 Haze 29 1004 83 3000 2.1 190 23:56 20.06.2019
6032 Haze 29 1005 79 3000 2.1 200 23:37 20.06.2019
6033 Haze 29 1005 79 3000 3.1 240 23:19 20.06.2019
6034 Haze 29 1005 83 3000 2.6 240 22:41 20.06.2019
6035 Haze 29 1005 83 3000 2.6 240 22:23 20.06.2019
6036 Haze 30 1005 79 3000 2.1 220 21:56 20.06.2019
6037 Haze 30 1005 79 3000 2.1 220 21:37 20.06.2019
6038 Haze 30 1005 79 3000 3.1 210 21:19 20.06.2019
6039 Haze 30 1006 79 3000 2.6 230 20:41 20.06.2019
6040 Haze 30 1006 79 3000 2.6 230 20:23 20.06.2019
6041 Haze 30 1005 79 3000 2.6 220 19:45 20.06.2019
6042 Haze 30 1005 79 3000 3.1 240 19:19 20.06.2019
6043 Haze 30 1005 79 3000 3.1 240 18:58 20.06.2019
6044 Haze 30 1005 79 3000 4.1 240 18:39 20.06.2019
6045 Haze 30 1005 79 3000 4.6 250 18:21 20.06.2019
6046 Haze 30 1005 79 3000 4.1 250 17:46 20.06.2019
6047 Haze 30 1005 79 3000 4.1 250 17:27 20.06.2019
6048 Haze 31 1004 79 3500 4.1 260 16:44 20.06.2019
6049 Haze 31 1004 74 3500 5.1 260 16:19 20.06.2019
6050 Haze 31 1004 74 3500 5.1 260 15:56 20.06.2019
6051 Haze 31 1004 74 3500 4.1 260 15:38 20.06.2019
6052 Haze 32 1003 74 4000 5.1 260 15:18 20.06.2019
6053 Haze 32 1003 74 4000 5.1 270 14:43 20.06.2019
6054 Haze 32 1003 74 4000 5.1 270 14:21 20.06.2019
6055 Haze 33 1004 70 4000 6.2 250 13:40 20.06.2019
6056 Haze 33 1004 70 4000 4.6 280 13:19 20.06.2019
6057 Haze 33 1005 70 4000 4.6 260 12:44 20.06.2019
6058 Haze 33 1005 70 4000 4.6 260 12:23 20.06.2019
6059 Haze 33 1005 70 4000 4.1 300 11:45 20.06.2019
6060 Haze 33 1005 70 4000 4.1 300 11:24 20.06.2019
6061 Haze 32 1005 70 4000 5.1 260 10:47 20.06.2019
6062 Haze 32 1005 70 4000 5.1 260 10:25 20.06.2019
6063 Haze 32 1006 70 4000 5.1 260 09:59 20.06.2019
6064 Haze 32 1006 66 4000 5.1 250 09:40 20.06.2019
6065 Haze 32 1006 74 4000 5.1 240 09:21 20.06.2019
6066 Haze 32 1006 70 3500 5.1 260 08:45 20.06.2019
6067 Haze 32 1006 66 3500 4.6 280 08:27 20.06.2019
6068 Haze 32 1006 66 3500 4.1 280 07:53 20.06.2019
6069 Haze 32 1006 70 3500 3.6 280 07:28 20.06.2019
6070 Haze 31 1006 70 3500 4.1 260 06:27 20.06.2019
6071 Haze 30 1005 74 2500 1.5 270 04:54 20.06.2019
6072 Haze 29 1004 83 3000 1.5 300 02:29 20.06.2019
6073 Haze 29 1003 83 3000 2.1 210 00:34 20.06.2019
6074 Haze 29 1004 83 3000 2.6 280 23:58 19.06.2019
6075 Haze 29 1004 83 3000 3.1 260 23:39 19.06.2019
6076 Haze 29 1004 83 3000 2.6 250 23:21 19.06.2019
6077 Haze 29 1004 83 3000 2.6 220 22:45 19.06.2019
6078 Haze 29 1005 83 3000 2.1 220 22:18 19.06.2019
6079 Haze 29 1005 83 3000 2.6 240 21:46 19.06.2019
6080 Haze 30 1005 79 3000 3.6 230 21:25 19.06.2019
6081 Haze 30 1005 79 3000 3.6 230 20:43 19.06.2019
6082 Haze 30 1006 79 3000 4.1 230 20:22 19.06.2019
6083 Haze 30 1006 79 3000 4.1 230 19:58 19.06.2019
6084 Haze 30 1006 79 3000 3.6 230 19:39 19.06.2019
6085 Haze 30 1005 79 3000 4.6 240 19:20 19.06.2019
6086 Haze 30 1005 79 3000 5.1 240 18:47 19.06.2019
6087 Haze 30 1005 79 3000 5.1 240 18:20 19.06.2019
6088 Haze 30 1004 79 3000 4.1 250 17:37 19.06.2019
6089 Haze 31 1004 79 3000 4.6 240 16:59 19.06.2019
6090 Haze 31 1004 79 4000 5.1 240 16:39 19.06.2019
6091 Haze 31 1004 79 4000 5.1 240 16:21 19.06.2019
6092 Haze 31 1003 79 4000 5.1 250 15:53 19.06.2019
6093 Haze 31 1003 74 4000 5.1 260 15:27 19.06.2019
6094 Rain 31 1003 74 4000 5.1 250 14:51 19.06.2019
6095 Rain 32 1003 74 4000 4.6 260 14:32 19.06.2019
6096 Rain 32 1002 74 4000 5.1 240 13:59 19.06.2019
6097 Haze 32 1002 74 4000 6.2 260 13:41 19.06.2019
6098 Haze 32 1002 74 4000 6.2 260 13:23 19.06.2019
6099 Haze 32 1003 70 3500 5.7 250 12:44 19.06.2019
6100 Haze 32 1003 74 3500 5.1 270 12:22 19.06.2019
6101 Haze 32 1003 74 3500 5.1 270 11:56 19.06.2019
6102 Haze 32 1003 79 3500 5.1 250 11:37 19.06.2019
6103 Haze 32 1003 74 3000 5.1 270 11:19 19.06.2019
6104 Haze 32 1004 74 3000 6.2 250 10:43 19.06.2019
6105 Haze 32 1004 74 3000 6.2 250 10:24 19.06.2019
6106 Haze 31 1004 79 3000 6.2 240 09:42 19.06.2019
6107 Haze 30 1004 84 3000 5.1 240 09:21 19.06.2019
6108 Haze 30 1004 79 2500 4.1 240 08:50 19.06.2019
6109 Haze 30 1004 79 2500 4.1 240 08:29 19.06.2019
6110 Haze 28 1005 88 2500 3.1 190 07:48 19.06.2019
6111 Haze 28 1005 88 2500 3.1 190 07:29 19.06.2019
6112 Rain 28 1004 88 1700 4.1 220 06:55 19.06.2019
6113 Rain 28 1004 88 1700 4.1 220 06:30 19.06.2019
6114 Rain 27 1004 94 2100 2.1 170 05:50 19.06.2019
6115 Mist 27 1004 94 2100 2.1 170 04:41 19.06.2019
6116 Mist 27 1003 94 2100 2.6 170 03:36 19.06.2019
6117 Mist 28 1003 88 2100 2.1 160 02:30 19.06.2019
6118 Mist 27 1002 94 2200 1.5 160 01:27 19.06.2019
6119 Mist 27 1003 88 2200 6.15 229.97 00:46 19.06.2019
6120 Mist 27 1003 88 2200 6.15 229.97 00:27 19.06.2019
6121 Mist 27 1003 88 2200 2.6 240 23:55 18.06.2019
6122 Mist 27 1003 88 2200 2.6 240 23:28 18.06.2019
6123 Mist 27 1004 94 2500 5.7 250 22:55 18.06.2019
6124 Mist 27 1004 94 2500 1.5 190 22:37 18.06.2019
6125 Rain 27 1004 94 2200 6.81 227.953 22:18 18.06.2019
6126 Rain 27 1005 94 1500 2.6 120 21:42 18.06.2019
6127 Rain 27 1005 94 1500 2.6 120 21:21 18.06.2019
6128 Rain 27 1005 94 1500 2.6 120 21:21 18.06.2019
6129 Rain 27 1005 94 1500 2.6 120 21:21 18.06.2019
6130 Rain 27 1005 88 2200 1.5 160 20:44 18.06.2019
6131 Rain 27 1005 88 1500 2.6 300 20:25 18.06.2019
6132 Rain 27 1005 88 1500 2.6 300 19:55 18.06.2019
6133 Rain 28 1005 88 1500 3.1 140 19:37 18.06.2019
6134 Haze 29 1005 83 2500 3.1 120 19:19 18.06.2019
6135 Haze 29 1004 83 2500 2.6 190 18:43 18.06.2019
6136 Haze 29 1004 83 2500 2.6 200 18:24 18.06.2019
6137 Haze 29 1004 83 2500 2.1 200 17:40 18.06.2019
6138 Haze 28 1004 83 2500 2.1 210 17:20 18.06.2019
6139 Haze 27 1004 83 2500 3.6 230 16:47 18.06.2019
6140 Haze 28 1004 83 2500 3.6 230 16:27 18.06.2019
6141 Haze 28 1004 83 2500 3.6 230 15:56 18.06.2019
6142 Haze 28 1004 83 2500 5.7 260 15:36 18.06.2019
6143 Haze 28 1003 88 2500 6.2 260 15:18 18.06.2019
6144 Rain 27 1003 88 2500 6.2 260 14:42 18.06.2019
6145 Haze 28 1003 83 3000 7.2 260 14:22 18.06.2019
6146 Haze 28 1003 83 3000 7.2 260 13:53 18.06.2019
6147 Haze 28 1003 88 3000 3.6 270 13:32 18.06.2019
6148 Drizzle 28 1003 83 2500 4.6 230 12:59 18.06.2019
6149 Rain 28 1004 88 2500 5.1 250 12:41 18.06.2019
6150 Rain 28 1004 88 2500 5.1 250 12:23 18.06.2019
6151 Haze 29 1004 83 3500 7.2 260 11:42 18.06.2019
6152 Haze 30 1004 74 3500 4.6 240 11:21 18.06.2019
6153 Haze 30 1004 74 3500 4.6 240 10:57 18.06.2019
6154 Haze 29 1005 79 3500 5.1 250 10:37 18.06.2019
6155 Haze 28 1006 83 3500 5.7 240 10:18 18.06.2019
6156 Drizzle 29 1006 88 3000 6.7 230 09:39 18.06.2019
6157 Rain 32 1005 66 3000 8.7 220 09:18 18.06.2019
6158 Haze 32 1005 70 4000 6.7 220 08:43 18.06.2019
6159 Haze 32 1005 70 4000 6.7 220 08:43 18.06.2019
6160 Haze 33 1006 70 4000 6.7 210 08:21 18.06.2019
6161 Rain 32 1006 74 4000 8.2 210 07:40 18.06.2019
6162 Haze 32 1006 74 4000 6.7 210 07:19 18.06.2019
6163 Haze 31 1005 79 3500 5.1 200 05:39 18.06.2019
6164 Smoke 30 1005 79 3500 6.7 210 05:19 18.06.2019
6165 Haze 29 1004 83 3000 3.6 190 02:52 18.06.2019
6166 Haze 29 1004 83 3000 4.1 190 01:54 18.06.2019
6167 Haze 29 1004 79 3000 3.1 170 01:24 18.06.2019
6168 Haze 29 1004 79 3000 3.6 180 00:54 18.06.2019
6169 Haze 29 1004 83 3000 4.1 200 00:26 18.06.2019
6170 Haze 29 1005 83 2500 4.1 210 23:41 17.06.2019
6171 Haze 29 1005 83 2500 3.6 190 23:20 17.06.2019
6172 Rain 29 1005 83 2100 4.6 190 22:55 17.06.2019
6173 Rain 29 1005 83 2100 4.6 190 22:36 17.06.2019
6174 Rain 29 1005 83 2100 5.1 190 22:18 17.06.2019
6175 Haze 30 1006 79 3000 5.7 200 21:42 17.06.2019
6176 Haze 29 1006 83 3000 3.6 230 21:21 17.06.2019
6177 Haze 29 1007 74 3000 4.6 200 20:37 17.06.2019
6178 Drizzle 30 1007 79 3000 5.1 210 20:19 17.06.2019
6179 Rain 30 1007 84 3000 3.6 200 19:42 17.06.2019
6180 Rain 30 1007 84 3000 3.6 200 19:24 17.06.2019
6181 Haze 30 1006 79 3000 5.7 210 18:58 17.06.2019
6182 Haze 30 1006 79 3000 5.7 210 18:38 17.06.2019
6183 Haze 31 1006 74 3000 4.6 190 18:18 17.06.2019
6184 Haze 31 1006 74 3000 4.6 190 17:47 17.06.2019
6185 Haze 30 1006 79 3000 4.6 190 17:28 17.06.2019
6186 Haze 31 1006 74 3500 5.1 190 16:49 17.06.2019
6187 Haze 31 1006 74 3500 5.1 190 16:31 17.06.2019
6188 Haze 31 1006 74 3500 5.1 220 15:58 17.06.2019
6189 Haze 32 1005 74 3500 5.1 220 15:39 17.06.2019
6190 Rain 32 1005 74 3500 6.7 210 15:19 17.06.2019
6191 Haze 33 1005 70 3500 6.7 220 14:53 17.06.2019
6192 Haze 33 1005 70 3500 6.7 220 14:34 17.06.2019
6193 Haze 33 1006 70 3500 7.7 220 13:57 17.06.2019
6194 Haze 33 1006 70 3500 7.7 220 13:39 17.06.2019
6195 Haze 33 1006 70 3500 5.7 210 13:20 17.06.2019
6196 Haze 33 1006 70 3500 5.7 210 12:33 17.06.2019
6197 Rain 33 1007 70 3500 8.7 220 11:58 17.06.2019
6198 Haze 33 1007 70 3500 6.7 220 11:39 17.06.2019
6199 Rain 33 1007 70 3000 5.1 220 11:18 17.06.2019
6200 Haze 33 1007 70 3000 5.1 230 10:46 17.06.2019
6201 Haze 33 1007 70 3000 5.1 230 10:28 17.06.2019
6202 Haze 33 1008 70 3000 4.6 210 09:56 17.06.2019
6203 Haze 33 1008 70 3000 4.6 210 09:32 17.06.2019
6204 Haze 31 1008 79 3000 5.1 210 08:46 17.06.2019
6205 Haze 30 1008 79 3000 5.1 210 08:24 17.06.2019
6206 Haze 30 1008 89 3000 4.1 220 07:57 17.06.2019
6207 Rain 31 1008 74 2200 5.1 190 07:32 17.06.2019
6208 Haze 31 1008 74 3000 5.1 210 06:53 17.06.2019
6209 Haze 31 1008 74 3000 4.1 210 06:18 17.06.2019
6210 Drizzle 31 1007 79 3000 5.1 200 05:26 17.06.2019
6211 Mist 30 1007 79 3000 4.1 190 04:23 17.06.2019
6212 Mist 30 1007 79 2500 4.6 200 03:31 17.06.2019
6213 Mist 29 1006 83 2500 3.6 190 02:43 17.06.2019
6214 Mist 29 1006 83 2500 3.1 180 02:25 17.06.2019
6215 Mist 29 1006 83 2500 6.2 190 01:35 17.06.2019
6216 Mist 29 1006 83 2500 5.7 200 00:57 17.06.2019
6217 Mist 29 1006 83 2200 3.1 180 00:37 17.06.2019
6218 Rain 29 1006 83 2200 4.1 180 00:18 17.06.2019
6219 Rain 29 1006 89 1800 4.1 210 23:39 16.06.2019
6220 Rain 29 1006 89 1800 3.6 180 23:20 16.06.2019
6221 Rain 28 1006 88 1500 6.2 150 22:45 16.06.2019
6222 Haze 30 1007 84 2500 4.1 180 22:20 16.06.2019
6223 Haze 30 1007 84 2500 4.1 190 21:57 16.06.2019
6224 Haze 30 1007 84 2500 4.1 190 21:39 16.06.2019
6225 Haze 30 1007 79 2500 4.1 190 21:20 16.06.2019
6226 Haze 30 1007 84 3000 2.6 180 20:40 16.06.2019
6227 Haze 29 1007 83 3000 1.5 170 20:19 16.06.2019
6228 Haze 29 1008 79 3000 4.6 180 19:58 16.06.2019
6229 Haze 29 1008 79 3000 4.6 180 19:39 16.06.2019
6230 Haze 29 1007 83 3000 4.1 200 19:21 16.06.2019
6231 Haze 30 1007 84 3000 4.1 190 18:42 16.06.2019
6232 Haze 30 1007 79 3000 6.2 200 18:21 16.06.2019
6233 Haze 30 1006 79 3000 4.1 200 17:58 16.06.2019
6234 Haze 30 1006 79 3000 4.1 200 17:40 16.06.2019
6235 Haze 30 1006 74 3500 3.6 190 17:21 16.06.2019
6236 Haze 30 1006 79 3500 4.6 200 16:55 16.06.2019
6237 Haze 30 1006 79 3500 4.6 200 16:37 16.06.2019
6238 Haze 30 1006 79 3500 4.6 200 16:18 16.06.2019
6239 Haze 31 1005 74 3500 5.7 200 15:39 16.06.2019
6240 Haze 31 1005 74 3500 6.2 210 15:21 16.06.2019
6241 Haze 31 1005 74 3500 6.2 210 14:41 16.06.2019
6242 Haze 31 1005 79 3500 5.1 190 14:22 16.06.2019
6243 Haze 31 1005 79 3000 5.1 210 13:51 16.06.2019
6244 Haze 31 1005 79 3000 5.1 210 13:51 16.06.2019
6245 Haze 31 1005 79 3000 5.1 210 13:26 16.06.2019
6246 Rain 30 1006 78 1200 5.1 220 12:56 16.06.2019
6247 Rain 30 1006 78 1200 5.1 220 12:37 16.06.2019
6248 Rain 32 1006 70 2200 6.7 220 12:18 16.06.2019
6249 Rain 32 1006 74 3000 9.3 210 11:38 16.06.2019
6250 Rain 33 1006 70 3000 6.2 210 11:19 16.06.2019
6251 Haze 33 1006 66 4000 5.1 200 10:45 16.06.2019
6252 Haze 33 1006 70 4000 4.1 210 10:20 16.06.2019
6253 Haze 33 1006 75 4000 6.2 180 09:47 16.06.2019
6254 Haze 33 1007 75 3500 5.1 180 09:25 16.06.2019
6255 Haze 33 1007 75 3500 7.2 170 08:50 16.06.2019
6256 Haze 33 1007 70 3000 5.1 180 08:23 16.06.2019
6257 Haze 33 1007 70 3000 5.1 180 07:54 16.06.2019
6258 Haze 32 1007 74 3000 3.6 200 07:36 16.06.2019
6259 -273 0 0 0 0 0 06:57 16.06.2019
6260 Haze 32 1007 74 3000 5.1 220 06:27 16.06.2019
6261 Haze 31 1007 79 3000 5.1 190 05:29 16.06.2019
6262 Haze 30 1006 79 3000 4.6 200 04:36 16.06.2019
6263 Haze 30 1006 83 3000 4.1 210 03:53 16.06.2019
6264 Haze 30 1006 83 3000 4.1 210 03:30 16.06.2019
6265 Drizzle 29 1005 83 3000 5.1 190 01:59 16.06.2019
6266 Rain 29 1005 83 3500 5.1 190 01:40 16.06.2019
6267 Haze 29 1005 83 3500 4.1 190 01:21 16.06.2019
6268 Drizzle 29 1005 83 3500 5.1 190 00:39 16.06.2019
6269 Drizzle 29 1004 83 4000 3.1 200 00:19 16.06.2019
6270 Drizzle 30 1005 84 4000 3.6 200 23:42 15.06.2019
6271 Drizzle 30 1005 84 4000 5.1 200 23:22 15.06.2019
6272 Drizzle 30 1005 84 3000 5.1 190 22:49 15.06.2019
6273 Drizzle 30 1005 84 3000 5.1 190 22:26 15.06.2019
6274 Rain 30 1006 84 3000 6.2 190 21:45 15.06.2019
6275 Rain 30 1006 84 3000 6.2 190 21:27 15.06.2019
6276 Rain 29 1006 89 3000 4.1 190 20:56 15.06.2019
6277 Rain 29 1006 89 3000 4.6 160 20:36 15.06.2019
6278 Rain 30 1006 84 3000 5.1 170 20:18 15.06.2019
6279 Rain 30 1006 84 3000 5.1 190 19:40 15.06.2019
6280 Drizzle 30 1006 84 3000 5.7 200 19:22 15.06.2019
6281 Haze 30 1006 84 2500 3.1 190 18:39 15.06.2019
6282 Drizzle 30 1006 79 2400 6.2 180 18:20 15.06.2019
6283 Rain 30 1005 84 2200 5.1 180 17:43 15.06.2019
6284 Rain 30 1005 84 2200 5.1 180 17:43 15.06.2019
6285 Rain 30 1005 84 2200 5.7 180 17:21 15.06.2019
6286 Rain 31 1005 84 2100 4.6 190 16:46 15.06.2019
6287 Drizzle 31 1004 84 2500 6.7 190 16:19 15.06.2019
6288 Haze 31 1004 84 3000 6.2 180 15:43 15.06.2019
6289 Rain 31 1003 84 3000 4.6 190 15:23 15.06.2019
6290 Rain 31 1003 79 3000 5.7 200 14:42 15.06.2019
6291 Rain 30 1004 89 3000 3.1 180 14:19 15.06.2019
6292 Rain 30 1004 89 3000 3.1 180 13:57 15.06.2019
6293 Rain 29 1004 88 2100 4.6 180 13:39 15.06.2019
6294 Rain 33 1003 70 3500 6.7 190 13:18 15.06.2019
6295 Haze 33 1004 75 3500 6.2 190 12:47 15.06.2019
6296 Haze 33 1004 75 3500 6.2 190 12:25 15.06.2019
6297 Haze 33 1004 70 3500 8.7 200 11:51 15.06.2019
6298 Haze 33 1004 70 3500 8.7 200 11:32 15.06.2019
6299 Smoke 33 1004 79 3000 8.2 180 10:47 15.06.2019
6300 Smoke 33 1004 79 3000 8.2 180 10:26 15.06.2019
6301 Smoke 33 1005 75 3000 6.2 200 09:58 15.06.2019
6302 Smoke 32 1005 79 3000 8.2 180 09:39 15.06.2019
6303 Smoke 32 1005 79 3000 7.2 190 09:19 15.06.2019
6304 Smoke 32 1005 74 3000 3.6 210 08:43 15.06.2019
6305 Smoke 32 1005 74 3000 3.6 210 08:24 15.06.2019
6306 Rain 30 1005 89 3000 4.6 170 07:38 15.06.2019
6307 Rain 30 1005 89 3000 4.6 170 07:20 15.06.2019
6308 Rain 29 1005 88 3000 2.6 170 06:38 15.06.2019
6309 Rain 28 1005 88 3000 3.6 160 05:46 15.06.2019
6310 Rain 27 1004 88 3000 4.6 170 05:18 15.06.2019
6311 Drizzle 28 1004 88 3000 3.1 160 04:31 15.06.2019
6312 Haze 28 1003 88 3000 3.6 160 03:38 15.06.2019
6313 Haze 27 1003 88 3000 2.6 150 02:47 15.06.2019
6314 Haze 27 1002 88 3000 3.1 150 01:59 15.06.2019
6315 Haze 27 1002 88 3000 3.1 150 01:28 15.06.2019
6316 Haze 28 1002 83 3000 3.1 140 00:44 15.06.2019
6317 Haze 28 1002 83 3000 3.1 140 00:26 15.06.2019
6318 Haze 28 1003 88 3000 3.1 150 23:52 14.06.2019
6319 Haze 27 1003 94 3000 2.6 100 23:23 14.06.2019
6320 Haze 27 1003 94 2500 2.6 120 22:43 14.06.2019
6321 Rain 27 1004 94 2500 2.1 120 22:22 14.06.2019
6322 -273 0 0 0 0 0 21:57 14.06.2019
6323 Rain 27 1004 94 2500 3.1 160 21:38 14.06.2019
6324 Drizzle 27 1004 88 3000 3.6 160 21:20 14.06.2019
6325 Haze 27 1005 88 3000 3.1 170 20:41 14.06.2019
6326 Drizzle 27 1005 88 3000 2.6 130 20:18 14.06.2019
6327 Drizzle 27 1005 94 3000 10.46 185.069 19:44 14.06.2019
6328 Rain 26 1005 100 3000 10.46 185.069 19:23 14.06.2019
6329 Rain 26 1005 100 3000 10.46 185.069 18:58 14.06.2019
6330 Drizzle 26 1004 94 3000 2.1 220 18:40 14.06.2019
6331 Rain 27 1004 88 1500 10.19 184.098 18:21 14.06.2019
6332 Rain 27 1004 94 2400 1.5 120 17:46 14.06.2019
6333 Rain 27 1003 88 2900 4.1 220 17:25 14.06.2019
6334 Rain 27 1003 88 2900 4.1 220 16:55 14.06.2019
6335 Rain 27 1003 88 2600 5.1 250 16:37 14.06.2019
6336 Rain 28 1003 79 3000 2.6 180 16:18 14.06.2019
6337 Rain 28 1002 78 2500 4.1 210 15:39 14.06.2019
6338 Rain 27 1002 88 2500 9.8 200 15:21 14.06.2019
6339 Rain 28 1002 88 2100 9.3 200 14:52 14.06.2019
6340 Rain 28 1002 88 2100 9.3 200 14:32 14.06.2019
6341 Rain 28 1002 83 2500 5.1 220 13:55 14.06.2019
6342 Rain 33 1001 70 4000 6.2 150 13:55 14.06.2019
6343 Rain 33 1001 70 4000 6.2 150 13:36 14.06.2019
6344 Smoke 33 1001 75 4000 7.7 210 13:18 14.06.2019
6345 Smoke 33 1001 75 4000 8.7 170 12:41 14.06.2019
6346 Smoke 33 1001 75 4000 8.2 170 12:22 14.06.2019
6347 Haze 34 1002 70 4000 5.7 170 11:46 14.06.2019
6348 Haze 33 1002 75 3500 5.7 190 11:24 14.06.2019
6349 Haze 33 1003 75 3500 7.2 190 10:58 14.06.2019
6350 Haze 33 1003 75 3500 7.2 190 10:39 14.06.2019
6351 Haze 34 1003 75 3500 8.2 180 10:18 14.06.2019
6352 Haze 33 1003 75 3500 8.2 170 09:39 14.06.2019
6353 Haze 33 1003 70 3500 9.3 180 09:20 14.06.2019
6354 Haze 33 1003 75 3000 7.7 180 08:45 14.06.2019
6355 Haze 32 1004 79 3000 7.7 170 08:18 14.06.2019
6356 Haze 32 1004 79 3000 4.6 170 07:48 14.06.2019
6357 Haze 29 1004 79 2500 5.1 170 07:20 14.06.2019
6358 Mist 30 1004 84 2200 4.1 180 06:31 14.06.2019
6359 Rain 28 1004 88 2200 2.6 160 05:55 14.06.2019
6360 Mist 29 1004 83 2200 1.5 180 05:55 14.06.2019
6361 Rain 28 1003 88 2200 2.6 160 04:59 14.06.2019
6362 Rain 28 1003 88 2200 3.6 150 04:37 14.06.2019
6363 Rain 28 1002 88 2200 2.1 140 03:51 14.06.2019
6364 Rain 28 1002 88 2200 2.1 140 03:25 14.06.2019
6365 Rain 28 1002 88 2200 2.1 140 03:25 14.06.2019
6366 Rain 28 1002 88 2200 2.1 140 03:25 14.06.2019
6367 Rain 28 1001 88 2500 4.1 160 02:47 14.06.2019
6368 -273 0 0 0 0 0 01:58 14.06.2019
6369 Haze 28 1001 88 2500 3.1 170 00:51 14.06.2019
6370 Rain 29 1001 83 2100 3.1 170 00:23 14.06.2019
6371 Haze 29 1001 83 3000 4.6 160 23:56 13.06.2019
6372 Haze 29 1001 83 3000 4.6 160 23:27 13.06.2019
6373 Haze 29 1001 83 3000 2.1 180 22:59 13.06.2019
6374 Haze 29 1002 83 3000 3.6 170 22:39 13.06.2019
6375 Haze 29 1002 83 3000 2.6 160 22:20 13.06.2019
6376 Haze 29 1003 83 2500 3.6 180 21:39 13.06.2019
6377 Haze 29 1003 83 2500 3.6 170 21:20 13.06.2019
6378 Haze 29 1003 79 2500 3.1 180 20:45 13.06.2019
6379 Haze 29 1003 83 2500 3.1 170 20:22 13.06.2019
6380 Haze 29 1003 83 2500 3.1 170 19:59 13.06.2019
6381 Haze 29 1003 83 2500 3.6 160 19:41 13.06.2019
6382 Haze 29 1003 83 2500 4.1 150 19:21 13.06.2019
6383 Drizzle 30 1003 79 2500 2.1 180 18:55 13.06.2019
6384 Drizzle 30 1003 79 2500 2.1 180 18:36 13.06.2019
6385 Haze 29 1003 79 2500 2.6 160 18:18 13.06.2019
6386 Haze 29 1002 79 2500 2.1 150 17:41 13.06.2019
6387 Haze 29 1002 79 2500 3.6 160 17:20 13.06.2019
6388 Haze 30 1002 79 2500 4.1 160 16:46 13.06.2019
6389 Haze 30 1002 79 2500 1.5 160 16:21 13.06.2019
6390 Rain 29 1001 79 2500 2.6 180 15:57 13.06.2019
6391 Rain 29 1001 79 2500 2.6 180 15:38 13.06.2019
6392 Rain 29 1001 74 2500 3.6 170 15:18 13.06.2019
6393 Rain 28 1001 83 2500 2.6 160 14:44 13.06.2019
6394 Rain 28 1001 88 2500 2.6 180 14:25 13.06.2019
6395 Rain 27 1001 88 2500 10.8 220 13:46 13.06.2019
6396 Rain 30 1001 84 3000 4.1 170 13:21 13.06.2019
6397 Rain 28 1001 88 2500 5.1 150 12:44 13.06.2019
6398 Rain 28 1001 88 2500 8.7 190 12:24 13.06.2019
6399 Haze 34 1001 70 3500 7.2 180 11:59 13.06.2019
6400 Haze 34 1001 70 3500 7.2 180 11:41 13.06.2019
6401 Haze 34 1001 66 3500 5.7 170 11:22 13.06.2019
6402 Haze 33 1002 70 3500 7.2 160 10:46 13.06.2019
6403 Haze 33 1002 70 3500 7.2 160 10:27 13.06.2019
6404 Haze 34 1002 70 3500 8.2 180 09:48 13.06.2019
6405 Haze 34 1003 70 3500 8.7 170 09:25 13.06.2019
6406 Haze 34 1002 70 3500 8.2 180 09:25 13.06.2019
6407 Haze 34 1002 70 3500 8.7 190 08:50 13.06.2019
6408 Haze 34 1002 70 3500 8.7 190 08:30 13.06.2019
6409 Smoke 33 1002 75 3500 7.7 180 07:59 13.06.2019
6410 Smoke 33 1002 75 3500 7.7 180 07:59 13.06.2019
6411 Smoke 33 1002 70 3500 8.7 180 07:31 13.06.2019
6412 Haze 32 1002 79 3000 5.1 180 06:52 13.06.2019
6413 Haze 32 1002 79 3000 5.1 180 06:24 13.06.2019
6414 Rain 31 1002 84 3500 5.1 180 05:58 13.06.2019
6415 Smoke 30 1002 84 4000 7.2 180 05:38 13.06.2019
6416 Smoke 29 1002 83 4000 6.7 180 05:18 13.06.2019
6417 Haze 27 1001 83 4000 4.1 150 03:44 13.06.2019
6418 Haze 27 1000 83 3000 5.7 140 01:55 13.06.2019
6419 Haze 27 1000 78 3000 5.1 140 00:30 13.06.2019
6420 Haze 27 1000 78 3000 4.1 170 23:26 12.06.2019
6421 Haze 27 1001 78 3000 3.6 160 22:59 12.06.2019
6422 Haze 27 1001 78 3000 3.6 160 22:40 12.06.2019
6423 Haze 27 1001 83 3000 4.1 150 22:21 12.06.2019
6424 Haze 27 1002 83 3000 4.1 160 21:43 12.06.2019
6425 Haze 27 1002 83 3000 4.1 160 21:25 12.06.2019
6426 Haze 27 1002 78 4000 3.6 150 20:48 12.06.2019
6427 Haze 27 1002 78 4000 3.6 150 20:29 12.06.2019
6428 Haze 27 1002 78 4000 5.1 160 19:57 12.06.2019
6429 Haze 26 1002 83 4000 5.1 160 19:38 12.06.2019
6430 Haze 27 1001 78 4000 4.6 170 19:19 12.06.2019
6431 Haze 27 1001 78 3000 3.6 160 18:44 12.06.2019
6432 Haze 27 1001 78 3000 3.6 160 18:26 12.06.2019
6433 Rain 27 1001 83 3000 6.2 150 17:47 12.06.2019
6434 Rain 27 1001 83 3000 5.1 150 17:23 12.06.2019
6435 Rain 26 1001 83 3000 5.1 140 16:44 12.06.2019
6436 Rain 26 1001 83 3000 5.1 140 16:25 12.06.2019
6437 Rain 26 1000 88 2400 3.6 150 15:58 12.06.2019
6438 Rain 26 1000 88 2400 3.6 150 15:34 12.06.2019
6439 Rain 27 999 94 2000 60.2 160 14:58 12.06.2019
6440 Rain 27 1000 88 2100 6.7 140 14:34 12.06.2019
6441 Rain 27 1000 88 3000 6.7 140 13:58 12.06.2019
6442 Rain 27 999 88 3000 5.1 140 13:39 12.06.2019
6443 Rain 27 1000 88 2400 6.7 150 13:19 12.06.2019
6444 Rain 27 1000 88 2100 6.2 160 12:44 12.06.2019
6445 -273 0 0 0 0 0 12:22 12.06.2019
6446 Rain 27 1001 88 2100 7.2 170 11:58 12.06.2019
6447 Rain 27 1000 88 1800 4.6 190 11:38 12.06.2019
6448 Rain 30 1000 74 1300 4.1 170 11:20 12.06.2019
6449 Drizzle 28 1001 94 1800 4.1 170 10:44 12.06.2019
6450 Rain 31 1001 83 1500 4.1 180 10:20 12.06.2019
6451 Haze 33 1000 59 4000 5.7 160 09:43 12.06.2019
6452 Haze 33 1000 59 5000 8.2 160 09:22 12.06.2019
6453 Haze 33 1000 62 5000 5.7 140 08:38 12.06.2019
6454 Haze 33 1000 59 5000 5.1 170 08:19 12.06.2019
6455 Smoke 32 1000 66 5000 3.6 160 07:26 12.06.2019
6456 Haze 32 1000 66 5000 5.1 130 06:41 12.06.2019
6457 Haze 30 999 70 3000 9.3 170 05:27 12.06.2019
6458 Haze 29 999 74 2500 4.1 150 03:41 12.06.2019
6459 Haze 30 998 74 3000 5.1 150 00:54 12.06.2019
6460 Haze 30 998 74 3000 5.1 150 00:35 12.06.2019
6461 Haze 30 998 79 3000 2.6 70 23:44 11.06.2019
6462 Haze 30 998 79 3000 2.6 70 23:26 11.06.2019
6463 Haze 30 999 79 3500 2.1 110 22:43 11.06.2019
6464 Haze 30 1000 79 3500 2.6 120 22:18 11.06.2019
6465 -273 0 0 0 0 0 21:57 11.06.2019
6466 Haze 30 1000 84 3500 3.1 100 21:37 11.06.2019
6467 Haze 30 1001 84 4000 3.1 90 21:19 11.06.2019
6468 Haze 30 1001 84 4000 2.6 100 20:47 11.06.2019
6469 Haze 31 1000 74 4000 2.1 90 20:24 11.06.2019
6470 Haze 31 1000 74 4000 2.1 90 19:54 11.06.2019
6471 Haze 31 1000 74 4000 2.1 90 19:32 11.06.2019
6472 Haze 30 1000 84 4000 3.1 50 18:56 11.06.2019
6473 Haze 30 1000 84 4000 2.6 50 18:21 11.06.2019
6474 Haze 31 1000 74 4000 2.6 360 17:42 11.06.2019
6475 Haze 31 1000 74 4000 2.6 360 17:42 11.06.2019
6476 Haze 32 1000 66 4000 1.5 220 17:22 11.06.2019
6477 Haze 33 999 66 5000 2.1 210 16:57 11.06.2019
6478 Haze 33 999 66 5000 2.1 210 16:39 11.06.2019
6479 Haze 33 998 66 5000 4.6 240 16:21 11.06.2019
6480 -273 0 0 0 0 0 15:42 11.06.2019
6481 Haze 33 998 70 5000 5.1 210 15:22 11.06.2019
6482 Haze 33 997 70 5000 3.6 250 14:47 11.06.2019
6483 Haze 32 998 70 5000 3.1 300 14:21 11.06.2019
6484 Haze 33 998 66 4000 4.1 240 13:52 11.06.2019
6485 Haze 33 998 66 4000 5.1 240 13:24 11.06.2019
6486 Haze 33 998 66 4000 5.1 240 12:58 11.06.2019
6487 Haze 33 999 66 4000 5.7 250 12:40 11.06.2019
6488 Haze 34 999 66 3000 3.1 300 12:19 11.06.2019
6489 Drizzle 33 999 70 3000 4.1 270 11:39 11.06.2019
6490 Haze 33 999 70 4000 5.1 270 11:19 11.06.2019
6491 Smoke 34 1000 63 5000 5.1 280 10:46 11.06.2019
6492 Smoke 34 1000 63 5000 5.1 280 10:46 11.06.2019
6493 Smoke 34 1000 63 5000 5.1 280 10:26 11.06.2019
6494 Haze 34 1001 66 5000 3.6 250 09:49 11.06.2019
6495 Haze 34 1001 66 5000 3.6 250 09:24 11.06.2019
6496 Haze 34 1001 63 4500 2.1 100 08:46 11.06.2019
6497 Haze 34 1001 63 4500 2.1 100 08:28 11.06.2019
6498 Haze 33 1002 66 3500 1.01 252.592 07:46 11.06.2019
6499 Haze 33 1002 66 3500 1.01 252.592 07:27 11.06.2019
6500 Haze 32 1003 70 3500 3.97 214.283 06:50 11.06.2019
6501 Haze 28 1002 83 2100 2.18 201.034 04:55 11.06.2019
6502 Haze 28 1001 78 2100 2.6 70 03:42 11.06.2019
6503 Haze 26 1001 88 2200 3.1 100 01:41 11.06.2019
6504 Haze 26 1001 94 2100 1.5 110 00:48 11.06.2019
6505 Thunderstorm 27 1001 83 2100 2.1 160 23:50 10.06.2019
6506 Thunderstorm 27 1001 83 2100 2.1 160 23:32 10.06.2019
6507 Thunderstorm 27 1002 83 1500 2.1 120 22:56 10.06.2019
6508 Thunderstorm 27 1002 83 1500 1.5 150 22:37 10.06.2019
6509 Thunderstorm 27 1002 83 1500 3.1 170 22:19 10.06.2019
6510 Thunderstorm 27 1003 83 1500 3.6 150 21:41 10.06.2019
6511 Thunderstorm 27 1003 83 1200 3.1 180 21:22 10.06.2019
6512 Thunderstorm 26 1004 88 1200 4.1 160 20:47 10.06.2019
6513 Thunderstorm 26 1005 88 1200 5.1 110 20:25 10.06.2019
6514 -273 0 0 0 0 0 19:57 10.06.2019
6515 Thunderstorm 25 1005 88 800 1.5 30 19:38 10.06.2019
6516 Thunderstorm 26 1006 83 300 4.6 50 19:20 10.06.2019
6517 Thunderstorm 31 1003 74 2500 3.1 230 18:55 10.06.2019
6518 Thunderstorm 31 1003 74 2500 3.1 230 18:37 10.06.2019
6519 Thunderstorm 31 1003 84 3500 3.1 240 18:18 10.06.2019
6520 Haze 30 1003 89 4000 3.1 270 17:40 10.06.2019
6521 Rain 31 1003 79 2500 4.6 260 17:21 10.06.2019
6522 Haze 32 1002 79 4000 5.1 250 16:45 10.06.2019
6523 Haze 32 1002 79 4000 5.1 250 16:27 10.06.2019
6524 Haze 33 1001 75 5500 6.2 240 15:43 10.06.2019
6525 Haze 33 1001 75 5500 6.2 240 15:24 10.06.2019
6526 Haze 33 1001 75 6000 5.7 260 14:59 10.06.2019
6527 Haze 33 1000 75 6000 6.2 240 14:39 10.06.2019
6528 Clouds 33 1000 75 6000 5.7 240 14:21 10.06.2019
6529 Clouds 34 1001 75 6000 6.2 250 13:43 10.06.2019
6530 Clouds 34 1001 75 6000 5.7 270 13:23 10.06.2019
6531 Clouds 34 1001 70 6000 5.7 260 12:45 10.06.2019
6532 Clouds 34 1001 70 6000 5.7 260 12:27 10.06.2019
6533 Clouds 35 1001 59 6000 4.1 250 11:48 10.06.2019
6534 Clouds 35 1001 59 6000 4.1 250 11:29 10.06.2019
6535 Smoke 34 1002 66 5000 3.6 250 10:57 10.06.2019
6536 Smoke 34 1002 66 5000 3.6 250 10:38 10.06.2019
6537 Smoke 34 1003 66 5000 6.7 240 10:18 10.06.2019
6538 Smoke 34 1003 66 5000 4.1 240 09:45 10.06.2019
6539 Smoke 34 1003 66 5000 4.1 240 09:26 10.06.2019
6540 Smoke 34 1003 63 4000 2.6 260 08:45 10.06.2019
6541 Smoke 34 1003 63 4000 2.6 260 08:25 10.06.2019
6542 Haze 33 1004 66 4000 3.6 170 07:26 10.06.2019
6543 Haze 30 1003 70 3000 2.6 190 04:41 10.06.2019
6544 Haze 30 1003 74 3000 1.5 140 02:18 10.06.2019
6545 Haze 30 1002 74 3000 2.6 240 01:28 10.06.2019
6546 Haze 30 1002 70 3000 3.1 200 00:59 10.06.2019
6547 Haze 30 1002 74 3000 3.15 238.696 00:24 10.06.2019
6548 Haze 30 1002 74 3000 3.15 238.696 23:44 09.06.2019
6549 Haze 30 1002 74 2100 2.1 200 23:21 09.06.2019
6550 Haze 30 1002 74 2100 2.1 200 23:21 09.06.2019
6551 Haze 29 1002 74 2100 3.1 310 22:45 09.06.2019
6552 Haze 29 1002 74 2100 3.1 210 22:25 09.06.2019
6553 Rain 28 1003 78 2100 1.5 130 21:46 09.06.2019
6554 Rain 28 1003 78 2100 1.5 130 21:27 09.06.2019
6555 Thunderstorm 29 1004 74 800 7.2 110 20:45 09.06.2019
6556 Thunderstorm 29 1004 74 800 7.2 110 20:24 09.06.2019
6557 Haze 31 1004 79 4000 1.5 210 19:59 09.06.2019
6558 Haze 31 1004 79 4000 1.5 210 19:41 09.06.2019
6559 Haze 32 1004 70 4000 4.1 240 19:18 09.06.2019
6560 Haze 32 1005 70 4000 3.1 200 18:42 09.06.2019
6561 Haze 32 1005 70 4000 5.1 190 18:24 09.06.2019
6562 Haze 31 1005 74 4000 3.6 220 17:48 09.06.2019
6563 Haze 31 1004 74 4000 3.1 230 17:29 09.06.2019
6564 Haze 32 1004 74 4000 3.1 230 16:57 09.06.2019
6565 Haze 32 1003 74 4000 3.6 250 16:38 09.06.2019
6566 Haze 32 1003 74 4000 4.1 260 16:19 09.06.2019
6567 Haze 33 1003 70 5000 4.1 250 15:48 09.06.2019
6568 Haze 33 1003 70 5000 4.1 250 15:28 09.06.2019
6569 Haze 33 1002 70 5000 6.7 260 14:48 09.06.2019
6570 Haze 33 1002 70 5000 6.2 260 14:29 09.06.2019
6571 Haze 33 1002 70 5000 6.2 260 13:57 09.06.2019
6572 Haze 33 1002 70 5000 6.2 270 13:38 09.06.2019
6573 Haze 34 1003 66 5000 5.1 260 12:55 09.06.2019
6574 Haze 34 1003 66 5000 5.1 260 12:34 09.06.2019
6575 Haze 34 1004 66 5000 6.2 250 11:49 09.06.2019
6576 Haze 34 1004 66 5000 6.2 250 11:30 09.06.2019
6577 Smoke 35 1005 63 5000 6.7 260 10:47 09.06.2019
6578 Smoke 35 1005 63 5000 6.7 260 10:26 09.06.2019
6579 Smoke 34 1005 66 4000 5.1 270 09:58 09.06.2019
6580 Smoke 34 1005 66 4000 5.1 270 09:38 09.06.2019
6581 Smoke 34 1005 66 4000 5.1 270 09:37 09.06.2019
6582 Smoke 35 1005 59 4000 5.7 250 09:18 09.06.2019
6583 Smoke 35 1005 63 4000 6.7 250 08:43 09.06.2019
6584 Smoke 35 1006 56 4000 3.6 180 07:51 09.06.2019
6585 Smoke 33 1006 66 4000 2.6 210 06:40 09.06.2019
6586 Smoke 32 1006 74 4000 3.1 250 05:52 09.06.2019
6587 Haze 30 1004 79 3000 2.6 230 02:55 09.06.2019
6588 Haze 31 1003 79 3000 3.1 230 01:37 09.06.2019
6589 Haze 31 1003 79 3000 3.1 230 01:37 09.06.2019
6590 Haze 31 1003 79 3000 3.1 230 01:37 09.06.2019
6591 Haze 30 1003 84 3000 2.1 230 01:18 09.06.2019
6592 Haze 31 1003 79 3000 2.1 220 00:29 09.06.2019
6593 Haze 31 1004 79 3500 3.6 230 23:40 08.06.2019
6594 Haze 31 1004 79 4000 3.6 230 23:22 08.06.2019
6595 Haze 31 1004 79 4000 4.1 240 22:45 08.06.2019
6596 Haze 31 1005 79 4000 3.6 240 22:26 08.06.2019
6597 Haze 31 1005 79 4000 3.6 240 21:58 08.06.2019
6598 Haze 31 1005 79 4000 3.1 250 21:39 08.06.2019
6599 Haze 31 1005 79 4000 3.1 230 21:20 08.06.2019
6600 Haze 31 1005 74 4000 1.5 250 20:43 08.06.2019
6601 Haze 31 1005 74 4000 1.5 250 20:25 08.06.2019
6602 Haze 32 1004 75 4000 3.6 310 19:55 08.06.2019
6603 Haze 32 1004 75 4000 3.6 310 19:36 08.06.2019
6604 Haze 32 1004 70 4000 2.6 300 19:18 08.06.2019
6605 Haze 31 1004 74 4000 3.6 300 18:40 08.06.2019
6606 Haze 32 1004 75 4000 3.1 310 18:20 08.06.2019
6607 Haze 32 1004 70 4000 2.6 320 17:43 08.06.2019
6608 Haze 32 1004 70 4000 3.1 320 17:22 08.06.2019
6609 Haze 33 1003 70 5000 3.1 310 16:48 08.06.2019
6610 Haze 33 1003 70 5000 3.1 310 16:29 08.06.2019
6611 Haze 33 1003 66 5000 4.1 290 15:51 08.06.2019
6612 Haze 33 1003 66 5000 4.1 290 15:33 08.06.2019
6613 Haze 33 1003 66 5000 4.1 290 15:33 08.06.2019
6614 Haze 33 1003 66 5000 4.1 290 15:33 08.06.2019
6615 Haze 34 1002 66 5000 5.7 300 14:47 08.06.2019
6616 Haze 34 1002 66 5000 5.7 300 14:29 08.06.2019
6617 Smoke 35 1003 63 5000 5.7 270 13:45 08.06.2019
6618 Smoke 35 1003 53 5000 7.2 270 12:53 08.06.2019
6619 Smoke 35 1003 53 5000 7.2 270 12:33 08.06.2019
6620 Haze 35 1004 59 4000 5.7 290 11:44 08.06.2019
6621 Haze 35 1005 59 4000 4.1 270 11:26 08.06.2019
6622 Haze 34 1005 59 4000 4.6 260 10:47 08.06.2019
6623 Haze 34 1005 59 4000 4.6 260 10:24 08.06.2019
6624 Haze 34 1007 59 4000 5.1 270 09:57 08.06.2019
6625 Haze 34 1007 59 4000 5.1 270 09:33 08.06.2019
6626 Haze 34 1007 66 4000 2.6 320 08:44 08.06.2019
6627 Haze 33 1008 66 4000 3.6 290 08:19 08.06.2019
6628 Haze 33 1008 70 3000 3.6 230 06:53 08.06.2019
6629 Haze 33 1008 70 3000 3.6 230 06:34 08.06.2019
6630 Haze 31 1007 74 3000 2.6 270 03:35 08.06.2019
6631 Haze 31 1005 79 3000 3.6 250 02:20 08.06.2019
6632 Haze 31 1005 74 3000 3.1 260 00:30 08.06.2019
6633 Haze 31 1006 79 3000 2.6 220 23:56 07.06.2019
6634 Haze 31 1006 74 3000 4.1 240 23:21 07.06.2019
6635 Haze 31 1006 74 3000 2.6 250 22:50 07.06.2019
6636 Haze 31 1006 74 3000 2.6 250 22:32 07.06.2019
6637 Haze 31 1006 79 3000 3.6 250 21:55 07.06.2019
6638 Haze 31 1006 79 3000 5.7 280 21:32 07.06.2019
6639 Haze 31 1006 79 3000 5.7 280 20:59 07.06.2019
6640 Haze 31 1006 79 3000 5.7 270 20:41 07.06.2019
6641 Haze 31 1006 79 3000 4.1 280 20:22 07.06.2019
6642 Haze 31 1006 74 3500 5.1 280 19:38 07.06.2019
6643 Haze 31 1006 74 3500 4.6 270 19:19 07.06.2019
6644 Haze 31 1006 74 3500 4.1 230 18:41 07.06.2019
6645 Haze 31 1007 74 3500 2.1 180 18:22 07.06.2019
6646 Haze 31 1007 74 4000 2.1 290 17:43 07.06.2019
6647 Haze 31 1006 74 4000 3.6 280 17:20 07.06.2019
6648 Haze 32 1005 74 5000 4.1 310 16:41 07.06.2019
6649 Haze 32 1005 74 5000 4.1 310 16:41 07.06.2019
6650 Haze 32 1005 74 5000 4.6 270 16:18 07.06.2019
6651 Haze 32 1005 70 6000 4.6 270 15:40 07.06.2019
6652 Clouds 33 1004 70 6000 5.1 280 15:19 07.06.2019
6653 Clouds 33 1004 70 6000 6.2 280 14:39 07.06.2019
6654 Clouds 33 1004 70 6000 6.2 280 14:39 07.06.2019
6655 Clouds 34 1004 66 6000 5.1 260 14:20 07.06.2019
6656 Clouds 34 1004 66 6000 5.7 280 13:28 07.06.2019
6657 Clouds 34 1005 63 6000 3.6 270 12:51 07.06.2019
6658 Clouds 34 1005 63 6000 3.6 270 12:29 07.06.2019
6659 Clouds 35 1006 59 6000 5.7 280 11:57 07.06.2019
6660 Clouds 35 1006 59 6000 5.7 260 11:34 07.06.2019
6661 Clouds 34 1006 63 6000 5.1 270 10:59 07.06.2019
6662 Clouds 35 1006 63 6000 6.2 260 10:41 07.06.2019
6663 Clouds 35 1007 63 6000 5.7 260 10:19 07.06.2019
6664 Clouds 35 1007 59 6000 5.7 250 09:48 07.06.2019
6665 Clouds 34 1007 63 6000 4.6 280 09:21 07.06.2019
6666 Clouds 34 1007 59 6000 4.6 250 08:46 07.06.2019
6667 Clouds 34 1007 59 6000 4.6 250 08:26 07.06.2019
6668 Haze 33 1008 66 4500 3.6 260 07:49 07.06.2019
6669 Haze 33 1008 63 5000 5.1 260 07:22 07.06.2019
6670 Haze 33 1008 70 4000 4.6 250 06:48 07.06.2019
6671 Haze 32 1008 74 4000 3.1 230 06:23 07.06.2019
6672 Haze 32 1008 74 4000 3.1 230 06:23 07.06.2019
6673 Haze 32 1007 74 4000 3.1 260 05:43 07.06.2019
6674 Haze 30 1005 79 3000 2.6 270 02:41 07.06.2019
6675 Haze 30 1005 79 3500 3.61 266.745 01:37 07.06.2019
6676 Haze 30 1005 79 3500 2.1 310 00:46 07.06.2019
6677 Haze 30 1005 79 3500 2.1 300 23:46 06.06.2019
6678 Haze 30 1005 79 3500 2.1 300 23:25 06.06.2019
6679 Haze 30 1005 74 3500 2.6 270 22:59 06.06.2019
6680 Haze 30 1006 74 3500 3.1 270 22:37 06.06.2019
6681 Haze 31 1006 74 3500 3.1 280 22:19 06.06.2019
6682 Haze 30 1006 79 3500 2.6 280 21:45 06.06.2019
6683 Haze 30 1006 74 3500 3.1 260 21:22 06.06.2019
6684 Haze 30 1006 74 3500 3.1 260 20:55 06.06.2019
6685 Haze 31 1006 74 3500 3.1 280 20:34 06.06.2019
6686 Haze 30 1006 74 3500 3.6 260 19:59 06.06.2019
6687 Haze 30 1006 79 3500 3.1 260 19:37 06.06.2019
6688 Haze 31 1006 74 4000 3.6 260 19:19 06.06.2019
6689 Haze 31 1006 70 4000 4.1 250 18:44 06.06.2019
6690 Haze 31 1006 70 4000 4.1 250 18:25 06.06.2019
6691 Haze 31 1005 70 4000 4.1 270 17:51 06.06.2019
6692 Haze 31 1005 70 4000 4.1 270 17:26 06.06.2019
6693 Haze 32 1005 70 5000 4.1 270 16:57 06.06.2019
6694 Haze 32 1005 70 5000 4.1 270 16:39 06.06.2019
6695 Haze 32 1005 70 5000 3.1 270 16:20 06.06.2019
6696 Haze 32 1005 74 5000 4.6 270 15:44 06.06.2019
6697 Haze 32 1005 70 5000 5.7 250 15:24 06.06.2019
6698 Haze 33 1005 70 5000 5.7 280 14:45 06.06.2019
6699 Clouds 33 1005 70 6000 5.1 260 14:20 06.06.2019
6700 Clouds 34 1005 66 6000 6.2 270 13:52 06.06.2019
6701 Clouds 34 1005 66 6000 6.2 270 13:30 06.06.2019
6702 Clouds 34 1006 63 6000 7.2 240 12:50 06.06.2019
6703 Clouds 34 1006 63 6000 7.2 240 12:29 06.06.2019
6704 Clouds 34 1006 63 6000 7.2 250 11:58 06.06.2019
6705 Clouds 34 1007 59 6000 7.2 230 11:40 06.06.2019
6706 Clouds 34 1007 63 6000 7.2 250 11:21 06.06.2019
6707 Haze 34 1008 66 5000 6.2 230 10:45 06.06.2019
6708 Haze 34 1008 66 5000 6.2 230 10:25 06.06.2019
6709 Haze 35 1008 59 5000 6.2 250 09:44 06.06.2019
6710 Haze 34 1008 63 5000 5.7 250 09:24 06.06.2019
6711 Haze 35 1008 59 5000 6.2 250 09:24 06.06.2019
6712 Haze 34 1008 63 4000 4.1 260 08:51 06.06.2019
6713 Haze 34 1008 63 4000 5.1 260 08:25 06.06.2019
6714 Haze 34 1008 63 4000 5.1 250 07:54 06.06.2019
6715 Haze 34 1008 63 4000 5.1 250 07:26 06.06.2019
6716 Haze 32 1007 70 4000 4.6 260 06:48 06.06.2019
6717 Haze 32 1007 70 4000 2.1 310 05:40 06.06.2019
6718 Haze 31 1006 74 4000 2.1 270 04:36 06.06.2019
6719 Haze 30 1005 79 4000 3.1 310 02:23 06.06.2019
6720 Haze 30 1005 79 4000 3.1 280 01:55 06.06.2019
6721 Haze 30 1005 79 4000 3.1 290 01:18 06.06.2019
6722 Haze 30 1005 79 4000 4.1 290 00:31 06.06.2019
6723 Haze 30 1005 79 4000 3.1 270 23:41 05.06.2019
6724 Haze 30 1005 79 4000 3.6 270 23:21 05.06.2019
6725 Haze 30 1005 79 4000 3.6 270 22:44 05.06.2019
6726 Haze 30 1005 79 4000 4.1 270 22:23 05.06.2019
6727 Haze 30 1005 79 4000 4.1 270 21:58 05.06.2019
6728 Haze 30 1005 79 4000 4.1 270 21:58 05.06.2019
6729 Haze 30 1005 79 4000 4.1 270 21:40 05.06.2019
6730 Haze 30 1005 79 4000 3.6 270 21:21 05.06.2019
6731 Haze 30 1006 79 4000 3.6 270 20:44 05.06.2019
6732 Haze 30 1006 79 4000 3.6 270 20:24 05.06.2019
6733 Haze 30 1006 79 4000 4.1 280 19:44 05.06.2019
6734 Haze 30 1006 79 4000 4.1 280 19:44 05.06.2019
6735 Haze 30 1005 79 4000 4.1 280 19:19 05.06.2019
6736 Haze 30 1005 79 4000 3.6 290 18:44 05.06.2019
6737 Haze 30 1005 79 4000 4.6 280 18:25 05.06.2019
6738 Haze 30 1004 79 4000 3.6 290 17:50 05.06.2019
6739 Haze 31 1004 74 5000 5.1 280 17:23 05.06.2019
6740 Haze 31 1003 74 5000 5.7 280 16:43 05.06.2019
6741 Haze 31 1004